<?xml version="1.0" encoding="UTF-8"?>
<gpx version="1.1" creator="https://www.youtrack.es" xsi:schemaLocation="http://www.topografix.com/GPX/1/1 http://www.topografix.com/GPX/1/1/gpx.xsd http://www.garmin.com/xmlschemas/GpxExtensions/v3 http://www.garmin.com/xmlschemas/GpxExtensionsv3.xsd http://www.garmin.com/xmlschemas/TrackPointExtension/v1 http://www.garmin.com/xmlschemas/TrackPointExtensionv1.xsd" xmlns:gpxtpx="http://www.garmin.com/xmlschemas/TrackPointExtension/v1" xmlns:gpxx="http://www.garmin.com/xmlschemas/GpxExtensions/v3" xmlns:xsi="http://www.w3.org/2001/XMLSchema-instance">
  <metadata>
    <link href="https://www.youtrack.es">
      <text>YouTrack.es</text>
    </link>
    <time>2026-05-08T00:14:48Z</time>
  </metadata>
  <trk>
    <src>https://www.youtrack.es</src>
    <link href="https://www.youtrack.es/ruta/11109-ezkaba-garrues-makirriain">
      <text>YouTrack.es</text>
    </link>
    <trkseg>
      <trkpt lat="42.817403376102447509765625" lon="-1.66082943789660930633544921875">
        <ele>428</ele>
        <time>2020-02-16T06:47:43.000Z</time>
      </trkpt>
      <trkpt lat="42.81738669611513614654541015625" lon="-1.6605436988174915313720703125">
        <ele>428</ele>
        <time>2020-02-16T06:47:48.000Z</time>
      </trkpt>
      <trkpt lat="42.8175192140042781829833984375" lon="-1.6604219935834407806396484375">
        <ele>427.79998779296875</ele>
        <time>2020-02-16T06:47:54.000Z</time>
      </trkpt>
      <trkpt lat="42.8176157735288143157958984375" lon="-1.66025879792869091033935546875">
        <ele>427.79998779296875</ele>
        <time>2020-02-16T06:47:59.000Z</time>
      </trkpt>
      <trkpt lat="42.8176278434693813323974609375" lon="-1.66007079184055328369140625">
        <ele>427.79998779296875</ele>
        <time>2020-02-16T06:48:02.000Z</time>
      </trkpt>
      <trkpt lat="42.81761862337589263916015625" lon="-1.660039611160755157470703125">
        <ele>427.79998779296875</ele>
        <time>2020-02-16T06:48:03.000Z</time>
      </trkpt>
      <trkpt lat="42.81756338663399219512939453125" lon="-1.65994875133037567138671875">
        <ele>427.79998779296875</ele>
        <time>2020-02-16T06:48:06.000Z</time>
      </trkpt>
      <trkpt lat="42.8175453655421733856201171875" lon="-1.6599060036242008209228515625">
        <ele>427.79998779296875</ele>
        <time>2020-02-16T06:48:07.000Z</time>
      </trkpt>
      <trkpt lat="42.81754863448441028594970703125" lon="-1.65982226841151714324951171875">
        <ele>427.79998779296875</ele>
        <time>2020-02-16T06:48:09.000Z</time>
      </trkpt>
      <trkpt lat="42.81755626201629638671875" lon="-1.65976359508931636810302734375">
        <ele>427.79998779296875</ele>
        <time>2020-02-16T06:48:10.000Z</time>
      </trkpt>
      <trkpt lat="42.81756690703332424163818359375" lon="-1.659556813538074493408203125">
        <ele>427.79998779296875</ele>
        <time>2020-02-16T06:48:13.000Z</time>
      </trkpt>
      <trkpt lat="42.81755802221596240997314453125" lon="-1.659477017819881439208984375">
        <ele>427.79998779296875</ele>
        <time>2020-02-16T06:48:14.000Z</time>
      </trkpt>
      <trkpt lat="42.81753455288708209991455078125" lon="-1.6590775363147258758544921875">
        <ele>427.600006103515625</ele>
        <time>2020-02-16T06:48:20.000Z</time>
      </trkpt>
      <trkpt lat="42.817647121846675872802734375" lon="-1.65887427516281604766845703125">
        <ele>427.600006103515625</ele>
        <time>2020-02-16T06:48:24.000Z</time>
      </trkpt>
      <trkpt lat="42.817829512059688568115234375" lon="-1.65871971286833286285400390625">
        <ele>427.79998779296875</ele>
        <time>2020-02-16T06:48:28.000Z</time>
      </trkpt>
      <trkpt lat="42.8179242275655269622802734375" lon="-1.6584847681224346160888671875">
        <ele>427.79998779296875</ele>
        <time>2020-02-16T06:48:32.000Z</time>
      </trkpt>
      <trkpt lat="42.8179943002760410308837890625" lon="-1.65815167129039764404296875">
        <ele>428</ele>
        <time>2020-02-16T06:48:38.000Z</time>
      </trkpt>
      <trkpt lat="42.81819202937185764312744140625" lon="-1.657945476472377777099609375">
        <ele>428.600006103515625</ele>
        <time>2020-02-16T06:48:44.000Z</time>
      </trkpt>
      <trkpt lat="42.81824626028537750244140625" lon="-1.657881438732147216796875">
        <ele>428.79998779296875</ele>
        <time>2020-02-16T06:48:46.000Z</time>
      </trkpt>
      <trkpt lat="42.8183030895888805389404296875" lon="-1.65774238295853137969970703125">
        <ele>429.20001220703125</ele>
        <time>2020-02-16T06:48:49.000Z</time>
      </trkpt>
      <trkpt lat="42.81839671544730663299560546875" lon="-1.6575010679662227630615234375">
        <ele>429.20001220703125</ele>
        <time>2020-02-16T06:48:53.000Z</time>
      </trkpt>
      <trkpt lat="42.8184586577117443084716796875" lon="-1.6573750041425228118896484375">
        <ele>429.20001220703125</ele>
        <time>2020-02-16T06:48:55.000Z</time>
      </trkpt>
      <trkpt lat="42.818585224449634552001953125" lon="-1.65708624757826328277587890625">
        <ele>429</ele>
        <time>2020-02-16T06:49:00.000Z</time>
      </trkpt>
      <trkpt lat="42.818644903600215911865234375" lon="-1.656909473240375518798828125">
        <ele>428.600006103515625</ele>
        <time>2020-02-16T06:49:03.000Z</time>
      </trkpt>
      <trkpt lat="42.81874590553343296051025390625" lon="-1.65662691928446292877197265625">
        <ele>428.399993896484375</ele>
        <time>2020-02-16T06:49:08.000Z</time>
      </trkpt>
      <trkpt lat="42.81877976842224597930908203125" lon="-1.65651242248713970184326171875">
        <ele>428.20001220703125</ele>
        <time>2020-02-16T06:49:10.000Z</time>
      </trkpt>
      <trkpt lat="42.81880256719887256622314453125" lon="-1.6564627178013324737548828125">
        <ele>428.20001220703125</ele>
        <time>2020-02-16T06:49:11.000Z</time>
      </trkpt>
      <trkpt lat="42.818884290754795074462890625" lon="-1.65640530176460742950439453125">
        <ele>428.20001220703125</ele>
        <time>2020-02-16T06:49:14.000Z</time>
      </trkpt>
      <trkpt lat="42.81906760297715663909912109375" lon="-1.65651577524840831756591796875">
        <ele>428.20001220703125</ele>
        <time>2020-02-16T06:49:17.000Z</time>
      </trkpt>
      <trkpt lat="42.819248400628566741943359375" lon="-1.656658016145229339599609375">
        <ele>427.600006103515625</ele>
        <time>2020-02-16T06:49:20.000Z</time>
      </trkpt>
      <trkpt lat="42.8193166293203830718994140625" lon="-1.65670520626008510589599609375">
        <ele>427.399993896484375</ele>
        <time>2020-02-16T06:49:21.000Z</time>
      </trkpt>
      <trkpt lat="42.81938192434608936309814453125" lon="-1.65675315074622631072998046875">
        <ele>427.20001220703125</ele>
        <time>2020-02-16T06:49:22.000Z</time>
      </trkpt>
      <trkpt lat="42.81947848387062549591064453125" lon="-1.65685490705072879791259765625">
        <ele>426.600006103515625</ele>
        <time>2020-02-16T06:49:24.000Z</time>
      </trkpt>
      <trkpt lat="42.81949893571436405181884765625" lon="-1.656922213733196258544921875">
        <ele>426.20001220703125</ele>
        <time>2020-02-16T06:49:25.000Z</time>
      </trkpt>
      <trkpt lat="42.8194685094058513641357421875" lon="-1.6571627743542194366455078125">
        <ele>425</ele>
        <time>2020-02-16T06:49:28.000Z</time>
      </trkpt>
      <trkpt lat="42.8194430284202098846435546875" lon="-1.657242737710475921630859375">
        <ele>424.20001220703125</ele>
        <time>2020-02-16T06:49:29.000Z</time>
      </trkpt>
      <trkpt lat="42.81941570341587066650390625" lon="-1.65732094086706638336181640625">
        <ele>423.79998779296875</ele>
        <time>2020-02-16T06:49:30.000Z</time>
      </trkpt>
      <trkpt lat="42.81919299624860286712646484375" lon="-1.6578172333538532257080078125">
        <ele>423.399993896484375</ele>
        <time>2020-02-16T06:49:37.000Z</time>
      </trkpt>
      <trkpt lat="42.81903080642223358154296875" lon="-1.65824026800692081451416015625">
        <ele>424.79998779296875</ele>
        <time>2020-02-16T06:49:44.000Z</time>
      </trkpt>
      <trkpt lat="42.8190091811120510101318359375" lon="-1.65827815420925617218017578125">
        <ele>425</ele>
        <time>2020-02-16T06:49:45.000Z</time>
      </trkpt>
      <trkpt lat="42.81890474259853363037109375" lon="-1.65833163075149059295654296875">
        <ele>425.600006103515625</ele>
        <time>2020-02-16T06:49:48.000Z</time>
      </trkpt>
      <trkpt lat="42.8188338316977024078369140625" lon="-1.65830128826200962066650390625">
        <ele>425.79998779296875</ele>
        <time>2020-02-16T06:49:50.000Z</time>
      </trkpt>
      <trkpt lat="42.818751521408557891845703125" lon="-1.65825803764164447784423828125">
        <ele>426</ele>
        <time>2020-02-16T06:49:52.000Z</time>
      </trkpt>
      <trkpt lat="42.81866778619587421417236328125" lon="-1.65826356969773769378662109375">
        <ele>426.399993896484375</ele>
        <time>2020-02-16T06:49:54.000Z</time>
      </trkpt>
      <trkpt lat="42.818634174764156341552734375" lon="-1.658299863338470458984375">
        <ele>426.600006103515625</ele>
        <time>2020-02-16T06:49:55.000Z</time>
      </trkpt>
      <trkpt lat="42.81857625581324100494384765625" lon="-1.65842098183929920196533203125">
        <ele>427</ele>
        <time>2020-02-16T06:49:57.000Z</time>
      </trkpt>
      <trkpt lat="42.818481624126434326171875" lon="-1.658632792532444000244140625">
        <ele>427</ele>
        <time>2020-02-16T06:50:00.000Z</time>
      </trkpt>
      <trkpt lat="42.8182494454085826873779296875" lon="-1.6591281630098819732666015625">
        <ele>427</ele>
        <time>2020-02-16T06:50:06.000Z</time>
      </trkpt>
      <trkpt lat="42.81812782399356365203857421875" lon="-1.65942748077213764190673828125">
        <ele>425.600006103515625</ele>
        <time>2020-02-16T06:50:09.000Z</time>
      </trkpt>
      <trkpt lat="42.81801248900592327117919921875" lon="-1.659741215407848358154296875">
        <ele>424.399993896484375</ele>
        <time>2020-02-16T06:50:12.000Z</time>
      </trkpt>
      <trkpt lat="42.81795130111277103424072265625" lon="-1.6599586419761180877685546875">
        <ele>423</ele>
        <time>2020-02-16T06:50:14.000Z</time>
      </trkpt>
      <trkpt lat="42.81792615540325641632080078125" lon="-1.66018453426659107208251953125">
        <ele>421.399993896484375</ele>
        <time>2020-02-16T06:50:16.000Z</time>
      </trkpt>
      <trkpt lat="42.81791743822395801544189453125" lon="-1.66043289005756378173828125">
        <ele>419.79998779296875</ele>
        <time>2020-02-16T06:50:18.000Z</time>
      </trkpt>
      <trkpt lat="42.81793537549674510955810546875" lon="-1.6607006080448627471923828125">
        <ele>418.20001220703125</ele>
        <time>2020-02-16T06:50:20.000Z</time>
      </trkpt>
      <trkpt lat="42.81795348040759563446044921875" lon="-1.66095734573900699615478515625">
        <ele>416.79998779296875</ele>
        <time>2020-02-16T06:50:22.000Z</time>
      </trkpt>
      <trkpt lat="42.81797292642295360565185546875" lon="-1.6612055338919162750244140625">
        <ele>415.399993896484375</ele>
        <time>2020-02-16T06:50:24.000Z</time>
      </trkpt>
      <trkpt lat="42.8179845772683620452880859375" lon="-1.6614368744194507598876953125">
        <ele>414</ele>
        <time>2020-02-16T06:50:26.000Z</time>
      </trkpt>
      <trkpt lat="42.81798868440091609954833984375" lon="-1.66154810227453708648681640625">
        <ele>413.399993896484375</ele>
        <time>2020-02-16T06:50:27.000Z</time>
      </trkpt>
      <trkpt lat="42.8179966472089290618896484375" lon="-1.661654300987720489501953125">
        <ele>412.79998779296875</ele>
        <time>2020-02-16T06:50:28.000Z</time>
      </trkpt>
      <trkpt lat="42.81801299192011356353759765625" lon="-1.6617550514638423919677734375">
        <ele>412.20001220703125</ele>
        <time>2020-02-16T06:50:29.000Z</time>
      </trkpt>
      <trkpt lat="42.81803796999156475067138671875" lon="-1.6618542931973934173583984375">
        <ele>411.600006103515625</ele>
        <time>2020-02-16T06:50:30.000Z</time>
      </trkpt>
      <trkpt lat="42.8180710785090923309326171875" lon="-1.66194993071258068084716796875">
        <ele>411</ele>
        <time>2020-02-16T06:50:31.000Z</time>
      </trkpt>
      <trkpt lat="42.8181585855782032012939453125" lon="-1.662102900445461273193359375">
        <ele>410.600006103515625</ele>
        <time>2020-02-16T06:50:33.000Z</time>
      </trkpt>
      <trkpt lat="42.81821633689105510711669921875" lon="-1.66213165037333965301513671875">
        <ele>410.20001220703125</ele>
        <time>2020-02-16T06:50:34.000Z</time>
      </trkpt>
      <trkpt lat="42.81833921559154987335205078125" lon="-1.66214145720005035400390625">
        <ele>409.20001220703125</ele>
        <time>2020-02-16T06:50:36.000Z</time>
      </trkpt>
      <trkpt lat="42.8184033371508121490478515625" lon="-1.66212175972759723663330078125">
        <ele>408.79998779296875</ele>
        <time>2020-02-16T06:50:37.000Z</time>
      </trkpt>
      <trkpt lat="42.81857860274612903594970703125" lon="-1.66194238699972629547119140625">
        <ele>408.20001220703125</ele>
        <time>2020-02-16T06:50:40.000Z</time>
      </trkpt>
      <trkpt lat="42.81872662715613842010498046875" lon="-1.661664359271526336669921875">
        <ele>407.399993896484375</ele>
        <time>2020-02-16T06:50:43.000Z</time>
      </trkpt>
      <trkpt lat="42.8187902458012104034423828125" lon="-1.6615582443773746490478515625">
        <ele>407</ele>
        <time>2020-02-16T06:50:44.000Z</time>
      </trkpt>
      <trkpt lat="42.8189528547227382659912109375" lon="-1.66119589470326900482177734375">
        <ele>405.600006103515625</ele>
        <time>2020-02-16T06:50:47.000Z</time>
      </trkpt>
      <trkpt lat="42.8190638311207294464111328125" lon="-1.6609403304755687713623046875">
        <ele>404.20001220703125</ele>
        <time>2020-02-16T06:50:49.000Z</time>
      </trkpt>
      <trkpt lat="42.81911923550069332122802734375" lon="-1.66081083007156848907470703125">
        <ele>403.20001220703125</ele>
        <time>2020-02-16T06:50:50.000Z</time>
      </trkpt>
      <trkpt lat="42.819184362888336181640625" lon="-1.66068694554269313812255859375">
        <ele>402.20001220703125</ele>
        <time>2020-02-16T06:50:51.000Z</time>
      </trkpt>
      <trkpt lat="42.819241695106029510498046875" lon="-1.660564653575420379638671875">
        <ele>400.79998779296875</ele>
        <time>2020-02-16T06:50:52.000Z</time>
      </trkpt>
      <trkpt lat="42.8192938305437564849853515625" lon="-1.660442613065242767333984375">
        <ele>399.399993896484375</ele>
        <time>2020-02-16T06:50:53.000Z</time>
      </trkpt>
      <trkpt lat="42.81934722326695919036865234375" lon="-1.6603277809917926788330078125">
        <ele>398.20001220703125</ele>
        <time>2020-02-16T06:50:54.000Z</time>
      </trkpt>
      <trkpt lat="42.81945937313139438629150390625" lon="-1.66010431945323944091796875">
        <ele>396.600006103515625</ele>
        <time>2020-02-16T06:50:56.000Z</time>
      </trkpt>
      <trkpt lat="42.8195129334926605224609375" lon="-1.6599990427494049072265625">
        <ele>396.20001220703125</ele>
        <time>2020-02-16T06:50:57.000Z</time>
      </trkpt>
      <trkpt lat="42.81970999203622341156005859375" lon="-1.65961615741252899169921875">
        <ele>395.79998779296875</ele>
        <time>2020-02-16T06:51:01.000Z</time>
      </trkpt>
      <trkpt lat="42.819800265133380889892578125" lon="-1.6594491899013519287109375">
        <ele>395.79998779296875</ele>
        <time>2020-02-16T06:51:03.000Z</time>
      </trkpt>
      <trkpt lat="42.82008332200348377227783203125" lon="-1.65883689187467098236083984375">
        <ele>396.79998779296875</ele>
        <time>2020-02-16T06:51:11.000Z</time>
      </trkpt>
      <trkpt lat="42.82009857706725597381591796875" lon="-1.65875793434679508209228515625">
        <ele>397</ele>
        <time>2020-02-16T06:51:12.000Z</time>
      </trkpt>
      <trkpt lat="42.82011936418712139129638671875" lon="-1.6586081497371196746826171875">
        <ele>397.20001220703125</ele>
        <time>2020-02-16T06:51:14.000Z</time>
      </trkpt>
      <trkpt lat="42.8201373852789402008056640625" lon="-1.65854503400623798370361328125">
        <ele>397</ele>
        <time>2020-02-16T06:51:15.000Z</time>
      </trkpt>
      <trkpt lat="42.82023738138377666473388671875" lon="-1.65841846726834774017333984375">
        <ele>397.600006103515625</ele>
        <time>2020-02-16T06:51:18.000Z</time>
      </trkpt>
      <trkpt lat="42.8203928656876087188720703125" lon="-1.65847144089639186859130859375">
        <ele>398</ele>
        <time>2020-02-16T06:51:21.000Z</time>
      </trkpt>
      <trkpt lat="42.8204850666224956512451171875" lon="-1.65867528878152370452880859375">
        <ele>398.399993896484375</ele>
        <time>2020-02-16T06:51:24.000Z</time>
      </trkpt>
      <trkpt lat="42.82051549293100833892822265625" lon="-1.65883387438952922821044921875">
        <ele>398.600006103515625</ele>
        <time>2020-02-16T06:51:26.000Z</time>
      </trkpt>
      <trkpt lat="42.82058523036539554595947265625" lon="-1.659152470529079437255859375">
        <ele>398.600006103515625</ele>
        <time>2020-02-16T06:51:30.000Z</time>
      </trkpt>
      <trkpt lat="42.820639796555042266845703125" lon="-1.6593016684055328369140625">
        <ele>398.399993896484375</ele>
        <time>2020-02-16T06:51:32.000Z</time>
      </trkpt>
      <trkpt lat="42.82078170217573642730712890625" lon="-1.65963493287563323974609375">
        <ele>397.600006103515625</ele>
        <time>2020-02-16T06:51:37.000Z</time>
      </trkpt>
      <trkpt lat="42.82081137411296367645263671875" lon="-1.65970190428197383880615234375">
        <ele>397.399993896484375</ele>
        <time>2020-02-16T06:51:38.000Z</time>
      </trkpt>
      <trkpt lat="42.8209638409316539764404296875" lon="-1.66012108325958251953125">
        <ele>397</ele>
        <time>2020-02-16T06:51:44.000Z</time>
      </trkpt>
      <trkpt lat="42.8211187385022640228271484375" lon="-1.6604069061577320098876953125">
        <ele>396.79998779296875</ele>
        <time>2020-02-16T06:51:50.000Z</time>
      </trkpt>
      <trkpt lat="42.8211965225636959075927734375" lon="-1.66049533523619174957275390625">
        <ele>396.600006103515625</ele>
        <time>2020-02-16T06:51:52.000Z</time>
      </trkpt>
      <trkpt lat="42.82129199244081974029541015625" lon="-1.66056222282350063323974609375">
        <ele>396.600006103515625</ele>
        <time>2020-02-16T06:51:54.000Z</time>
      </trkpt>
      <trkpt lat="42.82134379260241985321044921875" lon="-1.66058183647692203521728515625">
        <ele>396.399993896484375</ele>
        <time>2020-02-16T06:51:55.000Z</time>
      </trkpt>
      <trkpt lat="42.82148636877536773681640625" lon="-1.660589464008808135986328125">
        <ele>396.20001220703125</ele>
        <time>2020-02-16T06:51:58.000Z</time>
      </trkpt>
      <trkpt lat="42.82157085835933685302734375" lon="-1.660559959709644317626953125">
        <ele>395.20001220703125</ele>
        <time>2020-02-16T06:52:00.000Z</time>
      </trkpt>
      <trkpt lat="42.82165710814297199249267578125" lon="-1.6605193912982940673828125">
        <ele>395</ele>
        <time>2020-02-16T06:52:02.000Z</time>
      </trkpt>
      <trkpt lat="42.82170941121876239776611328125" lon="-1.66049726307392120361328125">
        <ele>394.79998779296875</ele>
        <time>2020-02-16T06:52:03.000Z</time>
      </trkpt>
      <trkpt lat="42.8220025263726711273193359375" lon="-1.660338342189788818359375">
        <ele>394.600006103515625</ele>
        <time>2020-02-16T06:52:08.000Z</time>
      </trkpt>
      <trkpt lat="42.822117023169994354248046875" lon="-1.66025259532034397125244140625">
        <ele>394.600006103515625</ele>
        <time>2020-02-16T06:52:10.000Z</time>
      </trkpt>
      <trkpt lat="42.82243377529084682464599609375" lon="-1.6599569655954837799072265625">
        <ele>394</ele>
        <time>2020-02-16T06:52:16.000Z</time>
      </trkpt>
      <trkpt lat="42.82252815552055835723876953125" lon="-1.65985059924423694610595703125">
        <ele>394</ele>
        <time>2020-02-16T06:52:18.000Z</time>
      </trkpt>
      <trkpt lat="42.8229449875652790069580078125" lon="-1.659360341727733612060546875">
        <ele>394</ele>
        <time>2020-02-16T06:52:27.000Z</time>
      </trkpt>
      <trkpt lat="42.8230831213295459747314453125" lon="-1.65919781662523746490478515625">
        <ele>394</ele>
        <time>2020-02-16T06:52:30.000Z</time>
      </trkpt>
      <trkpt lat="42.823508083820343017578125" lon="-1.6586701758205890655517578125">
        <ele>394</ele>
        <time>2020-02-16T06:52:39.000Z</time>
      </trkpt>
      <trkpt lat="42.8235981054604053497314453125" lon="-1.65854402817785739898681640625">
        <ele>394</ele>
        <time>2020-02-16T06:52:41.000Z</time>
      </trkpt>
      <trkpt lat="42.82389122061431407928466796875" lon="-1.65804614312946796417236328125">
        <ele>394.20001220703125</ele>
        <time>2020-02-16T06:52:48.000Z</time>
      </trkpt>
      <trkpt lat="42.82397319562733173370361328125" lon="-1.657797954976558685302734375">
        <ele>394.20001220703125</ele>
        <time>2020-02-16T06:52:51.000Z</time>
      </trkpt>
      <trkpt lat="42.82402700744569301605224609375" lon="-1.6575470007956027984619140625">
        <ele>394.399993896484375</ele>
        <time>2020-02-16T06:52:54.000Z</time>
      </trkpt>
      <trkpt lat="42.82402466051280498504638671875" lon="-1.65713771246373653411865234375">
        <ele>394.600006103515625</ele>
        <time>2020-02-16T06:52:59.000Z</time>
      </trkpt>
      <trkpt lat="42.8239219821989536285400390625" lon="-1.65686245076358318328857421875">
        <ele>394.79998779296875</ele>
        <time>2020-02-16T06:53:03.000Z</time>
      </trkpt>
      <trkpt lat="42.82379633747041225433349609375" lon="-1.6566933877766132354736328125">
        <ele>394.79998779296875</ele>
        <time>2020-02-16T06:53:06.000Z</time>
      </trkpt>
      <trkpt lat="42.8237533383071422576904296875" lon="-1.65664133615791797637939453125">
        <ele>395</ele>
        <time>2020-02-16T06:53:07.000Z</time>
      </trkpt>
      <trkpt lat="42.82367262057960033416748046875" lon="-1.65653388015925884246826171875">
        <ele>395</ele>
        <time>2020-02-16T06:53:09.000Z</time>
      </trkpt>
      <trkpt lat="42.82364361919462680816650390625" lon="-1.65648124180734157562255859375">
        <ele>395</ele>
        <time>2020-02-16T06:53:10.000Z</time>
      </trkpt>
      <trkpt lat="42.823601625859737396240234375" lon="-1.6563378274440765380859375">
        <ele>395.399993896484375</ele>
        <time>2020-02-16T06:53:13.000Z</time>
      </trkpt>
      <trkpt lat="42.82361445017158985137939453125" lon="-1.65622492320835590362548828125">
        <ele>396</ele>
        <time>2020-02-16T06:53:16.000Z</time>
      </trkpt>
      <trkpt lat="42.82364496029913425445556640625" lon="-1.65615736506879329681396484375">
        <ele>396.79998779296875</ele>
        <time>2020-02-16T06:53:18.000Z</time>
      </trkpt>
      <trkpt lat="42.8236691839993000030517578125" lon="-1.65612635202705860137939453125">
        <ele>397.20001220703125</ele>
        <time>2020-02-16T06:53:19.000Z</time>
      </trkpt>
      <trkpt lat="42.82379264943301677703857421875" lon="-1.6560412757098674774169921875">
        <ele>398</ele>
        <time>2020-02-16T06:53:23.000Z</time>
      </trkpt>
      <trkpt lat="42.82396414317190647125244140625" lon="-1.65595971979200839996337890625">
        <ele>398.20001220703125</ele>
        <time>2020-02-16T06:53:27.000Z</time>
      </trkpt>
      <trkpt lat="42.82408945262432098388671875" lon="-1.65588780306279659271240234375">
        <ele>398.20001220703125</ele>
        <time>2020-02-16T06:53:30.000Z</time>
      </trkpt>
      <trkpt lat="42.824223227798938751220703125" lon="-1.65580130182206630706787109375">
        <ele>398.399993896484375</ele>
        <time>2020-02-16T06:53:34.000Z</time>
      </trkpt>
      <trkpt lat="42.82430511899292469024658203125" lon="-1.6557371802628040313720703125">
        <ele>399.399993896484375</ele>
        <time>2020-02-16T06:53:37.000Z</time>
      </trkpt>
      <trkpt lat="42.8243880160152912139892578125" lon="-1.6556396149098873138427734375">
        <ele>399.600006103515625</ele>
        <time>2020-02-16T06:53:40.000Z</time>
      </trkpt>
      <trkpt lat="42.82440603710711002349853515625" lon="-1.6555859707295894622802734375">
        <ele>399.600006103515625</ele>
        <time>2020-02-16T06:53:42.000Z</time>
      </trkpt>
      <trkpt lat="42.8243149258196353912353515625" lon="-1.6554607450962066650390625">
        <ele>399.600006103515625</ele>
        <time>2020-02-16T06:53:47.000Z</time>
      </trkpt>
      <trkpt lat="42.8242864273488521575927734375" lon="-1.6554357670247554779052734375">
        <ele>399.600006103515625</ele>
        <time>2020-02-16T06:53:48.000Z</time>
      </trkpt>
      <trkpt lat="42.82409993000328540802001953125" lon="-1.655242145061492919921875">
        <ele>399</ele>
        <time>2020-02-16T06:53:53.000Z</time>
      </trkpt>
      <trkpt lat="42.82398308627307415008544921875" lon="-1.655072160065174102783203125">
        <ele>398.20001220703125</ele>
        <time>2020-02-16T06:53:56.000Z</time>
      </trkpt>
      <trkpt lat="42.82394268549978733062744140625" lon="-1.65502949617803096771240234375">
        <ele>397.79998779296875</ele>
        <time>2020-02-16T06:53:57.000Z</time>
      </trkpt>
      <trkpt lat="42.8238379955291748046875" lon="-1.6549432463943958282470703125">
        <ele>397.20001220703125</ele>
        <time>2020-02-16T06:53:59.000Z</time>
      </trkpt>
      <trkpt lat="42.82351906411349773406982421875" lon="-1.654852889478206634521484375">
        <ele>396.600006103515625</ele>
        <time>2020-02-16T06:54:04.000Z</time>
      </trkpt>
      <trkpt lat="42.82344798557460308074951171875" lon="-1.654854901134967803955078125">
        <ele>396.600006103515625</ele>
        <time>2020-02-16T06:54:05.000Z</time>
      </trkpt>
      <trkpt lat="42.8231867216527462005615234375" lon="-1.65489136241376399993896484375">
        <ele>396.20001220703125</ele>
        <time>2020-02-16T06:54:09.000Z</time>
      </trkpt>
      <trkpt lat="42.82313316129148006439208984375" lon="-1.65487996302545070648193359375">
        <ele>395.79998779296875</ele>
        <time>2020-02-16T06:54:10.000Z</time>
      </trkpt>
      <trkpt lat="42.82295479439198970794677734375" lon="-1.65474685840308666229248046875">
        <ele>395.600006103515625</ele>
        <time>2020-02-16T06:54:14.000Z</time>
      </trkpt>
      <trkpt lat="42.8229010663926601409912109375" lon="-1.65469706989824771881103515625">
        <ele>395.600006103515625</ele>
        <time>2020-02-16T06:54:15.000Z</time>
      </trkpt>
      <trkpt lat="42.82263142056763172149658203125" lon="-1.65447293780744075775146484375">
        <ele>395.399993896484375</ele>
        <time>2020-02-16T06:54:21.000Z</time>
      </trkpt>
      <trkpt lat="42.82255522906780242919921875" lon="-1.654347293078899383544921875">
        <ele>395.600006103515625</ele>
        <time>2020-02-16T06:54:24.000Z</time>
      </trkpt>
      <trkpt lat="42.822502590715885162353515625" lon="-1.654290966689586639404296875">
        <ele>395.600006103515625</ele>
        <time>2020-02-16T06:54:25.000Z</time>
      </trkpt>
      <trkpt lat="42.8223066218197345733642578125" lon="-1.65414151735603809356689453125">
        <ele>395.79998779296875</ele>
        <time>2020-02-16T06:54:28.000Z</time>
      </trkpt>
      <trkpt lat="42.82192834652960300445556640625" lon="-1.65394730865955352783203125">
        <ele>396.20001220703125</ele>
        <time>2020-02-16T06:54:35.000Z</time>
      </trkpt>
      <trkpt lat="42.82183782197535037994384765625" lon="-1.6538961790502071380615234375">
        <ele>396.399993896484375</ele>
        <time>2020-02-16T06:54:37.000Z</time>
      </trkpt>
      <trkpt lat="42.82169549725949764251708984375" lon="-1.65378243662416934967041015625">
        <ele>396.399993896484375</ele>
        <time>2020-02-16T06:54:40.000Z</time>
      </trkpt>
      <trkpt lat="42.82135200686752796173095703125" lon="-1.6534147225320339202880859375">
        <ele>396.20001220703125</ele>
        <time>2020-02-16T06:54:47.000Z</time>
      </trkpt>
      <trkpt lat="42.8210540302097797393798828125" lon="-1.6530459187924861907958984375">
        <ele>395.79998779296875</ele>
        <time>2020-02-16T06:54:52.000Z</time>
      </trkpt>
      <trkpt lat="42.82062982209026813507080078125" lon="-1.652531437575817108154296875">
        <ele>395.600006103515625</ele>
        <time>2020-02-16T06:55:00.000Z</time>
      </trkpt>
      <trkpt lat="42.82036679796874523162841796875" lon="-1.6521493904292583465576171875">
        <ele>395.600006103515625</ele>
        <time>2020-02-16T06:55:06.000Z</time>
      </trkpt>
      <trkpt lat="42.82030309550464153289794921875" lon="-1.6520528309047222137451171875">
        <ele>395.79998779296875</ele>
        <time>2020-02-16T06:55:08.000Z</time>
      </trkpt>
      <trkpt lat="42.82023151405155658721923828125" lon="-1.6519968397915363311767578125">
        <ele>396</ele>
        <time>2020-02-16T06:55:10.000Z</time>
      </trkpt>
      <trkpt lat="42.82017074525356292724609375" lon="-1.65196205489337444305419921875">
        <ele>396.79998779296875</ele>
        <time>2020-02-16T06:55:12.000Z</time>
      </trkpt>
      <trkpt lat="42.82012539915740489959716796875" lon="-1.651919893920421600341796875">
        <ele>396.79998779296875</ele>
        <time>2020-02-16T06:55:14.000Z</time>
      </trkpt>
      <trkpt lat="42.82003923319280147552490234375" lon="-1.6517038084566593170166015625">
        <ele>397</ele>
        <time>2020-02-16T06:55:19.000Z</time>
      </trkpt>
      <trkpt lat="42.82002632506191730499267578125" lon="-1.65165209211409091949462890625">
        <ele>397</ele>
        <time>2020-02-16T06:55:20.000Z</time>
      </trkpt>
      <trkpt lat="42.81997284851968288421630859375" lon="-1.651361323893070220947265625">
        <ele>396.79998779296875</ele>
        <time>2020-02-16T06:55:25.000Z</time>
      </trkpt>
      <trkpt lat="42.81983018852770328521728515625" lon="-1.65084809996187686920166015625">
        <ele>396.600006103515625</ele>
        <time>2020-02-16T06:55:29.000Z</time>
      </trkpt>
      <trkpt lat="42.81974234618246555328369140625" lon="-1.65007059462368488311767578125">
        <ele>396.600006103515625</ele>
        <time>2020-02-16T06:55:36.000Z</time>
      </trkpt>
      <trkpt lat="42.81977243721485137939453125" lon="-1.64982341229915618896484375">
        <ele>396.600006103515625</ele>
        <time>2020-02-16T06:55:39.000Z</time>
      </trkpt>
      <trkpt lat="42.81982650049030780792236328125" lon="-1.649680249392986297607421875">
        <ele>396.600006103515625</ele>
        <time>2020-02-16T06:55:41.000Z</time>
      </trkpt>
      <trkpt lat="42.8200743533670902252197265625" lon="-1.649142466485500335693359375">
        <ele>396.600006103515625</ele>
        <time>2020-02-16T06:55:48.000Z</time>
      </trkpt>
      <trkpt lat="42.82023587264120578765869140625" lon="-1.64882403798401355743408203125">
        <ele>397</ele>
        <time>2020-02-16T06:55:53.000Z</time>
      </trkpt>
      <trkpt lat="42.82050996087491512298583984375" lon="-1.6484100557863712310791015625">
        <ele>396.600006103515625</ele>
        <time>2020-02-16T06:56:01.000Z</time>
      </trkpt>
      <trkpt lat="42.82080919481813907623291015625" lon="-1.6479701735079288482666015625">
        <ele>396.79998779296875</ele>
        <time>2020-02-16T06:56:08.000Z</time>
      </trkpt>
      <trkpt lat="42.82114815898239612579345703125" lon="-1.6473676823079586029052734375">
        <ele>396.79998779296875</ele>
        <time>2020-02-16T06:56:16.000Z</time>
      </trkpt>
      <trkpt lat="42.8212193213403224945068359375" lon="-1.6472104378044605255126953125">
        <ele>397</ele>
        <time>2020-02-16T06:56:18.000Z</time>
      </trkpt>
      <trkpt lat="42.8213663399219512939453125" lon="-1.64680726826190948486328125">
        <ele>397.399993896484375</ele>
        <time>2020-02-16T06:56:23.000Z</time>
      </trkpt>
      <trkpt lat="42.8215596266090869903564453125" lon="-1.64627191610634326934814453125">
        <ele>397.600006103515625</ele>
        <time>2020-02-16T06:56:30.000Z</time>
      </trkpt>
      <trkpt lat="42.82181049697101116180419921875" lon="-1.64572373963892459869384765625">
        <ele>397.79998779296875</ele>
        <time>2020-02-16T06:56:38.000Z</time>
      </trkpt>
      <trkpt lat="42.82204502262175083160400390625" lon="-1.645425595343112945556640625">
        <ele>398.20001220703125</ele>
        <time>2020-02-16T06:56:44.000Z</time>
      </trkpt>
      <trkpt lat="42.82218508422374725341796875" lon="-1.64532023482024669647216796875">
        <ele>398.20001220703125</ele>
        <time>2020-02-16T06:56:47.000Z</time>
      </trkpt>
      <trkpt lat="42.82226513139903545379638671875" lon="-1.64527279324829578399658203125">
        <ele>398.20001220703125</ele>
        <time>2020-02-16T06:56:49.000Z</time>
      </trkpt>
      <trkpt lat="42.82230452634394168853759765625" lon="-1.64525954984128475189208984375">
        <ele>398.20001220703125</ele>
        <time>2020-02-16T06:56:50.000Z</time>
      </trkpt>
      <trkpt lat="42.8225325979292392730712890625" lon="-1.6452396847307682037353515625">
        <ele>399.20001220703125</ele>
        <time>2020-02-16T06:56:56.000Z</time>
      </trkpt>
      <trkpt lat="42.822574339807033538818359375" lon="-1.64523993618786334991455078125">
        <ele>399.20001220703125</ele>
        <time>2020-02-16T06:56:57.000Z</time>
      </trkpt>
      <trkpt lat="42.82267198897898197174072265625" lon="-1.6452567838132381439208984375">
        <ele>399.399993896484375</ele>
        <time>2020-02-16T06:56:59.000Z</time>
      </trkpt>
      <trkpt lat="42.82282403670251369476318359375" lon="-1.645314954221248626708984375">
        <ele>399.600006103515625</ele>
        <time>2020-02-16T06:57:02.000Z</time>
      </trkpt>
      <trkpt lat="42.8231870569288730621337890625" lon="-1.64542132057249546051025390625">
        <ele>399.399993896484375</ele>
        <time>2020-02-16T06:57:08.000Z</time>
      </trkpt>
      <trkpt lat="42.823500372469425201416015625" lon="-1.645441018044948577880859375">
        <ele>398.20001220703125</ele>
        <time>2020-02-16T06:57:13.000Z</time>
      </trkpt>
      <trkpt lat="42.8236534260213375091552734375" lon="-1.6453704424202442169189453125">
        <ele>398.20001220703125</ele>
        <time>2020-02-16T06:57:16.000Z</time>
      </trkpt>
      <trkpt lat="42.8240537457168102264404296875" lon="-1.6452973522245883941650390625">
        <ele>398.20001220703125</ele>
        <time>2020-02-16T06:57:22.000Z</time>
      </trkpt>
      <trkpt lat="42.82464944757521152496337890625" lon="-1.64516902528703212738037109375">
        <ele>398.20001220703125</ele>
        <time>2020-02-16T06:57:31.000Z</time>
      </trkpt>
      <trkpt lat="42.82503820024430751800537109375" lon="-1.645060479640960693359375">
        <ele>398.20001220703125</ele>
        <time>2020-02-16T06:57:38.000Z</time>
      </trkpt>
      <trkpt lat="42.82523634843528270721435546875" lon="-1.64506056345999240875244140625">
        <ele>398.79998779296875</ele>
        <time>2020-02-16T06:57:42.000Z</time>
      </trkpt>
      <trkpt lat="42.82532167620956897735595703125" lon="-1.6450173966586589813232421875">
        <ele>399</ele>
        <time>2020-02-16T06:57:44.000Z</time>
      </trkpt>
      <trkpt lat="42.8254548646509647369384765625" lon="-1.64491673000156879425048828125">
        <ele>399.20001220703125</ele>
        <time>2020-02-16T06:57:47.000Z</time>
      </trkpt>
      <trkpt lat="42.8255400247871875762939453125" lon="-1.644849590957164764404296875">
        <ele>399.600006103515625</ele>
        <time>2020-02-16T06:57:49.000Z</time>
      </trkpt>
      <trkpt lat="42.8255886398255825042724609375" lon="-1.644824109971523284912109375">
        <ele>399.79998779296875</ele>
        <time>2020-02-16T06:57:50.000Z</time>
      </trkpt>
      <trkpt lat="42.82575686462223529815673828125" lon="-1.6447431407868862152099609375">
        <ele>400</ele>
        <time>2020-02-16T06:57:54.000Z</time>
      </trkpt>
      <trkpt lat="42.82618987374007701873779296875" lon="-1.64452747441828250885009765625">
        <ele>400.20001220703125</ele>
        <time>2020-02-16T06:58:02.000Z</time>
      </trkpt>
      <trkpt lat="42.826713658869266510009765625" lon="-1.6443042643368244171142578125">
        <ele>400.399993896484375</ele>
        <time>2020-02-16T06:58:11.000Z</time>
      </trkpt>
      <trkpt lat="42.82682404853403568267822265625" lon="-1.64427568204700946807861328125">
        <ele>400.399993896484375</ele>
        <time>2020-02-16T06:58:13.000Z</time>
      </trkpt>
      <trkpt lat="42.82688087783753871917724609375" lon="-1.64426059462130069732666015625">
        <ele>400.399993896484375</ele>
        <time>2020-02-16T06:58:14.000Z</time>
      </trkpt>
      <trkpt lat="42.8273065946996212005615234375" lon="-1.64416302926838397979736328125">
        <ele>401</ele>
        <time>2020-02-16T06:58:23.000Z</time>
      </trkpt>
      <trkpt lat="42.82733333297073841094970703125" lon="-1.6441185213625431060791015625">
        <ele>401.20001220703125</ele>
        <time>2020-02-16T06:58:25.000Z</time>
      </trkpt>
      <trkpt lat="42.82732545398175716400146484375" lon="-1.64409396238625049591064453125">
        <ele>401.399993896484375</ele>
        <time>2020-02-16T06:58:26.000Z</time>
      </trkpt>
      <trkpt lat="42.827274911105632781982421875" lon="-1.64394862018525600433349609375">
        <ele>402.20001220703125</ele>
        <time>2020-02-16T06:58:31.000Z</time>
      </trkpt>
      <trkpt lat="42.82723224721848964691162109375" lon="-1.6437986679375171661376953125">
        <ele>402.600006103515625</ele>
        <time>2020-02-16T06:58:36.000Z</time>
      </trkpt>
      <trkpt lat="42.8272264637053012847900390625" lon="-1.64374946616590023040771484375">
        <ele>402.600006103515625</ele>
        <time>2020-02-16T06:58:37.000Z</time>
      </trkpt>
      <trkpt lat="42.82725655473768711090087890625" lon="-1.64362658746540546417236328125">
        <ele>402.600006103515625</ele>
        <time>2020-02-16T06:58:40.000Z</time>
      </trkpt>
      <trkpt lat="42.82728136517107486724853515625" lon="-1.643592976033687591552734375">
        <ele>402.600006103515625</ele>
        <time>2020-02-16T06:58:41.000Z</time>
      </trkpt>
      <trkpt lat="42.8274229355156421661376953125" lon="-1.64344511926174163818359375">
        <ele>402.20001220703125</ele>
        <time>2020-02-16T06:58:46.000Z</time>
      </trkpt>
      <trkpt lat="42.82739217393100261688232421875" lon="-1.64331679232418537139892578125">
        <ele>401</ele>
        <time>2020-02-16T06:58:50.000Z</time>
      </trkpt>
      <trkpt lat="42.82736619003117084503173828125" lon="-1.6432779841125011444091796875">
        <ele>400.79998779296875</ele>
        <time>2020-02-16T06:58:51.000Z</time>
      </trkpt>
      <trkpt lat="42.827225960791110992431640625" lon="-1.6430278681218624114990234375">
        <ele>400.20001220703125</ele>
        <time>2020-02-16T06:58:56.000Z</time>
      </trkpt>
      <trkpt lat="42.82720140181481838226318359375" lon="-1.64296257309615612030029296875">
        <ele>400</ele>
        <time>2020-02-16T06:58:57.000Z</time>
      </trkpt>
      <trkpt lat="42.82715379260480403900146484375" lon="-1.6428327374160289764404296875">
        <ele>399.79998779296875</ele>
        <time>2020-02-16T06:58:59.000Z</time>
      </trkpt>
      <trkpt lat="42.82704365439713001251220703125" lon="-1.642570383846759796142578125">
        <ele>399.600006103515625</ele>
        <time>2020-02-16T06:59:03.000Z</time>
      </trkpt>
      <trkpt lat="42.82698246650397777557373046875" lon="-1.642468459904193878173828125">
        <ele>399.600006103515625</ele>
        <time>2020-02-16T06:59:05.000Z</time>
      </trkpt>
      <trkpt lat="42.826811559498310089111328125" lon="-1.6423097066581249237060546875">
        <ele>399.600006103515625</ele>
        <time>2020-02-16T06:59:09.000Z</time>
      </trkpt>
      <trkpt lat="42.82661818899214267730712890625" lon="-1.64240777492523193359375">
        <ele>400.20001220703125</ele>
        <time>2020-02-16T06:59:14.000Z</time>
      </trkpt>
      <trkpt lat="42.82651207409799098968505859375" lon="-1.64235907606780529022216796875">
        <ele>400.600006103515625</ele>
        <time>2020-02-16T06:59:18.000Z</time>
      </trkpt>
      <trkpt lat="42.82650134526193141937255859375" lon="-1.642344407737255096435546875">
        <ele>400.79998779296875</ele>
        <time>2020-02-16T06:59:20.000Z</time>
      </trkpt>
      <trkpt lat="42.82649598084390163421630859375" lon="-1.6423328407108783721923828125">
        <ele>400.79998779296875</ele>
        <time>2020-02-16T06:59:22.000Z</time>
      </trkpt>
      <trkpt lat="42.826501429080963134765625" lon="-1.64245177991688251495361328125">
        <ele>401.399993896484375</ele>
        <time>2020-02-16T06:59:55.000Z</time>
      </trkpt>
      <trkpt lat="42.82641232945024967193603515625" lon="-1.64266166277229785919189453125">
        <ele>401.20001220703125</ele>
        <time>2020-02-16T06:59:59.000Z</time>
      </trkpt>
      <trkpt lat="42.82632448710501194000244140625" lon="-1.642792336642742156982421875">
        <ele>401</ele>
        <time>2020-02-16T07:00:01.000Z</time>
      </trkpt>
      <trkpt lat="42.8261793963611125946044921875" lon="-1.64299006573855876922607421875">
        <ele>400.20001220703125</ele>
        <time>2020-02-16T07:00:04.000Z</time>
      </trkpt>
      <trkpt lat="42.82604000531136989593505859375" lon="-1.64321302436292171478271484375">
        <ele>399.600006103515625</ele>
        <time>2020-02-16T07:00:07.000Z</time>
      </trkpt>
      <trkpt lat="42.82591494731605052947998046875" lon="-1.643389128148555755615234375">
        <ele>399.399993896484375</ele>
        <time>2020-02-16T07:00:10.000Z</time>
      </trkpt>
      <trkpt lat="42.82574831508100032806396484375" lon="-1.64348862133920192718505859375">
        <ele>399.20001220703125</ele>
        <time>2020-02-16T07:00:14.000Z</time>
      </trkpt>
      <trkpt lat="42.82562325708568096160888671875" lon="-1.643482334911823272705078125">
        <ele>399.399993896484375</ele>
        <time>2020-02-16T07:00:19.000Z</time>
      </trkpt>
      <trkpt lat="42.82540935091674327850341796875" lon="-1.643435396254062652587890625">
        <ele>399.399993896484375</ele>
        <time>2020-02-16T07:00:25.000Z</time>
      </trkpt>
      <trkpt lat="42.82534145750105381011962890625" lon="-1.64341335184872150421142578125">
        <ele>399.399993896484375</ele>
        <time>2020-02-16T07:00:26.000Z</time>
      </trkpt>
      <trkpt lat="42.8250548802316188812255859375" lon="-1.643295250833034515380859375">
        <ele>398.79998779296875</ele>
        <time>2020-02-16T07:00:30.000Z</time>
      </trkpt>
      <trkpt lat="42.82498824410140514373779296875" lon="-1.64326884783804416656494140625">
        <ele>398.600006103515625</ele>
        <time>2020-02-16T07:00:31.000Z</time>
      </trkpt>
      <trkpt lat="42.8246025927364826202392578125" lon="-1.64318284951150417327880859375">
        <ele>398</ele>
        <time>2020-02-16T07:00:37.000Z</time>
      </trkpt>
      <trkpt lat="42.824540399014949798583984375" lon="-1.6431941650807857513427734375">
        <ele>398</ele>
        <time>2020-02-16T07:00:38.000Z</time>
      </trkpt>
      <trkpt lat="42.82406556420028209686279296875" lon="-1.64329751394689083099365234375">
        <ele>398.20001220703125</ele>
        <time>2020-02-16T07:00:46.000Z</time>
      </trkpt>
      <trkpt lat="42.82394821755588054656982421875" lon="-1.64336188696324825286865234375">
        <ele>398.20001220703125</ele>
        <time>2020-02-16T07:00:50.000Z</time>
      </trkpt>
      <trkpt lat="42.82395592890679836273193359375" lon="-1.6435193829238414764404296875">
        <ele>399.79998779296875</ele>
        <time>2020-02-16T07:00:54.000Z</time>
      </trkpt>
      <trkpt lat="42.82395509071648120880126953125" lon="-1.64355374872684478759765625">
        <ele>400.20001220703125</ele>
        <time>2020-02-16T07:00:55.000Z</time>
      </trkpt>
      <trkpt lat="42.8239488042891025543212890625" lon="-1.64365701377391815185546875">
        <ele>401</ele>
        <time>2020-02-16T07:00:58.000Z</time>
      </trkpt>
      <trkpt lat="42.82394905574619770050048828125" lon="-1.6437406651675701141357421875">
        <ele>401.399993896484375</ele>
        <time>2020-02-16T07:01:00.000Z</time>
      </trkpt>
      <trkpt lat="42.8239519894123077392578125" lon="-1.64379489608108997344970703125">
        <ele>401.600006103515625</ele>
        <time>2020-02-16T07:01:01.000Z</time>
      </trkpt>
      <trkpt lat="42.823953665792942047119140625" lon="-1.64385876618325710296630859375">
        <ele>401.79998779296875</ele>
        <time>2020-02-16T07:01:02.000Z</time>
      </trkpt>
      <trkpt lat="42.8239866904914379119873046875" lon="-1.64426947943866252899169921875">
        <ele>402</ele>
        <time>2020-02-16T07:01:07.000Z</time>
      </trkpt>
      <trkpt lat="42.82398224808275699615478515625" lon="-1.64439772255718708038330078125">
        <ele>402</ele>
        <time>2020-02-16T07:01:09.000Z</time>
      </trkpt>
      <trkpt lat="42.82396338880062103271484375" lon="-1.64443745277822017669677734375">
        <ele>402</ele>
        <time>2020-02-16T07:01:10.000Z</time>
      </trkpt>
      <trkpt lat="42.8239052183926105499267578125" lon="-1.64447433315217494964599609375">
        <ele>400.600006103515625</ele>
        <time>2020-02-16T07:01:12.000Z</time>
      </trkpt>
      <trkpt lat="42.82386909238994121551513671875" lon="-1.64448053576052188873291015625">
        <ele>400</ele>
        <time>2020-02-16T07:01:13.000Z</time>
      </trkpt>
      <trkpt lat="42.82383154146373271942138671875" lon="-1.644482798874378204345703125">
        <ele>399.79998779296875</ele>
        <time>2020-02-16T07:01:14.000Z</time>
      </trkpt>
      <trkpt lat="42.82378694973886013031005859375" lon="-1.6444839723408222198486328125">
        <ele>399.600006103515625</ele>
        <time>2020-02-16T07:01:15.000Z</time>
      </trkpt>
      <trkpt lat="42.82374487258493900299072265625" lon="-1.64448472671210765838623046875">
        <ele>399.399993896484375</ele>
        <time>2020-02-16T07:01:16.000Z</time>
      </trkpt>
      <trkpt lat="42.82365216873586177825927734375" lon="-1.644494533538818359375">
        <ele>399.20001220703125</ele>
        <time>2020-02-16T07:01:18.000Z</time>
      </trkpt>
      <trkpt lat="42.82360455952584743499755859375" lon="-1.64449729956686496734619140625">
        <ele>399.20001220703125</ele>
        <time>2020-02-16T07:01:19.000Z</time>
      </trkpt>
      <trkpt lat="42.82336383126676082611083984375" lon="-1.64444734342396259307861328125">
        <ele>399</ele>
        <time>2020-02-16T07:01:24.000Z</time>
      </trkpt>
      <trkpt lat="42.82327163033187389373779296875" lon="-1.64441130124032497406005859375">
        <ele>399</ele>
        <time>2020-02-16T07:01:26.000Z</time>
      </trkpt>
      <trkpt lat="42.8230616636574268341064453125" lon="-1.64432396180927753448486328125">
        <ele>398.79998779296875</ele>
        <time>2020-02-16T07:01:31.000Z</time>
      </trkpt>
      <trkpt lat="42.82296736724674701690673828125" lon="-1.644314825534820556640625">
        <ele>398.600006103515625</ele>
        <time>2020-02-16T07:01:33.000Z</time>
      </trkpt>
      <trkpt lat="42.822899557650089263916015625" lon="-1.6443944536149501800537109375">
        <ele>398.600006103515625</ele>
        <time>2020-02-16T07:01:36.000Z</time>
      </trkpt>
      <trkpt lat="42.82288840971887111663818359375" lon="-1.64452873170375823974609375">
        <ele>399</ele>
        <time>2020-02-16T07:01:39.000Z</time>
      </trkpt>
      <trkpt lat="42.822880446910858154296875" lon="-1.64461313746869564056396484375">
        <ele>399</ele>
        <time>2020-02-16T07:01:41.000Z</time>
      </trkpt>
      <trkpt lat="42.822853624820709228515625" lon="-1.64475060068070888519287109375">
        <ele>399.20001220703125</ele>
        <time>2020-02-16T07:01:44.000Z</time>
      </trkpt>
      <trkpt lat="42.82284700311720371246337890625" lon="-1.64486962370574474334716796875">
        <ele>400.399993896484375</ele>
        <time>2020-02-16T07:01:46.000Z</time>
      </trkpt>
      <trkpt lat="42.82284624874591827392578125" lon="-1.644922681152820587158203125">
        <ele>400.600006103515625</ele>
        <time>2020-02-16T07:01:47.000Z</time>
      </trkpt>
      <trkpt lat="42.8227837197482585906982421875" lon="-1.6450586356222629547119140625">
        <ele>401</ele>
        <time>2020-02-16T07:01:50.000Z</time>
      </trkpt>
      <trkpt lat="42.82270618714392185211181640625" lon="-1.6450202465057373046875">
        <ele>401</ele>
        <time>2020-02-16T07:01:53.000Z</time>
      </trkpt>
      <trkpt lat="42.822684980928897857666015625" lon="-1.64485193789005279541015625">
        <ele>401</ele>
        <time>2020-02-16T07:01:56.000Z</time>
      </trkpt>
      <trkpt lat="42.82267970032989978790283203125" lon="-1.64477893151342868804931640625">
        <ele>401</ele>
        <time>2020-02-16T07:01:57.000Z</time>
      </trkpt>
      <trkpt lat="42.82266561873257160186767578125" lon="-1.64449327625334262847900390625">
        <ele>401</ele>
        <time>2020-02-16T07:02:01.000Z</time>
      </trkpt>
      <trkpt lat="42.82263963483273983001708984375" lon="-1.64402372203767299652099609375">
        <ele>401.399993896484375</ele>
        <time>2020-02-16T07:02:08.000Z</time>
      </trkpt>
      <trkpt lat="42.8226382099092006683349609375" lon="-1.6439535655081272125244140625">
        <ele>401.600006103515625</ele>
        <time>2020-02-16T07:02:09.000Z</time>
      </trkpt>
      <trkpt lat="42.822636701166629791259765625" lon="-1.64369054138660430908203125">
        <ele>402</ele>
        <time>2020-02-16T07:02:13.000Z</time>
      </trkpt>
      <trkpt lat="42.82264701090753078460693359375" lon="-1.6434868611395359039306640625">
        <ele>402.600006103515625</ele>
        <time>2020-02-16T07:02:16.000Z</time>
      </trkpt>
      <trkpt lat="42.822672910988330841064453125" lon="-1.6431448794901371002197265625">
        <ele>403</ele>
        <time>2020-02-16T07:02:21.000Z</time>
      </trkpt>
      <trkpt lat="42.82267299480736255645751953125" lon="-1.64294362999498844146728515625">
        <ele>403.600006103515625</ele>
        <time>2020-02-16T07:02:24.000Z</time>
      </trkpt>
      <trkpt lat="42.82267500646412372589111328125" lon="-1.64254582487046718597412109375">
        <ele>404.399993896484375</ele>
        <time>2020-02-16T07:02:30.000Z</time>
      </trkpt>
      <trkpt lat="42.8226905129849910736083984375" lon="-1.64240735583007335662841796875">
        <ele>404.600006103515625</ele>
        <time>2020-02-16T07:02:32.000Z</time>
      </trkpt>
      <trkpt lat="42.8227035887539386749267578125" lon="-1.64234063588082790374755859375">
        <ele>404.79998779296875</ele>
        <time>2020-02-16T07:02:33.000Z</time>
      </trkpt>
      <trkpt lat="42.82277123071253299713134765625" lon="-1.6420820541679859161376953125">
        <ele>405.399993896484375</ele>
        <time>2020-02-16T07:02:37.000Z</time>
      </trkpt>
      <trkpt lat="42.82278061844408512115478515625" lon="-1.64201893843710422515869140625">
        <ele>405.399993896484375</ele>
        <time>2020-02-16T07:02:38.000Z</time>
      </trkpt>
      <trkpt lat="42.82276636920869350433349609375" lon="-1.64170612581074237823486328125">
        <ele>405.79998779296875</ele>
        <time>2020-02-16T07:02:43.000Z</time>
      </trkpt>
      <trkpt lat="42.82275496982038021087646484375" lon="-1.64163462817668914794921875">
        <ele>406</ele>
        <time>2020-02-16T07:02:44.000Z</time>
      </trkpt>
      <trkpt lat="42.8227448277175426483154296875" lon="-1.6415633819997310638427734375">
        <ele>406.20001220703125</ele>
        <time>2020-02-16T07:02:45.000Z</time>
      </trkpt>
      <trkpt lat="42.822691015899181365966796875" lon="-1.64114068262279033660888671875">
        <ele>406.79998779296875</ele>
        <time>2020-02-16T07:02:51.000Z</time>
      </trkpt>
      <trkpt lat="42.82264516688883304595947265625" lon="-1.64084161631762981414794921875">
        <ele>407</ele>
        <time>2020-02-16T07:02:55.000Z</time>
      </trkpt>
      <trkpt lat="42.82258448190987110137939453125" lon="-1.64045621640980243682861328125">
        <ele>407</ele>
        <time>2020-02-16T07:03:01.000Z</time>
      </trkpt>
      <trkpt lat="42.82255791127681732177734375" lon="-1.64034783840179443359375">
        <ele>407</ele>
        <time>2020-02-16T07:03:03.000Z</time>
      </trkpt>
      <trkpt lat="42.82245221547782421112060546875" lon="-1.64017827250063419342041015625">
        <ele>407</ele>
        <time>2020-02-16T07:03:06.000Z</time>
      </trkpt>
      <trkpt lat="42.82222305424511432647705078125" lon="-1.63999604992568492889404296875">
        <ele>407</ele>
        <time>2020-02-16T07:03:10.000Z</time>
      </trkpt>
      <trkpt lat="42.82203488051891326904296875" lon="-1.63991130888462066650390625">
        <ele>406.600006103515625</ele>
        <time>2020-02-16T07:03:13.000Z</time>
      </trkpt>
      <trkpt lat="42.8218479640781879425048828125" lon="-1.63983997888863086700439453125">
        <ele>406.20001220703125</ele>
        <time>2020-02-16T07:03:16.000Z</time>
      </trkpt>
      <trkpt lat="42.8217175416648387908935546875" lon="-1.63979136385023593902587890625">
        <ele>405.79998779296875</ele>
        <time>2020-02-16T07:03:18.000Z</time>
      </trkpt>
      <trkpt lat="42.8215116821229457855224609375" lon="-1.63971525616943836212158203125">
        <ele>405.399993896484375</ele>
        <time>2020-02-16T07:03:21.000Z</time>
      </trkpt>
      <trkpt lat="42.82137195579707622528076171875" lon="-1.63966094143688678741455078125">
        <ele>404.600006103515625</ele>
        <time>2020-02-16T07:03:23.000Z</time>
      </trkpt>
      <trkpt lat="42.82129886560142040252685546875" lon="-1.63963110186159610748291015625">
        <ele>404.600006103515625</ele>
        <time>2020-02-16T07:03:24.000Z</time>
      </trkpt>
      <trkpt lat="42.82123834826052188873291015625" lon="-1.6396063752472400665283203125">
        <ele>404.399993896484375</ele>
        <time>2020-02-16T07:03:25.000Z</time>
      </trkpt>
      <trkpt lat="42.82106928527355194091796875" lon="-1.6394930519163608551025390625">
        <ele>404</ele>
        <time>2020-02-16T07:03:28.000Z</time>
      </trkpt>
      <trkpt lat="42.82100147567689418792724609375" lon="-1.63944150321185588836669921875">
        <ele>404</ele>
        <time>2020-02-16T07:03:30.000Z</time>
      </trkpt>
      <trkpt lat="42.82090910710394382476806640625" lon="-1.6393599472939968109130859375">
        <ele>404</ele>
        <time>2020-02-16T07:03:34.000Z</time>
      </trkpt>
      <trkpt lat="42.82089150510728359222412109375" lon="-1.63923849351704120635986328125">
        <ele>405</ele>
        <time>2020-02-16T07:03:40.000Z</time>
      </trkpt>
      <trkpt lat="42.820825539529323577880859375" lon="-1.63892484270036220550537109375">
        <ele>405</ele>
        <time>2020-02-16T07:03:45.000Z</time>
      </trkpt>
      <trkpt lat="42.8208350948989391326904296875" lon="-1.638709008693695068359375">
        <ele>405.399993896484375</ele>
        <time>2020-02-16T07:03:48.000Z</time>
      </trkpt>
      <trkpt lat="42.8208521939814090728759765625" lon="-1.63866014219820499420166015625">
        <ele>405.600006103515625</ele>
        <time>2020-02-16T07:03:49.000Z</time>
      </trkpt>
      <trkpt lat="42.82088010571897029876708984375" lon="-1.63857649080455303192138671875">
        <ele>405.600006103515625</ele>
        <time>2020-02-16T07:03:51.000Z</time>
      </trkpt>
      <trkpt lat="42.82087658531963825225830078125" lon="-1.63851999677717685699462890625">
        <ele>405.600006103515625</ele>
        <time>2020-02-16T07:03:52.000Z</time>
      </trkpt>
      <trkpt lat="42.8209259547293186187744140625" lon="-1.63842963986098766326904296875">
        <ele>405.600006103515625</ele>
        <time>2020-02-16T07:03:54.000Z</time>
      </trkpt>
      <trkpt lat="42.8209774196147918701171875" lon="-1.63834087550640106201171875">
        <ele>405.600006103515625</ele>
        <time>2020-02-16T07:03:56.000Z</time>
      </trkpt>
      <trkpt lat="42.8210057504475116729736328125" lon="-1.6382220201194286346435546875">
        <ele>406.600006103515625</ele>
        <time>2020-02-16T07:03:58.000Z</time>
      </trkpt>
      <trkpt lat="42.82113491557538509368896484375" lon="-1.63786151446402072906494140625">
        <ele>407</ele>
        <time>2020-02-16T07:04:04.000Z</time>
      </trkpt>
      <trkpt lat="42.82118855975568294525146484375" lon="-1.637825556099414825439453125">
        <ele>407</ele>
        <time>2020-02-16T07:04:05.000Z</time>
      </trkpt>
      <trkpt lat="42.82122753560543060302734375" lon="-1.637741066515445709228515625">
        <ele>406.600006103515625</ele>
        <time>2020-02-16T07:04:07.000Z</time>
      </trkpt>
      <trkpt lat="42.8212112747132778167724609375" lon="-1.637708880007266998291015625">
        <ele>406.20001220703125</ele>
        <time>2020-02-16T07:04:08.000Z</time>
      </trkpt>
      <trkpt lat="42.82109769992530345916748046875" lon="-1.63763604126870632171630859375">
        <ele>405.399993896484375</ele>
        <time>2020-02-16T07:04:11.000Z</time>
      </trkpt>
      <trkpt lat="42.821045815944671630859375" lon="-1.6376084648072719573974609375">
        <ele>405.20001220703125</ele>
        <time>2020-02-16T07:04:12.000Z</time>
      </trkpt>
      <trkpt lat="42.8208713047206401824951171875" lon="-1.63750939071178436279296875">
        <ele>404.20001220703125</ele>
        <time>2020-02-16T07:04:15.000Z</time>
      </trkpt>
      <trkpt lat="42.820702493190765380859375" lon="-1.637408472597599029541015625">
        <ele>403.20001220703125</ele>
        <time>2020-02-16T07:04:18.000Z</time>
      </trkpt>
      <trkpt lat="42.82065027393400669097900390625" lon="-1.63737486116588115692138671875">
        <ele>403</ele>
        <time>2020-02-16T07:04:19.000Z</time>
      </trkpt>
      <trkpt lat="42.82033645547926425933837890625" lon="-1.6371471248567104339599609375">
        <ele>402.20001220703125</ele>
        <time>2020-02-16T07:04:26.000Z</time>
      </trkpt>
      <trkpt lat="42.8201682306826114654541015625" lon="-1.63699298165738582611083984375">
        <ele>402.20001220703125</ele>
        <time>2020-02-16T07:04:30.000Z</time>
      </trkpt>
      <trkpt lat="42.82001115381717681884765625" lon="-1.6368356533348560333251953125">
        <ele>402.20001220703125</ele>
        <time>2020-02-16T07:04:33.000Z</time>
      </trkpt>
      <trkpt lat="42.81970295123755931854248046875" lon="-1.6365392692387104034423828125">
        <ele>402.20001220703125</ele>
        <time>2020-02-16T07:04:39.000Z</time>
      </trkpt>
      <trkpt lat="42.819281928241252899169921875" lon="-1.63615881465375423431396484375">
        <ele>401.79998779296875</ele>
        <time>2020-02-16T07:04:47.000Z</time>
      </trkpt>
      <trkpt lat="42.81905922107398509979248046875" lon="-1.6359250433743000030517578125">
        <ele>402</ele>
        <time>2020-02-16T07:04:52.000Z</time>
      </trkpt>
      <trkpt lat="42.81899216584861278533935546875" lon="-1.6358596645295619964599609375">
        <ele>401.79998779296875</ele>
        <time>2020-02-16T07:04:54.000Z</time>
      </trkpt>
      <trkpt lat="42.8188750706613063812255859375" lon="-1.63563997484743595123291015625">
        <ele>402</ele>
        <time>2020-02-16T07:04:58.000Z</time>
      </trkpt>
      <trkpt lat="42.81885445117950439453125" lon="-1.63528240285813808441162109375">
        <ele>402.20001220703125</ele>
        <time>2020-02-16T07:05:02.000Z</time>
      </trkpt>
      <trkpt lat="42.818952016532421112060546875" lon="-1.63475166074931621551513671875">
        <ele>402.399993896484375</ele>
        <time>2020-02-16T07:05:08.000Z</time>
      </trkpt>
      <trkpt lat="42.81917304731905460357666015625" lon="-1.63417967967689037322998046875">
        <ele>402.600006103515625</ele>
        <time>2020-02-16T07:05:16.000Z</time>
      </trkpt>
      <trkpt lat="42.81938745640218257904052734375" lon="-1.63364575244486331939697265625">
        <ele>403</ele>
        <time>2020-02-16T07:05:24.000Z</time>
      </trkpt>
      <trkpt lat="42.8195871971547603607177734375" lon="-1.63321391679346561431884765625">
        <ele>403.20001220703125</ele>
        <time>2020-02-16T07:05:31.000Z</time>
      </trkpt>
      <trkpt lat="42.819763384759426116943359375" lon="-1.6329018585383892059326171875">
        <ele>403.399993896484375</ele>
        <time>2020-02-16T07:05:36.000Z</time>
      </trkpt>
      <trkpt lat="42.81990612857043743133544921875" lon="-1.6326504014432430267333984375">
        <ele>403.399993896484375</ele>
        <time>2020-02-16T07:05:40.000Z</time>
      </trkpt>
      <trkpt lat="42.82020083628594875335693359375" lon="-1.63208889774978160858154296875">
        <ele>403.600006103515625</ele>
        <time>2020-02-16T07:05:49.000Z</time>
      </trkpt>
      <trkpt lat="42.82045413739979267120361328125" lon="-1.63142253644764423370361328125">
        <ele>403.600006103515625</ele>
        <time>2020-02-16T07:05:59.000Z</time>
      </trkpt>
      <trkpt lat="42.8204723261296749114990234375" lon="-1.6313616000115871429443359375">
        <ele>403.600006103515625</ele>
        <time>2020-02-16T07:06:00.000Z</time>
      </trkpt>
      <trkpt lat="42.820584475994110107421875" lon="-1.63111324422061443328857421875">
        <ele>403.79998779296875</ele>
        <time>2020-02-16T07:06:04.000Z</time>
      </trkpt>
      <trkpt lat="42.82064817845821380615234375" lon="-1.63091911934316158294677734375">
        <ele>403.79998779296875</ele>
        <time>2020-02-16T07:06:07.000Z</time>
      </trkpt>
      <trkpt lat="42.820684723556041717529296875" lon="-1.63080177269876003265380859375">
        <ele>403.79998779296875</ele>
        <time>2020-02-16T07:06:09.000Z</time>
      </trkpt>
      <trkpt lat="42.820729650557041168212890625" lon="-1.63069934584200382232666015625">
        <ele>403.79998779296875</ele>
        <time>2020-02-16T07:06:11.000Z</time>
      </trkpt>
      <trkpt lat="42.820778600871562957763671875" lon="-1.63060261867940425872802734375">
        <ele>404</ele>
        <time>2020-02-16T07:06:13.000Z</time>
      </trkpt>
      <trkpt lat="42.8208089433610439300537109375" lon="-1.6305183805525302886962890625">
        <ele>404</ele>
        <time>2020-02-16T07:06:15.000Z</time>
      </trkpt>
      <trkpt lat="42.8208099491894245147705078125" lon="-1.6303866170346736907958984375">
        <ele>404.20001220703125</ele>
        <time>2020-02-16T07:06:20.000Z</time>
      </trkpt>
      <trkpt lat="42.8208072669804096221923828125" lon="-1.63038301281630992889404296875">
        <ele>404.600006103515625</ele>
        <time>2020-02-16T07:06:21.000Z</time>
      </trkpt>
      <trkpt lat="42.8208236955106258392333984375" lon="-1.63033590652048587799072265625">
        <ele>405.399993896484375</ele>
        <time>2020-02-16T07:09:55.000Z</time>
      </trkpt>
      <trkpt lat="42.820836938917636871337890625" lon="-1.63030958734452724456787109375">
        <ele>405.399993896484375</ele>
        <time>2020-02-16T07:09:56.000Z</time>
      </trkpt>
      <trkpt lat="42.82085211016237735748291015625" lon="-1.63027681410312652587890625">
        <ele>405.399993896484375</ele>
        <time>2020-02-16T07:09:57.000Z</time>
      </trkpt>
      <trkpt lat="42.8208783455193042755126953125" lon="-1.630189307034015655517578125">
        <ele>405.399993896484375</ele>
        <time>2020-02-16T07:09:59.000Z</time>
      </trkpt>
      <trkpt lat="42.8209095261991024017333984375" lon="-1.63008947856724262237548828125">
        <ele>405.399993896484375</ele>
        <time>2020-02-16T07:10:01.000Z</time>
      </trkpt>
      <trkpt lat="42.82092989422380924224853515625" lon="-1.63003985770046710968017578125">
        <ele>405.399993896484375</ele>
        <time>2020-02-16T07:10:02.000Z</time>
      </trkpt>
      <trkpt lat="42.82095470465719699859619140625" lon="-1.629992835223674774169921875">
        <ele>405.399993896484375</ele>
        <time>2020-02-16T07:10:03.000Z</time>
      </trkpt>
      <trkpt lat="42.8210174851119518280029296875" lon="-1.6299279592931270599365234375">
        <ele>405.399993896484375</ele>
        <time>2020-02-16T07:10:05.000Z</time>
      </trkpt>
      <trkpt lat="42.82105227001011371612548828125" lon="-1.62992636673152446746826171875">
        <ele>405.399993896484375</ele>
        <time>2020-02-16T07:10:06.000Z</time>
      </trkpt>
      <trkpt lat="42.82115838490426540374755859375" lon="-1.63003516383469104766845703125">
        <ele>405.399993896484375</ele>
        <time>2020-02-16T07:10:10.000Z</time>
      </trkpt>
      <trkpt lat="42.82120582647621631622314453125" lon="-1.63019710220396518707275390625">
        <ele>405.399993896484375</ele>
        <time>2020-02-16T07:10:13.000Z</time>
      </trkpt>
      <trkpt lat="42.8212287090718746185302734375" lon="-1.63029969669878482818603515625">
        <ele>405.600006103515625</ele>
        <time>2020-02-16T07:10:15.000Z</time>
      </trkpt>
      <trkpt lat="42.82124656252562999725341796875" lon="-1.63036323152482509613037109375">
        <ele>406</ele>
        <time>2020-02-16T07:10:19.000Z</time>
      </trkpt>
      <trkpt lat="42.82123432494699954986572265625" lon="-1.63028880022466182708740234375">
        <ele>406</ele>
        <time>2020-02-16T07:10:23.000Z</time>
      </trkpt>
      <trkpt lat="42.82123281620442867279052734375" lon="-1.63025108166038990020751953125">
        <ele>406.20001220703125</ele>
        <time>2020-02-16T07:10:24.000Z</time>
      </trkpt>
      <trkpt lat="42.82121974043548107147216796875" lon="-1.63002141751348972320556640625">
        <ele>406.20001220703125</ele>
        <time>2020-02-16T07:10:29.000Z</time>
      </trkpt>
      <trkpt lat="42.821212112903594970703125" lon="-1.62996894679963588714599609375">
        <ele>406.20001220703125</ele>
        <time>2020-02-16T07:10:30.000Z</time>
      </trkpt>
      <trkpt lat="42.82123197801411151885986328125" lon="-1.629715226590633392333984375">
        <ele>405.79998779296875</ele>
        <time>2020-02-16T07:10:34.000Z</time>
      </trkpt>
      <trkpt lat="42.82124740071594715118408203125" lon="-1.62964892573654651641845703125">
        <ele>405.600006103515625</ele>
        <time>2020-02-16T07:10:35.000Z</time>
      </trkpt>
      <trkpt lat="42.821265421807765960693359375" lon="-1.629579104483127593994140625">
        <ele>405.600006103515625</ele>
        <time>2020-02-16T07:10:36.000Z</time>
      </trkpt>
      <trkpt lat="42.8213596343994140625" lon="-1.62922714836895465850830078125">
        <ele>405</ele>
        <time>2020-02-16T07:10:41.000Z</time>
      </trkpt>
      <trkpt lat="42.821526937186717987060546875" lon="-1.62860001437366008758544921875">
        <ele>405</ele>
        <time>2020-02-16T07:10:50.000Z</time>
      </trkpt>
      <trkpt lat="42.82172500155866146087646484375" lon="-1.62785947322845458984375">
        <ele>405.399993896484375</ele>
        <time>2020-02-16T07:11:00.000Z</time>
      </trkpt>
      <trkpt lat="42.8219006024301052093505859375" lon="-1.6272152401506900787353515625">
        <ele>405.399993896484375</ele>
        <time>2020-02-16T07:11:08.000Z</time>
      </trkpt>
      <trkpt lat="42.8220548294484615325927734375" lon="-1.626678295433521270751953125">
        <ele>404.79998779296875</ele>
        <time>2020-02-16T07:11:15.000Z</time>
      </trkpt>
      <trkpt lat="42.8221932984888553619384765625" lon="-1.62614495493471622467041015625">
        <ele>404.79998779296875</ele>
        <time>2020-02-16T07:11:22.000Z</time>
      </trkpt>
      <trkpt lat="42.82223797403275966644287109375" lon="-1.6259958408772945404052734375">
        <ele>404.79998779296875</ele>
        <time>2020-02-16T07:11:24.000Z</time>
      </trkpt>
      <trkpt lat="42.8223238885402679443359375" lon="-1.6256987862288951873779296875">
        <ele>404.79998779296875</ele>
        <time>2020-02-16T07:11:28.000Z</time>
      </trkpt>
      <trkpt lat="42.8224633634090423583984375" lon="-1.62525513209402561187744140625">
        <ele>404.79998779296875</ele>
        <time>2020-02-16T07:11:34.000Z</time>
      </trkpt>
      <trkpt lat="42.82267333008348941802978515625" lon="-1.624670661985874176025390625">
        <ele>404.79998779296875</ele>
        <time>2020-02-16T07:11:42.000Z</time>
      </trkpt>
      <trkpt lat="42.822734601795673370361328125" lon="-1.6245266608893871307373046875">
        <ele>405</ele>
        <time>2020-02-16T07:11:44.000Z</time>
      </trkpt>
      <trkpt lat="42.82299377024173736572265625" lon="-1.62383548915386199951171875">
        <ele>405</ele>
        <time>2020-02-16T07:11:53.000Z</time>
      </trkpt>
      <trkpt lat="42.82309837639331817626953125" lon="-1.623359061777591705322265625">
        <ele>404.79998779296875</ele>
        <time>2020-02-16T07:11:59.000Z</time>
      </trkpt>
      <trkpt lat="42.823118828237056732177734375" lon="-1.623280942440032958984375">
        <ele>404.79998779296875</ele>
        <time>2020-02-16T07:12:00.000Z</time>
      </trkpt>
      <trkpt lat="42.82313668169081211090087890625" lon="-1.62320190109312534332275390625">
        <ele>404.79998779296875</ele>
        <time>2020-02-16T07:12:01.000Z</time>
      </trkpt>
      <trkpt lat="42.82321094535291194915771484375" lon="-1.6227983124554157257080078125">
        <ele>404.79998779296875</ele>
        <time>2020-02-16T07:12:06.000Z</time>
      </trkpt>
      <trkpt lat="42.823317982256412506103515625" lon="-1.622303612530231475830078125">
        <ele>405</ele>
        <time>2020-02-16T07:12:13.000Z</time>
      </trkpt>
      <trkpt lat="42.8233416192233562469482421875" lon="-1.62218718789517879486083984375">
        <ele>405.20001220703125</ele>
        <time>2020-02-16T07:12:15.000Z</time>
      </trkpt>
      <trkpt lat="42.82334572635591030120849609375" lon="-1.622101776301860809326171875">
        <ele>405.600006103515625</ele>
        <time>2020-02-16T07:12:17.000Z</time>
      </trkpt>
      <trkpt lat="42.8233476541936397552490234375" lon="-1.62204804830253124237060546875">
        <ele>406.399993896484375</ele>
        <time>2020-02-16T07:12:20.000Z</time>
      </trkpt>
      <trkpt lat="42.82334782183170318603515625" lon="-1.62204989232122898101806640625">
        <ele>406.600006103515625</ele>
        <time>2020-02-16T07:12:21.000Z</time>
      </trkpt>
      <trkpt lat="42.8233523480594158172607421875" lon="-1.6220945678651332855224609375">
        <ele>408.20001220703125</ele>
        <time>2020-02-16T07:12:32.000Z</time>
      </trkpt>
      <trkpt lat="42.8233624063432216644287109375" lon="-1.6221190430223941802978515625">
        <ele>408.20001220703125</ele>
        <time>2020-02-16T07:12:33.000Z</time>
      </trkpt>
      <trkpt lat="42.8233671002089977264404296875" lon="-1.62215332500636577606201171875">
        <ele>408.20001220703125</ele>
        <time>2020-02-16T07:12:34.000Z</time>
      </trkpt>
      <trkpt lat="42.82336148433387279510498046875" lon="-1.62232138216495513916015625">
        <ele>408.399993896484375</ele>
        <time>2020-02-16T07:12:38.000Z</time>
      </trkpt>
      <trkpt lat="42.8233511745929718017578125" lon="-1.622374691069126129150390625">
        <ele>408.20001220703125</ele>
        <time>2020-02-16T07:12:39.000Z</time>
      </trkpt>
      <trkpt lat="42.82331186346709728240966796875" lon="-1.62257158197462558746337890625">
        <ele>408</ele>
        <time>2020-02-16T07:12:42.000Z</time>
      </trkpt>
      <trkpt lat="42.82324950210750102996826171875" lon="-1.6228931955993175506591796875">
        <ele>407.399993896484375</ele>
        <time>2020-02-16T07:12:46.000Z</time>
      </trkpt>
      <trkpt lat="42.82323190011084079742431640625" lon="-1.62297558970749378204345703125">
        <ele>407.20001220703125</ele>
        <time>2020-02-16T07:12:47.000Z</time>
      </trkpt>
      <trkpt lat="42.82319501973688602447509765625" lon="-1.62314021028578281402587890625">
        <ele>406.600006103515625</ele>
        <time>2020-02-16T07:12:49.000Z</time>
      </trkpt>
      <trkpt lat="42.82316015101969242095947265625" lon="-1.6233079321682453155517578125">
        <ele>406</ele>
        <time>2020-02-16T07:12:51.000Z</time>
      </trkpt>
      <trkpt lat="42.8230770863592624664306640625" lon="-1.6237240098416805267333984375">
        <ele>405</ele>
        <time>2020-02-16T07:12:56.000Z</time>
      </trkpt>
      <trkpt lat="42.82290182076394557952880859375" lon="-1.62425936199724674224853515625">
        <ele>405</ele>
        <time>2020-02-16T07:13:03.000Z</time>
      </trkpt>
      <trkpt lat="42.8226861543953418731689453125" lon="-1.6247811354696750640869140625">
        <ele>405.20001220703125</ele>
        <time>2020-02-16T07:13:10.000Z</time>
      </trkpt>
      <trkpt lat="42.82259856350719928741455078125" lon="-1.6250175051391124725341796875">
        <ele>405.20001220703125</ele>
        <time>2020-02-16T07:13:13.000Z</time>
      </trkpt>
      <trkpt lat="42.82236487604677677154541015625" lon="-1.62573692388832569122314453125">
        <ele>405.20001220703125</ele>
        <time>2020-02-16T07:13:22.000Z</time>
      </trkpt>
      <trkpt lat="42.8223401494324207305908203125" lon="-1.62581772543489933013916015625">
        <ele>405</ele>
        <time>2020-02-16T07:13:23.000Z</time>
      </trkpt>
      <trkpt lat="42.82214074395596981048583984375" lon="-1.62652918137609958648681640625">
        <ele>405</ele>
        <time>2020-02-16T07:13:32.000Z</time>
      </trkpt>
      <trkpt lat="42.82212045975029468536376953125" lon="-1.62659791298210620880126953125">
        <ele>405</ele>
        <time>2020-02-16T07:13:33.000Z</time>
      </trkpt>
      <trkpt lat="42.82210730016231536865234375" lon="-1.62666010670363903045654296875">
        <ele>405</ele>
        <time>2020-02-16T07:13:34.000Z</time>
      </trkpt>
      <trkpt lat="42.822079472243785858154296875" lon="-1.62681668065488338470458984375">
        <ele>405</ele>
        <time>2020-02-16T07:13:37.000Z</time>
      </trkpt>
      <trkpt lat="42.8219860978424549102783203125" lon="-1.62710736505687236785888671875">
        <ele>405</ele>
        <time>2020-02-16T07:13:42.000Z</time>
      </trkpt>
      <trkpt lat="42.8219269216060638427734375" lon="-1.62731624208390712738037109375">
        <ele>405</ele>
        <time>2020-02-16T07:13:45.000Z</time>
      </trkpt>
      <trkpt lat="42.82186849974095821380615234375" lon="-1.62753182463347911834716796875">
        <ele>405</ele>
        <time>2020-02-16T07:13:48.000Z</time>
      </trkpt>
      <trkpt lat="42.8218328766524791717529296875" lon="-1.6276732273399829864501953125">
        <ele>404.79998779296875</ele>
        <time>2020-02-16T07:13:50.000Z</time>
      </trkpt>
      <trkpt lat="42.821716368198394775390625" lon="-1.62807941436767578125">
        <ele>404.79998779296875</ele>
        <time>2020-02-16T07:13:56.000Z</time>
      </trkpt>
      <trkpt lat="42.82168359495699405670166015625" lon="-1.6282153688371181488037109375">
        <ele>404.79998779296875</ele>
        <time>2020-02-16T07:13:58.000Z</time>
      </trkpt>
      <trkpt lat="42.82152232713997364044189453125" lon="-1.62882951088249683380126953125">
        <ele>405.20001220703125</ele>
        <time>2020-02-16T07:14:06.000Z</time>
      </trkpt>
      <trkpt lat="42.82132451422512531280517578125" lon="-1.62949318997561931610107421875">
        <ele>405.20001220703125</ele>
        <time>2020-02-16T07:14:14.000Z</time>
      </trkpt>
      <trkpt lat="42.8212629072368144989013671875" lon="-1.6297378577291965484619140625">
        <ele>404.79998779296875</ele>
        <time>2020-02-16T07:14:17.000Z</time>
      </trkpt>
      <trkpt lat="42.8212483227252960205078125" lon="-1.629908345639705657958984375">
        <ele>404.600006103515625</ele>
        <time>2020-02-16T07:14:19.000Z</time>
      </trkpt>
      <trkpt lat="42.82127673737704753875732421875" lon="-1.63015904836356639862060546875">
        <ele>404.399993896484375</ele>
        <time>2020-02-16T07:14:22.000Z</time>
      </trkpt>
      <trkpt lat="42.8213061578571796417236328125" lon="-1.63033473305404186248779296875">
        <ele>404.399993896484375</ele>
        <time>2020-02-16T07:14:24.000Z</time>
      </trkpt>
      <trkpt lat="42.82137011177837848663330078125" lon="-1.63091174326837062835693359375">
        <ele>404.20001220703125</ele>
        <time>2020-02-16T07:14:30.000Z</time>
      </trkpt>
      <trkpt lat="42.82138017006218433380126953125" lon="-1.63100302219390869140625">
        <ele>404.20001220703125</ele>
        <time>2020-02-16T07:14:31.000Z</time>
      </trkpt>
      <trkpt lat="42.821399532258510589599609375" lon="-1.63127535022795200347900390625">
        <ele>404</ele>
        <time>2020-02-16T07:14:34.000Z</time>
      </trkpt>
      <trkpt lat="42.82141285948455333709716796875" lon="-1.63153317756950855255126953125">
        <ele>403.79998779296875</ele>
        <time>2020-02-16T07:14:37.000Z</time>
      </trkpt>
      <trkpt lat="42.8214164637029170989990234375" lon="-1.63161867298185825347900390625">
        <ele>403.79998779296875</ele>
        <time>2020-02-16T07:14:38.000Z</time>
      </trkpt>
      <trkpt lat="42.8214412741363048553466796875" lon="-1.63204313255846500396728515625">
        <ele>403.79998779296875</ele>
        <time>2020-02-16T07:14:43.000Z</time>
      </trkpt>
      <trkpt lat="42.82146248035132884979248046875" lon="-1.63230364210903644561767578125">
        <ele>403.79998779296875</ele>
        <time>2020-02-16T07:14:46.000Z</time>
      </trkpt>
      <trkpt lat="42.82146985642611980438232421875" lon="-1.6323895566165447235107421875">
        <ele>403.79998779296875</ele>
        <time>2020-02-16T07:14:47.000Z</time>
      </trkpt>
      <trkpt lat="42.82148309983313083648681640625" lon="-1.63264629431068897247314453125">
        <ele>404</ele>
        <time>2020-02-16T07:14:50.000Z</time>
      </trkpt>
      <trkpt lat="42.8222854994237422943115234375" lon="-1.63366083987057209014892578125">
        <ele>403.20001220703125</ele>
        <time>2020-02-16T07:15:23.000Z</time>
      </trkpt>
      <trkpt lat="42.8223354555666446685791015625" lon="-1.63361021317541599273681640625">
        <ele>403.20001220703125</ele>
        <time>2020-02-16T07:15:24.000Z</time>
      </trkpt>
      <trkpt lat="42.82268372364342212677001953125" lon="-1.633285582065582275390625">
        <ele>403</ele>
        <time>2020-02-16T07:15:31.000Z</time>
      </trkpt>
      <trkpt lat="42.8231193311512470245361328125" lon="-1.63285952992737293243408203125">
        <ele>402.79998779296875</ele>
        <time>2020-02-16T07:15:40.000Z</time>
      </trkpt>
      <trkpt lat="42.82324832864105701446533203125" lon="-1.63271569646894931793212890625">
        <ele>403</ele>
        <time>2020-02-16T07:15:43.000Z</time>
      </trkpt>
      <trkpt lat="42.82332175411283969879150390625" lon="-1.63266791962087154388427734375">
        <ele>403</ele>
        <time>2020-02-16T07:15:45.000Z</time>
      </trkpt>
      <trkpt lat="42.823376990854740142822265625" lon="-1.63263715803623199462890625">
        <ele>403.399993896484375</ele>
        <time>2020-02-16T07:15:48.000Z</time>
      </trkpt>
      <trkpt lat="42.82341420650482177734375" lon="-1.63249558769166469573974609375">
        <ele>404.600006103515625</ele>
        <time>2020-02-16T07:15:52.000Z</time>
      </trkpt>
      <trkpt lat="42.82342334277927875518798828125" lon="-1.632447056472301483154296875">
        <ele>405.399993896484375</ele>
        <time>2020-02-16T07:15:53.000Z</time>
      </trkpt>
      <trkpt lat="42.8234606422483921051025390625" lon="-1.632280759513378143310546875">
        <ele>406</ele>
        <time>2020-02-16T07:15:56.000Z</time>
      </trkpt>
      <trkpt lat="42.82347111962735652923583984375" lon="-1.63222233764827251434326171875">
        <ele>406.20001220703125</ele>
        <time>2020-02-16T07:15:57.000Z</time>
      </trkpt>
      <trkpt lat="42.82348168082535266876220703125" lon="-1.632158048450946807861328125">
        <ele>406.20001220703125</ele>
        <time>2020-02-16T07:15:58.000Z</time>
      </trkpt>
      <trkpt lat="42.8235250152647495269775390625" lon="-1.63195646367967128753662109375">
        <ele>406.20001220703125</ele>
        <time>2020-02-16T07:16:01.000Z</time>
      </trkpt>
      <trkpt lat="42.8235582076013088226318359375" lon="-1.631812714040279388427734375">
        <ele>406.20001220703125</ele>
        <time>2020-02-16T07:16:03.000Z</time>
      </trkpt>
      <trkpt lat="42.82369324006140232086181640625" lon="-1.631108634173870086669921875">
        <ele>406.20001220703125</ele>
        <time>2020-02-16T07:16:12.000Z</time>
      </trkpt>
      <trkpt lat="42.8237992711365222930908203125" lon="-1.63049885071814060211181640625">
        <ele>406.600006103515625</ele>
        <time>2020-02-16T07:16:20.000Z</time>
      </trkpt>
      <trkpt lat="42.8239062242209911346435546875" lon="-1.629972048103809356689453125">
        <ele>407.20001220703125</ele>
        <time>2020-02-16T07:16:27.000Z</time>
      </trkpt>
      <trkpt lat="42.823934219777584075927734375" lon="-1.6298166476190090179443359375">
        <ele>407.399993896484375</ele>
        <time>2020-02-16T07:16:29.000Z</time>
      </trkpt>
      <trkpt lat="42.824034802615642547607421875" lon="-1.62931180559098720550537109375">
        <ele>408</ele>
        <time>2020-02-16T07:16:36.000Z</time>
      </trkpt>
      <trkpt lat="42.824061624705791473388671875" lon="-1.629193536937236785888671875">
        <ele>408.20001220703125</ele>
        <time>2020-02-16T07:16:38.000Z</time>
      </trkpt>
      <trkpt lat="42.82407394610345363616943359375" lon="-1.62913796491920948028564453125">
        <ele>408.20001220703125</ele>
        <time>2020-02-16T07:16:39.000Z</time>
      </trkpt>
      <trkpt lat="42.8240976668894290924072265625" lon="-1.62903369404375553131103515625">
        <ele>408</ele>
        <time>2020-02-16T07:16:41.000Z</time>
      </trkpt>
      <trkpt lat="42.82410646788775920867919921875" lon="-1.6289831511676311492919921875">
        <ele>408.20001220703125</ele>
        <time>2020-02-16T07:16:42.000Z</time>
      </trkpt>
      <trkpt lat="42.82411417923867702484130859375" lon="-1.62893394939601421356201171875">
        <ele>408.600006103515625</ele>
        <time>2020-02-16T07:16:43.000Z</time>
      </trkpt>
      <trkpt lat="42.8241214714944362640380859375" lon="-1.628871001303195953369140625">
        <ele>409</ele>
        <time>2020-02-16T07:16:46.000Z</time>
      </trkpt>
      <trkpt lat="42.82412138767540454864501953125" lon="-1.6288715042173862457275390625">
        <ele>409</ele>
        <time>2020-02-16T07:16:47.000Z</time>
      </trkpt>
      <trkpt lat="42.82789341174066066741943359375" lon="-1.62719135172665119171142578125">
        <ele>424.79998779296875</ele>
        <time>2020-02-16T07:23:21.000Z</time>
      </trkpt>
      <trkpt lat="42.82814386300742626190185546875" lon="-1.62687753327190876007080078125">
        <ele>425</ele>
        <time>2020-02-16T07:23:27.000Z</time>
      </trkpt>
      <trkpt lat="42.8283117525279521942138671875" lon="-1.62646329961717128753662109375">
        <ele>425.79998779296875</ele>
        <time>2020-02-16T07:23:33.000Z</time>
      </trkpt>
      <trkpt lat="42.8283328749239444732666015625" lon="-1.62638937123119831085205078125">
        <ele>426</ele>
        <time>2020-02-16T07:23:34.000Z</time>
      </trkpt>
      <trkpt lat="42.82838165760040283203125" lon="-1.6262516565620899200439453125">
        <ele>426.399993896484375</ele>
        <time>2020-02-16T07:23:36.000Z</time>
      </trkpt>
      <trkpt lat="42.82845868729054927825927734375" lon="-1.626154594123363494873046875">
        <ele>426.600006103515625</ele>
        <time>2020-02-16T07:23:38.000Z</time>
      </trkpt>
      <trkpt lat="42.82860537059605121612548828125" lon="-1.62616674788296222686767578125">
        <ele>426.600006103515625</ele>
        <time>2020-02-16T07:23:41.000Z</time>
      </trkpt>
      <trkpt lat="42.82871835865080356597900390625" lon="-1.6263373196125030517578125">
        <ele>427</ele>
        <time>2020-02-16T07:23:44.000Z</time>
      </trkpt>
      <trkpt lat="42.82875691540539264678955078125" lon="-1.62639624439179897308349609375">
        <ele>427.20001220703125</ele>
        <time>2020-02-16T07:23:45.000Z</time>
      </trkpt>
      <trkpt lat="42.8288550674915313720703125" lon="-1.626483835279941558837890625">
        <ele>427.20001220703125</ele>
        <time>2020-02-16T07:23:47.000Z</time>
      </trkpt>
      <trkpt lat="42.82907676883041858673095703125" lon="-1.62652163766324520111083984375">
        <ele>427.79998779296875</ele>
        <time>2020-02-16T07:23:51.000Z</time>
      </trkpt>
      <trkpt lat="42.8292937763035297393798828125" lon="-1.62651845254004001617431640625">
        <ele>428.20001220703125</ele>
        <time>2020-02-16T07:23:55.000Z</time>
      </trkpt>
      <trkpt lat="42.82945093698799610137939453125" lon="-1.626515686511993408203125">
        <ele>428.600006103515625</ele>
        <time>2020-02-16T07:23:58.000Z</time>
      </trkpt>
      <trkpt lat="42.82972452230751514434814453125" lon="-1.62650956772267818450927734375">
        <ele>429.20001220703125</ele>
        <time>2020-02-16T07:24:03.000Z</time>
      </trkpt>
      <trkpt lat="42.8298419527709484100341796875" lon="-1.6265228949487209320068359375">
        <ele>429.399993896484375</ele>
        <time>2020-02-16T07:24:05.000Z</time>
      </trkpt>
      <trkpt lat="42.83007974736392498016357421875" lon="-1.626522056758403778076171875">
        <ele>429.600006103515625</ele>
        <time>2020-02-16T07:24:09.000Z</time>
      </trkpt>
      <trkpt lat="42.8302000276744365692138671875" lon="-1.62652666680514812469482421875">
        <ele>429.600006103515625</ele>
        <time>2020-02-16T07:24:11.000Z</time>
      </trkpt>
      <trkpt lat="42.83073470927774906158447265625" lon="-1.6265277564525604248046875">
        <ele>430</ele>
        <time>2020-02-16T07:24:20.000Z</time>
      </trkpt>
      <trkpt lat="42.8309627808630466461181640625" lon="-1.62653823383152484893798828125">
        <ele>430.399993896484375</ele>
        <time>2020-02-16T07:24:24.000Z</time>
      </trkpt>
      <trkpt lat="42.8312316723167896270751953125" lon="-1.6265597753226757049560546875">
        <ele>430.600006103515625</ele>
        <time>2020-02-16T07:24:29.000Z</time>
      </trkpt>
      <trkpt lat="42.8313215263187885284423828125" lon="-1.62657461129128932952880859375">
        <ele>430.600006103515625</ele>
        <time>2020-02-16T07:24:31.000Z</time>
      </trkpt>
      <trkpt lat="42.8313721530139446258544921875" lon="-1.62664384581148624420166015625">
        <ele>430.600006103515625</ele>
        <time>2020-02-16T07:24:33.000Z</time>
      </trkpt>
      <trkpt lat="42.8313932754099369049072265625" lon="-1.62688189186155796051025390625">
        <ele>431.20001220703125</ele>
        <time>2020-02-16T07:24:37.000Z</time>
      </trkpt>
      <trkpt lat="42.83139570616185665130615234375" lon="-1.62695179693400859832763671875">
        <ele>431.399993896484375</ele>
        <time>2020-02-16T07:24:38.000Z</time>
      </trkpt>
      <trkpt lat="42.8313956223428249359130859375" lon="-1.6270231269299983978271484375">
        <ele>431.600006103515625</ele>
        <time>2020-02-16T07:24:39.000Z</time>
      </trkpt>
      <trkpt lat="42.83137273974716663360595703125" lon="-1.627374999225139617919921875">
        <ele>431.79998779296875</ele>
        <time>2020-02-16T07:24:44.000Z</time>
      </trkpt>
      <trkpt lat="42.83138162456452846527099609375" lon="-1.62750483490526676177978515625">
        <ele>431.79998779296875</ele>
        <time>2020-02-16T07:24:48.000Z</time>
      </trkpt>
      <trkpt lat="42.831415571272373199462890625" lon="-1.6275106184184551239013671875">
        <ele>432</ele>
        <time>2020-02-16T07:24:50.000Z</time>
      </trkpt>
      <trkpt lat="42.83143870532512664794921875" lon="-1.627524197101593017578125">
        <ele>432</ele>
        <time>2020-02-16T07:24:51.000Z</time>
      </trkpt>
      <trkpt lat="42.8314553014934062957763671875" lon="-1.62755479104816913604736328125">
        <ele>432</ele>
        <time>2020-02-16T07:24:52.000Z</time>
      </trkpt>
      <trkpt lat="42.831462509930133819580078125" lon="-1.6276453994214534759521484375">
        <ele>432</ele>
        <time>2020-02-16T07:24:54.000Z</time>
      </trkpt>
      <trkpt lat="42.83146686851978302001953125" lon="-1.627767272293567657470703125">
        <ele>432</ele>
        <time>2020-02-16T07:24:56.000Z</time>
      </trkpt>
      <trkpt lat="42.83146762289106845855712890625" lon="-1.62791470997035503387451171875">
        <ele>432</ele>
        <time>2020-02-16T07:24:58.000Z</time>
      </trkpt>
      <trkpt lat="42.8314861468970775604248046875" lon="-1.6281644068658351898193359375">
        <ele>432</ele>
        <time>2020-02-16T07:25:01.000Z</time>
      </trkpt>
      <trkpt lat="42.8315076045691967010498046875" lon="-1.628824062645435333251953125">
        <ele>431.20001220703125</ele>
        <time>2020-02-16T07:25:09.000Z</time>
      </trkpt>
      <trkpt lat="42.8315293975174427032470703125" lon="-1.6288989968597888946533203125">
        <ele>431.20001220703125</ele>
        <time>2020-02-16T07:25:10.000Z</time>
      </trkpt>
      <trkpt lat="42.83162788487970829010009765625" lon="-1.628972254693508148193359375">
        <ele>431</ele>
        <time>2020-02-16T07:25:12.000Z</time>
      </trkpt>
      <trkpt lat="42.8317987918853759765625" lon="-1.6289083845913410186767578125">
        <ele>430.79998779296875</ele>
        <time>2020-02-16T07:25:15.000Z</time>
      </trkpt>
      <trkpt lat="42.83185386098921298980712890625" lon="-1.62887108512222766876220703125">
        <ele>430.79998779296875</ele>
        <time>2020-02-16T07:25:16.000Z</time>
      </trkpt>
      <trkpt lat="42.832165919244289398193359375" lon="-1.6286589391529560089111328125">
        <ele>430.600006103515625</ele>
        <time>2020-02-16T07:25:22.000Z</time>
      </trkpt>
      <trkpt lat="42.8325690887868404388427734375" lon="-1.628364734351634979248046875">
        <ele>430.600006103515625</ele>
        <time>2020-02-16T07:25:30.000Z</time>
      </trkpt>
      <trkpt lat="42.83261694945394992828369140625" lon="-1.6283223219215869903564453125">
        <ele>430.600006103515625</ele>
        <time>2020-02-16T07:25:31.000Z</time>
      </trkpt>
      <trkpt lat="42.83292724750936031341552734375" lon="-1.62805904634296894073486328125">
        <ele>430.600006103515625</ele>
        <time>2020-02-16T07:25:37.000Z</time>
      </trkpt>
      <trkpt lat="42.8332252241671085357666015625" lon="-1.62778772413730621337890625">
        <ele>430.79998779296875</ele>
        <time>2020-02-16T07:25:43.000Z</time>
      </trkpt>
      <trkpt lat="42.8335920162498950958251953125" lon="-1.62744197063148021697998046875">
        <ele>430.79998779296875</ele>
        <time>2020-02-16T07:25:50.000Z</time>
      </trkpt>
      <trkpt lat="42.83391966484487056732177734375" lon="-1.62709428928792476654052734375">
        <ele>431</ele>
        <time>2020-02-16T07:25:57.000Z</time>
      </trkpt>
      <trkpt lat="42.8341542743146419525146484375" lon="-1.6268695704638957977294921875">
        <ele>431.20001220703125</ele>
        <time>2020-02-16T07:26:02.000Z</time>
      </trkpt>
      <trkpt lat="42.8342515043914318084716796875" lon="-1.62677292712032794952392578125">
        <ele>431.20001220703125</ele>
        <time>2020-02-16T07:26:04.000Z</time>
      </trkpt>
      <trkpt lat="42.8346370719373226165771484375" lon="-1.6263951547443866729736328125">
        <ele>431.600006103515625</ele>
        <time>2020-02-16T07:26:12.000Z</time>
      </trkpt>
      <trkpt lat="42.83482675440609455108642578125" lon="-1.62621729075908660888671875">
        <ele>431.600006103515625</ele>
        <time>2020-02-16T07:26:16.000Z</time>
      </trkpt>
      <trkpt lat="42.8349785506725311279296875" lon="-1.6261111758649349212646484375">
        <ele>431.79998779296875</ele>
        <time>2020-02-16T07:26:19.000Z</time>
      </trkpt>
      <trkpt lat="42.83502322621643543243408203125" lon="-1.62607270292937755584716796875">
        <ele>431.79998779296875</ele>
        <time>2020-02-16T07:26:20.000Z</time>
      </trkpt>
      <trkpt lat="42.83512699417769908905029296875" lon="-1.62590774707496166229248046875">
        <ele>432</ele>
        <time>2020-02-16T07:26:23.000Z</time>
      </trkpt>
      <trkpt lat="42.83518348820507526397705078125" lon="-1.6258027218282222747802734375">
        <ele>432.399993896484375</ele>
        <time>2020-02-16T07:26:25.000Z</time>
      </trkpt>
      <trkpt lat="42.8352613560855388641357421875" lon="-1.625742204487323760986328125">
        <ele>432.79998779296875</ele>
        <time>2020-02-16T07:26:27.000Z</time>
      </trkpt>
      <trkpt lat="42.8354051895439624786376953125" lon="-1.62563382647931575775146484375">
        <ele>433.600006103515625</ele>
        <time>2020-02-16T07:26:31.000Z</time>
      </trkpt>
      <trkpt lat="42.83546981401741504669189453125" lon="-1.6255750693380832672119140625">
        <ele>434.20001220703125</ele>
        <time>2020-02-16T07:26:33.000Z</time>
      </trkpt>
      <trkpt lat="42.835533432662487030029296875" lon="-1.62552167661488056182861328125">
        <ele>434.79998779296875</ele>
        <time>2020-02-16T07:26:35.000Z</time>
      </trkpt>
      <trkpt lat="42.83565689809620380401611328125" lon="-1.6254241950809955596923828125">
        <ele>436</ele>
        <time>2020-02-16T07:26:39.000Z</time>
      </trkpt>
      <trkpt lat="42.83570836298167705535888671875" lon="-1.62537834607064723968505859375">
        <ele>436.600006103515625</ele>
        <time>2020-02-16T07:26:41.000Z</time>
      </trkpt>
      <trkpt lat="42.8357508592307567596435546875" lon="-1.62531648762524127960205078125">
        <ele>437</ele>
        <time>2020-02-16T07:26:43.000Z</time>
      </trkpt>
      <trkpt lat="42.83582814037799835205078125" lon="-1.62521573714911937713623046875">
        <ele>437.79998779296875</ele>
        <time>2020-02-16T07:26:46.000Z</time>
      </trkpt>
      <trkpt lat="42.83585521392524242401123046875" lon="-1.62518707104027271270751953125">
        <ele>438.600006103515625</ele>
        <time>2020-02-16T07:26:47.000Z</time>
      </trkpt>
      <trkpt lat="42.83599569462239742279052734375" lon="-1.6249930299818515777587890625">
        <ele>439.399993896484375</ele>
        <time>2020-02-16T07:26:53.000Z</time>
      </trkpt>
      <trkpt lat="42.83603710122406482696533203125" lon="-1.62493762560188770294189453125">
        <ele>439.600006103515625</ele>
        <time>2020-02-16T07:26:55.000Z</time>
      </trkpt>
      <trkpt lat="42.83611387945711612701416015625" lon="-1.6248009167611598968505859375">
        <ele>440.600006103515625</ele>
        <time>2020-02-16T07:26:59.000Z</time>
      </trkpt>
      <trkpt lat="42.83613667823374271392822265625" lon="-1.6247553192079067230224609375">
        <ele>440.600006103515625</ele>
        <time>2020-02-16T07:27:00.000Z</time>
      </trkpt>
      <trkpt lat="42.836219407618045806884765625" lon="-1.6245169378817081451416015625">
        <ele>441.79998779296875</ele>
        <time>2020-02-16T07:27:05.000Z</time>
      </trkpt>
      <trkpt lat="42.83623206429183483123779296875" lon="-1.6244666464626789093017578125">
        <ele>441.79998779296875</ele>
        <time>2020-02-16T07:27:06.000Z</time>
      </trkpt>
      <trkpt lat="42.836276404559612274169921875" lon="-1.6241997666656970977783203125">
        <ele>443</ele>
        <time>2020-02-16T07:27:12.000Z</time>
      </trkpt>
      <trkpt lat="42.8362941741943359375" lon="-1.62417487241327762603759765625">
        <ele>443.20001220703125</ele>
        <time>2020-02-16T07:27:13.000Z</time>
      </trkpt>
      <trkpt lat="42.83634446561336517333984375" lon="-1.62415928207337856292724609375">
        <ele>443.600006103515625</ele>
        <time>2020-02-16T07:27:15.000Z</time>
      </trkpt>
      <trkpt lat="42.836406491696834564208984375" lon="-1.624158360064029693603515625">
        <ele>444</ele>
        <time>2020-02-16T07:27:17.000Z</time>
      </trkpt>
      <trkpt lat="42.83652811311185359954833984375" lon="-1.62415894679725170135498046875">
        <ele>444.600006103515625</ele>
        <time>2020-02-16T07:27:21.000Z</time>
      </trkpt>
      <trkpt lat="42.836574129760265350341796875" lon="-1.6241585277020931243896484375">
        <ele>445</ele>
        <time>2020-02-16T07:27:23.000Z</time>
      </trkpt>
      <trkpt lat="42.83660841174423694610595703125" lon="-1.62415240891277790069580078125">
        <ele>445.399993896484375</ele>
        <time>2020-02-16T07:27:25.000Z</time>
      </trkpt>
      <trkpt lat="42.83661528490483760833740234375" lon="-1.624134220182895660400390625">
        <ele>445.600006103515625</ele>
        <time>2020-02-16T07:27:26.000Z</time>
      </trkpt>
      <trkpt lat="42.83662282861769199371337890625" lon="-1.624080240726470947265625">
        <ele>446</ele>
        <time>2020-02-16T07:27:29.000Z</time>
      </trkpt>
      <trkpt lat="42.8366286121308803558349609375" lon="-1.6240636445581912994384765625">
        <ele>446</ele>
        <time>2020-02-16T07:27:31.000Z</time>
      </trkpt>
      <trkpt lat="42.83663146197795867919921875" lon="-1.62404780276119709014892578125">
        <ele>446.20001220703125</ele>
        <time>2020-02-16T07:27:32.000Z</time>
      </trkpt>
      <trkpt lat="42.83663439564406871795654296875" lon="-1.62389273755252361297607421875">
        <ele>446.600006103515625</ele>
        <time>2020-02-16T07:27:37.000Z</time>
      </trkpt>
      <trkpt lat="42.8366775624454021453857421875" lon="-1.6237409412860870361328125">
        <ele>446.600006103515625</ele>
        <time>2020-02-16T07:27:41.000Z</time>
      </trkpt>
      <trkpt lat="42.83669457770884037017822265625" lon="-1.6237168014049530029296875">
        <ele>446.79998779296875</ele>
        <time>2020-02-16T07:27:42.000Z</time>
      </trkpt>
      <trkpt lat="42.83678543753921985626220703125" lon="-1.623692326247692108154296875">
        <ele>446.600006103515625</ele>
        <time>2020-02-16T07:27:46.000Z</time>
      </trkpt>
      <trkpt lat="42.83681779168546199798583984375" lon="-1.623739935457706451416015625">
        <ele>446.600006103515625</ele>
        <time>2020-02-16T07:27:48.000Z</time>
      </trkpt>
      <trkpt lat="42.8369021974503993988037109375" lon="-1.62383037619292736053466796875">
        <ele>446.399993896484375</ele>
        <time>2020-02-16T07:27:52.000Z</time>
      </trkpt>
      <trkpt lat="42.8370433486998081207275390625" lon="-1.6239917278289794921875">
        <ele>446.399993896484375</ele>
        <time>2020-02-16T07:27:59.000Z</time>
      </trkpt>
      <trkpt lat="42.83714233897626399993896484375" lon="-1.62415073253214359283447265625">
        <ele>446.79998779296875</ele>
        <time>2020-02-16T07:28:05.000Z</time>
      </trkpt>
      <trkpt lat="42.83716983161866664886474609375" lon="-1.62420689128339290618896484375">
        <ele>447.20001220703125</ele>
        <time>2020-02-16T07:28:07.000Z</time>
      </trkpt>
      <trkpt lat="42.83722196705639362335205078125" lon="-1.62428333424031734466552734375">
        <ele>448.399993896484375</ele>
        <time>2020-02-16T07:28:10.000Z</time>
      </trkpt>
      <trkpt lat="42.8372572548687458038330078125" lon="-1.6243365593254566192626953125">
        <ele>448.79998779296875</ele>
        <time>2020-02-16T07:28:12.000Z</time>
      </trkpt>
      <trkpt lat="42.83734568394720554351806640625" lon="-1.62446823902428150177001953125">
        <ele>449.399993896484375</ele>
        <time>2020-02-16T07:28:17.000Z</time>
      </trkpt>
      <trkpt lat="42.83739932812750339508056640625" lon="-1.624543927609920501708984375">
        <ele>449.79998779296875</ele>
        <time>2020-02-16T07:28:20.000Z</time>
      </trkpt>
      <trkpt lat="42.83746805973351001739501953125" lon="-1.62464794702827930450439453125">
        <ele>450.600006103515625</ele>
        <time>2020-02-16T07:28:24.000Z</time>
      </trkpt>
      <trkpt lat="42.83753343857824802398681640625" lon="-1.62475540302693843841552734375">
        <ele>451.79998779296875</ele>
        <time>2020-02-16T07:28:28.000Z</time>
      </trkpt>
      <trkpt lat="42.8375990688800811767578125" lon="-1.62486017681658267974853515625">
        <ele>452.399993896484375</ele>
        <time>2020-02-16T07:28:32.000Z</time>
      </trkpt>
      <trkpt lat="42.8376310877501964569091796875" lon="-1.6249142400920391082763671875">
        <ele>452.79998779296875</ele>
        <time>2020-02-16T07:28:34.000Z</time>
      </trkpt>
      <trkpt lat="42.8376981429755687713623046875" lon="-1.62505648098886013031005859375">
        <ele>453.79998779296875</ele>
        <time>2020-02-16T07:28:39.000Z</time>
      </trkpt>
      <trkpt lat="42.83771331422030925750732421875" lon="-1.62511498667299747467041015625">
        <ele>454.399993896484375</ele>
        <time>2020-02-16T07:28:41.000Z</time>
      </trkpt>
      <trkpt lat="42.83774147741496562957763671875" lon="-1.62520400248467922210693359375">
        <ele>455</ele>
        <time>2020-02-16T07:28:44.000Z</time>
      </trkpt>
      <trkpt lat="42.83779378049075603485107421875" lon="-1.62534959614276885986328125">
        <ele>456</ele>
        <time>2020-02-16T07:28:49.000Z</time>
      </trkpt>
      <trkpt lat="42.83782781101763248443603515625" lon="-1.62549602799117565155029296875">
        <ele>457</ele>
        <time>2020-02-16T07:28:54.000Z</time>
      </trkpt>
      <trkpt lat="42.8378617577254772186279296875" lon="-1.62557867355644702911376953125">
        <ele>457.600006103515625</ele>
        <time>2020-02-16T07:28:57.000Z</time>
      </trkpt>
      <trkpt lat="42.83789034001529216766357421875" lon="-1.62566567771136760711669921875">
        <ele>458.20001220703125</ele>
        <time>2020-02-16T07:29:00.000Z</time>
      </trkpt>
      <trkpt lat="42.8379294835031032562255859375" lon="-1.6257767379283905029296875">
        <ele>459.20001220703125</ele>
        <time>2020-02-16T07:29:04.000Z</time>
      </trkpt>
      <trkpt lat="42.837938703596591949462890625" lon="-1.62580423057079315185546875">
        <ele>459.600006103515625</ele>
        <time>2020-02-16T07:29:05.000Z</time>
      </trkpt>
      <trkpt lat="42.8379546292126178741455078125" lon="-1.6258597187697887420654296875">
        <ele>460.20001220703125</ele>
        <time>2020-02-16T07:29:07.000Z</time>
      </trkpt>
      <trkpt lat="42.83802755177021026611328125" lon="-1.62601050920784473419189453125">
        <ele>461.399993896484375</ele>
        <time>2020-02-16T07:29:13.000Z</time>
      </trkpt>
      <trkpt lat="42.8381044976413249969482421875" lon="-1.626129783689975738525390625">
        <ele>462.79998779296875</ele>
        <time>2020-02-16T07:29:18.000Z</time>
      </trkpt>
      <trkpt lat="42.838163338601589202880859375" lon="-1.62622760049998760223388671875">
        <ele>463.20001220703125</ele>
        <time>2020-02-16T07:29:22.000Z</time>
      </trkpt>
      <trkpt lat="42.83818957395851612091064453125" lon="-1.62627160549163818359375">
        <ele>463.600006103515625</ele>
        <time>2020-02-16T07:29:24.000Z</time>
      </trkpt>
      <trkpt lat="42.838252522051334381103515625" lon="-1.62636816501617431640625">
        <ele>465</ele>
        <time>2020-02-16T07:29:29.000Z</time>
      </trkpt>
      <trkpt lat="42.8382661007344722747802734375" lon="-1.62638786248862743377685546875">
        <ele>465.399993896484375</ele>
        <time>2020-02-16T07:29:30.000Z</time>
      </trkpt>
      <trkpt lat="42.8382942639291286468505859375" lon="-1.626427508890628814697265625">
        <ele>466</ele>
        <time>2020-02-16T07:29:32.000Z</time>
      </trkpt>
      <trkpt lat="42.83837129361927509307861328125" lon="-1.6265708394348621368408203125">
        <ele>467.20001220703125</ele>
        <time>2020-02-16T07:29:38.000Z</time>
      </trkpt>
      <trkpt lat="42.83838688395917415618896484375" lon="-1.6265926323831081390380859375">
        <ele>467.600006103515625</ele>
        <time>2020-02-16T07:29:39.000Z</time>
      </trkpt>
      <trkpt lat="42.8384303860366344451904296875" lon="-1.62665859796106815338134765625">
        <ele>468.20001220703125</ele>
        <time>2020-02-16T07:29:42.000Z</time>
      </trkpt>
      <trkpt lat="42.83848981373012065887451171875" lon="-1.62674912251532077789306640625">
        <ele>469.399993896484375</ele>
        <time>2020-02-16T07:29:46.000Z</time>
      </trkpt>
      <trkpt lat="42.8385614790022373199462890625" lon="-1.6268605180084705352783203125">
        <ele>470.399993896484375</ele>
        <time>2020-02-16T07:29:51.000Z</time>
      </trkpt>
      <trkpt lat="42.83861403353512287139892578125" lon="-1.62695330567657947540283203125">
        <ele>471.600006103515625</ele>
        <time>2020-02-16T07:29:55.000Z</time>
      </trkpt>
      <trkpt lat="42.83868511207401752471923828125" lon="-1.62710200063884258270263671875">
        <ele>472.600006103515625</ele>
        <time>2020-02-16T07:30:01.000Z</time>
      </trkpt>
      <trkpt lat="42.83873272128403186798095703125" lon="-1.62719772197306156158447265625">
        <ele>473.20001220703125</ele>
        <time>2020-02-16T07:30:05.000Z</time>
      </trkpt>
      <trkpt lat="42.83876155503094196319580078125" lon="-1.62726963870227336883544921875">
        <ele>473.79998779296875</ele>
        <time>2020-02-16T07:30:08.000Z</time>
      </trkpt>
      <trkpt lat="42.83880413509905338287353515625" lon="-1.6273912601172924041748046875">
        <ele>475</ele>
        <time>2020-02-16T07:30:13.000Z</time>
      </trkpt>
      <trkpt lat="42.83881486393511295318603515625" lon="-1.6274157352745532989501953125">
        <ele>475</ele>
        <time>2020-02-16T07:30:14.000Z</time>
      </trkpt>
      <trkpt lat="42.8388565219938755035400390625" lon="-1.62750969640910625457763671875">
        <ele>476.20001220703125</ele>
        <time>2020-02-16T07:30:18.000Z</time>
      </trkpt>
      <trkpt lat="42.83889063633978366851806640625" lon="-1.62760558538138866424560546875">
        <ele>477</ele>
        <time>2020-02-16T07:30:22.000Z</time>
      </trkpt>
      <trkpt lat="42.83891846425831317901611328125" lon="-1.6276732273399829864501953125">
        <ele>478.20001220703125</ele>
        <time>2020-02-16T07:30:25.000Z</time>
      </trkpt>
      <trkpt lat="42.83894897438585758209228515625" lon="-1.62774078547954559326171875">
        <ele>478.79998779296875</ele>
        <time>2020-02-16T07:30:28.000Z</time>
      </trkpt>
      <trkpt lat="42.838958613574504852294921875" lon="-1.62776417098939418792724609375">
        <ele>479.20001220703125</ele>
        <time>2020-02-16T07:30:29.000Z</time>
      </trkpt>
      <trkpt lat="42.83901619724929332733154296875" lon="-1.62787087261676788330078125">
        <ele>480.20001220703125</ele>
        <time>2020-02-16T07:30:34.000Z</time>
      </trkpt>
      <trkpt lat="42.83902910538017749786376953125" lon="-1.62788839079439640045166015625">
        <ele>480.399993896484375</ele>
        <time>2020-02-16T07:30:35.000Z</time>
      </trkpt>
      <trkpt lat="42.83909264020621776580810546875" lon="-1.62798696197569370269775390625">
        <ele>481.399993896484375</ele>
        <time>2020-02-16T07:30:40.000Z</time>
      </trkpt>
      <trkpt lat="42.83913253806531429290771484375" lon="-1.6280668415129184722900390625">
        <ele>482.399993896484375</ele>
        <time>2020-02-16T07:30:44.000Z</time>
      </trkpt>
      <trkpt lat="42.83914477564394474029541015625" lon="-1.628086455166339874267578125">
        <ele>482.600006103515625</ele>
        <time>2020-02-16T07:30:45.000Z</time>
      </trkpt>
      <trkpt lat="42.83921149559319019317626953125" lon="-1.62815921008586883544921875">
        <ele>483.399993896484375</ele>
        <time>2020-02-16T07:30:50.000Z</time>
      </trkpt>
      <trkpt lat="42.83922021277248859405517578125" lon="-1.62817270494997501373291015625">
        <ele>483.600006103515625</ele>
        <time>2020-02-16T07:30:51.000Z</time>
      </trkpt>
      <trkpt lat="42.83926698379218578338623046875" lon="-1.62825434468686580657958984375">
        <ele>484.600006103515625</ele>
        <time>2020-02-16T07:30:56.000Z</time>
      </trkpt>
      <trkpt lat="42.8392762877047061920166015625" lon="-1.62827454507350921630859375">
        <ele>484.79998779296875</ele>
        <time>2020-02-16T07:30:57.000Z</time>
      </trkpt>
      <trkpt lat="42.83931157551705837249755859375" lon="-1.6283310391008853912353515625">
        <ele>485.600006103515625</ele>
        <time>2020-02-16T07:31:00.000Z</time>
      </trkpt>
      <trkpt lat="42.83935415558516979217529296875" lon="-1.628393232822418212890625">
        <ele>486.600006103515625</ele>
        <time>2020-02-16T07:31:04.000Z</time>
      </trkpt>
      <trkpt lat="42.839399166405200958251953125" lon="-1.62848174571990966796875">
        <ele>487.600006103515625</ele>
        <time>2020-02-16T07:31:09.000Z</time>
      </trkpt>
      <trkpt lat="42.83942003734409809112548828125" lon="-1.6285358928143978118896484375">
        <ele>488.399993896484375</ele>
        <time>2020-02-16T07:31:12.000Z</time>
      </trkpt>
      <trkpt lat="42.839437387883663177490234375" lon="-1.628575623035430908203125">
        <ele>488.600006103515625</ele>
        <time>2020-02-16T07:31:14.000Z</time>
      </trkpt>
      <trkpt lat="42.83947317861020565032958984375" lon="-1.62865214981138706207275390625">
        <ele>489.79998779296875</ele>
        <time>2020-02-16T07:31:18.000Z</time>
      </trkpt>
      <trkpt lat="42.83948156051337718963623046875" lon="-1.6286760382354259490966796875">
        <ele>490</ele>
        <time>2020-02-16T07:31:19.000Z</time>
      </trkpt>
      <trkpt lat="42.83952514640986919403076171875" lon="-1.62875759415328502655029296875">
        <ele>490.600006103515625</ele>
        <time>2020-02-16T07:31:23.000Z</time>
      </trkpt>
      <trkpt lat="42.83955582417547702789306640625" lon="-1.6288148425519466400146484375">
        <ele>491.20001220703125</ele>
        <time>2020-02-16T07:31:26.000Z</time>
      </trkpt>
      <trkpt lat="42.83957979641854763031005859375" lon="-1.6288527287542819976806640625">
        <ele>491.79998779296875</ele>
        <time>2020-02-16T07:31:28.000Z</time>
      </trkpt>
      <trkpt lat="42.8396273218095302581787109375" lon="-1.62894585169851779937744140625">
        <ele>492.600006103515625</ele>
        <time>2020-02-16T07:31:33.000Z</time>
      </trkpt>
      <trkpt lat="42.8396367095410823822021484375" lon="-1.62896429188549518585205078125">
        <ele>492.79998779296875</ele>
        <time>2020-02-16T07:31:34.000Z</time>
      </trkpt>
      <trkpt lat="42.839700914919376373291015625" lon="-1.62905372679233551025390625">
        <ele>494</ele>
        <time>2020-02-16T07:31:39.000Z</time>
      </trkpt>
      <trkpt lat="42.83971357159316539764404296875" lon="-1.62907107733190059661865234375">
        <ele>494.20001220703125</ele>
        <time>2020-02-16T07:31:40.000Z</time>
      </trkpt>
      <trkpt lat="42.839755229651927947998046875" lon="-1.62913695909082889556884765625">
        <ele>495.20001220703125</ele>
        <time>2020-02-16T07:31:44.000Z</time>
      </trkpt>
      <trkpt lat="42.83980024047195911407470703125" lon="-1.62917803041636943817138671875">
        <ele>495.79998779296875</ele>
        <time>2020-02-16T07:31:47.000Z</time>
      </trkpt>
      <trkpt lat="42.83982287161052227020263671875" lon="-1.62921407260000705718994140625">
        <ele>496.399993896484375</ele>
        <time>2020-02-16T07:31:49.000Z</time>
      </trkpt>
      <trkpt lat="42.83986561931669712066650390625" lon="-1.6292905993759632110595703125">
        <ele>497.399993896484375</ele>
        <time>2020-02-16T07:31:53.000Z</time>
      </trkpt>
      <trkpt lat="42.8398895077407360076904296875" lon="-1.62932865321636199951171875">
        <ele>497.600006103515625</ele>
        <time>2020-02-16T07:31:55.000Z</time>
      </trkpt>
      <trkpt lat="42.839922867715358734130859375" lon="-1.6293871589004993438720703125">
        <ele>498.600006103515625</ele>
        <time>2020-02-16T07:31:58.000Z</time>
      </trkpt>
      <trkpt lat="42.83998698927462100982666015625" lon="-1.62948011420667171478271484375">
        <ele>499.600006103515625</ele>
        <time>2020-02-16T07:32:03.000Z</time>
      </trkpt>
      <trkpt lat="42.84004130400717258453369140625" lon="-1.6295873187482357025146484375">
        <ele>500.79998779296875</ele>
        <time>2020-02-16T07:32:08.000Z</time>
      </trkpt>
      <trkpt lat="42.8400641866028308868408203125" lon="-1.6296201758086681365966796875">
        <ele>501.600006103515625</ele>
        <time>2020-02-16T07:32:10.000Z</time>
      </trkpt>
      <trkpt lat="42.84007583744823932647705078125" lon="-1.629635430872440338134765625">
        <ele>501.79998779296875</ele>
        <time>2020-02-16T07:32:11.000Z</time>
      </trkpt>
      <trkpt lat="42.84011707641184329986572265625" lon="-1.62970474921166896820068359375">
        <ele>503.20001220703125</ele>
        <time>2020-02-16T07:32:15.000Z</time>
      </trkpt>
      <trkpt lat="42.84013501368463039398193359375" lon="-1.62973911501467227935791015625">
        <ele>503.79998779296875</ele>
        <time>2020-02-16T07:32:17.000Z</time>
      </trkpt>
      <trkpt lat="42.84016527235507965087890625" lon="-1.6297871433198451995849609375">
        <ele>504.399993896484375</ele>
        <time>2020-02-16T07:32:20.000Z</time>
      </trkpt>
      <trkpt lat="42.8402137197554111480712890625" lon="-1.6298471577465534210205078125">
        <ele>505</ele>
        <time>2020-02-16T07:32:24.000Z</time>
      </trkpt>
      <trkpt lat="42.8402221016585826873779296875" lon="-1.6298615746200084686279296875">
        <ele>505.20001220703125</ele>
        <time>2020-02-16T07:32:25.000Z</time>
      </trkpt>
      <trkpt lat="42.840228974819183349609375" lon="-1.62987423129379749298095703125">
        <ele>505.399993896484375</ele>
        <time>2020-02-16T07:32:27.000Z</time>
      </trkpt>
      <trkpt lat="42.84083724953234195709228515625" lon="-1.6311044432222843170166015625">
        <ele>520.20001220703125</ele>
        <time>2020-02-16T07:34:07.000Z</time>
      </trkpt>
      <trkpt lat="42.84084253013134002685546875" lon="-1.6311195306479930877685546875">
        <ele>520.4000244140625</ele>
        <time>2020-02-16T07:34:08.000Z</time>
      </trkpt>
      <trkpt lat="42.84086541272699832916259765625" lon="-1.63119588978588581085205078125">
        <ele>521.4000244140625</ele>
        <time>2020-02-16T07:34:14.000Z</time>
      </trkpt>
      <trkpt lat="42.8408767282962799072265625" lon="-1.63121692836284637451171875">
        <ele>521.5999755859375</ele>
        <time>2020-02-16T07:34:16.000Z</time>
      </trkpt>
      <trkpt lat="42.84089474938809871673583984375" lon="-1.6312757693231105804443359375">
        <ele>522.4000244140625</ele>
        <time>2020-02-16T07:34:20.000Z</time>
      </trkpt>
      <trkpt lat="42.84090229310095310211181640625" lon="-1.631329245865345001220703125">
        <ele>523</ele>
        <time>2020-02-16T07:34:24.000Z</time>
      </trkpt>
      <trkpt lat="42.84090581350028514862060546875" lon="-1.631354726850986480712890625">
        <ele>523.4000244140625</ele>
        <time>2020-02-16T07:34:27.000Z</time>
      </trkpt>
      <trkpt lat="42.840914614498615264892578125" lon="-1.631407029926776885986328125">
        <ele>524.20001220703125</ele>
        <time>2020-02-16T07:34:34.000Z</time>
      </trkpt>
      <trkpt lat="42.8409224934875965118408203125" lon="-1.63142974488437175750732421875">
        <ele>524.4000244140625</ele>
        <time>2020-02-16T07:34:35.000Z</time>
      </trkpt>
      <trkpt lat="42.84098611213266849517822265625" lon="-1.6316767595708370208740234375">
        <ele>524.5999755859375</ele>
        <time>2020-02-16T07:34:44.000Z</time>
      </trkpt>
      <trkpt lat="42.84103489480912685394287109375" lon="-1.63183442316949367523193359375">
        <ele>525.4000244140625</ele>
        <time>2020-02-16T07:34:50.000Z</time>
      </trkpt>
      <trkpt lat="42.84105249680578708648681640625" lon="-1.63189343176782131195068359375">
        <ele>525.5999755859375</ele>
        <time>2020-02-16T07:34:52.000Z</time>
      </trkpt>
      <trkpt lat="42.84107864834368228912353515625" lon="-1.6319798491895198822021484375">
        <ele>526.5999755859375</ele>
        <time>2020-02-16T07:34:55.000Z</time>
      </trkpt>
      <trkpt lat="42.841130532324314117431640625" lon="-1.63214924745261669158935546875">
        <ele>527.5999755859375</ele>
        <time>2020-02-16T07:35:01.000Z</time>
      </trkpt>
      <trkpt lat="42.841209657490253448486328125" lon="-1.63233012892305850982666015625">
        <ele>528.79998779296875</ele>
        <time>2020-02-16T07:35:08.000Z</time>
      </trkpt>
      <trkpt lat="42.84123304300010204315185546875" lon="-1.63237891159951686859130859375">
        <ele>529</ele>
        <time>2020-02-16T07:35:10.000Z</time>
      </trkpt>
      <trkpt lat="42.841275371611118316650390625" lon="-1.63246088661253452301025390625">
        <ele>529.5999755859375</ele>
        <time>2020-02-16T07:35:14.000Z</time>
      </trkpt>
      <trkpt lat="42.84131049178540706634521484375" lon="-1.63252986967563629150390625">
        <ele>530.20001220703125</ele>
        <time>2020-02-16T07:35:17.000Z</time>
      </trkpt>
      <trkpt lat="42.8413425944745540618896484375" lon="-1.63260019384324550628662109375">
        <ele>530.79998779296875</ele>
        <time>2020-02-16T07:35:20.000Z</time>
      </trkpt>
      <trkpt lat="42.84140336327254772186279296875" lon="-1.63269817829132080078125">
        <ele>531.79998779296875</ele>
        <time>2020-02-16T07:35:25.000Z</time>
      </trkpt>
      <trkpt lat="42.84141509793698787689208984375" lon="-1.63271963596343994140625">
        <ele>532</ele>
        <time>2020-02-16T07:35:26.000Z</time>
      </trkpt>
      <trkpt lat="42.841466479003429412841796875" lon="-1.63279943168163299560546875">
        <ele>533</ele>
        <time>2020-02-16T07:35:30.000Z</time>
      </trkpt>
      <trkpt lat="42.84151014871895313262939453125" lon="-1.63288484327495098114013671875">
        <ele>534</ele>
        <time>2020-02-16T07:35:34.000Z</time>
      </trkpt>
      <trkpt lat="42.84155373461544513702392578125" lon="-1.63300269283354282379150390625">
        <ele>535</ele>
        <time>2020-02-16T07:35:40.000Z</time>
      </trkpt>
      <trkpt lat="42.84156815148890018463134765625" lon="-1.63304326124489307403564453125">
        <ele>535.5999755859375</ele>
        <time>2020-02-16T07:35:42.000Z</time>
      </trkpt>
      <trkpt lat="42.84159698523581027984619140625" lon="-1.63310444913804531097412109375">
        <ele>536.20001220703125</ele>
        <time>2020-02-16T07:35:45.000Z</time>
      </trkpt>
      <trkpt lat="42.8416577540338039398193359375" lon="-1.63320838473737239837646484375">
        <ele>537.20001220703125</ele>
        <time>2020-02-16T07:35:51.000Z</time>
      </trkpt>
      <trkpt lat="42.8416679799556732177734375" lon="-1.633226573467254638671875">
        <ele>537.20001220703125</ele>
        <time>2020-02-16T07:35:52.000Z</time>
      </trkpt>
      <trkpt lat="42.8417318500578403472900390625" lon="-1.63331265561282634735107421875">
        <ele>538.4000244140625</ele>
        <time>2020-02-16T07:35:57.000Z</time>
      </trkpt>
      <trkpt lat="42.84175389446318149566650390625" lon="-1.63335733115673065185546875">
        <ele>539</ele>
        <time>2020-02-16T07:35:59.000Z</time>
      </trkpt>
      <trkpt lat="42.84178490750491619110107421875" lon="-1.63342229090631008148193359375">
        <ele>539.5999755859375</ele>
        <time>2020-02-16T07:36:02.000Z</time>
      </trkpt>
      <trkpt lat="42.84184928052127361297607421875" lon="-1.63354567252099514007568359375">
        <ele>540.5999755859375</ele>
        <time>2020-02-16T07:36:08.000Z</time>
      </trkpt>
      <trkpt lat="42.8418602608144283294677734375" lon="-1.63356721401214599609375">
        <ele>540.5999755859375</ele>
        <time>2020-02-16T07:36:09.000Z</time>
      </trkpt>
      <trkpt lat="42.8419132344424724578857421875" lon="-1.6336666233837604522705078125">
        <ele>541.5999755859375</ele>
        <time>2020-02-16T07:36:14.000Z</time>
      </trkpt>
      <trkpt lat="42.8419313393533229827880859375" lon="-1.6337236203253269195556640625">
        <ele>542.20001220703125</ele>
        <time>2020-02-16T07:36:17.000Z</time>
      </trkpt>
      <trkpt lat="42.8419350273907184600830078125" lon="-1.63376175798475742340087890625">
        <ele>542.79998779296875</ele>
        <time>2020-02-16T07:36:19.000Z</time>
      </trkpt>
      <trkpt lat="42.84193796105682849884033203125" lon="-1.63378179073333740234375">
        <ele>543.20001220703125</ele>
        <time>2020-02-16T07:36:20.000Z</time>
      </trkpt>
      <trkpt lat="42.8419595025479793548583984375" lon="-1.6338174976408481597900390625">
        <ele>543.79998779296875</ele>
        <time>2020-02-16T07:36:22.000Z</time>
      </trkpt>
      <trkpt lat="42.84197249449789524078369140625" lon="-1.63383543491363525390625">
        <ele>543.79998779296875</ele>
        <time>2020-02-16T07:36:23.000Z</time>
      </trkpt>
      <trkpt lat="42.8420515358448028564453125" lon="-1.63396418094635009765625">
        <ele>545</ele>
        <time>2020-02-16T07:36:30.000Z</time>
      </trkpt>
      <trkpt lat="42.84206151030957698822021484375" lon="-1.6339797712862491607666015625">
        <ele>545.20001220703125</ele>
        <time>2020-02-16T07:36:31.000Z</time>
      </trkpt>
      <trkpt lat="42.8420973010361194610595703125" lon="-1.6340513527393341064453125">
        <ele>546.20001220703125</ele>
        <time>2020-02-16T07:36:35.000Z</time>
      </trkpt>
      <trkpt lat="42.84212940372526645660400390625" lon="-1.63410298526287078857421875">
        <ele>547.20001220703125</ele>
        <time>2020-02-16T07:36:38.000Z</time>
      </trkpt>
      <trkpt lat="42.84214164130389690399169921875" lon="-1.634118743240833282470703125">
        <ele>547.5999755859375</ele>
        <time>2020-02-16T07:36:39.000Z</time>
      </trkpt>
      <trkpt lat="42.84218070097267627716064453125" lon="-1.63418873213231563568115234375">
        <ele>548.5999755859375</ele>
        <time>2020-02-16T07:36:43.000Z</time>
      </trkpt>
      <trkpt lat="42.84219344146549701690673828125" lon="-1.63425276987254619598388671875">
        <ele>549.4000244140625</ele>
        <time>2020-02-16T07:36:46.000Z</time>
      </trkpt>
      <trkpt lat="42.84221791662275791168212890625" lon="-1.63431311957538127899169921875">
        <ele>549.79998779296875</ele>
        <time>2020-02-16T07:36:49.000Z</time>
      </trkpt>
      <trkpt lat="42.8422434814274311065673828125" lon="-1.63439760915935039520263671875">
        <ele>550.4000244140625</ele>
        <time>2020-02-16T07:36:53.000Z</time>
      </trkpt>
      <trkpt lat="42.84225605428218841552734375" lon="-1.63446751423180103302001953125">
        <ele>550.79998779296875</ele>
        <time>2020-02-16T07:36:56.000Z</time>
      </trkpt>
      <trkpt lat="42.84227826632559299468994140625" lon="-1.63453540764749050140380859375">
        <ele>551.5999755859375</ele>
        <time>2020-02-16T07:36:59.000Z</time>
      </trkpt>
      <trkpt lat="42.84229318611323833465576171875" lon="-1.6345799155533313751220703125">
        <ele>552</ele>
        <time>2020-02-16T07:37:01.000Z</time>
      </trkpt>
      <trkpt lat="42.842337191104888916015625" lon="-1.6346677578985691070556640625">
        <ele>552.79998779296875</ele>
        <time>2020-02-16T07:37:05.000Z</time>
      </trkpt>
      <trkpt lat="42.84234498627483844757080078125" lon="-1.63468963466584682464599609375">
        <ele>553</ele>
        <time>2020-02-16T07:37:06.000Z</time>
      </trkpt>
      <trkpt lat="42.84237499348819255828857421875" lon="-1.6347851045429706573486328125">
        <ele>554</ele>
        <time>2020-02-16T07:37:10.000Z</time>
      </trkpt>
      <trkpt lat="42.8424030728638172149658203125" lon="-1.63488660939037799835205078125">
        <ele>554.5999755859375</ele>
        <time>2020-02-16T07:37:14.000Z</time>
      </trkpt>
      <trkpt lat="42.84243199042975902557373046875" lon="-1.63498601876199245452880859375">
        <ele>555.20001220703125</ele>
        <time>2020-02-16T07:37:18.000Z</time>
      </trkpt>
      <trkpt lat="42.84246551804244518280029296875" lon="-1.63511627353727817535400390625">
        <ele>555.79998779296875</ele>
        <time>2020-02-16T07:37:23.000Z</time>
      </trkpt>
      <trkpt lat="42.84251094795763492584228515625" lon="-1.6352744400501251220703125">
        <ele>556.20001220703125</ele>
        <time>2020-02-16T07:37:29.000Z</time>
      </trkpt>
      <trkpt lat="42.842521257698535919189453125" lon="-1.6353269107639789581298828125">
        <ele>556.4000244140625</ele>
        <time>2020-02-16T07:37:31.000Z</time>
      </trkpt>
      <trkpt lat="42.8425640054047107696533203125" lon="-1.6355059482157230377197265625">
        <ele>557.20001220703125</ele>
        <time>2020-02-16T07:37:38.000Z</time>
      </trkpt>
      <trkpt lat="42.84257263876497745513916015625" lon="-1.6355319321155548095703125">
        <ele>557.4000244140625</ele>
        <time>2020-02-16T07:37:39.000Z</time>
      </trkpt>
      <trkpt lat="42.84264220856130123138427734375" lon="-1.6357567347586154937744140625">
        <ele>558.20001220703125</ele>
        <time>2020-02-16T07:37:48.000Z</time>
      </trkpt>
      <trkpt lat="42.842648662626743316650390625" lon="-1.63578338921070098876953125">
        <ele>558.4000244140625</ele>
        <time>2020-02-16T07:37:49.000Z</time>
      </trkpt>
      <trkpt lat="42.842688895761966705322265625" lon="-1.63597106002271175384521484375">
        <ele>559.5999755859375</ele>
        <time>2020-02-16T07:37:56.000Z</time>
      </trkpt>
      <trkpt lat="42.84269819967448711395263671875" lon="-1.63599503226578235626220703125">
        <ele>559.5999755859375</ele>
        <time>2020-02-16T07:37:57.000Z</time>
      </trkpt>
      <trkpt lat="42.8427463956177234649658203125" lon="-1.6361801885068416595458984375">
        <ele>560.4000244140625</ele>
        <time>2020-02-16T07:38:04.000Z</time>
      </trkpt>
      <trkpt lat="42.8427520953118801116943359375" lon="-1.63623408414423465728759765625">
        <ele>560.5999755859375</ele>
        <time>2020-02-16T07:38:06.000Z</time>
      </trkpt>
      <trkpt lat="42.842775397002696990966796875" lon="-1.63634154014289379119873046875">
        <ele>561.20001220703125</ele>
        <time>2020-02-16T07:38:10.000Z</time>
      </trkpt>
      <trkpt lat="42.8428064100444316864013671875" lon="-1.6364970244467258453369140625">
        <ele>561.79998779296875</ele>
        <time>2020-02-16T07:38:16.000Z</time>
      </trkpt>
      <trkpt lat="42.842810936272144317626953125" lon="-1.636546142399311065673828125">
        <ele>562</ele>
        <time>2020-02-16T07:38:18.000Z</time>
      </trkpt>
      <trkpt lat="42.8428362496197223663330078125" lon="-1.6366603039205074310302734375">
        <ele>563.20001220703125</ele>
        <time>2020-02-16T07:38:23.000Z</time>
      </trkpt>
      <trkpt lat="42.8428399376571178436279296875" lon="-1.6366831026971340179443359375">
        <ele>563.4000244140625</ele>
        <time>2020-02-16T07:38:24.000Z</time>
      </trkpt>
      <trkpt lat="42.84287103451788425445556640625" lon="-1.6368125192821025848388671875">
        <ele>564.20001220703125</ele>
        <time>2020-02-16T07:38:29.000Z</time>
      </trkpt>
      <trkpt lat="42.84287723712623119354248046875" lon="-1.6368381679058074951171875">
        <ele>564.4000244140625</ele>
        <time>2020-02-16T07:38:30.000Z</time>
      </trkpt>
      <trkpt lat="42.84291478805243968963623046875" lon="-1.63704209960997104644775390625">
        <ele>565.20001220703125</ele>
        <time>2020-02-16T07:38:37.000Z</time>
      </trkpt>
      <trkpt lat="42.84292551688849925994873046875" lon="-1.63707545958459377288818359375">
        <ele>565.4000244140625</ele>
        <time>2020-02-16T07:38:38.000Z</time>
      </trkpt>
      <trkpt lat="42.84295636229217052459716796875" lon="-1.637256257236003875732421875">
        <ele>565.4000244140625</ele>
        <time>2020-02-16T07:38:43.000Z</time>
      </trkpt>
      <trkpt lat="42.8429864533245563507080078125" lon="-1.63734552450478076934814453125">
        <ele>565.5999755859375</ele>
        <time>2020-02-16T07:38:46.000Z</time>
      </trkpt>
      <trkpt lat="42.84302777610719203948974609375" lon="-1.6373623721301555633544921875">
        <ele>565.5999755859375</ele>
        <time>2020-02-16T07:38:48.000Z</time>
      </trkpt>
      <trkpt lat="42.84308946691453456878662109375" lon="-1.637372262775897979736328125">
        <ele>565.5999755859375</ele>
        <time>2020-02-16T07:38:51.000Z</time>
      </trkpt>
      <trkpt lat="42.843142189085483551025390625" lon="-1.63738659583032131195068359375">
        <ele>565.5999755859375</ele>
        <time>2020-02-16T07:38:54.000Z</time>
      </trkpt>
      <trkpt lat="42.84321368671953678131103515625" lon="-1.63744476623833179473876953125">
        <ele>565.4000244140625</ele>
        <time>2020-02-16T07:38:58.000Z</time>
      </trkpt>
      <trkpt lat="42.843251489102840423583984375" lon="-1.63748793303966522216796875">
        <ele>565.20001220703125</ele>
        <time>2020-02-16T07:39:00.000Z</time>
      </trkpt>
      <trkpt lat="42.843337319791316986083984375" lon="-1.6375994123518466949462890625">
        <ele>563.79998779296875</ele>
        <time>2020-02-16T07:39:04.000Z</time>
      </trkpt>
      <trkpt lat="42.84338484518229961395263671875" lon="-1.6376577503979206085205078125">
        <ele>563.20001220703125</ele>
        <time>2020-02-16T07:39:06.000Z</time>
      </trkpt>
      <trkpt lat="42.84344335086643695831298828125" lon="-1.6377107240259647369384765625">
        <ele>562.79998779296875</ele>
        <time>2020-02-16T07:39:08.000Z</time>
      </trkpt>
      <trkpt lat="42.84350370056927204132080078125" lon="-1.63776176981627941131591796875">
        <ele>561.5999755859375</ele>
        <time>2020-02-16T07:39:10.000Z</time>
      </trkpt>
      <trkpt lat="42.84356639720499515533447265625" lon="-1.6378227062523365020751953125">
        <ele>560.79998779296875</ele>
        <time>2020-02-16T07:39:12.000Z</time>
      </trkpt>
      <trkpt lat="42.84359288401901721954345703125" lon="-1.63785296492278575897216796875">
        <ele>560.5999755859375</ele>
        <time>2020-02-16T07:39:13.000Z</time>
      </trkpt>
      <trkpt lat="42.84373487345874309539794921875" lon="-1.6380208544433116912841796875">
        <ele>559.4000244140625</ele>
        <time>2020-02-16T07:39:18.000Z</time>
      </trkpt>
      <trkpt lat="42.84382422454655170440673828125" lon="-1.63812889717519283294677734375">
        <ele>558.4000244140625</ele>
        <time>2020-02-16T07:39:21.000Z</time>
      </trkpt>
      <trkpt lat="42.84385205246508121490478515625" lon="-1.63816116750240325927734375">
        <ele>558</ele>
        <time>2020-02-16T07:39:22.000Z</time>
      </trkpt>
      <trkpt lat="42.84393285401165485382080078125" lon="-1.63825579918920993804931640625">
        <ele>557.20001220703125</ele>
        <time>2020-02-16T07:39:25.000Z</time>
      </trkpt>
      <trkpt lat="42.8439574129879474639892578125" lon="-1.63828857243061065673828125">
        <ele>556.79998779296875</ele>
        <time>2020-02-16T07:39:26.000Z</time>
      </trkpt>
      <trkpt lat="42.84404383040964603424072265625" lon="-1.63839208893477916717529296875">
        <ele>556</ele>
        <time>2020-02-16T07:39:29.000Z</time>
      </trkpt>
      <trkpt lat="42.84410183317959308624267578125" lon="-1.63847221992909908294677734375">
        <ele>555</ele>
        <time>2020-02-16T07:39:31.000Z</time>
      </trkpt>
      <trkpt lat="42.8441515378654003143310546875" lon="-1.63855771534144878387451171875">
        <ele>554.4000244140625</ele>
        <time>2020-02-16T07:39:33.000Z</time>
      </trkpt>
      <trkpt lat="42.84422068856656551361083984375" lon="-1.63868822157382965087890625">
        <ele>553.79998779296875</ele>
        <time>2020-02-16T07:39:36.000Z</time>
      </trkpt>
      <trkpt lat="42.84426947124302387237548828125" lon="-1.63876508362591266632080078125">
        <ele>553.20001220703125</ele>
        <time>2020-02-16T07:39:38.000Z</time>
      </trkpt>
      <trkpt lat="42.844333089888095855712890625" lon="-1.6388349048793315887451171875">
        <ele>552.5999755859375</ele>
        <time>2020-02-16T07:39:40.000Z</time>
      </trkpt>
      <trkpt lat="42.84443593584001064300537109375" lon="-1.6389338113367557525634765625">
        <ele>551.4000244140625</ele>
        <time>2020-02-16T07:39:43.000Z</time>
      </trkpt>
      <trkpt lat="42.84450097940862178802490234375" lon="-1.63899675942957401275634765625">
        <ele>551</ele>
        <time>2020-02-16T07:39:45.000Z</time>
      </trkpt>
      <trkpt lat="42.8445320762693881988525390625" lon="-1.63903690874576568603515625">
        <ele>550.79998779296875</ele>
        <time>2020-02-16T07:39:46.000Z</time>
      </trkpt>
      <trkpt lat="42.844587229192256927490234375" lon="-1.63912919349968433380126953125">
        <ele>550.4000244140625</ele>
        <time>2020-02-16T07:39:48.000Z</time>
      </trkpt>
      <trkpt lat="42.84462721087038516998291015625" lon="-1.639218293130397796630859375">
        <ele>549.5999755859375</ele>
        <time>2020-02-16T07:39:50.000Z</time>
      </trkpt>
      <trkpt lat="42.844646908342838287353515625" lon="-1.639260537922382354736328125">
        <ele>549.20001220703125</ele>
        <time>2020-02-16T07:39:51.000Z</time>
      </trkpt>
      <trkpt lat="42.84472092054784297943115234375" lon="-1.63944326341152191162109375">
        <ele>548</ele>
        <time>2020-02-16T07:39:55.000Z</time>
      </trkpt>
      <trkpt lat="42.8447498381137847900390625" lon="-1.63953387178480625152587890625">
        <ele>547.4000244140625</ele>
        <time>2020-02-16T07:39:57.000Z</time>
      </trkpt>
      <trkpt lat="42.8447681106626987457275390625" lon="-1.63961802609264850616455078125">
        <ele>547</ele>
        <time>2020-02-16T07:39:59.000Z</time>
      </trkpt>
      <trkpt lat="42.84479116089642047882080078125" lon="-1.63974911905825138092041015625">
        <ele>546.4000244140625</ele>
        <time>2020-02-16T07:40:03.000Z</time>
      </trkpt>
      <trkpt lat="42.84480524249374866485595703125" lon="-1.63980477489531040191650390625">
        <ele>545.79998779296875</ele>
        <time>2020-02-16T07:40:06.000Z</time>
      </trkpt>
      <trkpt lat="42.84481429494917392730712890625" lon="-1.6398383863270282745361328125">
        <ele>545.5999755859375</ele>
        <time>2020-02-16T07:40:08.000Z</time>
      </trkpt>
      <trkpt lat="42.84484933130443096160888671875" lon="-1.63995414040982723236083984375">
        <ele>544.5999755859375</ele>
        <time>2020-02-16T07:40:12.000Z</time>
      </trkpt>
      <trkpt lat="42.84486089833080768585205078125" lon="-1.6399862430989742279052734375">
        <ele>544.5999755859375</ele>
        <time>2020-02-16T07:40:13.000Z</time>
      </trkpt>
      <trkpt lat="42.8449796698987483978271484375" lon="-1.6401575691998004913330078125">
        <ele>543.5999755859375</ele>
        <time>2020-02-16T07:40:19.000Z</time>
      </trkpt>
      <trkpt lat="42.84503876231610774993896484375" lon="-1.64021733216941356658935546875">
        <ele>542.4000244140625</ele>
        <time>2020-02-16T07:40:22.000Z</time>
      </trkpt>
      <trkpt lat="42.84509223885834217071533203125" lon="-1.64028371684253215789794921875">
        <ele>541.4000244140625</ele>
        <time>2020-02-16T07:40:25.000Z</time>
      </trkpt>
      <trkpt lat="42.845139764249324798583984375" lon="-1.64035320281982421875">
        <ele>540.4000244140625</ele>
        <time>2020-02-16T07:40:28.000Z</time>
      </trkpt>
      <trkpt lat="42.8451986052095890045166015625" lon="-1.640436351299285888671875">
        <ele>539.20001220703125</ele>
        <time>2020-02-16T07:40:31.000Z</time>
      </trkpt>
      <trkpt lat="42.8452165424823760986328125" lon="-1.64045940153300762176513671875">
        <ele>538.5999755859375</ele>
        <time>2020-02-16T07:40:32.000Z</time>
      </trkpt>
      <trkpt lat="42.8452465496957302093505859375" lon="-1.640498377382755279541015625">
        <ele>538</ele>
        <time>2020-02-16T07:40:34.000Z</time>
      </trkpt>
      <trkpt lat="42.84526675008237361907958984375" lon="-1.6405350901186466217041015625">
        <ele>537.4000244140625</ele>
        <time>2020-02-16T07:40:37.000Z</time>
      </trkpt>
      <trkpt lat="42.84527814947068691253662109375" lon="-1.64055897854268550872802734375">
        <ele>537</ele>
        <time>2020-02-16T07:40:39.000Z</time>
      </trkpt>
      <trkpt lat="42.8453157842159271240234375" lon="-1.64058915339410305023193359375">
        <ele>536.79998779296875</ele>
        <time>2020-02-16T07:40:41.000Z</time>
      </trkpt>
      <trkpt lat="42.84540236927568912506103515625" lon="-1.6406246088445186614990234375">
        <ele>536</ele>
        <time>2020-02-16T07:40:45.000Z</time>
      </trkpt>
      <trkpt lat="42.8454272635281085968017578125" lon="-1.64063424803316593170166015625">
        <ele>536</ele>
        <time>2020-02-16T07:40:46.000Z</time>
      </trkpt>
      <trkpt lat="42.8455169498920440673828125" lon="-1.64070180617272853851318359375">
        <ele>534.5999755859375</ele>
        <time>2020-02-16T07:40:51.000Z</time>
      </trkpt>
      <trkpt lat="42.845555841922760009765625" lon="-1.64073885418474674224853515625">
        <ele>533.5999755859375</ele>
        <time>2020-02-16T07:40:54.000Z</time>
      </trkpt>
      <trkpt lat="42.8456431813538074493408203125" lon="-1.640821583569049835205078125">
        <ele>533</ele>
        <time>2020-02-16T07:40:59.000Z</time>
      </trkpt>
      <trkpt lat="42.84569389186799526214599609375" lon="-1.6408784128725528717041015625">
        <ele>532.5999755859375</ele>
        <time>2020-02-16T07:41:02.000Z</time>
      </trkpt>
      <trkpt lat="42.84575206227600574493408203125" lon="-1.64090146310627460479736328125">
        <ele>532.20001220703125</ele>
        <time>2020-02-16T07:41:04.000Z</time>
      </trkpt>
      <trkpt lat="42.84582029096782207489013671875" lon="-1.640910096466541290283203125">
        <ele>532</ele>
        <time>2020-02-16T07:41:06.000Z</time>
      </trkpt>
      <trkpt lat="42.845922969281673431396484375" lon="-1.64088687859475612640380859375">
        <ele>531.20001220703125</ele>
        <time>2020-02-16T07:41:09.000Z</time>
      </trkpt>
      <trkpt lat="42.845951803028583526611328125" lon="-1.6408720426261425018310546875">
        <ele>531</ele>
        <time>2020-02-16T07:41:10.000Z</time>
      </trkpt>
      <trkpt lat="42.84609337337315082550048828125" lon="-1.64076416753232479095458984375">
        <ele>530</ele>
        <time>2020-02-16T07:41:15.000Z</time>
      </trkpt>
      <trkpt lat="42.84640786238014698028564453125" lon="-1.6406611539423465728759765625">
        <ele>529.4000244140625</ele>
        <time>2020-02-16T07:41:22.000Z</time>
      </trkpt>
      <trkpt lat="42.84651196561753749847412109375" lon="-1.640659980475902557373046875">
        <ele>528.79998779296875</ele>
        <time>2020-02-16T07:41:24.000Z</time>
      </trkpt>
      <trkpt lat="42.84656460396945476531982421875" lon="-1.64066626690328121185302734375">
        <ele>528.5999755859375</ele>
        <time>2020-02-16T07:41:25.000Z</time>
      </trkpt>
      <trkpt lat="42.84661506302654743194580078125" lon="-1.64067883975803852081298828125">
        <ele>528.5999755859375</ele>
        <time>2020-02-16T07:41:26.000Z</time>
      </trkpt>
      <trkpt lat="42.84666384570300579071044921875" lon="-1.64069727994501590728759765625">
        <ele>528.20001220703125</ele>
        <time>2020-02-16T07:41:27.000Z</time>
      </trkpt>
      <trkpt lat="42.846812792122364044189453125" lon="-1.64075679145753383636474609375">
        <ele>527.79998779296875</ele>
        <time>2020-02-16T07:41:30.000Z</time>
      </trkpt>
      <trkpt lat="42.846993505954742431640625" lon="-1.6408190689980983734130859375">
        <ele>526.5999755859375</ele>
        <time>2020-02-16T07:41:34.000Z</time>
      </trkpt>
      <trkpt lat="42.84702879376709461212158203125" lon="-1.64083155803382396697998046875">
        <ele>526.20001220703125</ele>
        <time>2020-02-16T07:41:35.000Z</time>
      </trkpt>
      <trkpt lat="42.84719257615506649017333984375" lon="-1.64088637568056583404541015625">
        <ele>525.5999755859375</ele>
        <time>2020-02-16T07:41:40.000Z</time>
      </trkpt>
      <trkpt lat="42.84724655561149120330810546875" lon="-1.6409018822014331817626953125">
        <ele>525.4000244140625</ele>
        <time>2020-02-16T07:41:42.000Z</time>
      </trkpt>
      <trkpt lat="42.8474171273410320281982421875" lon="-1.6409652493894100189208984375">
        <ele>524.5999755859375</ele>
        <time>2020-02-16T07:41:49.000Z</time>
      </trkpt>
      <trkpt lat="42.8474422730505466461181640625" lon="-1.641013361513614654541015625">
        <ele>524.4000244140625</ele>
        <time>2020-02-16T07:41:51.000Z</time>
      </trkpt>
      <trkpt lat="42.84743766300380229949951171875" lon="-1.6410725377500057220458984375">
        <ele>524.20001220703125</ele>
        <time>2020-02-16T07:41:53.000Z</time>
      </trkpt>
      <trkpt lat="42.847416289150714874267578125" lon="-1.641157530248165130615234375">
        <ele>523.4000244140625</ele>
        <time>2020-02-16T07:41:56.000Z</time>
      </trkpt>
      <trkpt lat="42.84737781621515750885009765625" lon="-1.64130144752562046051025390625">
        <ele>523.20001220703125</ele>
        <time>2020-02-16T07:42:00.000Z</time>
      </trkpt>
      <trkpt lat="42.847312353551387786865234375" lon="-1.64153672754764556884765625">
        <ele>523.4000244140625</ele>
        <time>2020-02-16T07:42:07.000Z</time>
      </trkpt>
      <trkpt lat="42.8472783230245113372802734375" lon="-1.6416715085506439208984375">
        <ele>524.4000244140625</ele>
        <time>2020-02-16T07:42:11.000Z</time>
      </trkpt>
      <trkpt lat="42.84725544042885303497314453125" lon="-1.641775108873844146728515625">
        <ele>525</ele>
        <time>2020-02-16T07:42:14.000Z</time>
      </trkpt>
      <trkpt lat="42.84723834134638309478759765625" lon="-1.6418430022895336151123046875">
        <ele>525.4000244140625</ele>
        <time>2020-02-16T07:42:16.000Z</time>
      </trkpt>
      <trkpt lat="42.84722995944321155548095703125" lon="-1.64187611080706119537353515625">
        <ele>525.5999755859375</ele>
        <time>2020-02-16T07:42:17.000Z</time>
      </trkpt>
      <trkpt lat="42.84719743765890598297119140625" lon="-1.64201659150421619415283203125">
        <ele>526.20001220703125</ele>
        <time>2020-02-16T07:42:21.000Z</time>
      </trkpt>
      <trkpt lat="42.84718084149062633514404296875" lon="-1.642090938985347747802734375">
        <ele>526.79998779296875</ele>
        <time>2020-02-16T07:42:23.000Z</time>
      </trkpt>
      <trkpt lat="42.84715385176241397857666015625" lon="-1.64220216684043407440185546875">
        <ele>527.5999755859375</ele>
        <time>2020-02-16T07:42:26.000Z</time>
      </trkpt>
      <trkpt lat="42.8471378423273563385009765625" lon="-1.6422765143215656280517578125">
        <ele>528</ele>
        <time>2020-02-16T07:42:28.000Z</time>
      </trkpt>
      <trkpt lat="42.84711085259914398193359375" lon="-1.64238296449184417724609375">
        <ele>528.79998779296875</ele>
        <time>2020-02-16T07:42:31.000Z</time>
      </trkpt>
      <trkpt lat="42.84709316678345203399658203125" lon="-1.6424528695642948150634765625">
        <ele>529</ele>
        <time>2020-02-16T07:42:33.000Z</time>
      </trkpt>
      <trkpt lat="42.8470412828028202056884765625" lon="-1.64263375103473663330078125">
        <ele>530.20001220703125</ele>
        <time>2020-02-16T07:42:38.000Z</time>
      </trkpt>
      <trkpt lat="42.84701026976108551025390625" lon="-1.6427445597946643829345703125">
        <ele>530.79998779296875</ele>
        <time>2020-02-16T07:42:41.000Z</time>
      </trkpt>
      <trkpt lat="42.8469919972121715545654296875" lon="-1.64282209239900112152099609375">
        <ele>531.20001220703125</ele>
        <time>2020-02-16T07:42:43.000Z</time>
      </trkpt>
      <trkpt lat="42.846945561468601226806640625" lon="-1.6429943405091762542724609375">
        <ele>532</ele>
        <time>2020-02-16T07:42:48.000Z</time>
      </trkpt>
      <trkpt lat="42.84692720510065555572509765625" lon="-1.64306617341935634613037109375">
        <ele>532.20001220703125</ele>
        <time>2020-02-16T07:42:50.000Z</time>
      </trkpt>
      <trkpt lat="42.84688982181251049041748046875" lon="-1.64324001409113407135009765625">
        <ele>532.5999755859375</ele>
        <time>2020-02-16T07:42:55.000Z</time>
      </trkpt>
      <trkpt lat="42.84685981459915637969970703125" lon="-1.6434013657271862030029296875">
        <ele>533.20001220703125</ele>
        <time>2020-02-16T07:43:00.000Z</time>
      </trkpt>
      <trkpt lat="42.8468526899814605712890625" lon="-1.643432714045047760009765625">
        <ele>533.20001220703125</ele>
        <time>2020-02-16T07:43:01.000Z</time>
      </trkpt>
      <trkpt lat="42.846832238137722015380859375" lon="-1.64360127411782741546630859375">
        <ele>534.4000244140625</ele>
        <time>2020-02-16T07:43:06.000Z</time>
      </trkpt>
      <trkpt lat="42.846840955317020416259765625" lon="-1.64371040649712085723876953125">
        <ele>535.20001220703125</ele>
        <time>2020-02-16T07:43:09.000Z</time>
      </trkpt>
      <trkpt lat="42.8468558751046657562255859375" lon="-1.643776707351207733154296875">
        <ele>535.5999755859375</ele>
        <time>2020-02-16T07:43:11.000Z</time>
      </trkpt>
      <trkpt lat="42.8469001315534114837646484375" lon="-1.64389614947140216827392578125">
        <ele>536.4000244140625</ele>
        <time>2020-02-16T07:43:15.000Z</time>
      </trkpt>
      <trkpt lat="42.8469279594719409942626953125" lon="-1.6439552418887615203857421875">
        <ele>536.79998779296875</ele>
        <time>2020-02-16T07:43:17.000Z</time>
      </trkpt>
      <trkpt lat="42.84699694253504276275634765625" lon="-1.64405473507940769195556640625">
        <ele>538</ele>
        <time>2020-02-16T07:43:21.000Z</time>
      </trkpt>
      <trkpt lat="42.84704136662185192108154296875" lon="-1.64409379474818706512451171875">
        <ele>538.79998779296875</ele>
        <time>2020-02-16T07:43:23.000Z</time>
      </trkpt>
      <trkpt lat="42.847066931426525115966796875" lon="-1.64410837925970554351806640625">
        <ele>539.20001220703125</ele>
        <time>2020-02-16T07:43:24.000Z</time>
      </trkpt>
      <trkpt lat="42.8471745550632476806640625" lon="-1.64412212558090686798095703125">
        <ele>540.20001220703125</ele>
        <time>2020-02-16T07:43:28.000Z</time>
      </trkpt>
      <trkpt lat="42.8472018800675868988037109375" lon="-1.64412581361830234527587890625">
        <ele>540.5999755859375</ele>
        <time>2020-02-16T07:43:29.000Z</time>
      </trkpt>
      <trkpt lat="42.84728192724287509918212890625" lon="-1.64413855411112308502197265625">
        <ele>541.4000244140625</ele>
        <time>2020-02-16T07:43:32.000Z</time>
      </trkpt>
      <trkpt lat="42.84740111790597438812255859375" lon="-1.64420259185135364532470703125">
        <ele>542.20001220703125</ele>
        <time>2020-02-16T07:43:37.000Z</time>
      </trkpt>
      <trkpt lat="42.847422659397125244140625" lon="-1.64422094821929931640625">
        <ele>542.5999755859375</ele>
        <time>2020-02-16T07:43:38.000Z</time>
      </trkpt>
      <trkpt lat="42.8475408442318439483642578125" lon="-1.64435212500393390655517578125">
        <ele>543.5999755859375</ele>
        <time>2020-02-16T07:43:44.000Z</time>
      </trkpt>
      <trkpt lat="42.84757210873067378997802734375" lon="-1.64440643973648548126220703125">
        <ele>544</ele>
        <time>2020-02-16T07:43:46.000Z</time>
      </trkpt>
      <trkpt lat="42.8476042114198207855224609375" lon="-1.64449696429073810577392578125">
        <ele>544.79998779296875</ele>
        <time>2020-02-16T07:43:49.000Z</time>
      </trkpt>
      <trkpt lat="42.847616113722324371337890625" lon="-1.644636690616607666015625">
        <ele>545.79998779296875</ele>
        <time>2020-02-16T07:43:53.000Z</time>
      </trkpt>
      <trkpt lat="42.8476186282932758331298828125" lon="-1.6446729004383087158203125">
        <ele>546</ele>
        <time>2020-02-16T07:43:54.000Z</time>
      </trkpt>
      <trkpt lat="42.847624830901622772216796875" lon="-1.64489124901592731475830078125">
        <ele>547</ele>
        <time>2020-02-16T07:44:00.000Z</time>
      </trkpt>
      <trkpt lat="42.847630195319652557373046875" lon="-1.6449614055454730987548828125">
        <ele>547.5999755859375</ele>
        <time>2020-02-16T07:44:02.000Z</time>
      </trkpt>
      <trkpt lat="42.84770705737173557281494140625" lon="-1.6450690291821956634521484375">
        <ele>548.20001220703125</ele>
        <time>2020-02-16T07:44:07.000Z</time>
      </trkpt>
      <trkpt lat="42.8478167764842510223388671875" lon="-1.64505989290773868560791015625">
        <ele>549.20001220703125</ele>
        <time>2020-02-16T07:44:11.000Z</time>
      </trkpt>
      <trkpt lat="42.8478459455072879791259765625" lon="-1.645052433013916015625">
        <ele>549.5999755859375</ele>
        <time>2020-02-16T07:44:12.000Z</time>
      </trkpt>
      <trkpt lat="42.847943343222141265869140625" lon="-1.64501245133578777313232421875">
        <ele>550.4000244140625</ele>
        <time>2020-02-16T07:44:16.000Z</time>
      </trkpt>
      <trkpt lat="42.84797997213900089263916015625" lon="-1.6449952684342861175537109375">
        <ele>550.4000244140625</ele>
        <time>2020-02-16T07:44:18.000Z</time>
      </trkpt>
      <trkpt lat="42.8480591811239719390869140625" lon="-1.64492293260991573333740234375">
        <ele>550.5999755859375</ele>
        <time>2020-02-16T07:44:23.000Z</time>
      </trkpt>
      <trkpt lat="42.84807921387255191802978515625" lon="-1.6448930092155933380126953125">
        <ele>550.5999755859375</ele>
        <time>2020-02-16T07:44:24.000Z</time>
      </trkpt>
      <trkpt lat="42.84812263213098049163818359375" lon="-1.6448219306766986846923828125">
        <ele>550.5999755859375</ele>
        <time>2020-02-16T07:44:26.000Z</time>
      </trkpt>
      <trkpt lat="42.84817158244550228118896484375" lon="-1.64470843970775604248046875">
        <ele>550.5999755859375</ele>
        <time>2020-02-16T07:44:28.000Z</time>
      </trkpt>
      <trkpt lat="42.84830653108656406402587890625" lon="-1.6445218585431575775146484375">
        <ele>550.5999755859375</ele>
        <time>2020-02-16T07:44:31.000Z</time>
      </trkpt>
      <trkpt lat="42.848359085619449615478515625" lon="-1.64446427486836910247802734375">
        <ele>550.5999755859375</ele>
        <time>2020-02-16T07:44:32.000Z</time>
      </trkpt>
      <trkpt lat="42.8484861552715301513671875" lon="-1.6443563997745513916015625">
        <ele>549.20001220703125</ele>
        <time>2020-02-16T07:44:35.000Z</time>
      </trkpt>
      <trkpt lat="42.84852043725550174713134765625" lon="-1.64434005506336688995361328125">
        <ele>548.20001220703125</ele>
        <time>2020-02-16T07:44:36.000Z</time>
      </trkpt>
      <trkpt lat="42.84855413250625133514404296875" lon="-1.64433636702597141265869140625">
        <ele>547</ele>
        <time>2020-02-16T07:44:37.000Z</time>
      </trkpt>
      <trkpt lat="42.84863225184381008148193359375" lon="-1.64433670230209827423095703125">
        <ele>546</ele>
        <time>2020-02-16T07:44:39.000Z</time>
      </trkpt>
      <trkpt lat="42.84867382608354091644287109375" lon="-1.64433754049241542816162109375">
        <ele>545.79998779296875</ele>
        <time>2020-02-16T07:44:40.000Z</time>
      </trkpt>
      <trkpt lat="42.84871825017035007476806640625" lon="-1.64434097707271575927734375">
        <ele>545.79998779296875</ele>
        <time>2020-02-16T07:44:41.000Z</time>
      </trkpt>
      <trkpt lat="42.848930060863494873046875" lon="-1.64444130845367908477783203125">
        <ele>545.5999755859375</ele>
        <time>2020-02-16T07:44:46.000Z</time>
      </trkpt>
      <trkpt lat="42.84903760068118572235107421875" lon="-1.64464834146201610565185546875">
        <ele>546.20001220703125</ele>
        <time>2020-02-16T07:44:50.000Z</time>
      </trkpt>
      <trkpt lat="42.8490572981536388397216796875" lon="-1.64483358152210712432861328125">
        <ele>546.20001220703125</ele>
        <time>2020-02-16T07:44:53.000Z</time>
      </trkpt>
      <trkpt lat="42.849077917635440826416015625" lon="-1.64502468891441822052001953125">
        <ele>546.20001220703125</ele>
        <time>2020-02-16T07:44:56.000Z</time>
      </trkpt>
      <trkpt lat="42.8490928374230861663818359375" lon="-1.64519920013844966888427734375">
        <ele>545.5999755859375</ele>
        <time>2020-02-16T07:44:59.000Z</time>
      </trkpt>
      <trkpt lat="42.84912376664578914642333984375" lon="-1.64530632086098194122314453125">
        <ele>545.4000244140625</ele>
        <time>2020-02-16T07:45:01.000Z</time>
      </trkpt>
      <trkpt lat="42.84916383214294910430908203125" lon="-1.645410172641277313232421875">
        <ele>545.20001220703125</ele>
        <time>2020-02-16T07:45:03.000Z</time>
      </trkpt>
      <trkpt lat="42.84922552295029163360595703125" lon="-1.6455022059381008148193359375">
        <ele>544.4000244140625</ele>
        <time>2020-02-16T07:45:05.000Z</time>
      </trkpt>
      <trkpt lat="42.84926240332424640655517578125" lon="-1.64554973132908344268798828125">
        <ele>544</ele>
        <time>2020-02-16T07:45:06.000Z</time>
      </trkpt>
      <trkpt lat="42.84937287680804729461669921875" lon="-1.64569390006363391876220703125">
        <ele>543.20001220703125</ele>
        <time>2020-02-16T07:45:09.000Z</time>
      </trkpt>
      <trkpt lat="42.84949039109051227569580078125" lon="-1.6458294354379177093505859375">
        <ele>542.4000244140625</ele>
        <time>2020-02-16T07:45:12.000Z</time>
      </trkpt>
      <trkpt lat="42.84953917376697063446044921875" lon="-1.645874194800853729248046875">
        <ele>542</ele>
        <time>2020-02-16T07:45:13.000Z</time>
      </trkpt>
      <trkpt lat="42.8496386669576168060302734375" lon="-1.645957343280315399169921875">
        <ele>540</ele>
        <time>2020-02-16T07:45:15.000Z</time>
      </trkpt>
      <trkpt lat="42.84978727810084819793701171875" lon="-1.64606370963156223297119140625">
        <ele>538.79998779296875</ele>
        <time>2020-02-16T07:45:18.000Z</time>
      </trkpt>
      <trkpt lat="42.84983438439667224884033203125" lon="-1.6460922919213771820068359375">
        <ele>538</ele>
        <time>2020-02-16T07:45:19.000Z</time>
      </trkpt>
      <trkpt lat="42.8498783893883228302001953125" lon="-1.64611919783055782318115234375">
        <ele>537.4000244140625</ele>
        <time>2020-02-16T07:45:20.000Z</time>
      </trkpt>
      <trkpt lat="42.84999246709048748016357421875" lon="-1.64617217145860195159912109375">
        <ele>536.4000244140625</ele>
        <time>2020-02-16T07:45:23.000Z</time>
      </trkpt>
      <trkpt lat="42.8500366397202014923095703125" lon="-1.64617921225726604461669921875">
        <ele>535.4000244140625</ele>
        <time>2020-02-16T07:45:24.000Z</time>
      </trkpt>
      <trkpt lat="42.85008408129215240478515625" lon="-1.646180637180805206298828125">
        <ele>534.79998779296875</ele>
        <time>2020-02-16T07:45:25.000Z</time>
      </trkpt>
      <trkpt lat="42.85030402243137359619140625" lon="-1.64616228081285953521728515625">
        <ele>534</ele>
        <time>2020-02-16T07:45:30.000Z</time>
      </trkpt>
      <trkpt lat="42.850506193935871124267578125" lon="-1.6461201198399066925048828125">
        <ele>533.79998779296875</ele>
        <time>2020-02-16T07:45:36.000Z</time>
      </trkpt>
      <trkpt lat="42.8506693057715892791748046875" lon="-1.64599992334842681884765625">
        <ele>533.79998779296875</ele>
        <time>2020-02-16T07:45:41.000Z</time>
      </trkpt>
      <trkpt lat="42.8507008217275142669677734375" lon="-1.64597310125827789306640625">
        <ele>533.79998779296875</ele>
        <time>2020-02-16T07:45:42.000Z</time>
      </trkpt>
      <trkpt lat="42.85084809176623821258544921875" lon="-1.645824909210205078125">
        <ele>533.79998779296875</ele>
        <time>2020-02-16T07:45:47.000Z</time>
      </trkpt>
      <trkpt lat="42.85087910480797290802001953125" lon="-1.64579682983458042144775390625">
        <ele>533.5999755859375</ele>
        <time>2020-02-16T07:45:48.000Z</time>
      </trkpt>
      <trkpt lat="42.85104221664369106292724609375" lon="-1.64563187398016452789306640625">
        <ele>532.4000244140625</ele>
        <time>2020-02-16T07:45:53.000Z</time>
      </trkpt>
      <trkpt lat="42.85114481113851070404052734375" lon="-1.645532548427581787109375">
        <ele>531.20001220703125</ele>
        <time>2020-02-16T07:45:57.000Z</time>
      </trkpt>
      <trkpt lat="42.8511708788573741912841796875" lon="-1.6455105878412723541259765625">
        <ele>531</ele>
        <time>2020-02-16T07:45:58.000Z</time>
      </trkpt>
      <trkpt lat="42.85124673508107662200927734375" lon="-1.64545736275613307952880859375">
        <ele>530.20001220703125</ele>
        <time>2020-02-16T07:46:01.000Z</time>
      </trkpt>
      <trkpt lat="42.85135201178491115570068359375" lon="-1.64541193284094333648681640625">
        <ele>529</ele>
        <time>2020-02-16T07:46:05.000Z</time>
      </trkpt>
      <trkpt lat="42.85141252912580966949462890625" lon="-1.6453949175775051116943359375">
        <ele>528.20001220703125</ele>
        <time>2020-02-16T07:46:07.000Z</time>
      </trkpt>
      <trkpt lat="42.8515433706343173980712890625" lon="-1.6453748010098934173583984375">
        <ele>527</ele>
        <time>2020-02-16T07:46:11.000Z</time>
      </trkpt>
      <trkpt lat="42.8516174666583538055419921875" lon="-1.64537052623927593231201171875">
        <ele>526</ele>
        <time>2020-02-16T07:46:13.000Z</time>
      </trkpt>
      <trkpt lat="42.85166029818356037139892578125" lon="-1.6453702747821807861328125">
        <ele>525.5999755859375</ele>
        <time>2020-02-16T07:46:14.000Z</time>
      </trkpt>
      <trkpt lat="42.85170841030776500701904296875" lon="-1.64537228643894195556640625">
        <ele>525.20001220703125</ele>
        <time>2020-02-16T07:46:15.000Z</time>
      </trkpt>
      <trkpt lat="42.85181033425033092498779296875" lon="-1.6453731246292591094970703125">
        <ele>524.4000244140625</ele>
        <time>2020-02-16T07:46:17.000Z</time>
      </trkpt>
      <trkpt lat="42.85186397843062877655029296875" lon="-1.64537220261991024017333984375">
        <ele>523.79998779296875</ele>
        <time>2020-02-16T07:46:18.000Z</time>
      </trkpt>
      <trkpt lat="42.85201049409806728363037109375" lon="-1.6453553549945354461669921875">
        <ele>522.79998779296875</ele>
        <time>2020-02-16T07:46:21.000Z</time>
      </trkpt>
      <trkpt lat="42.8520870208740234375" lon="-1.645351164042949676513671875">
        <ele>521.5999755859375</ele>
        <time>2020-02-16T07:46:23.000Z</time>
      </trkpt>
      <trkpt lat="42.85220897756516933441162109375" lon="-1.645327694714069366455078125">
        <ele>521</ele>
        <time>2020-02-16T07:46:26.000Z</time>
      </trkpt>
      <trkpt lat="42.85230201669037342071533203125" lon="-1.64531772024929523468017578125">
        <ele>520.79998779296875</ele>
        <time>2020-02-16T07:46:28.000Z</time>
      </trkpt>
      <trkpt lat="42.8523966483771800994873046875" lon="-1.645308248698711395263671875">
        <ele>520.5999755859375</ele>
        <time>2020-02-16T07:46:30.000Z</time>
      </trkpt>
      <trkpt lat="42.85270166583359241485595703125" lon="-1.645290143787860870361328125">
        <ele>520</ele>
        <time>2020-02-16T07:46:37.000Z</time>
      </trkpt>
      <trkpt lat="42.85283074714243412017822265625" lon="-1.64527832530438899993896484375">
        <ele>519.5999755859375</ele>
        <time>2020-02-16T07:46:41.000Z</time>
      </trkpt>
      <trkpt lat="42.85286284983158111572265625" lon="-1.64527061395347118377685546875">
        <ele>519.4000244140625</ele>
        <time>2020-02-16T07:46:42.000Z</time>
      </trkpt>
      <trkpt lat="42.85301841795444488525390625" lon="-1.64522233419120311737060546875">
        <ele>518.4000244140625</ele>
        <time>2020-02-16T07:46:47.000Z</time>
      </trkpt>
      <trkpt lat="42.85307742655277252197265625" lon="-1.645196266472339630126953125">
        <ele>518.20001220703125</ele>
        <time>2020-02-16T07:46:49.000Z</time>
      </trkpt>
      <trkpt lat="42.85320072434842586517333984375" lon="-1.64514890871942043304443359375">
        <ele>517.4000244140625</ele>
        <time>2020-02-16T07:46:53.000Z</time>
      </trkpt>
      <trkpt lat="42.853309772908687591552734375" lon="-1.6450968571007251739501953125">
        <ele>516.79998779296875</ele>
        <time>2020-02-16T07:46:57.000Z</time>
      </trkpt>
      <trkpt lat="42.85333634354174137115478515625" lon="-1.64508487097918987274169921875">
        <ele>516.4000244140625</ele>
        <time>2020-02-16T07:46:58.000Z</time>
      </trkpt>
      <trkpt lat="42.8534531034529209136962890625" lon="-1.645037345588207244873046875">
        <ele>515.4000244140625</ele>
        <time>2020-02-16T07:47:02.000Z</time>
      </trkpt>
      <trkpt lat="42.85348713397979736328125" lon="-1.64502670057117938995361328125">
        <ele>515</ele>
        <time>2020-02-16T07:47:03.000Z</time>
      </trkpt>
      <trkpt lat="42.85364060662686824798583984375" lon="-1.645001806318759918212890625">
        <ele>514</ele>
        <time>2020-02-16T07:47:07.000Z</time>
      </trkpt>
      <trkpt lat="42.85377337597310543060302734375" lon="-1.64500792510807514190673828125">
        <ele>513</ele>
        <time>2020-02-16T07:47:10.000Z</time>
      </trkpt>
      <trkpt lat="42.853919975459575653076171875" lon="-1.645031981170177459716796875">
        <ele>512</ele>
        <time>2020-02-16T07:47:14.000Z</time>
      </trkpt>
      <trkpt lat="42.85395006649196147918701171875" lon="-1.64503759704530239105224609375">
        <ele>511.600006103515625</ele>
        <time>2020-02-16T07:47:15.000Z</time>
      </trkpt>
      <trkpt lat="42.85404142923653125762939453125" lon="-1.64506039582192897796630859375">
        <ele>510.79998779296875</ele>
        <time>2020-02-16T07:47:18.000Z</time>
      </trkpt>
      <trkpt lat="42.85411301068961620330810546875" lon="-1.64508101530373096466064453125">
        <ele>509.600006103515625</ele>
        <time>2020-02-16T07:47:21.000Z</time>
      </trkpt>
      <trkpt lat="42.854131199419498443603515625" lon="-1.64509409107267856597900390625">
        <ele>509.399993896484375</ele>
        <time>2020-02-16T07:47:22.000Z</time>
      </trkpt>
      <trkpt lat="42.85425265319645404815673828125" lon="-1.6451327316462993621826171875">
        <ele>508.600006103515625</ele>
        <time>2020-02-16T07:47:27.000Z</time>
      </trkpt>
      <trkpt lat="42.85432423464953899383544921875" lon="-1.64515159092843532562255859375">
        <ele>508.399993896484375</ele>
        <time>2020-02-16T07:47:29.000Z</time>
      </trkpt>
      <trkpt lat="42.85439950414001941680908203125" lon="-1.645162068307399749755859375">
        <ele>508</ele>
        <time>2020-02-16T07:47:31.000Z</time>
      </trkpt>
      <trkpt lat="42.85447158850729465484619140625" lon="-1.64514656178653240203857421875">
        <ele>507.79998779296875</ele>
        <time>2020-02-16T07:47:33.000Z</time>
      </trkpt>
      <trkpt lat="42.85449841059744358062744140625" lon="-1.645123176276683807373046875">
        <ele>507.20001220703125</ele>
        <time>2020-02-16T07:47:34.000Z</time>
      </trkpt>
      <trkpt lat="42.854559011757373809814453125" lon="-1.64501027204096317291259765625">
        <ele>506.600006103515625</ele>
        <time>2020-02-16T07:47:37.000Z</time>
      </trkpt>
      <trkpt lat="42.8545849956572055816650390625" lon="-1.64487750269472599029541015625">
        <ele>506.399993896484375</ele>
        <time>2020-02-16T07:47:40.000Z</time>
      </trkpt>
      <trkpt lat="42.85459161736071109771728515625" lon="-1.6448024846613407135009765625">
        <ele>506.399993896484375</ele>
        <time>2020-02-16T07:47:42.000Z</time>
      </trkpt>
      <trkpt lat="42.8545927070081233978271484375" lon="-1.6447627544403076171875">
        <ele>506.399993896484375</ele>
        <time>2020-02-16T07:47:43.000Z</time>
      </trkpt>
      <trkpt lat="42.8545927070081233978271484375" lon="-1.64464632980525493621826171875">
        <ele>506.600006103515625</ele>
        <time>2020-02-16T07:47:46.000Z</time>
      </trkpt>
      <trkpt lat="42.85459949634969234466552734375" lon="-1.6444985568523406982421875">
        <ele>507.600006103515625</ele>
        <time>2020-02-16T07:47:50.000Z</time>
      </trkpt>
      <trkpt lat="42.854616679251194000244140625" lon="-1.64443259127438068389892578125">
        <ele>508</ele>
        <time>2020-02-16T07:47:52.000Z</time>
      </trkpt>
      <trkpt lat="42.85463042557239532470703125" lon="-1.644404344260692596435546875">
        <ele>508.600006103515625</ele>
        <time>2020-02-16T07:47:53.000Z</time>
      </trkpt>
      <trkpt lat="42.85468549467623233795166015625" lon="-1.64434902369976043701171875">
        <ele>509</ele>
        <time>2020-02-16T07:47:56.000Z</time>
      </trkpt>
      <trkpt lat="42.85470661707222461700439453125" lon="-1.64434206672012805938720703125">
        <ele>509.399993896484375</ele>
        <time>2020-02-16T07:47:57.000Z</time>
      </trkpt>
      <trkpt lat="42.854727990925312042236328125" lon="-1.644341647624969482421875">
        <ele>509.600006103515625</ele>
        <time>2020-02-16T07:47:58.000Z</time>
      </trkpt>
      <trkpt lat="42.85476847551763057708740234375" lon="-1.644351370632648468017578125">
        <ele>509.79998779296875</ele>
        <time>2020-02-16T07:48:00.000Z</time>
      </trkpt>
      <trkpt lat="42.8548200242221355438232421875" lon="-1.6443706490099430084228515625">
        <ele>510.600006103515625</ele>
        <time>2020-02-16T07:48:03.000Z</time>
      </trkpt>
      <trkpt lat="42.85483435727655887603759765625" lon="-1.64438213221728801727294921875">
        <ele>510.79998779296875</ele>
        <time>2020-02-16T07:48:04.000Z</time>
      </trkpt>
      <trkpt lat="42.8548951260745525360107421875" lon="-1.6444434039294719696044921875">
        <ele>511.600006103515625</ele>
        <time>2020-02-16T07:48:08.000Z</time>
      </trkpt>
      <trkpt lat="42.85490929149091243743896484375" lon="-1.64446075446903705596923828125">
        <ele>511.600006103515625</ele>
        <time>2020-02-16T07:48:09.000Z</time>
      </trkpt>
      <trkpt lat="42.8549581579864025115966796875" lon="-1.64453007280826568603515625">
        <ele>512.4000244140625</ele>
        <time>2020-02-16T07:48:13.000Z</time>
      </trkpt>
      <trkpt lat="42.85497098229825496673583984375" lon="-1.644548512995243072509765625">
        <ele>512.79998779296875</ele>
        <time>2020-02-16T07:48:14.000Z</time>
      </trkpt>
      <trkpt lat="42.85499797202646732330322265625" lon="-1.64458665065467357635498046875">
        <ele>513.20001220703125</ele>
        <time>2020-02-16T07:48:16.000Z</time>
      </trkpt>
      <trkpt lat="42.8550506941974163055419921875" lon="-1.644668541848659515380859375">
        <ele>513.79998779296875</ele>
        <time>2020-02-16T07:48:20.000Z</time>
      </trkpt>
      <trkpt lat="42.85510727204382419586181640625" lon="-1.64475143887102603912353515625">
        <ele>515.20001220703125</ele>
        <time>2020-02-16T07:48:24.000Z</time>
      </trkpt>
      <trkpt lat="42.8551506064832210540771484375" lon="-1.6448095254600048065185546875">
        <ele>515.79998779296875</ele>
        <time>2020-02-16T07:48:27.000Z</time>
      </trkpt>
      <trkpt lat="42.85517700947821140289306640625" lon="-1.6448537819087505340576171875">
        <ele>516.4000244140625</ele>
        <time>2020-02-16T07:48:29.000Z</time>
      </trkpt>
      <trkpt lat="42.85527306608855724334716796875" lon="-1.64499954320490360260009765625">
        <ele>517.4000244140625</ele>
        <time>2020-02-16T07:48:36.000Z</time>
      </trkpt>
      <trkpt lat="42.8553353436291217803955078125" lon="-1.6450757347047328948974609375">
        <ele>519</ele>
        <time>2020-02-16T07:48:41.000Z</time>
      </trkpt>
      <trkpt lat="42.8553695417940616607666015625" lon="-1.645127870142459869384765625">
        <ele>520</ele>
        <time>2020-02-16T07:48:44.000Z</time>
      </trkpt>
      <trkpt lat="42.855382449924945831298828125" lon="-1.6451458074152469635009765625">
        <ele>520</ele>
        <time>2020-02-16T07:48:45.000Z</time>
      </trkpt>
      <trkpt lat="42.85543617792427539825439453125" lon="-1.64521261118352413177490234375">
        <ele>521.20001220703125</ele>
        <time>2020-02-16T07:48:49.000Z</time>
      </trkpt>
      <trkpt lat="42.8554768301546573638916015625" lon="-1.64525234140455722808837890625">
        <ele>521.79998779296875</ele>
        <time>2020-02-16T07:48:52.000Z</time>
      </trkpt>
      <trkpt lat="42.8555167280137538909912109375" lon="-1.6452983580529689788818359375">
        <ele>522.20001220703125</ele>
        <time>2020-02-16T07:48:55.000Z</time>
      </trkpt>
      <trkpt lat="42.855570204555988311767578125" lon="-1.64535845629870891571044921875">
        <ele>523.5999755859375</ele>
        <time>2020-02-16T07:48:59.000Z</time>
      </trkpt>
      <trkpt lat="42.8556079231202602386474609375" lon="-1.645403467118740081787109375">
        <ele>524.20001220703125</ele>
        <time>2020-02-16T07:49:02.000Z</time>
      </trkpt>
      <trkpt lat="42.8556334041059017181396484375" lon="-1.645434312522411346435546875">
        <ele>524.79998779296875</ele>
        <time>2020-02-16T07:49:04.000Z</time>
      </trkpt>
      <trkpt lat="42.85571848042309284210205078125" lon="-1.6455243341624736785888671875">
        <ele>526</ele>
        <time>2020-02-16T07:49:10.000Z</time>
      </trkpt>
      <trkpt lat="42.85579374991357326507568359375" lon="-1.64560790173709392547607421875">
        <ele>527.4000244140625</ele>
        <time>2020-02-16T07:49:15.000Z</time>
      </trkpt>
      <trkpt lat="42.85583348013460636138916015625" lon="-1.64566255174577236175537109375">
        <ele>528.4000244140625</ele>
        <time>2020-02-16T07:49:18.000Z</time>
      </trkpt>
      <trkpt lat="42.85584655590355396270751953125" lon="-1.64568183012306690216064453125">
        <ele>528.5999755859375</ele>
        <time>2020-02-16T07:49:19.000Z</time>
      </trkpt>
      <trkpt lat="42.8559294529259204864501953125" lon="-1.64581459946930408477783203125">
        <ele>529.5999755859375</ele>
        <time>2020-02-16T07:49:26.000Z</time>
      </trkpt>
      <trkpt lat="42.85594093613326549530029296875" lon="-1.64583471603691577911376953125">
        <ele>529.79998779296875</ele>
        <time>2020-02-16T07:49:27.000Z</time>
      </trkpt>
      <trkpt lat="42.8559775650501251220703125" lon="-1.64589053951203823089599609375">
        <ele>530.79998779296875</ele>
        <time>2020-02-16T07:49:30.000Z</time>
      </trkpt>
      <trkpt lat="42.8560511581599712371826171875" lon="-1.64598760195076465606689453125">
        <ele>532</ele>
        <time>2020-02-16T07:49:36.000Z</time>
      </trkpt>
      <trkpt lat="42.85610153339803218841552734375" lon="-1.6460788808763027191162109375">
        <ele>533</ele>
        <time>2020-02-16T07:49:41.000Z</time>
      </trkpt>
      <trkpt lat="42.856134809553623199462890625" lon="-1.6461388953030109405517578125">
        <ele>533.79998779296875</ele>
        <time>2020-02-16T07:49:44.000Z</time>
      </trkpt>
      <trkpt lat="42.856164984405040740966796875" lon="-1.64620435796678066253662109375">
        <ele>534</ele>
        <time>2020-02-16T07:49:47.000Z</time>
      </trkpt>
      <trkpt lat="42.85625844262540340423583984375" lon="-1.64637249894440174102783203125">
        <ele>535.20001220703125</ele>
        <time>2020-02-16T07:49:55.000Z</time>
      </trkpt>
      <trkpt lat="42.85627386532723903656005859375" lon="-1.6463920287787914276123046875">
        <ele>535.4000244140625</ele>
        <time>2020-02-16T07:49:56.000Z</time>
      </trkpt>
      <trkpt lat="42.85639263689517974853515625" lon="-1.646546758711338043212890625">
        <ele>536.4000244140625</ele>
        <time>2020-02-16T07:50:03.000Z</time>
      </trkpt>
      <trkpt lat="42.85641032271087169647216796875" lon="-1.6465707309544086456298828125">
        <ele>536.4000244140625</ele>
        <time>2020-02-16T07:50:04.000Z</time>
      </trkpt>
      <trkpt lat="42.8565225563943386077880859375" lon="-1.646712720394134521484375">
        <ele>537.5999755859375</ele>
        <time>2020-02-16T07:50:10.000Z</time>
      </trkpt>
      <trkpt lat="42.85659757442772388458251953125" lon="-1.64679310284554958343505859375">
        <ele>537.79998779296875</ele>
        <time>2020-02-16T07:50:14.000Z</time>
      </trkpt>
      <trkpt lat="42.8567371331155300140380859375" lon="-1.64693442173302173614501953125">
        <ele>538.5999755859375</ele>
        <time>2020-02-16T07:50:21.000Z</time>
      </trkpt>
      <trkpt lat="42.856777198612689971923828125" lon="-1.64698052220046520233154296875">
        <ele>539</ele>
        <time>2020-02-16T07:50:23.000Z</time>
      </trkpt>
      <trkpt lat="42.85686713643372058868408203125" lon="-1.6471105255186557769775390625">
        <ele>539.5999755859375</ele>
        <time>2020-02-16T07:50:28.000Z</time>
      </trkpt>
      <trkpt lat="42.8569144941866397857666015625" lon="-1.64719442836940288543701171875">
        <ele>539.79998779296875</ele>
        <time>2020-02-16T07:50:31.000Z</time>
      </trkpt>
      <trkpt lat="42.85702622495591640472412109375" lon="-1.6473787464201450347900390625">
        <ele>540.5999755859375</ele>
        <time>2020-02-16T07:50:38.000Z</time>
      </trkpt>
      <trkpt lat="42.85706092603504657745361328125" lon="-1.64742761291563510894775390625">
        <ele>540.79998779296875</ele>
        <time>2020-02-16T07:50:40.000Z</time>
      </trkpt>
      <trkpt lat="42.857186235487461090087890625" lon="-1.647597849369049072265625">
        <ele>541.79998779296875</ele>
        <time>2020-02-16T07:50:47.000Z</time>
      </trkpt>
      <trkpt lat="42.857277430593967437744140625" lon="-1.64773263037204742431640625">
        <ele>542</ele>
        <time>2020-02-16T07:50:52.000Z</time>
      </trkpt>
      <trkpt lat="42.85742386244237422943115234375" lon="-1.64796195924282073974609375">
        <ele>543</ele>
        <time>2020-02-16T07:51:00.000Z</time>
      </trkpt>
      <trkpt lat="42.85748488269746303558349609375" lon="-1.64805156178772449493408203125">
        <ele>543.4000244140625</ele>
        <time>2020-02-16T07:51:03.000Z</time>
      </trkpt>
      <trkpt lat="42.8576762415468692779541015625" lon="-1.6483527235686779022216796875">
        <ele>543.79998779296875</ele>
        <time>2020-02-16T07:51:13.000Z</time>
      </trkpt>
      <trkpt lat="42.85774120129644870758056640625" lon="-1.648525893688201904296875">
        <ele>544.20001220703125</ele>
        <time>2020-02-16T07:51:18.000Z</time>
      </trkpt>
      <trkpt lat="42.8577593900263309478759765625" lon="-1.64860342629253864288330078125">
        <ele>544.4000244140625</ele>
        <time>2020-02-16T07:51:20.000Z</time>
      </trkpt>
      <trkpt lat="42.8578485734760761260986328125" lon="-1.6488958708941936492919921875">
        <ele>545.20001220703125</ele>
        <time>2020-02-16T07:51:28.000Z</time>
      </trkpt>
      <trkpt lat="42.85786357708275318145751953125" lon="-1.64892110042273998260498046875">
        <ele>545.20001220703125</ele>
        <time>2020-02-16T07:51:29.000Z</time>
      </trkpt>
      <trkpt lat="42.85793012939393520355224609375" lon="-1.6490045003592967987060546875">
        <ele>545.4000244140625</ele>
        <time>2020-02-16T07:51:33.000Z</time>
      </trkpt>
      <trkpt lat="42.857952676713466644287109375" lon="-1.64902386255562305450439453125">
        <ele>545.5999755859375</ele>
        <time>2020-02-16T07:51:34.000Z</time>
      </trkpt>
      <trkpt lat="42.85812190733850002288818359375" lon="-1.649178005754947662353515625">
        <ele>545.5999755859375</ele>
        <time>2020-02-16T07:51:40.000Z</time>
      </trkpt>
      <trkpt lat="42.85830077715218067169189453125" lon="-1.64937774650752544403076171875">
        <ele>545.4000244140625</ele>
        <time>2020-02-16T07:51:47.000Z</time>
      </trkpt>
      <trkpt lat="42.8584004379808902740478515625" lon="-1.64952727966010570526123046875">
        <ele>545</ele>
        <time>2020-02-16T07:51:51.000Z</time>
      </trkpt>
      <trkpt lat="42.85860956646502017974853515625" lon="-1.649742610752582550048828125">
        <ele>545.20001220703125</ele>
        <time>2020-02-16T07:51:58.000Z</time>
      </trkpt>
      <trkpt lat="42.85880335606634616851806640625" lon="-1.64988577365875244140625">
        <ele>545.20001220703125</ele>
        <time>2020-02-16T07:52:04.000Z</time>
      </trkpt>
      <trkpt lat="42.85913360305130481719970703125" lon="-1.650070510804653167724609375">
        <ele>546</ele>
        <time>2020-02-16T07:52:14.000Z</time>
      </trkpt>
      <trkpt lat="42.859333343803882598876953125" lon="-1.65018416941165924072265625">
        <ele>546.5999755859375</ele>
        <time>2020-02-16T07:52:20.000Z</time>
      </trkpt>
      <trkpt lat="42.85936645232141017913818359375" lon="-1.65019967593252658843994140625">
        <ele>546.79998779296875</ele>
        <time>2020-02-16T07:52:21.000Z</time>
      </trkpt>
      <trkpt lat="42.85954146645963191986083984375" lon="-1.65027695707976818084716796875">
        <ele>547.4000244140625</ele>
        <time>2020-02-16T07:52:27.000Z</time>
      </trkpt>
      <trkpt lat="42.859595529735088348388671875" lon="-1.65030419826507568359375">
        <ele>547.5999755859375</ele>
        <time>2020-02-16T07:52:29.000Z</time>
      </trkpt>
      <trkpt lat="42.85977180115878582000732421875" lon="-1.6504128277301788330078125">
        <ele>548.5999755859375</ele>
        <time>2020-02-16T07:52:36.000Z</time>
      </trkpt>
      <trkpt lat="42.85979594103991985321044921875" lon="-1.6504284180700778961181640625">
        <ele>548.79998779296875</ele>
        <time>2020-02-16T07:52:37.000Z</time>
      </trkpt>
      <trkpt lat="42.85992954857647418975830078125" lon="-1.65051986463367938995361328125">
        <ele>549.79998779296875</ele>
        <time>2020-02-16T07:52:43.000Z</time>
      </trkpt>
      <trkpt lat="42.8599983640015125274658203125" lon="-1.6505742631852626800537109375">
        <ele>550.20001220703125</ele>
        <time>2020-02-16T07:52:46.000Z</time>
      </trkpt>
      <trkpt lat="42.86004303954541683197021484375" lon="-1.6506144963204860687255859375">
        <ele>550.79998779296875</ele>
        <time>2020-02-16T07:52:48.000Z</time>
      </trkpt>
      <trkpt lat="42.86015720106661319732666015625" lon="-1.65071030147373676300048828125">
        <ele>551.79998779296875</ele>
        <time>2020-02-16T07:52:53.000Z</time>
      </trkpt>
      <trkpt lat="42.8602038882672786712646484375" lon="-1.650747768580913543701171875">
        <ele>552.20001220703125</ele>
        <time>2020-02-16T07:52:55.000Z</time>
      </trkpt>
      <trkpt lat="42.8602739609777927398681640625" lon="-1.6508072800934314727783203125">
        <ele>553</ele>
        <time>2020-02-16T07:52:58.000Z</time>
      </trkpt>
      <trkpt lat="42.8604010306298732757568359375" lon="-1.6509326733648777008056640625">
        <ele>553.5999755859375</ele>
        <time>2020-02-16T07:53:04.000Z</time>
      </trkpt>
      <trkpt lat="42.86047403700649738311767578125" lon="-1.6510283946990966796875">
        <ele>554.20001220703125</ele>
        <time>2020-02-16T07:53:08.000Z</time>
      </trkpt>
      <trkpt lat="42.86055886186659336090087890625" lon="-1.6511576436460018157958984375">
        <ele>555.20001220703125</ele>
        <time>2020-02-16T07:53:13.000Z</time>
      </trkpt>
      <trkpt lat="42.86070152185857295989990234375" lon="-1.65140784345567226409912109375">
        <ele>556.20001220703125</ele>
        <time>2020-02-16T07:53:21.000Z</time>
      </trkpt>
      <trkpt lat="42.860761620104312896728515625" lon="-1.651514880359172821044921875">
        <ele>556.20001220703125</ele>
        <time>2020-02-16T07:53:24.000Z</time>
      </trkpt>
      <trkpt lat="42.8608811460435390472412109375" lon="-1.65172350592911243438720703125">
        <ele>556.4000244140625</ele>
        <time>2020-02-16T07:53:30.000Z</time>
      </trkpt>
      <trkpt lat="42.86100662313401699066162109375" lon="-1.6518719494342803955078125">
        <ele>557</ele>
        <time>2020-02-16T07:53:36.000Z</time>
      </trkpt>
      <trkpt lat="42.861058004200458526611328125" lon="-1.6518639028072357177734375">
        <ele>557.20001220703125</ele>
        <time>2020-02-16T07:53:38.000Z</time>
      </trkpt>
      <trkpt lat="42.86108314990997314453125" lon="-1.65183397941291332244873046875">
        <ele>557.4000244140625</ele>
        <time>2020-02-16T07:53:39.000Z</time>
      </trkpt>
      <trkpt lat="42.86122119985520839691162109375" lon="-1.65162585675716400146484375">
        <ele>557.5999755859375</ele>
        <time>2020-02-16T07:53:43.000Z</time>
      </trkpt>
      <trkpt lat="42.86139353178441524505615234375" lon="-1.65138957090675830841064453125">
        <ele>557.4000244140625</ele>
        <time>2020-02-16T07:53:47.000Z</time>
      </trkpt>
      <trkpt lat="42.86149964667856693267822265625" lon="-1.6512444801628589630126953125">
        <ele>557</ele>
        <time>2020-02-16T07:53:49.000Z</time>
      </trkpt>
      <trkpt lat="42.861554883420467376708984375" lon="-1.65116728283464908599853515625">
        <ele>556.4000244140625</ele>
        <time>2020-02-16T07:53:50.000Z</time>
      </trkpt>
      <trkpt lat="42.86166292615234851837158203125" lon="-1.65101607330143451690673828125">
        <ele>555.20001220703125</ele>
        <time>2020-02-16T07:53:52.000Z</time>
      </trkpt>
      <trkpt lat="42.861767113208770751953125" lon="-1.65087492205202579498291015625">
        <ele>553.79998779296875</ele>
        <time>2020-02-16T07:53:54.000Z</time>
      </trkpt>
      <trkpt lat="42.8618681989610195159912109375" lon="-1.650739051401615142822265625">
        <ele>552</ele>
        <time>2020-02-16T07:53:56.000Z</time>
      </trkpt>
      <trkpt lat="42.86191689781844615936279296875" lon="-1.650675348937511444091796875">
        <ele>551</ele>
        <time>2020-02-16T07:53:57.000Z</time>
      </trkpt>
      <trkpt lat="42.8619642555713653564453125" lon="-1.6506188549101352691650390625">
        <ele>550.20001220703125</ele>
        <time>2020-02-16T07:53:58.000Z</time>
      </trkpt>
      <trkpt lat="42.8620646707713603973388671875" lon="-1.6505233012139797210693359375">
        <ele>548.5999755859375</ele>
        <time>2020-02-16T07:54:00.000Z</time>
      </trkpt>
      <trkpt lat="42.86217908374965190887451171875" lon="-1.650430262088775634765625">
        <ele>547.4000244140625</ele>
        <time>2020-02-16T07:54:02.000Z</time>
      </trkpt>
      <trkpt lat="42.86230900324881076812744140625" lon="-1.650331020355224609375">
        <ele>546.20001220703125</ele>
        <time>2020-02-16T07:54:04.000Z</time>
      </trkpt>
      <trkpt lat="42.86250983364880084991455078125" lon="-1.65017721243202686309814453125">
        <ele>545.20001220703125</ele>
        <time>2020-02-16T07:54:07.000Z</time>
      </trkpt>
      <trkpt lat="42.8625769726932048797607421875" lon="-1.6501266695559024810791015625">
        <ele>545</ele>
        <time>2020-02-16T07:54:08.000Z</time>
      </trkpt>
      <trkpt lat="42.862714268267154693603515625" lon="-1.65002315305173397064208984375">
        <ele>544</ele>
        <time>2020-02-16T07:54:10.000Z</time>
      </trkpt>
      <trkpt lat="42.86285969428718090057373046875" lon="-1.649912260472774505615234375">
        <ele>542.20001220703125</ele>
        <time>2020-02-16T07:54:12.000Z</time>
      </trkpt>
      <trkpt lat="42.862932868301868438720703125" lon="-1.649855934083461761474609375">
        <ele>541</ele>
        <time>2020-02-16T07:54:13.000Z</time>
      </trkpt>
      <trkpt lat="42.86307670176029205322265625" lon="-1.649742610752582550048828125">
        <ele>539.5999755859375</ele>
        <time>2020-02-16T07:54:15.000Z</time>
      </trkpt>
      <trkpt lat="42.86320938728749752044677734375" lon="-1.64963490329682826995849609375">
        <ele>538</ele>
        <time>2020-02-16T07:54:17.000Z</time>
      </trkpt>
      <trkpt lat="42.863333187997341156005859375" lon="-1.64953934960067272186279296875">
        <ele>536.20001220703125</ele>
        <time>2020-02-16T07:54:19.000Z</time>
      </trkpt>
      <trkpt lat="42.8634614311158657073974609375" lon="-1.6494403593242168426513671875">
        <ele>534.79998779296875</ele>
        <time>2020-02-16T07:54:21.000Z</time>
      </trkpt>
      <trkpt lat="42.86360786296427249908447265625" lon="-1.64933499880135059356689453125">
        <ele>533.5999755859375</ele>
        <time>2020-02-16T07:54:23.000Z</time>
      </trkpt>
      <trkpt lat="42.8637621738016605377197265625" lon="-1.64924564771354198455810546875">
        <ele>532.5999755859375</ele>
        <time>2020-02-16T07:54:25.000Z</time>
      </trkpt>
      <trkpt lat="42.8638458251953125" lon="-1.6492123715579509735107421875">
        <ele>532.20001220703125</ele>
        <time>2020-02-16T07:54:26.000Z</time>
      </trkpt>
      <trkpt lat="42.86402218043804168701171875" lon="-1.64917121641337871551513671875">
        <ele>530.79998779296875</ele>
        <time>2020-02-16T07:54:28.000Z</time>
      </trkpt>
      <trkpt lat="42.8641931712627410888671875" lon="-1.6491493396461009979248046875">
        <ele>529</ele>
        <time>2020-02-16T07:54:30.000Z</time>
      </trkpt>
      <trkpt lat="42.86427187733352184295654296875" lon="-1.64914079010486602783203125">
        <ele>528</ele>
        <time>2020-02-16T07:54:31.000Z</time>
      </trkpt>
      <trkpt lat="42.8643452189862728118896484375" lon="-1.6491329111158847808837890625">
        <ele>527.20001220703125</ele>
        <time>2020-02-16T07:54:32.000Z</time>
      </trkpt>
      <trkpt lat="42.864481508731842041015625" lon="-1.64911723695695400238037109375">
        <ele>525.4000244140625</ele>
        <time>2020-02-16T07:54:34.000Z</time>
      </trkpt>
      <trkpt lat="42.864548228681087493896484375" lon="-1.6491077654063701629638671875">
        <ele>524.4000244140625</ele>
        <time>2020-02-16T07:54:35.000Z</time>
      </trkpt>
      <trkpt lat="42.864613942801952362060546875" lon="-1.64909460581839084625244140625">
        <ele>523.4000244140625</ele>
        <time>2020-02-16T07:54:36.000Z</time>
      </trkpt>
      <trkpt lat="42.8646771423518657684326171875" lon="-1.64907197467982769012451171875">
        <ele>522.4000244140625</ele>
        <time>2020-02-16T07:54:37.000Z</time>
      </trkpt>
      <trkpt lat="42.86473564803600311279296875" lon="-1.64903710596263408660888671875">
        <ele>521.5999755859375</ele>
        <time>2020-02-16T07:54:38.000Z</time>
      </trkpt>
      <trkpt lat="42.86483916454017162322998046875" lon="-1.64892964996397495269775390625">
        <ele>520.20001220703125</ele>
        <time>2020-02-16T07:54:40.000Z</time>
      </trkpt>
      <trkpt lat="42.86497646011412143707275390625" lon="-1.6486769355833530426025390625">
        <ele>518.79998779296875</ele>
        <time>2020-02-16T07:54:43.000Z</time>
      </trkpt>
      <trkpt lat="42.865018956363201141357421875" lon="-1.64858649484813213348388671875">
        <ele>518.4000244140625</ele>
        <time>2020-02-16T07:54:44.000Z</time>
      </trkpt>
      <trkpt lat="42.8651029430329799652099609375" lon="-1.6484103910624980926513671875">
        <ele>517.4000244140625</ele>
        <time>2020-02-16T07:54:46.000Z</time>
      </trkpt>
      <trkpt lat="42.86518449895083904266357421875" lon="-1.648230850696563720703125">
        <ele>515.79998779296875</ele>
        <time>2020-02-16T07:54:48.000Z</time>
      </trkpt>
      <trkpt lat="42.8652689047157764434814453125" lon="-1.6480549983680248260498046875">
        <ele>513.79998779296875</ele>
        <time>2020-02-16T07:54:50.000Z</time>
      </trkpt>
      <trkpt lat="42.8653101436793804168701171875" lon="-1.64797008968889713287353515625">
        <ele>512.79998779296875</ele>
        <time>2020-02-16T07:54:51.000Z</time>
      </trkpt>
      <trkpt lat="42.86534962244331836700439453125" lon="-1.64788593538105487823486328125">
        <ele>511.79998779296875</ele>
        <time>2020-02-16T07:54:52.000Z</time>
      </trkpt>
      <trkpt lat="42.8653885982930660247802734375" lon="-1.64780236780643463134765625">
        <ele>511</ele>
        <time>2020-02-16T07:54:53.000Z</time>
      </trkpt>
      <trkpt lat="42.86546579562127590179443359375" lon="-1.647639088332653045654296875">
        <ele>509</ele>
        <time>2020-02-16T07:54:55.000Z</time>
      </trkpt>
      <trkpt lat="42.8655468486249446868896484375" lon="-1.64746851660311222076416015625">
        <ele>507</ele>
        <time>2020-02-16T07:54:57.000Z</time>
      </trkpt>
      <trkpt lat="42.8656356967985630035400390625" lon="-1.6472835280001163482666015625">
        <ele>505.399993896484375</ele>
        <time>2020-02-16T07:54:59.000Z</time>
      </trkpt>
      <trkpt lat="42.86572228185832500457763671875" lon="-1.6471008025109767913818359375">
        <ele>503.79998779296875</ele>
        <time>2020-02-16T07:55:01.000Z</time>
      </trkpt>
      <trkpt lat="42.86580593325197696685791015625" lon="-1.64692570455372333526611328125">
        <ele>502.399993896484375</ele>
        <time>2020-02-16T07:55:03.000Z</time>
      </trkpt>
      <trkpt lat="42.86588908173143863677978515625" lon="-1.64675152860581874847412109375">
        <ele>500.79998779296875</ele>
        <time>2020-02-16T07:55:05.000Z</time>
      </trkpt>
      <trkpt lat="42.86593467928469181060791015625" lon="-1.64666737429797649383544921875">
        <ele>498.79998779296875</ele>
        <time>2020-02-16T07:55:06.000Z</time>
      </trkpt>
      <trkpt lat="42.8659877367317676544189453125" lon="-1.646589674055576324462890625">
        <ele>498.20001220703125</ele>
        <time>2020-02-16T07:55:07.000Z</time>
      </trkpt>
      <trkpt lat="42.86604967899620532989501953125" lon="-1.64652169682085514068603515625">
        <ele>497.399993896484375</ele>
        <time>2020-02-16T07:55:08.000Z</time>
      </trkpt>
      <trkpt lat="42.86619619466364383697509765625" lon="-1.64642446674406528472900390625">
        <ele>496.399993896484375</ele>
        <time>2020-02-16T07:55:10.000Z</time>
      </trkpt>
      <trkpt lat="42.8662718832492828369140625" lon="-1.6463833115994930267333984375">
        <ele>495.79998779296875</ele>
        <time>2020-02-16T07:55:11.000Z</time>
      </trkpt>
      <trkpt lat="42.86634673364460468292236328125" lon="-1.64634500630199909210205078125">
        <ele>495.399993896484375</ele>
        <time>2020-02-16T07:55:12.000Z</time>
      </trkpt>
      <trkpt lat="42.866488806903362274169921875" lon="-1.64627459831535816192626953125">
        <ele>494.20001220703125</ele>
        <time>2020-02-16T07:55:14.000Z</time>
      </trkpt>
      <trkpt lat="42.8666361607611179351806640625" lon="-1.64620687253773212432861328125">
        <ele>493.399993896484375</ele>
        <time>2020-02-16T07:55:16.000Z</time>
      </trkpt>
      <trkpt lat="42.8667012043297290802001953125" lon="-1.6461751051247119903564453125">
        <ele>493</ele>
        <time>2020-02-16T07:55:17.000Z</time>
      </trkpt>
      <trkpt lat="42.866866998374462127685546875" lon="-1.646086759865283966064453125">
        <ele>492.79998779296875</ele>
        <time>2020-02-16T07:55:20.000Z</time>
      </trkpt>
      <trkpt lat="42.866914607584476470947265625" lon="-1.64606630802154541015625">
        <ele>492.79998779296875</ele>
        <time>2020-02-16T07:55:21.000Z</time>
      </trkpt>
      <trkpt lat="42.8670524060726165771484375" lon="-1.64600503630936145782470703125">
        <ele>492.79998779296875</ele>
        <time>2020-02-16T07:55:25.000Z</time>
      </trkpt>
      <trkpt lat="42.8671672381460666656494140625" lon="-1.6459548287093639373779296875">
        <ele>494.600006103515625</ele>
        <time>2020-02-16T07:55:29.000Z</time>
      </trkpt>
      <trkpt lat="42.86722180433571338653564453125" lon="-1.6459296829998493194580078125">
        <ele>495.600006103515625</ele>
        <time>2020-02-16T07:55:31.000Z</time>
      </trkpt>
      <trkpt lat="42.8672768734395503997802734375" lon="-1.64590596221387386322021484375">
        <ele>497.399993896484375</ele>
        <time>2020-02-16T07:55:33.000Z</time>
      </trkpt>
      <trkpt lat="42.867358513176441192626953125" lon="-1.64586891420185565948486328125">
        <ele>498.600006103515625</ele>
        <time>2020-02-16T07:55:36.000Z</time>
      </trkpt>
      <trkpt lat="42.86743772216141223907470703125" lon="-1.6458342969417572021484375">
        <ele>499.79998779296875</ele>
        <time>2020-02-16T07:55:39.000Z</time>
      </trkpt>
      <trkpt lat="42.86751634441316127777099609375" lon="-1.6457949019968509674072265625">
        <ele>500.79998779296875</ele>
        <time>2020-02-16T07:55:42.000Z</time>
      </trkpt>
      <trkpt lat="42.86759622395038604736328125" lon="-1.6457556746900081634521484375">
        <ele>502</ele>
        <time>2020-02-16T07:55:45.000Z</time>
      </trkpt>
      <trkpt lat="42.86770485341548919677734375" lon="-1.64570949040353298187255859375">
        <ele>503.20001220703125</ele>
        <time>2020-02-16T07:55:49.000Z</time>
      </trkpt>
      <trkpt lat="42.86785639822483062744140625" lon="-1.645636819303035736083984375">
        <ele>504.20001220703125</ele>
        <time>2020-02-16T07:55:55.000Z</time>
      </trkpt>
      <trkpt lat="42.86798388697206974029541015625" lon="-1.64557789452373981475830078125">
        <ele>505.399993896484375</ele>
        <time>2020-02-16T07:56:00.000Z</time>
      </trkpt>
      <trkpt lat="42.86813291721045970916748046875" lon="-1.6455092467367649078369140625">
        <ele>506.600006103515625</ele>
        <time>2020-02-16T07:56:06.000Z</time>
      </trkpt>
      <trkpt lat="42.8682575561106204986572265625" lon="-1.64545183070003986358642578125">
        <ele>507.399993896484375</ele>
        <time>2020-02-16T07:56:11.000Z</time>
      </trkpt>
      <trkpt lat="42.8682833723723888397216796875" lon="-1.6454401798546314239501953125">
        <ele>507.600006103515625</ele>
        <time>2020-02-16T07:56:12.000Z</time>
      </trkpt>
      <trkpt lat="42.86838236264884471893310546875" lon="-1.64539240300655364990234375">
        <ele>508.399993896484375</ele>
        <time>2020-02-16T07:56:16.000Z</time>
      </trkpt>
      <trkpt lat="42.86840516142547130584716796875" lon="-1.645382009446620941162109375">
        <ele>508.79998779296875</ele>
        <time>2020-02-16T07:56:17.000Z</time>
      </trkpt>
      <trkpt lat="42.8685153834521770477294921875" lon="-1.64533297531306743621826171875">
        <ele>510</ele>
        <time>2020-02-16T07:56:22.000Z</time>
      </trkpt>
      <trkpt lat="42.868581600487232208251953125" lon="-1.6453003697097301483154296875">
        <ele>510.79998779296875</ele>
        <time>2020-02-16T07:56:25.000Z</time>
      </trkpt>
      <trkpt lat="42.86860364489257335662841796875" lon="-1.64528913795948028564453125">
        <ele>511.20001220703125</ele>
        <time>2020-02-16T07:56:26.000Z</time>
      </trkpt>
      <trkpt lat="42.868670783936977386474609375" lon="-1.6452581249177455902099609375">
        <ele>512.20001220703125</ele>
        <time>2020-02-16T07:56:29.000Z</time>
      </trkpt>
      <trkpt lat="42.868745215237140655517578125" lon="-1.64522870443761348724365234375">
        <ele>513.20001220703125</ele>
        <time>2020-02-16T07:56:33.000Z</time>
      </trkpt>
      <trkpt lat="42.86876155994832515716552734375" lon="-1.64522132836282253265380859375">
        <ele>513.5999755859375</ele>
        <time>2020-02-16T07:56:34.000Z</time>
      </trkpt>
      <trkpt lat="42.8688602149486541748046875" lon="-1.64517237804830074310302734375">
        <ele>514.79998779296875</ele>
        <time>2020-02-16T07:56:39.000Z</time>
      </trkpt>
      <trkpt lat="42.8688794933259487152099609375" lon="-1.64515972137451171875">
        <ele>515</ele>
        <time>2020-02-16T07:56:40.000Z</time>
      </trkpt>
      <trkpt lat="42.86895769648253917694091796875" lon="-1.6451206617057323455810546875">
        <ele>515.79998779296875</ele>
        <time>2020-02-16T07:56:44.000Z</time>
      </trkpt>
      <trkpt lat="42.86903849802911281585693359375" lon="-1.6450743936002254486083984375">
        <ele>516.5999755859375</ele>
        <time>2020-02-16T07:56:48.000Z</time>
      </trkpt>
      <trkpt lat="42.86907948553562164306640625" lon="-1.64505050517618656158447265625">
        <ele>517</ele>
        <time>2020-02-16T07:56:50.000Z</time>
      </trkpt>
      <trkpt lat="42.8691782243549823760986328125" lon="-1.64497992955148220062255859375">
        <ele>518.20001220703125</ele>
        <time>2020-02-16T07:56:55.000Z</time>
      </trkpt>
      <trkpt lat="42.86925760097801685333251953125" lon="-1.64492444135248661041259765625">
        <ele>519</ele>
        <time>2020-02-16T07:56:59.000Z</time>
      </trkpt>
      <trkpt lat="42.86929364316165447235107421875" lon="-1.64489393122494220733642578125">
        <ele>519.4000244140625</ele>
        <time>2020-02-16T07:57:01.000Z</time>
      </trkpt>
      <trkpt lat="42.86938282661139965057373046875" lon="-1.6448162309825420379638671875">
        <ele>520.5999755859375</ele>
        <time>2020-02-16T07:57:06.000Z</time>
      </trkpt>
      <trkpt lat="42.869438566267490386962890625" lon="-1.64477088488638401031494140625">
        <ele>521.4000244140625</ele>
        <time>2020-02-16T07:57:09.000Z</time>
      </trkpt>
      <trkpt lat="42.8694568388164043426513671875" lon="-1.64475596509873867034912109375">
        <ele>521.5999755859375</ele>
        <time>2020-02-16T07:57:10.000Z</time>
      </trkpt>
      <trkpt lat="42.86954593844711780548095703125" lon="-1.64468170143663883209228515625">
        <ele>522.79998779296875</ele>
        <time>2020-02-16T07:57:15.000Z</time>
      </trkpt>
      <trkpt lat="42.8696117363870143890380859375" lon="-1.64462051354348659515380859375">
        <ele>524</ele>
        <time>2020-02-16T07:57:19.000Z</time>
      </trkpt>
      <trkpt lat="42.8696838207542896270751953125" lon="-1.64456670172512531280517578125">
        <ele>525.20001220703125</ele>
        <time>2020-02-16T07:57:23.000Z</time>
      </trkpt>
      <trkpt lat="42.869710810482501983642578125" lon="-1.64453677833080291748046875">
        <ele>526</ele>
        <time>2020-02-16T07:57:25.000Z</time>
      </trkpt>
      <trkpt lat="42.86974869668483734130859375" lon="-1.64450836367905139923095703125">
        <ele>526.4000244140625</ele>
        <time>2020-02-16T07:57:27.000Z</time>
      </trkpt>
      <trkpt lat="42.8698088787496089935302734375" lon="-1.64444583468139171600341796875">
        <ele>527.4000244140625</ele>
        <time>2020-02-16T07:57:31.000Z</time>
      </trkpt>
      <trkpt lat="42.8698772750794887542724609375" lon="-1.64438598789274692535400390625">
        <ele>528.5999755859375</ele>
        <time>2020-02-16T07:57:35.000Z</time>
      </trkpt>
      <trkpt lat="42.86990267224609851837158203125" lon="-1.64435899816453456878662109375">
        <ele>529</ele>
        <time>2020-02-16T07:57:37.000Z</time>
      </trkpt>
      <trkpt lat="42.86996603943407535552978515625" lon="-1.64430669508874416351318359375">
        <ele>529.79998779296875</ele>
        <time>2020-02-16T07:57:41.000Z</time>
      </trkpt>
      <trkpt lat="42.869987748563289642333984375" lon="-1.64429479278624057769775390625">
        <ele>530</ele>
        <time>2020-02-16T07:57:42.000Z</time>
      </trkpt>
      <trkpt lat="42.87003091536462306976318359375" lon="-1.64425925351679325103759765625">
        <ele>531</ele>
        <time>2020-02-16T07:57:45.000Z</time>
      </trkpt>
      <trkpt lat="42.8700591623783111572265625" lon="-1.6442288272082805633544921875">
        <ele>531.5999755859375</ele>
        <time>2020-02-16T07:57:47.000Z</time>
      </trkpt>
      <trkpt lat="42.870080955326557159423828125" lon="-1.6442134045064449310302734375">
        <ele>532.20001220703125</ele>
        <time>2020-02-16T07:57:48.000Z</time>
      </trkpt>
      <trkpt lat="42.87018983624875545501708984375" lon="-1.644144169986248016357421875">
        <ele>533.20001220703125</ele>
        <time>2020-02-16T07:57:53.000Z</time>
      </trkpt>
      <trkpt lat="42.87022688426077365875244140625" lon="-1.64412111975252628326416015625">
        <ele>533.5999755859375</ele>
        <time>2020-02-16T07:57:55.000Z</time>
      </trkpt>
      <trkpt lat="42.8702863119542598724365234375" lon="-1.644093208014965057373046875">
        <ele>534.5999755859375</ele>
        <time>2020-02-16T07:57:58.000Z</time>
      </trkpt>
      <trkpt lat="42.870332412421703338623046875" lon="-1.64407015778124332427978515625">
        <ele>535.20001220703125</ele>
        <time>2020-02-16T07:58:01.000Z</time>
      </trkpt>
      <trkpt lat="42.870378680527210235595703125" lon="-1.64405842311680316925048828125">
        <ele>535.79998779296875</ele>
        <time>2020-02-16T07:58:03.000Z</time>
      </trkpt>
      <trkpt lat="42.87045436911284923553466796875" lon="-1.64405574090778827667236328125">
        <ele>536.79998779296875</ele>
        <time>2020-02-16T07:58:07.000Z</time>
      </trkpt>
      <trkpt lat="42.8705240227282047271728515625" lon="-1.64405607618391513824462890625">
        <ele>538</ele>
        <time>2020-02-16T07:58:11.000Z</time>
      </trkpt>
      <trkpt lat="42.87058579735457897186279296875" lon="-1.64404861629009246826171875">
        <ele>539</ele>
        <time>2020-02-16T07:58:14.000Z</time>
      </trkpt>
      <trkpt lat="42.87060993723571300506591796875" lon="-1.64404987357556819915771484375">
        <ele>539.5999755859375</ele>
        <time>2020-02-16T07:58:15.000Z</time>
      </trkpt>
      <trkpt lat="42.87065754644572734832763671875" lon="-1.64404459297657012939453125">
        <ele>540.20001220703125</ele>
        <time>2020-02-16T07:58:17.000Z</time>
      </trkpt>
      <trkpt lat="42.8707352466881275177001953125" lon="-1.64403813891112804412841796875">
        <ele>541</ele>
        <time>2020-02-16T07:58:21.000Z</time>
      </trkpt>
      <trkpt lat="42.87083239294588565826416015625" lon="-1.644006706774234771728515625">
        <ele>541.4000244140625</ele>
        <time>2020-02-16T07:58:26.000Z</time>
      </trkpt>
      <trkpt lat="42.87085535936057567596435546875" lon="-1.6439996659755706787109375">
        <ele>541.5999755859375</ele>
        <time>2020-02-16T07:58:27.000Z</time>
      </trkpt>
      <trkpt lat="42.870947308838367462158203125" lon="-1.6439728438854217529296875">
        <ele>542.5999755859375</ele>
        <time>2020-02-16T07:58:31.000Z</time>
      </trkpt>
      <trkpt lat="42.87103489972651004791259765625" lon="-1.64394711144268512725830078125">
        <ele>543.5999755859375</ele>
        <time>2020-02-16T07:58:35.000Z</time>
      </trkpt>
      <trkpt lat="42.871113605797290802001953125" lon="-1.64390687830746173858642578125">
        <ele>545</ele>
        <time>2020-02-16T07:58:39.000Z</time>
      </trkpt>
      <trkpt lat="42.8711258433759212493896484375" lon="-1.6438901983201503753662109375">
        <ele>545.4000244140625</ele>
        <time>2020-02-16T07:58:40.000Z</time>
      </trkpt>
      <trkpt lat="42.87115283310413360595703125" lon="-1.6438865102827548980712890625">
        <ele>546.20001220703125</ele>
        <time>2020-02-16T07:58:42.000Z</time>
      </trkpt>
      <trkpt lat="42.8711546771228313446044921875" lon="-1.6438923776149749755859375">
        <ele>546.5999755859375</ele>
        <time>2020-02-16T07:58:44.000Z</time>
      </trkpt>
      <trkpt lat="42.8711573593318462371826171875" lon="-1.64389514364302158355712890625">
        <ele>547.4000244140625</ele>
        <time>2020-02-16T07:58:46.000Z</time>
      </trkpt>
      <trkpt lat="42.87118007428944110870361328125" lon="-1.64392313919961452484130859375">
        <ele>548.79998779296875</ele>
        <time>2020-02-16T07:59:40.000Z</time>
      </trkpt>
      <trkpt lat="42.87119843065738677978515625" lon="-1.64393051527440547943115234375">
        <ele>548.79998779296875</ele>
        <time>2020-02-16T07:59:41.000Z</time>
      </trkpt>
      <trkpt lat="42.87132843397557735443115234375" lon="-1.64397276006639003753662109375">
        <ele>548.79998779296875</ele>
        <time>2020-02-16T07:59:48.000Z</time>
      </trkpt>
      <trkpt lat="42.87146640010178089141845703125" lon="-1.64402992464601993560791015625">
        <ele>549.5999755859375</ele>
        <time>2020-02-16T07:59:55.000Z</time>
      </trkpt>
      <trkpt lat="42.87148685194551944732666015625" lon="-1.64403813891112804412841796875">
        <ele>549.79998779296875</ele>
        <time>2020-02-16T07:59:56.000Z</time>
      </trkpt>
      <trkpt lat="42.8715724311769008636474609375" lon="-1.644077785313129425048828125">
        <ele>550.79998779296875</ele>
        <time>2020-02-16T08:00:00.000Z</time>
      </trkpt>
      <trkpt lat="42.8716089762747287750244140625" lon="-1.64411106146872043609619140625">
        <ele>551.4000244140625</ele>
        <time>2020-02-16T08:00:02.000Z</time>
      </trkpt>
      <trkpt lat="42.87163755856454372406005859375" lon="-1.6441567428410053253173828125">
        <ele>552</ele>
        <time>2020-02-16T08:00:04.000Z</time>
      </trkpt>
      <trkpt lat="42.87169019691646099090576171875" lon="-1.64423595182597637176513671875">
        <ele>553</ele>
        <time>2020-02-16T08:00:08.000Z</time>
      </trkpt>
      <trkpt lat="42.87169991992413997650146484375" lon="-1.64425975643098354339599609375">
        <ele>553.20001220703125</ele>
        <time>2020-02-16T08:00:09.000Z</time>
      </trkpt>
      <trkpt lat="42.87170981056988239288330078125" lon="-1.644283644855022430419921875">
        <ele>553.4000244140625</ele>
        <time>2020-02-16T08:00:10.000Z</time>
      </trkpt>
      <trkpt lat="42.87176546640694141387939453125" lon="-1.64441146887838840484619140625">
        <ele>554.4000244140625</ele>
        <time>2020-02-16T08:00:15.000Z</time>
      </trkpt>
      <trkpt lat="42.871798910200595855712890625" lon="-1.6444826312363147735595703125">
        <ele>555.20001220703125</ele>
        <time>2020-02-16T08:00:18.000Z</time>
      </trkpt>
      <trkpt lat="42.8718106448650360107421875" lon="-1.6445030830800533294677734375">
        <ele>555.5999755859375</ele>
        <time>2020-02-16T08:00:19.000Z</time>
      </trkpt>
      <trkpt lat="42.87185397930443286895751953125" lon="-1.6445597447454929351806640625">
        <ele>556.5999755859375</ele>
        <time>2020-02-16T08:00:22.000Z</time>
      </trkpt>
      <trkpt lat="42.87188281305134296417236328125" lon="-1.6445972956717014312744140625">
        <ele>557.20001220703125</ele>
        <time>2020-02-16T08:00:24.000Z</time>
      </trkpt>
      <trkpt lat="42.8719144128262996673583984375" lon="-1.64463208056986331939697265625">
        <ele>557.79998779296875</ele>
        <time>2020-02-16T08:00:26.000Z</time>
      </trkpt>
      <trkpt lat="42.87196956574916839599609375" lon="-1.644688658416271209716796875">
        <ele>559</ele>
        <time>2020-02-16T08:00:30.000Z</time>
      </trkpt>
      <trkpt lat="42.871997393667697906494140625" lon="-1.64471874944865703582763671875">
        <ele>559.79998779296875</ele>
        <time>2020-02-16T08:00:32.000Z</time>
      </trkpt>
      <trkpt lat="42.87202262319624423980712890625" lon="-1.6447458229959011077880859375">
        <ele>560.4000244140625</ele>
        <time>2020-02-16T08:00:34.000Z</time>
      </trkpt>
      <trkpt lat="42.87205296568572521209716796875" lon="-1.6447679512202739715576171875">
        <ele>561</ele>
        <time>2020-02-16T08:00:36.000Z</time>
      </trkpt>
      <trkpt lat="42.87206746637821197509765625" lon="-1.64478379301726818084716796875">
        <ele>561.4000244140625</ele>
        <time>2020-02-16T08:00:37.000Z</time>
      </trkpt>
      <trkpt lat="42.8720837272703647613525390625" lon="-1.64479418657720088958740234375">
        <ele>561.79998779296875</ele>
        <time>2020-02-16T08:00:38.000Z</time>
      </trkpt>
      <trkpt lat="42.87211096845567226409912109375" lon="-1.6448142193257808685302734375">
        <ele>562.4000244140625</ele>
        <time>2020-02-16T08:00:40.000Z</time>
      </trkpt>
      <trkpt lat="42.872129492461681365966796875" lon="-1.64481765590608119964599609375">
        <ele>562.79998779296875</ele>
        <time>2020-02-16T08:00:41.000Z</time>
      </trkpt>
      <trkpt lat="42.8721776045858860015869140625" lon="-1.64480860345065593719482421875">
        <ele>563.5999755859375</ele>
        <time>2020-02-16T08:00:44.000Z</time>
      </trkpt>
      <trkpt lat="42.87219964899122714996337890625" lon="-1.64478580467402935028076171875">
        <ele>564</ele>
        <time>2020-02-16T08:00:46.000Z</time>
      </trkpt>
      <trkpt lat="42.87220434285700321197509765625" lon="-1.6447706334292888641357421875">
        <ele>564.4000244140625</ele>
        <time>2020-02-16T08:00:47.000Z</time>
      </trkpt>
      <trkpt lat="42.87221456877887248992919921875" lon="-1.64475847966969013214111328125">
        <ele>564.5999755859375</ele>
        <time>2020-02-16T08:00:48.000Z</time>
      </trkpt>
      <trkpt lat="42.87222345359623432159423828125" lon="-1.6447582282125949859619140625">
        <ele>564.79998779296875</ele>
        <time>2020-02-16T08:00:49.000Z</time>
      </trkpt>
      <trkpt lat="42.8722614236176013946533203125" lon="-1.6446831263601779937744140625">
        <ele>567.5999755859375</ele>
        <time>2020-02-16T08:00:58.000Z</time>
      </trkpt>
      <trkpt lat="42.8722563944756984710693359375" lon="-1.6446043364703655242919921875">
        <ele>567.5999755859375</ele>
        <time>2020-02-16T08:01:03.000Z</time>
      </trkpt>
      <trkpt lat="42.87228581495583057403564453125" lon="-1.644574664533138275146484375">
        <ele>568.20001220703125</ele>
        <time>2020-02-16T08:01:06.000Z</time>
      </trkpt>
      <trkpt lat="42.87231280468404293060302734375" lon="-1.6445748321712017059326171875">
        <ele>568.5999755859375</ele>
        <time>2020-02-16T08:01:08.000Z</time>
      </trkpt>
      <trkpt lat="42.8723730705678462982177734375" lon="-1.6445922665297985076904296875">
        <ele>569.20001220703125</ele>
        <time>2020-02-16T08:01:12.000Z</time>
      </trkpt>
      <trkpt lat="42.87242076359689235687255859375" lon="-1.64463291876018047332763671875">
        <ele>569.5999755859375</ele>
        <time>2020-02-16T08:01:16.000Z</time>
      </trkpt>
      <trkpt lat="42.8724558837711811065673828125" lon="-1.6447024047374725341796875">
        <ele>570.20001220703125</ele>
        <time>2020-02-16T08:01:20.000Z</time>
      </trkpt>
      <trkpt lat="42.87248832173645496368408203125" lon="-1.64474238641560077667236328125">
        <ele>570.5999755859375</ele>
        <time>2020-02-16T08:01:23.000Z</time>
      </trkpt>
      <trkpt lat="42.872517071664333343505859375" lon="-1.644779182970523834228515625">
        <ele>571.4000244140625</ele>
        <time>2020-02-16T08:01:26.000Z</time>
      </trkpt>
      <trkpt lat="42.87252612411975860595703125" lon="-1.64478890597820281982421875">
        <ele>571.5999755859375</ele>
        <time>2020-02-16T08:01:27.000Z</time>
      </trkpt>
      <trkpt lat="42.872534506022930145263671875" lon="-1.64479753933846950531005859375">
        <ele>571.79998779296875</ele>
        <time>2020-02-16T08:01:28.000Z</time>
      </trkpt>
      <trkpt lat="42.87259242497384548187255859375" lon="-1.6447991319000720977783203125">
        <ele>572.79998779296875</ele>
        <time>2020-02-16T08:01:33.000Z</time>
      </trkpt>
      <trkpt lat="42.87263165228068828582763671875" lon="-1.644814051687717437744140625">
        <ele>573.4000244140625</ele>
        <time>2020-02-16T08:01:36.000Z</time>
      </trkpt>
      <trkpt lat="42.87267272360622882843017578125" lon="-1.6448257863521575927734375">
        <ele>574</ele>
        <time>2020-02-16T08:01:39.000Z</time>
      </trkpt>
      <trkpt lat="42.87272871471941471099853515625" lon="-1.64486962370574474334716796875">
        <ele>574.79998779296875</ele>
        <time>2020-02-16T08:01:44.000Z</time>
      </trkpt>
      <trkpt lat="42.8727381862699985504150390625" lon="-1.644883453845977783203125">
        <ele>575.20001220703125</ele>
        <time>2020-02-16T08:01:45.000Z</time>
      </trkpt>
      <trkpt lat="42.87277095951139926910400390625" lon="-1.6449409537017345428466796875">
        <ele>576</ele>
        <time>2020-02-16T08:01:49.000Z</time>
      </trkpt>
      <trkpt lat="42.87281823344528675079345703125" lon="-1.64498361758887767791748046875">
        <ele>577</ele>
        <time>2020-02-16T08:01:54.000Z</time>
      </trkpt>
      <trkpt lat="42.872838266193866729736328125" lon="-1.64498931728303432464599609375">
        <ele>577.4000244140625</ele>
        <time>2020-02-16T08:01:56.000Z</time>
      </trkpt>
      <trkpt lat="42.8728813491761684417724609375" lon="-1.64498009718954563140869140625">
        <ele>578.20001220703125</ele>
        <time>2020-02-16T08:02:00.000Z</time>
      </trkpt>
      <trkpt lat="42.87290574051439762115478515625" lon="-1.64495922625064849853515625">
        <ele>578.79998779296875</ele>
        <time>2020-02-16T08:02:03.000Z</time>
      </trkpt>
      <trkpt lat="42.8729157149791717529296875" lon="-1.64493332616984844207763671875">
        <ele>579.20001220703125</ele>
        <time>2020-02-16T08:02:05.000Z</time>
      </trkpt>
      <trkpt lat="42.87293055094778537750244140625" lon="-1.64488370530307292938232421875">
        <ele>580.4000244140625</ele>
        <time>2020-02-16T08:02:09.000Z</time>
      </trkpt>
      <trkpt lat="42.87294312380254268646240234375" lon="-1.64481631480157375335693359375">
        <ele>581.20001220703125</ele>
        <time>2020-02-16T08:02:14.000Z</time>
      </trkpt>
      <trkpt lat="42.87294681183993816375732421875" lon="-1.64479016326367855072021484375">
        <ele>581.5999755859375</ele>
        <time>2020-02-16T08:02:16.000Z</time>
      </trkpt>
      <trkpt lat="42.872951924800872802734375" lon="-1.64475244469940662384033203125">
        <ele>582.5999755859375</ele>
        <time>2020-02-16T08:02:21.000Z</time>
      </trkpt>
      <trkpt lat="42.87313238717615604400634765625" lon="-1.64210342802107334136962890625">
        <ele>620</ele>
        <time>2020-02-16T08:06:13.000Z</time>
      </trkpt>
      <trkpt lat="42.87313766777515411376953125" lon="-1.64190284907817840576171875">
        <ele>620</ele>
        <time>2020-02-16T08:06:20.000Z</time>
      </trkpt>
      <trkpt lat="42.8731428645551204681396484375" lon="-1.64177946746349334716796875">
        <ele>620</ele>
        <time>2020-02-16T08:06:24.000Z</time>
      </trkpt>
      <trkpt lat="42.87315015681087970733642578125" lon="-1.6416673175990581512451171875">
        <ele>620.20001220703125</ele>
        <time>2020-02-16T08:06:28.000Z</time>
      </trkpt>
      <trkpt lat="42.87318988703191280364990234375" lon="-1.6415905393660068511962890625">
        <ele>620.20001220703125</ele>
        <time>2020-02-16T08:06:32.000Z</time>
      </trkpt>
      <trkpt lat="42.87320413626730442047119140625" lon="-1.6415663994848728179931640625">
        <ele>620.20001220703125</ele>
        <time>2020-02-16T08:06:34.000Z</time>
      </trkpt>
      <trkpt lat="42.873204387724399566650390625" lon="-1.64156489074230194091796875">
        <ele>620.20001220703125</ele>
        <time>2020-02-16T08:06:35.000Z</time>
      </trkpt>
      <trkpt lat="42.87317429669201374053955078125" lon="-1.64151300676167011260986328125">
        <ele>621.4000244140625</ele>
        <time>2020-02-16T08:07:16.000Z</time>
      </trkpt>
      <trkpt lat="42.87316557951271533966064453125" lon="-1.64148836396634578704833984375">
        <ele>621.4000244140625</ele>
        <time>2020-02-16T08:07:17.000Z</time>
      </trkpt>
      <trkpt lat="42.87316046655178070068359375" lon="-1.64145383052527904510498046875">
        <ele>621.4000244140625</ele>
        <time>2020-02-16T08:07:18.000Z</time>
      </trkpt>
      <trkpt lat="42.87315853871405124664306640625" lon="-1.64137051440775394439697265625">
        <ele>621.4000244140625</ele>
        <time>2020-02-16T08:07:20.000Z</time>
      </trkpt>
      <trkpt lat="42.87313339300453662872314453125" lon="-1.641171611845493316650390625">
        <ele>621.20001220703125</ele>
        <time>2020-02-16T08:07:25.000Z</time>
      </trkpt>
      <trkpt lat="42.8731053136289119720458984375" lon="-1.6409741342067718505859375">
        <ele>621.4000244140625</ele>
        <time>2020-02-16T08:07:31.000Z</time>
      </trkpt>
      <trkpt lat="42.873086035251617431640625" lon="-1.64088252000510692596435546875">
        <ele>621.79998779296875</ele>
        <time>2020-02-16T08:07:34.000Z</time>
      </trkpt>
      <trkpt lat="42.87307622842490673065185546875" lon="-1.64082099683582782745361328125">
        <ele>622.5999755859375</ele>
        <time>2020-02-16T08:07:36.000Z</time>
      </trkpt>
      <trkpt lat="42.873074300587177276611328125" lon="-1.64073298685252666473388671875">
        <ele>623.4000244140625</ele>
        <time>2020-02-16T08:07:39.000Z</time>
      </trkpt>
      <trkpt lat="42.873076312243938446044921875" lon="-1.64067196659743785858154296875">
        <ele>624</ele>
        <time>2020-02-16T08:07:41.000Z</time>
      </trkpt>
      <trkpt lat="42.87308025173842906951904296875" lon="-1.64057649672031402587890625">
        <ele>625.20001220703125</ele>
        <time>2020-02-16T08:07:44.000Z</time>
      </trkpt>
      <trkpt lat="42.87308427505195140838623046875" lon="-1.64044749923050403594970703125">
        <ele>626.4000244140625</ele>
        <time>2020-02-16T08:07:48.000Z</time>
      </trkpt>
      <trkpt lat="42.8730862028896808624267578125" lon="-1.64035462774336338043212890625">
        <ele>626.79998779296875</ele>
        <time>2020-02-16T08:07:51.000Z</time>
      </trkpt>
      <trkpt lat="42.8730981051921844482421875" lon="-1.64023409597575664520263671875">
        <ele>627.4000244140625</ele>
        <time>2020-02-16T08:07:55.000Z</time>
      </trkpt>
      <trkpt lat="42.8731093369424343109130859375" lon="-1.64013736881315708160400390625">
        <ele>628</ele>
        <time>2020-02-16T08:07:58.000Z</time>
      </trkpt>
      <trkpt lat="42.873128950595855712890625" lon="-1.64000912569463253021240234375">
        <ele>628.4000244140625</ele>
        <time>2020-02-16T08:08:02.000Z</time>
      </trkpt>
      <trkpt lat="42.8731455467641353607177734375" lon="-1.639913655817508697509765625">
        <ele>628.79998779296875</ele>
        <time>2020-02-16T08:08:05.000Z</time>
      </trkpt>
      <trkpt lat="42.87317697890102863311767578125" lon="-1.6398192755877971649169921875">
        <ele>629.4000244140625</ele>
        <time>2020-02-16T08:08:08.000Z</time>
      </trkpt>
      <trkpt lat="42.87319676019251346588134765625" lon="-1.63974593393504619598388671875">
        <ele>629.79998779296875</ele>
        <time>2020-02-16T08:08:10.000Z</time>
      </trkpt>
      <trkpt lat="42.87323833443224430084228515625" lon="-1.63942239247262477874755859375">
        <ele>630</ele>
        <time>2020-02-16T08:08:18.000Z</time>
      </trkpt>
      <trkpt lat="42.873214781284332275390625" lon="-1.63915702141821384429931640625">
        <ele>630.20001220703125</ele>
        <time>2020-02-16T08:08:25.000Z</time>
      </trkpt>
      <trkpt lat="42.873174212872982025146484375" lon="-1.63895702920854091644287109375">
        <ele>630.4000244140625</ele>
        <time>2020-02-16T08:08:31.000Z</time>
      </trkpt>
      <trkpt lat="42.87314076907932758331298828125" lon="-1.638832055032253265380859375">
        <ele>630.79998779296875</ele>
        <time>2020-02-16T08:08:36.000Z</time>
      </trkpt>
      <trkpt lat="42.873105816543102264404296875" lon="-1.6387229226529598236083984375">
        <ele>631.4000244140625</ele>
        <time>2020-02-16T08:08:40.000Z</time>
      </trkpt>
      <trkpt lat="42.8730758093297481536865234375" lon="-1.6386531852185726165771484375">
        <ele>632</ele>
        <time>2020-02-16T08:08:43.000Z</time>
      </trkpt>
      <trkpt lat="42.873036749660968780517578125" lon="-1.6385914944112300872802734375">
        <ele>632.4000244140625</ele>
        <time>2020-02-16T08:08:47.000Z</time>
      </trkpt>
      <trkpt lat="42.87302426062524318695068359375" lon="-1.63858101703226566314697265625">
        <ele>632.5999755859375</ele>
        <time>2020-02-16T08:08:48.000Z</time>
      </trkpt>
      <trkpt lat="42.8729658387601375579833984375" lon="-1.63854430429637432098388671875">
        <ele>633.20001220703125</ele>
        <time>2020-02-16T08:08:52.000Z</time>
      </trkpt>
      <trkpt lat="42.8729532659053802490234375" lon="-1.638535670936107635498046875">
        <ele>633.5999755859375</ele>
        <time>2020-02-16T08:08:53.000Z</time>
      </trkpt>
      <trkpt lat="42.87292719818651676177978515625" lon="-1.63852083496749401092529296875">
        <ele>633.79998779296875</ele>
        <time>2020-02-16T08:08:55.000Z</time>
      </trkpt>
      <trkpt lat="42.8728984482586383819580078125" lon="-1.63850356824696063995361328125">
        <ele>634.5999755859375</ele>
        <time>2020-02-16T08:08:57.000Z</time>
      </trkpt>
      <trkpt lat="42.872854359447956085205078125" lon="-1.63847406394779682159423828125">
        <ele>635.5999755859375</ele>
        <time>2020-02-16T08:09:00.000Z</time>
      </trkpt>
      <trkpt lat="42.87284941412508487701416015625" lon="-1.6384694539010524749755859375">
        <ele>636.20001220703125</ele>
        <time>2020-02-16T08:09:01.000Z</time>
      </trkpt>
      <trkpt lat="42.87249502725899219512939453125" lon="-1.63819461129605770111083984375">
        <ele>644.4000244140625</ele>
        <time>2020-02-16T08:09:42.000Z</time>
      </trkpt>
      <trkpt lat="42.87244297564029693603515625" lon="-1.6379702277481555938720703125">
        <ele>644.4000244140625</ele>
        <time>2020-02-16T08:09:49.000Z</time>
      </trkpt>
      <trkpt lat="42.87241070531308650970458984375" lon="-1.63782111369073390960693359375">
        <ele>644.20001220703125</ele>
        <time>2020-02-16T08:09:53.000Z</time>
      </trkpt>
      <trkpt lat="42.87239830009639263153076171875" lon="-1.63778004236519336700439453125">
        <ele>644.20001220703125</ele>
        <time>2020-02-16T08:09:54.000Z</time>
      </trkpt>
      <trkpt lat="42.87235102616250514984130859375" lon="-1.63754685781896114349365234375">
        <ele>643.79998779296875</ele>
        <time>2020-02-16T08:09:59.000Z</time>
      </trkpt>
      <trkpt lat="42.87234130315482616424560546875" lon="-1.6374995000660419464111328125">
        <ele>643.79998779296875</ele>
        <time>2020-02-16T08:10:00.000Z</time>
      </trkpt>
      <trkpt lat="42.8722922690212726593017578125" lon="-1.6373075544834136962890625">
        <ele>643.4000244140625</ele>
        <time>2020-02-16T08:10:04.000Z</time>
      </trkpt>
      <trkpt lat="42.87228195928037166595458984375" lon="-1.6372604481875896453857421875">
        <ele>643.20001220703125</ele>
        <time>2020-02-16T08:10:05.000Z</time>
      </trkpt>
      <trkpt lat="42.87227206863462924957275390625" lon="-1.6372138448059558868408203125">
        <ele>643.20001220703125</ele>
        <time>2020-02-16T08:10:06.000Z</time>
      </trkpt>
      <trkpt lat="42.87223585881292819976806640625" lon="-1.63692156784236431121826171875">
        <ele>643</ele>
        <time>2020-02-16T08:10:13.000Z</time>
      </trkpt>
      <trkpt lat="42.87222915329039096832275390625" lon="-1.63673766888678073883056640625">
        <ele>643.5999755859375</ele>
        <time>2020-02-16T08:10:18.000Z</time>
      </trkpt>
      <trkpt lat="42.87222169339656829833984375" lon="-1.63672861643135547637939453125">
        <ele>643.5999755859375</ele>
        <time>2020-02-16T08:10:19.000Z</time>
      </trkpt>
      <trkpt lat="42.87222169339656829833984375" lon="-1.63672844879329204559326171875">
        <ele>643.79998779296875</ele>
        <time>2020-02-16T08:10:21.000Z</time>
      </trkpt>
      <trkpt lat="42.87222194485366344451904296875" lon="-1.63666089065372943878173828125">
        <ele>643.4000244140625</ele>
        <time>2020-02-16T08:12:20.000Z</time>
      </trkpt>
      <trkpt lat="42.8722185082733631134033203125" lon="-1.63662518374621868133544921875">
        <ele>643.4000244140625</ele>
        <time>2020-02-16T08:12:21.000Z</time>
      </trkpt>
      <trkpt lat="42.87220216356217861175537109375" lon="-1.636489145457744598388671875">
        <ele>643.4000244140625</ele>
        <time>2020-02-16T08:12:24.000Z</time>
      </trkpt>
      <trkpt lat="42.872187159955501556396484375" lon="-1.63637674413621425628662109375">
        <ele>643.4000244140625</ele>
        <time>2020-02-16T08:12:26.000Z</time>
      </trkpt>
      <trkpt lat="42.87215455435216426849365234375" lon="-1.63613970391452312469482421875">
        <ele>643</ele>
        <time>2020-02-16T08:12:30.000Z</time>
      </trkpt>
      <trkpt lat="42.8721470944583415985107421875" lon="-1.63599872030317783355712890625">
        <ele>642.5999755859375</ele>
        <time>2020-02-16T08:12:33.000Z</time>
      </trkpt>
      <trkpt lat="42.872133515775203704833984375" lon="-1.63586226291954517364501953125">
        <ele>642.20001220703125</ele>
        <time>2020-02-16T08:12:37.000Z</time>
      </trkpt>
      <trkpt lat="42.87212890572845935821533203125" lon="-1.63583703339099884033203125">
        <ele>642.20001220703125</ele>
        <time>2020-02-16T08:12:38.000Z</time>
      </trkpt>
      <trkpt lat="42.872124798595905303955078125" lon="-1.6358133964240550994873046875">
        <ele>642.20001220703125</ele>
        <time>2020-02-16T08:12:39.000Z</time>
      </trkpt>
      <trkpt lat="42.87211750634014606475830078125" lon="-1.63575111888349056243896484375">
        <ele>642.4000244140625</ele>
        <time>2020-02-16T08:12:42.000Z</time>
      </trkpt>
      <trkpt lat="42.87209755741059780120849609375" lon="-1.6357393004000186920166015625">
        <ele>642.5999755859375</ele>
        <time>2020-02-16T08:12:44.000Z</time>
      </trkpt>
      <trkpt lat="42.87209185771644115447998046875" lon="-1.63575229234993457794189453125">
        <ele>642.79998779296875</ele>
        <time>2020-02-16T08:12:46.000Z</time>
      </trkpt>
      <trkpt lat="42.8720984794199466705322265625" lon="-1.6357855685055255889892578125">
        <ele>643</ele>
        <time>2020-02-16T08:12:48.000Z</time>
      </trkpt>
      <trkpt lat="42.87212488241493701934814453125" lon="-1.63591054268181324005126953125">
        <ele>643.20001220703125</ele>
        <time>2020-02-16T08:12:52.000Z</time>
      </trkpt>
      <trkpt lat="42.8721336834132671356201171875" lon="-1.63595094345510005950927734375">
        <ele>643.20001220703125</ele>
        <time>2020-02-16T08:12:53.000Z</time>
      </trkpt>
      <trkpt lat="42.872163020074367523193359375" lon="-1.6362207569181919097900390625">
        <ele>643.20001220703125</ele>
        <time>2020-02-16T08:12:58.000Z</time>
      </trkpt>
      <trkpt lat="42.87221389822661876678466796875" lon="-1.6365865431725978851318359375">
        <ele>642.20001220703125</ele>
        <time>2020-02-16T08:13:05.000Z</time>
      </trkpt>
      <trkpt lat="42.87223854102194309234619140625" lon="-1.6369546763598918914794921875">
        <ele>642.5999755859375</ele>
        <time>2020-02-16T08:13:14.000Z</time>
      </trkpt>
      <trkpt lat="42.87224717438220977783203125" lon="-1.6370907984673976898193359375">
        <ele>643.5999755859375</ele>
        <time>2020-02-16T08:13:17.000Z</time>
      </trkpt>
      <trkpt lat="42.872278355062007904052734375" lon="-1.63729556836187839508056640625">
        <ele>644</ele>
        <time>2020-02-16T08:13:21.000Z</time>
      </trkpt>
      <trkpt lat="42.87235370837152004241943359375" lon="-1.6376476921141147613525390625">
        <ele>643.79998779296875</ele>
        <time>2020-02-16T08:13:28.000Z</time>
      </trkpt>
      <trkpt lat="42.87242914550006389617919921875" lon="-1.6379512846469879150390625">
        <ele>643.20001220703125</ele>
        <time>2020-02-16T08:13:35.000Z</time>
      </trkpt>
      <trkpt lat="42.87249200977385044097900390625" lon="-1.63820542395114898681640625">
        <ele>643.5999755859375</ele>
        <time>2020-02-16T08:13:41.000Z</time>
      </trkpt>
      <trkpt lat="42.87253953516483306884765625" lon="-1.6382919251918792724609375">
        <ele>644.20001220703125</ele>
        <time>2020-02-16T08:13:45.000Z</time>
      </trkpt>
      <trkpt lat="42.87255403585731983184814453125" lon="-1.63830575533211231231689453125">
        <ele>644.20001220703125</ele>
        <time>2020-02-16T08:13:46.000Z</time>
      </trkpt>
      <trkpt lat="42.8725723922252655029296875" lon="-1.63832318969070911407470703125">
        <ele>644.4000244140625</ele>
        <time>2020-02-16T08:13:48.000Z</time>
      </trkpt>
      <trkpt lat="42.87261153571307659149169921875" lon="-1.63833542726933956146240234375">
        <ele>644.4000244140625</ele>
        <time>2020-02-16T08:13:51.000Z</time>
      </trkpt>
      <trkpt lat="42.8727355040609836578369140625" lon="-1.6383806057274341583251953125">
        <ele>644.20001220703125</ele>
        <time>2020-02-16T08:13:57.000Z</time>
      </trkpt>
      <trkpt lat="42.8728432953357696533203125" lon="-1.63840524852275848388671875">
        <ele>642</ele>
        <time>2020-02-16T08:14:01.000Z</time>
      </trkpt>
      <trkpt lat="42.87292468361556529998779296875" lon="-1.6384473256766796112060546875">
        <ele>640.5999755859375</ele>
        <time>2020-02-16T08:14:04.000Z</time>
      </trkpt>
      <trkpt lat="42.87297070026397705078125" lon="-1.63850851356983184814453125">
        <ele>639.5999755859375</ele>
        <time>2020-02-16T08:14:06.000Z</time>
      </trkpt>
      <trkpt lat="42.8729859553277492523193359375" lon="-1.638545729219913482666015625">
        <ele>638.5999755859375</ele>
        <time>2020-02-16T08:14:07.000Z</time>
      </trkpt>
      <trkpt lat="42.87302660755813121795654296875" lon="-1.63862175308167934417724609375">
        <ele>637.20001220703125</ele>
        <time>2020-02-16T08:14:09.000Z</time>
      </trkpt>
      <trkpt lat="42.87305057980120182037353515625" lon="-1.63866835646331310272216796875">
        <ele>636.20001220703125</ele>
        <time>2020-02-16T08:14:10.000Z</time>
      </trkpt>
      <trkpt lat="42.87310221232473850250244140625" lon="-1.63878000341355800628662109375">
        <ele>634.79998779296875</ele>
        <time>2020-02-16T08:14:12.000Z</time>
      </trkpt>
      <trkpt lat="42.873122580349445343017578125" lon="-1.6388426162302494049072265625">
        <ele>634</ele>
        <time>2020-02-16T08:14:13.000Z</time>
      </trkpt>
      <trkpt lat="42.8731381706893444061279296875" lon="-1.63890548050403594970703125">
        <ele>633.4000244140625</ele>
        <time>2020-02-16T08:14:14.000Z</time>
      </trkpt>
      <trkpt lat="42.87316155619919300079345703125" lon="-1.639037244021892547607421875">
        <ele>632.20001220703125</ele>
        <time>2020-02-16T08:14:16.000Z</time>
      </trkpt>
      <trkpt lat="42.87318569608032703399658203125" lon="-1.63915936835110187530517578125">
        <ele>631.5999755859375</ele>
        <time>2020-02-16T08:14:18.000Z</time>
      </trkpt>
      <trkpt lat="42.87319667637348175048828125" lon="-1.63922893814742565155029296875">
        <ele>631.4000244140625</ele>
        <time>2020-02-16T08:14:19.000Z</time>
      </trkpt>
      <trkpt lat="42.87320673465728759765625" lon="-1.63928928785026073455810546875">
        <ele>631</ele>
        <time>2020-02-16T08:14:20.000Z</time>
      </trkpt>
      <trkpt lat="42.8732129372656345367431640625" lon="-1.639552228152751922607421875">
        <ele>629.79998779296875</ele>
        <time>2020-02-16T08:14:24.000Z</time>
      </trkpt>
      <trkpt lat="42.87320648320019245147705078125" lon="-1.63961366750299930572509765625">
        <ele>629.79998779296875</ele>
        <time>2020-02-16T08:14:25.000Z</time>
      </trkpt>
      <trkpt lat="42.873170860111713409423828125" lon="-1.6398115642368793487548828125">
        <ele>629.5999755859375</ele>
        <time>2020-02-16T08:14:29.000Z</time>
      </trkpt>
      <trkpt lat="42.87311947904527187347412109375" lon="-1.64007986895740032196044921875">
        <ele>629.5999755859375</ele>
        <time>2020-02-16T08:14:35.000Z</time>
      </trkpt>
      <trkpt lat="42.87309609353542327880859375" lon="-1.6403057612478733062744140625">
        <ele>629.4000244140625</ele>
        <time>2020-02-16T08:14:39.000Z</time>
      </trkpt>
      <trkpt lat="42.8730885498225688934326171875" lon="-1.64043174125254154205322265625">
        <ele>629.4000244140625</ele>
        <time>2020-02-16T08:14:41.000Z</time>
      </trkpt>
      <trkpt lat="42.873074971139430999755859375" lon="-1.6407855413854122161865234375">
        <ele>628.5999755859375</ele>
        <time>2020-02-16T08:14:47.000Z</time>
      </trkpt>
      <trkpt lat="42.8730771504342555999755859375" lon="-1.64083759300410747528076171875">
        <ele>628.4000244140625</ele>
        <time>2020-02-16T08:14:48.000Z</time>
      </trkpt>
      <trkpt lat="42.873093076050281524658203125" lon="-1.6409323923289775848388671875">
        <ele>627.5999755859375</ele>
        <time>2020-02-16T08:14:50.000Z</time>
      </trkpt>
      <trkpt lat="42.87311662919819355010986328125" lon="-1.64107513613998889923095703125">
        <ele>626.4000244140625</ele>
        <time>2020-02-16T08:14:53.000Z</time>
      </trkpt>
      <trkpt lat="42.87312668748199939727783203125" lon="-1.641126684844493865966796875">
        <ele>626.4000244140625</ele>
        <time>2020-02-16T08:14:54.000Z</time>
      </trkpt>
      <trkpt lat="42.8731356561183929443359375" lon="-1.64118208922445774078369140625">
        <ele>626.4000244140625</ele>
        <time>2020-02-16T08:14:55.000Z</time>
      </trkpt>
      <trkpt lat="42.87314361892640590667724609375" lon="-1.64131754077970981597900390625">
        <ele>625.20001220703125</ele>
        <time>2020-02-16T08:14:57.000Z</time>
      </trkpt>
      <trkpt lat="42.873144708573818206787109375" lon="-1.641386859118938446044921875">
        <ele>624.79998779296875</ele>
        <time>2020-02-16T08:14:58.000Z</time>
      </trkpt>
      <trkpt lat="42.87314780987799167633056640625" lon="-1.64144662208855152130126953125">
        <ele>624.20001220703125</ele>
        <time>2020-02-16T08:14:59.000Z</time>
      </trkpt>
      <trkpt lat="42.87317178212106227874755859375" lon="-1.64151451550424098968505859375">
        <ele>623</ele>
        <time>2020-02-16T08:15:01.000Z</time>
      </trkpt>
      <trkpt lat="42.87323632277548313140869140625" lon="-1.64150948636233806610107421875">
        <ele>622</ele>
        <time>2020-02-16T08:15:05.000Z</time>
      </trkpt>
      <trkpt lat="42.87327052094042301177978515625" lon="-1.64151166565716266632080078125">
        <ele>621.79998779296875</ele>
        <time>2020-02-16T08:15:09.000Z</time>
      </trkpt>
      <trkpt lat="42.8732186369597911834716796875" lon="-1.64156095124781131744384765625">
        <ele>622.79998779296875</ele>
        <time>2020-02-16T08:15:34.000Z</time>
      </trkpt>
      <trkpt lat="42.8731572814285755157470703125" lon="-1.64166840724647045135498046875">
        <ele>622.5999755859375</ele>
        <time>2020-02-16T08:15:37.000Z</time>
      </trkpt>
      <trkpt lat="42.87314898334443569183349609375" lon="-1.64171953685581684112548828125">
        <ele>622.4000244140625</ele>
        <time>2020-02-16T08:15:38.000Z</time>
      </trkpt>
      <trkpt lat="42.87312819622457027435302734375" lon="-1.64198088459670543670654296875">
        <ele>621.5999755859375</ele>
        <time>2020-02-16T08:15:43.000Z</time>
      </trkpt>
      <trkpt lat="42.87312534637749195098876953125" lon="-1.64208767004311084747314453125">
        <ele>621</ele>
        <time>2020-02-16T08:15:45.000Z</time>
      </trkpt>
      <trkpt lat="42.8731411881744861602783203125" lon="-1.64221532642841339111328125">
        <ele>620.4000244140625</ele>
        <time>2020-02-16T08:15:48.000Z</time>
      </trkpt>
      <trkpt lat="42.87314244545996189117431640625" lon="-1.64225530810654163360595703125">
        <ele>620.4000244140625</ele>
        <time>2020-02-16T08:15:49.000Z</time>
      </trkpt>
      <trkpt lat="42.87314378656446933746337890625" lon="-1.64239503443241119384765625">
        <ele>620</ele>
        <time>2020-02-16T08:15:54.000Z</time>
      </trkpt>
      <trkpt lat="42.8731438703835010528564453125" lon="-1.64246217347681522369384765625">
        <ele>619.79998779296875</ele>
        <time>2020-02-16T08:15:57.000Z</time>
      </trkpt>
      <trkpt lat="42.87314026616513729095458984375" lon="-1.642524786293506622314453125">
        <ele>618.4000244140625</ele>
        <time>2020-02-16T08:16:00.000Z</time>
      </trkpt>
      <trkpt lat="42.87313691340386867523193359375" lon="-1.642544902861118316650390625">
        <ele>618.20001220703125</ele>
        <time>2020-02-16T08:16:01.000Z</time>
      </trkpt>
      <trkpt lat="42.8731304593384265899658203125" lon="-1.6426429711282253265380859375">
        <ele>616.79998779296875</ele>
        <time>2020-02-16T08:16:04.000Z</time>
      </trkpt>
      <trkpt lat="42.8731210716068744659423828125" lon="-1.642759479582309722900390625">
        <ele>615.4000244140625</ele>
        <time>2020-02-16T08:16:07.000Z</time>
      </trkpt>
      <trkpt lat="42.873109839856624603271484375" lon="-1.6428501717746257781982421875">
        <ele>614.79998779296875</ele>
        <time>2020-02-16T08:16:09.000Z</time>
      </trkpt>
      <trkpt lat="42.87310682237148284912109375" lon="-1.64289400912821292877197265625">
        <ele>614.4000244140625</ele>
        <time>2020-02-16T08:16:10.000Z</time>
      </trkpt>
      <trkpt lat="42.8730929084122180938720703125" lon="-1.643020324409008026123046875">
        <ele>612.79998779296875</ele>
        <time>2020-02-16T08:16:13.000Z</time>
      </trkpt>
      <trkpt lat="42.8730815090239048004150390625" lon="-1.64313909597694873809814453125">
        <ele>610.79998779296875</ele>
        <time>2020-02-16T08:16:16.000Z</time>
      </trkpt>
      <trkpt lat="42.87306013517081737518310546875" lon="-1.6432411037385463714599609375">
        <ele>609.79998779296875</ele>
        <time>2020-02-16T08:16:19.000Z</time>
      </trkpt>
      <trkpt lat="42.87304722703993320465087890625" lon="-1.6433103382587432861328125">
        <ele>608.79998779296875</ele>
        <time>2020-02-16T08:16:22.000Z</time>
      </trkpt>
      <trkpt lat="42.8730426169931888580322265625" lon="-1.64336490444839000701904296875">
        <ele>607.5999755859375</ele>
        <time>2020-02-16T08:16:26.000Z</time>
      </trkpt>
      <trkpt lat="42.87304420955479145050048828125" lon="-1.6434117592871189117431640625">
        <ele>606.4000244140625</ele>
        <time>2020-02-16T08:16:29.000Z</time>
      </trkpt>
      <trkpt lat="42.87304404191672801971435546875" lon="-1.643485687673091888427734375">
        <ele>605.79998779296875</ele>
        <time>2020-02-16T08:16:32.000Z</time>
      </trkpt>
      <trkpt lat="42.87304915487766265869140625" lon="-1.64357244037091732025146484375">
        <ele>605.20001220703125</ele>
        <time>2020-02-16T08:16:35.000Z</time>
      </trkpt>
      <trkpt lat="42.87306482903659343719482421875" lon="-1.643694229423999786376953125">
        <ele>603.79998779296875</ele>
        <time>2020-02-16T08:16:39.000Z</time>
      </trkpt>
      <trkpt lat="42.8730694390833377838134765625" lon="-1.6437222249805927276611328125">
        <ele>602.5999755859375</ele>
        <time>2020-02-16T08:16:41.000Z</time>
      </trkpt>
      <trkpt lat="42.87307388149201869964599609375" lon="-1.6437621228396892547607421875">
        <ele>601.4000244140625</ele>
        <time>2020-02-16T08:16:43.000Z</time>
      </trkpt>
      <trkpt lat="42.87307488732039928436279296875" lon="-1.64378886111080646514892578125">
        <ele>601</ele>
        <time>2020-02-16T08:16:44.000Z</time>
      </trkpt>
      <trkpt lat="42.87307304330170154571533203125" lon="-1.64384049363434314727783203125">
        <ele>599.79998779296875</ele>
        <time>2020-02-16T08:16:46.000Z</time>
      </trkpt>
      <trkpt lat="42.87307203747332096099853515625" lon="-1.6439425013959407806396484375">
        <ele>598.5999755859375</ele>
        <time>2020-02-16T08:16:50.000Z</time>
      </trkpt>
      <trkpt lat="42.87307471968233585357666015625" lon="-1.6439508832991123199462890625">
        <ele>598.20001220703125</ele>
        <time>2020-02-16T08:16:51.000Z</time>
      </trkpt>
      <trkpt lat="42.87306767888367176055908203125" lon="-1.644050963222980499267578125">
        <ele>595.79998779296875</ele>
        <time>2020-02-16T08:16:58.000Z</time>
      </trkpt>
      <trkpt lat="42.87305460311472415924072265625" lon="-1.64410603232681751251220703125">
        <ele>595.4000244140625</ele>
        <time>2020-02-16T08:17:00.000Z</time>
      </trkpt>
      <trkpt lat="42.87301118485629558563232421875" lon="-1.644259504973888397216796875">
        <ele>594.5999755859375</ele>
        <time>2020-02-16T08:17:05.000Z</time>
      </trkpt>
      <trkpt lat="42.873008251190185546875" lon="-1.64427014999091625213623046875">
        <ele>594.4000244140625</ele>
        <time>2020-02-16T08:17:06.000Z</time>
      </trkpt>
      <trkpt lat="42.8730067424476146697998046875" lon="-1.64427584968507289886474609375">
        <ele>594</ele>
        <time>2020-02-16T08:17:07.000Z</time>
      </trkpt>
      <trkpt lat="42.87300129421055316925048828125" lon="-1.64433452300727367401123046875">
        <ele>592.5999755859375</ele>
        <time>2020-02-16T08:17:10.000Z</time>
      </trkpt>
      <trkpt lat="42.87299324758350849151611328125" lon="-1.64438380859792232513427734375">
        <ele>591.5999755859375</ele>
        <time>2020-02-16T08:17:12.000Z</time>
      </trkpt>
      <trkpt lat="42.87298872135579586029052734375" lon="-1.6444112174212932586669921875">
        <ele>591.4000244140625</ele>
        <time>2020-02-16T08:17:13.000Z</time>
      </trkpt>
      <trkpt lat="42.872979752719402313232421875" lon="-1.64447299204766750335693359375">
        <ele>590.79998779296875</ele>
        <time>2020-02-16T08:17:17.000Z</time>
      </trkpt>
      <trkpt lat="42.872963659465312957763671875" lon="-1.64454222656786441802978515625">
        <ele>588.79998779296875</ele>
        <time>2020-02-16T08:17:23.000Z</time>
      </trkpt>
      <trkpt lat="42.8729571215808391571044921875" lon="-1.644599139690399169921875">
        <ele>588.4000244140625</ele>
        <time>2020-02-16T08:17:25.000Z</time>
      </trkpt>
      <trkpt lat="42.8729500807821750640869140625" lon="-1.64469360373914241790771484375">
        <ele>587.79998779296875</ele>
        <time>2020-02-16T08:17:28.000Z</time>
      </trkpt>
      <trkpt lat="42.8729386813938617706298828125" lon="-1.64477138780057430267333984375">
        <ele>587.4000244140625</ele>
        <time>2020-02-16T08:17:31.000Z</time>
      </trkpt>
      <trkpt lat="42.87293977104127407073974609375" lon="-1.64477289654314517974853515625">
        <ele>587.20001220703125</ele>
        <time>2020-02-16T08:17:32.000Z</time>
      </trkpt>
      <trkpt lat="42.87292837165296077728271484375" lon="-1.64482452906668186187744140625">
        <ele>582.5999755859375</ele>
        <time>2020-02-16T08:17:40.000Z</time>
      </trkpt>
      <trkpt lat="42.87291881628334522247314453125" lon="-1.64488554932177066802978515625">
        <ele>582.4000244140625</ele>
        <time>2020-02-16T08:17:42.000Z</time>
      </trkpt>
      <trkpt lat="42.87288813851773738861083984375" lon="-1.64495595730841159820556640625">
        <ele>582.4000244140625</ele>
        <time>2020-02-16T08:17:45.000Z</time>
      </trkpt>
      <trkpt lat="42.87287640385329723358154296875" lon="-1.6449647583067417144775390625">
        <ele>582.4000244140625</ele>
        <time>2020-02-16T08:17:46.000Z</time>
      </trkpt>
      <trkpt lat="42.87286131642758846282958984375" lon="-1.644969619810581207275390625">
        <ele>582.20001220703125</ele>
        <time>2020-02-16T08:17:47.000Z</time>
      </trkpt>
      <trkpt lat="42.872803397476673126220703125" lon="-1.64497775025665760040283203125">
        <ele>581.5999755859375</ele>
        <time>2020-02-16T08:17:50.000Z</time>
      </trkpt>
      <trkpt lat="42.87278504110872745513916015625" lon="-1.6449724696576595306396484375">
        <ele>581</ele>
        <time>2020-02-16T08:17:51.000Z</time>
      </trkpt>
      <trkpt lat="42.872767858207225799560546875" lon="-1.64496048353612422943115234375">
        <ele>580.5999755859375</ele>
        <time>2020-02-16T08:17:52.000Z</time>
      </trkpt>
      <trkpt lat="42.8727521002292633056640625" lon="-1.64494908414781093597412109375">
        <ele>580.20001220703125</ele>
        <time>2020-02-16T08:17:53.000Z</time>
      </trkpt>
      <trkpt lat="42.87272737361490726470947265625" lon="-1.64491840638220310211181640625">
        <ele>579.5999755859375</ele>
        <time>2020-02-16T08:17:55.000Z</time>
      </trkpt>
      <trkpt lat="42.8727184049785137176513671875" lon="-1.64490281604230403900146484375">
        <ele>579.20001220703125</ele>
        <time>2020-02-16T08:17:56.000Z</time>
      </trkpt>
      <trkpt lat="42.8726902417838573455810546875" lon="-1.64487347938120365142822265625">
        <ele>578.4000244140625</ele>
        <time>2020-02-16T08:17:58.000Z</time>
      </trkpt>
      <trkpt lat="42.87267473526298999786376953125" lon="-1.6448606550693511962890625">
        <ele>578</ele>
        <time>2020-02-16T08:17:59.000Z</time>
      </trkpt>
      <trkpt lat="42.8726205043494701385498046875" lon="-1.64484447799623012542724609375">
        <ele>576.79998779296875</ele>
        <time>2020-02-16T08:18:02.000Z</time>
      </trkpt>
      <trkpt lat="42.87258437834680080413818359375" lon="-1.6448521055281162261962890625">
        <ele>576</ele>
        <time>2020-02-16T08:18:04.000Z</time>
      </trkpt>
      <trkpt lat="42.87256711162626743316650390625" lon="-1.64485705085098743438720703125">
        <ele>575.79998779296875</ele>
        <time>2020-02-16T08:18:05.000Z</time>
      </trkpt>
      <trkpt lat="42.87248128093779087066650390625" lon="-1.64480105973780155181884765625">
        <ele>574.79998779296875</ele>
        <time>2020-02-16T08:18:09.000Z</time>
      </trkpt>
      <trkpt lat="42.87245638668537139892578125" lon="-1.644776165485382080078125">
        <ele>574.4000244140625</ele>
        <time>2020-02-16T08:18:10.000Z</time>
      </trkpt>
      <trkpt lat="42.872372902929782867431640625" lon="-1.6446935199201107025146484375">
        <ele>573.20001220703125</ele>
        <time>2020-02-16T08:18:14.000Z</time>
      </trkpt>
      <trkpt lat="42.872355468571186065673828125" lon="-1.64469142444431781768798828125">
        <ele>572.79998779296875</ele>
        <time>2020-02-16T08:18:15.000Z</time>
      </trkpt>
      <trkpt lat="42.87233023904263973236083984375" lon="-1.644717492163181304931640625">
        <ele>572</ele>
        <time>2020-02-16T08:18:17.000Z</time>
      </trkpt>
      <trkpt lat="42.8723214380443096160888671875" lon="-1.64477792568504810333251953125">
        <ele>571</ele>
        <time>2020-02-16T08:18:19.000Z</time>
      </trkpt>
      <trkpt lat="42.87231582216918468475341796875" lon="-1.64481304585933685302734375">
        <ele>570.5999755859375</ele>
        <time>2020-02-16T08:18:20.000Z</time>
      </trkpt>
      <trkpt lat="42.87227206863462924957275390625" lon="-1.64488454349339008331298828125">
        <ele>569.79998779296875</ele>
        <time>2020-02-16T08:18:23.000Z</time>
      </trkpt>
      <trkpt lat="42.87224910221993923187255859375" lon="-1.64489191956818103790283203125">
        <ele>569.4000244140625</ele>
        <time>2020-02-16T08:18:24.000Z</time>
      </trkpt>
      <trkpt lat="42.87217986769974231719970703125" lon="-1.644850261509418487548828125">
        <ele>568</ele>
        <time>2020-02-16T08:18:27.000Z</time>
      </trkpt>
      <trkpt lat="42.87215472199022769927978515625" lon="-1.6448299773037433624267578125">
        <ele>567.5999755859375</ele>
        <time>2020-02-16T08:18:28.000Z</time>
      </trkpt>
      <trkpt lat="42.87211239337921142578125" lon="-1.64478664286434650421142578125">
        <ele>566.79998779296875</ele>
        <time>2020-02-16T08:18:30.000Z</time>
      </trkpt>
      <trkpt lat="42.87204776890575885772705078125" lon="-1.64471992291510105133056640625">
        <ele>565.4000244140625</ele>
        <time>2020-02-16T08:18:33.000Z</time>
      </trkpt>
      <trkpt lat="42.87202077917754650115966796875" lon="-1.6447024047374725341796875">
        <ele>564.79998779296875</ele>
        <time>2020-02-16T08:18:34.000Z</time>
      </trkpt>
      <trkpt lat="42.87199513055384159088134765625" lon="-1.64468807168304920196533203125">
        <ele>564.20001220703125</ele>
        <time>2020-02-16T08:18:35.000Z</time>
      </trkpt>
      <trkpt lat="42.871939726173877716064453125" lon="-1.64465856738388538360595703125">
        <ele>562.79998779296875</ele>
        <time>2020-02-16T08:18:38.000Z</time>
      </trkpt>
      <trkpt lat="42.87191986106336116790771484375" lon="-1.64465881884098052978515625">
        <ele>561.79998779296875</ele>
        <time>2020-02-16T08:18:40.000Z</time>
      </trkpt>
      <trkpt lat="42.871867306530475616455078125" lon="-1.6445915959775447845458984375">
        <ele>559</ele>
        <time>2020-02-16T08:18:48.000Z</time>
      </trkpt>
      <trkpt lat="42.8718456812202930450439453125" lon="-1.64453719742596149444580078125">
        <ele>559</ele>
        <time>2020-02-16T08:18:50.000Z</time>
      </trkpt>
      <trkpt lat="42.87176982499659061431884765625" lon="-1.64435304701328277587890625">
        <ele>558.79998779296875</ele>
        <time>2020-02-16T08:18:54.000Z</time>
      </trkpt>
      <trkpt lat="42.87168080918490886688232421875" lon="-1.64418700151145458221435546875">
        <ele>557.20001220703125</ele>
        <time>2020-02-16T08:18:58.000Z</time>
      </trkpt>
      <trkpt lat="42.87165281362831592559814453125" lon="-1.64416286163032054901123046875">
        <ele>556.79998779296875</ele>
        <time>2020-02-16T08:18:59.000Z</time>
      </trkpt>
      <trkpt lat="42.871624566614627838134765625" lon="-1.644144169986248016357421875">
        <ele>556.20001220703125</ele>
        <time>2020-02-16T08:19:00.000Z</time>
      </trkpt>
      <trkpt lat="42.87156052887439727783203125" lon="-1.64411030709743499755859375">
        <ele>555.20001220703125</ele>
        <time>2020-02-16T08:19:02.000Z</time>
      </trkpt>
      <trkpt lat="42.87148945033550262451171875" lon="-1.64408675394952297210693359375">
        <ele>554.20001220703125</ele>
        <time>2020-02-16T08:19:04.000Z</time>
      </trkpt>
      <trkpt lat="42.8714570961892604827880859375" lon="-1.644079126417636871337890625">
        <ele>553.79998779296875</ele>
        <time>2020-02-16T08:19:05.000Z</time>
      </trkpt>
      <trkpt lat="42.87140051834285259246826171875" lon="-1.64404903538525104522705078125">
        <ele>553</ele>
        <time>2020-02-16T08:19:07.000Z</time>
      </trkpt>
      <trkpt lat="42.87137210369110107421875" lon="-1.6440417431294918060302734375">
        <ele>552.79998779296875</ele>
        <time>2020-02-16T08:19:08.000Z</time>
      </trkpt>
      <trkpt lat="42.87134326994419097900390625" lon="-1.6440326906740665435791015625">
        <ele>552.20001220703125</ele>
        <time>2020-02-16T08:19:09.000Z</time>
      </trkpt>
      <trkpt lat="42.87127747200429439544677734375" lon="-1.6440184414386749267578125">
        <ele>551.4000244140625</ele>
        <time>2020-02-16T08:19:11.000Z</time>
      </trkpt>
      <trkpt lat="42.8711526654660701751708984375" lon="-1.644047610461711883544921875">
        <ele>550</ele>
        <time>2020-02-16T08:19:14.000Z</time>
      </trkpt>
      <trkpt lat="42.87108284421265125274658203125" lon="-1.64406395517289638519287109375">
        <ele>549</ele>
        <time>2020-02-16T08:19:16.000Z</time>
      </trkpt>
      <trkpt lat="42.870976142585277557373046875" lon="-1.64409228600561618804931640625">
        <ele>547.79998779296875</ele>
        <time>2020-02-16T08:19:19.000Z</time>
      </trkpt>
      <trkpt lat="42.870907746255397796630859375" lon="-1.6441081278026103973388671875">
        <ele>546.79998779296875</ele>
        <time>2020-02-16T08:19:21.000Z</time>
      </trkpt>
      <trkpt lat="42.87088033743202686309814453125" lon="-1.64411189965903759002685546875">
        <ele>546.20001220703125</ele>
        <time>2020-02-16T08:19:22.000Z</time>
      </trkpt>
      <trkpt lat="42.870815210044384002685546875" lon="-1.64410804398357868194580078125">
        <ele>544.5999755859375</ele>
        <time>2020-02-16T08:19:25.000Z</time>
      </trkpt>
      <trkpt lat="42.87079450674355030059814453125" lon="-1.64410066790878772735595703125">
        <ele>544</ele>
        <time>2020-02-16T08:19:26.000Z</time>
      </trkpt>
      <trkpt lat="42.870780341327190399169921875" lon="-1.64409345947206020355224609375">
        <ele>543.4000244140625</ele>
        <time>2020-02-16T08:19:27.000Z</time>
      </trkpt>
      <trkpt lat="42.87072275765240192413330078125" lon="-1.6440628655254840850830078125">
        <ele>542.4000244140625</ele>
        <time>2020-02-16T08:19:30.000Z</time>
      </trkpt>
      <trkpt lat="42.870687134563922882080078125" lon="-1.64404367096722126007080078125">
        <ele>542</ele>
        <time>2020-02-16T08:19:31.000Z</time>
      </trkpt>
      <trkpt lat="42.87062971852719783782958984375" lon="-1.6439854167401790618896484375">
        <ele>541.4000244140625</ele>
        <time>2020-02-16T08:19:33.000Z</time>
      </trkpt>
      <trkpt lat="42.8705639205873012542724609375" lon="-1.64392380975186824798583984375">
        <ele>540.79998779296875</ele>
        <time>2020-02-16T08:19:35.000Z</time>
      </trkpt>
      <trkpt lat="42.87053466774523258209228515625" lon="-1.6438816487789154052734375">
        <ele>540.5999755859375</ele>
        <time>2020-02-16T08:19:36.000Z</time>
      </trkpt>
      <trkpt lat="42.8705035708844661712646484375" lon="-1.64383529685437679290771484375">
        <ele>540.20001220703125</ele>
        <time>2020-02-16T08:19:37.000Z</time>
      </trkpt>
      <trkpt lat="42.8703634254634380340576171875" lon="-1.6436179541051387786865234375">
        <ele>539.79998779296875</ele>
        <time>2020-02-16T08:19:41.000Z</time>
      </trkpt>
      <trkpt lat="42.8701575659215450286865234375" lon="-1.64326214231550693511962890625">
        <ele>539.20001220703125</ele>
        <time>2020-02-16T08:19:46.000Z</time>
      </trkpt>
      <trkpt lat="42.87011506967246532440185546875" lon="-1.64318502880632877349853515625">
        <ele>538.79998779296875</ele>
        <time>2020-02-16T08:19:47.000Z</time>
      </trkpt>
      <trkpt lat="42.870025634765625" lon="-1.64303205907344818115234375">
        <ele>538</ele>
        <time>2020-02-16T08:19:49.000Z</time>
      </trkpt>
      <trkpt lat="42.869888506829738616943359375" lon="-1.6427978686988353729248046875">
        <ele>536.4000244140625</ele>
        <time>2020-02-16T08:19:52.000Z</time>
      </trkpt>
      <trkpt lat="42.869793958961963653564453125" lon="-1.64263316430151462554931640625">
        <ele>535.79998779296875</ele>
        <time>2020-02-16T08:19:54.000Z</time>
      </trkpt>
      <trkpt lat="42.86969547159969806671142578125" lon="-1.6424602456390857696533203125">
        <ele>535.4000244140625</ele>
        <time>2020-02-16T08:19:56.000Z</time>
      </trkpt>
      <trkpt lat="42.86948575638234615325927734375" lon="-1.64209328591823577880859375">
        <ele>534.20001220703125</ele>
        <time>2020-02-16T08:20:00.000Z</time>
      </trkpt>
      <trkpt lat="42.86943085491657257080078125" lon="-1.64199714548885822296142578125">
        <ele>533.79998779296875</ele>
        <time>2020-02-16T08:20:01.000Z</time>
      </trkpt>
      <trkpt lat="42.86931644193828105926513671875" lon="-1.641804613173007965087890625">
        <ele>533</ele>
        <time>2020-02-16T08:20:03.000Z</time>
      </trkpt>
      <trkpt lat="42.86914310418069362640380859375" lon="-1.6415127553045749664306640625">
        <ele>531.79998779296875</ele>
        <time>2020-02-16T08:20:06.000Z</time>
      </trkpt>
      <trkpt lat="42.8690266795456409454345703125" lon="-1.6413199715316295623779296875">
        <ele>530.5999755859375</ele>
        <time>2020-02-16T08:20:08.000Z</time>
      </trkpt>
      <trkpt lat="42.8689690120518207550048828125" lon="-1.64122248999774456024169921875">
        <ele>530</ele>
        <time>2020-02-16T08:20:09.000Z</time>
      </trkpt>
      <trkpt lat="42.8689111769199371337890625" lon="-1.641123332083225250244140625">
        <ele>529.5999755859375</ele>
        <time>2020-02-16T08:20:10.000Z</time>
      </trkpt>
      <trkpt lat="42.86879827268421649932861328125" lon="-1.640922836959362030029296875">
        <ele>528.4000244140625</ele>
        <time>2020-02-16T08:20:12.000Z</time>
      </trkpt>
      <trkpt lat="42.8686625696718692779541015625" lon="-1.6406316496431827545166015625">
        <ele>527.20001220703125</ele>
        <time>2020-02-16T08:20:15.000Z</time>
      </trkpt>
      <trkpt lat="42.86858193576335906982421875" lon="-1.64029310457408428192138671875">
        <ele>526</ele>
        <time>2020-02-16T08:20:18.000Z</time>
      </trkpt>
      <trkpt lat="42.8685624897480010986328125" lon="-1.64017072878777980804443359375">
        <ele>525.4000244140625</ele>
        <time>2020-02-16T08:20:19.000Z</time>
      </trkpt>
      <trkpt lat="42.86852954886853694915771484375" lon="-1.639917008578777313232421875">
        <ele>524.79998779296875</ele>
        <time>2020-02-16T08:20:21.000Z</time>
      </trkpt>
      <trkpt lat="42.868485040962696075439453125" lon="-1.63952129893004894256591796875">
        <ele>523.5999755859375</ele>
        <time>2020-02-16T08:20:24.000Z</time>
      </trkpt>
      <trkpt lat="42.8684694506227970123291015625" lon="-1.639390625059604644775390625">
        <ele>523.20001220703125</ele>
        <time>2020-02-16T08:20:25.000Z</time>
      </trkpt>
      <trkpt lat="42.8684552013874053955078125" lon="-1.6392630524933338165283203125">
        <ele>522.5999755859375</ele>
        <time>2020-02-16T08:20:26.000Z</time>
      </trkpt>
      <trkpt lat="42.86843047477304935455322265625" lon="-1.63901553489267826080322265625">
        <ele>521.20001220703125</ele>
        <time>2020-02-16T08:20:28.000Z</time>
      </trkpt>
      <trkpt lat="42.8684010542929172515869140625" lon="-1.63877807557582855224609375">
        <ele>520</ele>
        <time>2020-02-16T08:20:30.000Z</time>
      </trkpt>
      <trkpt lat="42.86837699823081493377685546875" lon="-1.6386625729501247406005859375">
        <ele>519.20001220703125</ele>
        <time>2020-02-16T08:20:31.000Z</time>
      </trkpt>
      <trkpt lat="42.8683403693139553070068359375" lon="-1.63855000399053096771240234375">
        <ele>518.5999755859375</ele>
        <time>2020-02-16T08:20:32.000Z</time>
      </trkpt>
      <trkpt lat="42.868227548897266387939453125" lon="-1.63834783248603343963623046875">
        <ele>517.5999755859375</ele>
        <time>2020-02-16T08:20:34.000Z</time>
      </trkpt>
      <trkpt lat="42.86815286614000797271728515625" lon="-1.638262756168842315673828125">
        <ele>517.4000244140625</ele>
        <time>2020-02-16T08:20:35.000Z</time>
      </trkpt>
      <trkpt lat="42.8679792769253253936767578125" lon="-1.6381355188786983489990234375">
        <ele>516.5999755859375</ele>
        <time>2020-02-16T08:20:37.000Z</time>
      </trkpt>
      <trkpt lat="42.867887914180755615234375" lon="-1.638083048164844512939453125">
        <ele>516.4000244140625</ele>
        <time>2020-02-16T08:20:38.000Z</time>
      </trkpt>
      <trkpt lat="42.867796383798122406005859375" lon="-1.638034768402576446533203125">
        <ele>516</ele>
        <time>2020-02-16T08:20:39.000Z</time>
      </trkpt>
      <trkpt lat="42.86761424504220485687255859375" lon="-1.6379501111805438995361328125">
        <ele>514.79998779296875</ele>
        <time>2020-02-16T08:20:41.000Z</time>
      </trkpt>
      <trkpt lat="42.8674399852752685546875" lon="-1.63786972872912883758544921875">
        <ele>513.20001220703125</ele>
        <time>2020-02-16T08:20:43.000Z</time>
      </trkpt>
      <trkpt lat="42.86727142520248889923095703125" lon="-1.637794710695743560791015625">
        <ele>511.399993896484375</ele>
        <time>2020-02-16T08:20:45.000Z</time>
      </trkpt>
      <trkpt lat="42.8671060502529144287109375" lon="-1.63771801628172397613525390625">
        <ele>510.79998779296875</ele>
        <time>2020-02-16T08:20:47.000Z</time>
      </trkpt>
      <trkpt lat="42.86670128814876079559326171875" lon="-1.63752573542296886444091796875">
        <ele>510.20001220703125</ele>
        <time>2020-02-16T08:20:52.000Z</time>
      </trkpt>
      <trkpt lat="42.86637715995311737060546875" lon="-1.6372748650610446929931640625">
        <ele>510</ele>
        <time>2020-02-16T08:20:56.000Z</time>
      </trkpt>
      <trkpt lat="42.8662143833935260772705078125" lon="-1.6371125914156436920166015625">
        <ele>510</ele>
        <time>2020-02-16T08:20:58.000Z</time>
      </trkpt>
      <trkpt lat="42.86596016027033329010009765625" lon="-1.63684831000864505767822265625">
        <ele>509</ele>
        <time>2020-02-16T08:21:01.000Z</time>
      </trkpt>
      <trkpt lat="42.865873910486698150634765625" lon="-1.6367550194263458251953125">
        <ele>508.600006103515625</ele>
        <time>2020-02-16T08:21:02.000Z</time>
      </trkpt>
      <trkpt lat="42.86578531377017498016357421875" lon="-1.6366611421108245849609375">
        <ele>507.79998779296875</ele>
        <time>2020-02-16T08:21:03.000Z</time>
      </trkpt>
      <trkpt lat="42.865604348480701446533203125" lon="-1.63647271692752838134765625">
        <ele>506.399993896484375</ele>
        <time>2020-02-16T08:21:05.000Z</time>
      </trkpt>
      <trkpt lat="42.8654224611818790435791015625" lon="-1.63627917878329753875732421875">
        <ele>504.600006103515625</ele>
        <time>2020-02-16T08:21:07.000Z</time>
      </trkpt>
      <trkpt lat="42.86523965187370777130126953125" lon="-1.6360910050570964813232421875">
        <ele>502.600006103515625</ele>
        <time>2020-02-16T08:21:09.000Z</time>
      </trkpt>
      <trkpt lat="42.86514879204332828521728515625" lon="-1.6359986364841461181640625">
        <ele>501.79998779296875</ele>
        <time>2020-02-16T08:21:10.000Z</time>
      </trkpt>
      <trkpt lat="42.86505885422229766845703125" lon="-1.6359062679111957550048828125">
        <ele>500.79998779296875</ele>
        <time>2020-02-16T08:21:11.000Z</time>
      </trkpt>
      <trkpt lat="42.864969335496425628662109375" lon="-1.6358130611479282379150390625">
        <ele>499.20001220703125</ele>
        <time>2020-02-16T08:21:12.000Z</time>
      </trkpt>
      <trkpt lat="42.8647914715111255645751953125" lon="-1.63562924601137638092041015625">
        <ele>497.79998779296875</ele>
        <time>2020-02-16T08:21:14.000Z</time>
      </trkpt>
      <trkpt lat="42.86461352370679378509521484375" lon="-1.635448448359966278076171875">
        <ele>496.600006103515625</ele>
        <time>2020-02-16T08:21:16.000Z</time>
      </trkpt>
      <trkpt lat="42.864348404109477996826171875" lon="-1.63518031127750873565673828125">
        <ele>495.20001220703125</ele>
        <time>2020-02-16T08:21:19.000Z</time>
      </trkpt>
      <trkpt lat="42.86417548544704914093017578125" lon="-1.63500563241541385650634765625">
        <ele>494.399993896484375</ele>
        <time>2020-02-16T08:21:21.000Z</time>
      </trkpt>
      <trkpt lat="42.8640939295291900634765625" lon="-1.6349242441356182098388671875">
        <ele>494.20001220703125</ele>
        <time>2020-02-16T08:21:22.000Z</time>
      </trkpt>
      <trkpt lat="42.8638694621622562408447265625" lon="-1.63468368351459503173828125">
        <ele>493</ele>
        <time>2020-02-16T08:21:25.000Z</time>
      </trkpt>
      <trkpt lat="42.86380265839397907257080078125" lon="-1.6345986910164356231689453125">
        <ele>492.600006103515625</ele>
        <time>2020-02-16T08:21:26.000Z</time>
      </trkpt>
      <trkpt lat="42.8637420572340488433837890625" lon="-1.6345046460628509521484375">
        <ele>492.20001220703125</ele>
        <time>2020-02-16T08:21:27.000Z</time>
      </trkpt>
      <trkpt lat="42.863688580691814422607421875" lon="-1.63440205156803131103515625">
        <ele>491.600006103515625</ele>
        <time>2020-02-16T08:21:28.000Z</time>
      </trkpt>
      <trkpt lat="42.8636066056787967681884765625" lon="-1.634176075458526611328125">
        <ele>491.20001220703125</ele>
        <time>2020-02-16T08:21:30.000Z</time>
      </trkpt>
      <trkpt lat="42.8635475970804691314697265625" lon="-1.63392989896237850189208984375">
        <ele>490.79998779296875</ele>
        <time>2020-02-16T08:21:32.000Z</time>
      </trkpt>
      <trkpt lat="42.863520942628383636474609375" lon="-1.6338027454912662506103515625">
        <ele>490.600006103515625</ele>
        <time>2020-02-16T08:21:33.000Z</time>
      </trkpt>
      <trkpt lat="42.86344014108180999755859375" lon="-1.6334161721169948577880859375">
        <ele>490</ele>
        <time>2020-02-16T08:21:36.000Z</time>
      </trkpt>
      <trkpt lat="42.86338406614959239959716796875" lon="-1.63315976969897747039794921875">
        <ele>489.20001220703125</ele>
        <time>2020-02-16T08:21:38.000Z</time>
      </trkpt>
      <trkpt lat="42.86335556767880916595458984375" lon="-1.63303270004689693450927734375">
        <ele>488</ele>
        <time>2020-02-16T08:21:39.000Z</time>
      </trkpt>
      <trkpt lat="42.86329957656562328338623046875" lon="-1.6327811591327190399169921875">
        <ele>486.399993896484375</ele>
        <time>2020-02-16T08:21:41.000Z</time>
      </trkpt>
      <trkpt lat="42.86324257962405681610107421875" lon="-1.6325400955975055694580078125">
        <ele>485</ele>
        <time>2020-02-16T08:21:43.000Z</time>
      </trkpt>
      <trkpt lat="42.86321441642940044403076171875" lon="-1.6324234195053577423095703125">
        <ele>484.79998779296875</ele>
        <time>2020-02-16T08:21:44.000Z</time>
      </trkpt>
      <trkpt lat="42.86315741948783397674560546875" lon="-1.632199622690677642822265625">
        <ele>483.79998779296875</ele>
        <time>2020-02-16T08:21:46.000Z</time>
      </trkpt>
      <trkpt lat="42.86304141394793987274169921875" lon="-1.6319037415087223052978515625">
        <ele>483.399993896484375</ele>
        <time>2020-02-16T08:21:49.000Z</time>
      </trkpt>
      <trkpt lat="42.8627637214958667755126953125" lon="-1.631482131779193878173828125">
        <ele>483</ele>
        <time>2020-02-16T08:21:54.000Z</time>
      </trkpt>
      <trkpt lat="42.86249223165214061737060546875" lon="-1.63114073686301708221435546875">
        <ele>482.79998779296875</ele>
        <time>2020-02-16T08:21:58.000Z</time>
      </trkpt>
      <trkpt lat="42.86227564327418804168701171875" lon="-1.63087469525635242462158203125">
        <ele>482.600006103515625</ele>
        <time>2020-02-16T08:22:01.000Z</time>
      </trkpt>
      <trkpt lat="42.86205436103045940399169921875" lon="-1.630604378879070281982421875">
        <ele>481.399993896484375</ele>
        <time>2020-02-16T08:22:04.000Z</time>
      </trkpt>
      <trkpt lat="42.86190432496368885040283203125" lon="-1.630419306457042694091796875">
        <ele>479.600006103515625</ele>
        <time>2020-02-16T08:22:06.000Z</time>
      </trkpt>
      <trkpt lat="42.86175043322145938873291015625" lon="-1.6302303783595561981201171875">
        <ele>478.20001220703125</ele>
        <time>2020-02-16T08:22:08.000Z</time>
      </trkpt>
      <trkpt lat="42.86167181096971035003662109375" lon="-1.63013474084436893463134765625">
        <ele>477.600006103515625</ele>
        <time>2020-02-16T08:22:09.000Z</time>
      </trkpt>
      <trkpt lat="42.86159285344183444976806640625" lon="-1.63003700785338878631591796875">
        <ele>477</ele>
        <time>2020-02-16T08:22:10.000Z</time>
      </trkpt>
      <trkpt lat="42.861354388296604156494140625" lon="-1.62973844446241855621337890625">
        <ele>475.600006103515625</ele>
        <time>2020-02-16T08:22:13.000Z</time>
      </trkpt>
      <trkpt lat="42.861121706664562225341796875" lon="-1.62944977171719074249267578125">
        <ele>474</ele>
        <time>2020-02-16T08:22:16.000Z</time>
      </trkpt>
      <trkpt lat="42.86104668863117694854736328125" lon="-1.62935572676360607147216796875">
        <ele>473.399993896484375</ele>
        <time>2020-02-16T08:22:17.000Z</time>
      </trkpt>
      <trkpt lat="42.860972844064235687255859375" lon="-1.62926319055259227752685546875">
        <ele>472.79998779296875</ele>
        <time>2020-02-16T08:22:18.000Z</time>
      </trkpt>
      <trkpt lat="42.86082691513001918792724609375" lon="-1.629085242748260498046875">
        <ele>471.600006103515625</ele>
        <time>2020-02-16T08:22:20.000Z</time>
      </trkpt>
      <trkpt lat="42.8606149367988109588623046875" lon="-1.62883537821471691131591796875">
        <ele>470.399993896484375</ele>
        <time>2020-02-16T08:22:23.000Z</time>
      </trkpt>
      <trkpt lat="42.8605475462973117828369140625" lon="-1.62875474430620670318603515625">
        <ele>470.20001220703125</ele>
        <time>2020-02-16T08:22:24.000Z</time>
      </trkpt>
      <trkpt lat="42.86028175614774227142333984375" lon="-1.6284524090588092803955078125">
        <ele>469.600006103515625</ele>
        <time>2020-02-16T08:22:28.000Z</time>
      </trkpt>
      <trkpt lat="42.86008469760417938232421875" lon="-1.62824864499270915985107421875">
        <ele>469.399993896484375</ele>
        <time>2020-02-16T08:22:31.000Z</time>
      </trkpt>
      <trkpt lat="42.8600198216736316680908203125" lon="-1.628181673586368560791015625">
        <ele>469.399993896484375</ele>
        <time>2020-02-16T08:22:32.000Z</time>
      </trkpt>
      <trkpt lat="42.8598357550799846649169921875" lon="-1.6279675997793674468994140625">
        <ele>469.20001220703125</ele>
        <time>2020-02-16T08:22:35.000Z</time>
      </trkpt>
      <trkpt lat="42.8596721403300762176513671875" lon="-1.62772662006318569183349609375">
        <ele>469</ele>
        <time>2020-02-16T08:22:38.000Z</time>
      </trkpt>
      <trkpt lat="42.85933141596615314483642578125" lon="-1.6271176747977733612060546875">
        <ele>468.600006103515625</ele>
        <time>2020-02-16T08:22:45.000Z</time>
      </trkpt>
      <trkpt lat="42.85928397439420223236083984375" lon="-1.62703041918575763702392578125">
        <ele>468.399993896484375</ele>
        <time>2020-02-16T08:22:46.000Z</time>
      </trkpt>
      <trkpt lat="42.8592366166412830352783203125" lon="-1.6269434988498687744140625">
        <ele>468.20001220703125</ele>
        <time>2020-02-16T08:22:47.000Z</time>
      </trkpt>
      <trkpt lat="42.85894668661057949066162109375" lon="-1.62642784416675567626953125">
        <ele>467.20001220703125</ele>
        <time>2020-02-16T08:22:53.000Z</time>
      </trkpt>
      <trkpt lat="42.858802936971187591552734375" lon="-1.62617060355842113494873046875">
        <ele>466.600006103515625</ele>
        <time>2020-02-16T08:22:56.000Z</time>
      </trkpt>
      <trkpt lat="42.85875557921826839447021484375" lon="-1.62608494050800800323486328125">
        <ele>466.600006103515625</ele>
        <time>2020-02-16T08:22:57.000Z</time>
      </trkpt>
      <trkpt lat="42.85866153426468372344970703125" lon="-1.625912524759769439697265625">
        <ele>466.20001220703125</ele>
        <time>2020-02-16T08:22:59.000Z</time>
      </trkpt>
      <trkpt lat="42.85852155648171901702880859375" lon="-1.625655703246593475341796875">
        <ele>465</ele>
        <time>2020-02-16T08:23:02.000Z</time>
      </trkpt>
      <trkpt lat="42.85832877270877361297607421875" lon="-1.625321768224239349365234375">
        <ele>464.600006103515625</ele>
        <time>2020-02-16T08:23:06.000Z</time>
      </trkpt>
      <trkpt lat="42.8582224063575267791748046875" lon="-1.6251673735678195953369140625">
        <ele>464.20001220703125</ele>
        <time>2020-02-16T08:23:08.000Z</time>
      </trkpt>
      <trkpt lat="42.8581037186086177825927734375" lon="-1.62502882070839405059814453125">
        <ele>463.79998779296875</ele>
        <time>2020-02-16T08:23:10.000Z</time>
      </trkpt>
      <trkpt lat="42.85803808830678462982177734375" lon="-1.624965704977512359619140625">
        <ele>463.600006103515625</ele>
        <time>2020-02-16T08:23:11.000Z</time>
      </trkpt>
      <trkpt lat="42.85766324959695339202880859375" lon="-1.62468734197318553924560546875">
        <ele>463</ele>
        <time>2020-02-16T08:23:16.000Z</time>
      </trkpt>
      <trkpt lat="42.8575816936790943145751953125" lon="-1.62463210523128509521484375">
        <ele>462.79998779296875</ele>
        <time>2020-02-16T08:23:17.000Z</time>
      </trkpt>
      <trkpt lat="42.85741715691983699798583984375" lon="-1.62451702170073986053466796875">
        <ele>462.20001220703125</ele>
        <time>2020-02-16T08:23:19.000Z</time>
      </trkpt>
      <trkpt lat="42.8572475910186767578125" lon="-1.624400429427623748779296875">
        <ele>461.399993896484375</ele>
        <time>2020-02-16T08:23:21.000Z</time>
      </trkpt>
      <trkpt lat="42.85707349888980388641357421875" lon="-1.62427880801260471343994140625">
        <ele>460.399993896484375</ele>
        <time>2020-02-16T08:23:23.000Z</time>
      </trkpt>
      <trkpt lat="42.85698465071618556976318359375" lon="-1.62421611137688159942626953125">
        <ele>459.79998779296875</ele>
        <time>2020-02-16T08:23:24.000Z</time>
      </trkpt>
      <trkpt lat="42.85680393688380718231201171875" lon="-1.6240847669541835784912109375">
        <ele>458.600006103515625</ele>
        <time>2020-02-16T08:23:26.000Z</time>
      </trkpt>
      <trkpt lat="42.85662305541336536407470703125" lon="-1.6239550150930881500244140625">
        <ele>457.20001220703125</ele>
        <time>2020-02-16T08:23:28.000Z</time>
      </trkpt>
      <trkpt lat="42.85643714480102062225341796875" lon="-1.6238118521869182586669921875">
        <ele>455.79998779296875</ele>
        <time>2020-02-16T08:23:30.000Z</time>
      </trkpt>
      <trkpt lat="42.85625140182673931121826171875" lon="-1.623659469187259674072265625">
        <ele>454.600006103515625</ele>
        <time>2020-02-16T08:23:32.000Z</time>
      </trkpt>
      <trkpt lat="42.85607420839369297027587890625" lon="-1.623483784496784210205078125">
        <ele>453.600006103515625</ele>
        <time>2020-02-16T08:23:34.000Z</time>
      </trkpt>
      <trkpt lat="42.85599105991423130035400390625" lon="-1.62338915280997753143310546875">
        <ele>453</ele>
        <time>2020-02-16T08:23:35.000Z</time>
      </trkpt>
      <trkpt lat="42.85591411404311656951904296875" lon="-1.62329963408410549163818359375">
        <ele>452.600006103515625</ele>
        <time>2020-02-16T08:23:36.000Z</time>
      </trkpt>
      <trkpt lat="42.8558432869613170623779296875" lon="-1.6232180781662464141845703125">
        <ele>452.20001220703125</ele>
        <time>2020-02-16T08:23:37.000Z</time>
      </trkpt>
      <trkpt lat="42.8557227551937103271484375" lon="-1.623078100383281707763671875">
        <ele>451.399993896484375</ele>
        <time>2020-02-16T08:23:39.000Z</time>
      </trkpt>
      <trkpt lat="42.85566936247050762176513671875" lon="-1.62301867268979549407958984375">
        <ele>450.79998779296875</ele>
        <time>2020-02-16T08:23:40.000Z</time>
      </trkpt>
      <trkpt lat="42.855536006391048431396484375" lon="-1.62287928164005279541015625">
        <ele>449.79998779296875</ele>
        <time>2020-02-16T08:23:43.000Z</time>
      </trkpt>
      <trkpt lat="42.8554661013185977935791015625" lon="-1.62283645011484622955322265625">
        <ele>449.79998779296875</ele>
        <time>2020-02-16T08:23:45.000Z</time>
      </trkpt>
      <trkpt lat="42.8553930111229419708251953125" lon="-1.6227993182837963104248046875">
        <ele>449.79998779296875</ele>
        <time>2020-02-16T08:23:47.000Z</time>
      </trkpt>
      <trkpt lat="42.85522914491593837738037109375" lon="-1.62276838906109333038330078125">
        <ele>449.399993896484375</ele>
        <time>2020-02-16T08:23:50.000Z</time>
      </trkpt>
      <trkpt lat="42.85517080686986446380615234375" lon="-1.622780375182628631591796875">
        <ele>449.20001220703125</ele>
        <time>2020-02-16T08:23:51.000Z</time>
      </trkpt>
      <trkpt lat="42.85511045716702938079833984375" lon="-1.62280149757862091064453125">
        <ele>449</ele>
        <time>2020-02-16T08:23:52.000Z</time>
      </trkpt>
      <trkpt lat="42.85493561066687107086181640625" lon="-1.6228814609348773956298828125">
        <ele>449</ele>
        <time>2020-02-16T08:23:55.000Z</time>
      </trkpt>
      <trkpt lat="42.85487660206854343414306640625" lon="-1.62290099076926708221435546875">
        <ele>448.20001220703125</ele>
        <time>2020-02-16T08:23:56.000Z</time>
      </trkpt>
      <trkpt lat="42.85475648939609527587890625" lon="-1.62293066270649433135986328125">
        <ele>446.600006103515625</ele>
        <time>2020-02-16T08:23:58.000Z</time>
      </trkpt>
      <trkpt lat="42.85464777611196041107177734375" lon="-1.622960753738880157470703125">
        <ele>446</ele>
        <time>2020-02-16T08:24:00.000Z</time>
      </trkpt>
      <trkpt lat="42.8545876778662204742431640625" lon="-1.62296670489013195037841796875">
        <ele>445.79998779296875</ele>
        <time>2020-02-16T08:24:01.000Z</time>
      </trkpt>
      <trkpt lat="42.85436077974736690521240234375" lon="-1.6229739971458911895751953125">
        <ele>445.600006103515625</ele>
        <time>2020-02-16T08:24:06.000Z</time>
      </trkpt>
      <trkpt lat="42.8541736118495464324951171875" lon="-1.62300266325473785400390625">
        <ele>445.600006103515625</ele>
        <time>2020-02-16T08:24:11.000Z</time>
      </trkpt>
      <trkpt lat="42.85403656773269176483154296875" lon="-1.6230340115725994110107421875">
        <ele>446</ele>
        <time>2020-02-16T08:24:14.000Z</time>
      </trkpt>
      <trkpt lat="42.85387513227760791778564453125" lon="-1.62306359969079494476318359375">
        <ele>446</ele>
        <time>2020-02-16T08:24:17.000Z</time>
      </trkpt>
      <trkpt lat="42.85353382118046283721923828125" lon="-1.62312998436391353607177734375">
        <ele>445.79998779296875</ele>
        <time>2020-02-16T08:24:23.000Z</time>
      </trkpt>
      <trkpt lat="42.8533106110990047454833984375" lon="-1.62319569848477840423583984375">
        <ele>445.600006103515625</ele>
        <time>2020-02-16T08:24:27.000Z</time>
      </trkpt>
      <trkpt lat="42.85309410654008388519287109375" lon="-1.623262502253055572509765625">
        <ele>445.20001220703125</ele>
        <time>2020-02-16T08:24:31.000Z</time>
      </trkpt>
      <trkpt lat="42.8527027554810047149658203125" lon="-1.62339015863835811614990234375">
        <ele>444.79998779296875</ele>
        <time>2020-02-16T08:24:38.000Z</time>
      </trkpt>
      <trkpt lat="42.85238365642726421356201171875" lon="-1.62349677644670009613037109375">
        <ele>444.600006103515625</ele>
        <time>2020-02-16T08:24:44.000Z</time>
      </trkpt>
      <trkpt lat="42.85217863507568836212158203125" lon="-1.6235841996967792510986328125">
        <ele>444.79998779296875</ele>
        <time>2020-02-16T08:24:48.000Z</time>
      </trkpt>
      <trkpt lat="42.85207855515182018280029296875" lon="-1.6236237622797489166259765625">
        <ele>444.79998779296875</ele>
        <time>2020-02-16T08:24:50.000Z</time>
      </trkpt>
      <trkpt lat="42.85190136171877384185791015625" lon="-1.62372727878391742706298828125">
        <ele>444.79998779296875</ele>
        <time>2020-02-16T08:24:54.000Z</time>
      </trkpt>
      <trkpt lat="42.8518595360219478607177734375" lon="-1.62375275976955890655517578125">
        <ele>444.79998779296875</ele>
        <time>2020-02-16T08:24:55.000Z</time>
      </trkpt>
      <trkpt lat="42.85172559320926666259765625" lon="-1.6238214075565338134765625">
        <ele>444.79998779296875</ele>
        <time>2020-02-16T08:24:58.000Z</time>
      </trkpt>
      <trkpt lat="42.85167873837053775787353515625" lon="-1.623850576579570770263671875">
        <ele>444.79998779296875</ele>
        <time>2020-02-16T08:24:59.000Z</time>
      </trkpt>
      <trkpt lat="42.8513643331825733184814453125" lon="-1.62403439171612262725830078125">
        <ele>444.79998779296875</ele>
        <time>2020-02-16T08:25:05.000Z</time>
      </trkpt>
      <trkpt lat="42.85114950500428676605224609375" lon="-1.6241459548473358154296875">
        <ele>444.600006103515625</ele>
        <time>2020-02-16T08:25:09.000Z</time>
      </trkpt>
      <trkpt lat="42.85106048919260501861572265625" lon="-1.6242138482630252838134765625">
        <ele>444.399993896484375</ele>
        <time>2020-02-16T08:25:11.000Z</time>
      </trkpt>
      <trkpt lat="42.8509345091879367828369140625" lon="-1.62430864758789539337158203125">
        <ele>444.20001220703125</ele>
        <time>2020-02-16T08:25:14.000Z</time>
      </trkpt>
      <trkpt lat="42.85084138624370098114013671875" lon="-1.6243777982890605926513671875">
        <ele>444.20001220703125</ele>
        <time>2020-02-16T08:25:16.000Z</time>
      </trkpt>
      <trkpt lat="42.850615493953227996826171875" lon="-1.624552644789218902587890625">
        <ele>444</ele>
        <time>2020-02-16T08:25:21.000Z</time>
      </trkpt>
      <trkpt lat="42.8505697287619113922119140625" lon="-1.6245903633534908294677734375">
        <ele>444</ele>
        <time>2020-02-16T08:25:22.000Z</time>
      </trkpt>
      <trkpt lat="42.85037216730415821075439453125" lon="-1.62478423677384853363037109375">
        <ele>444</ele>
        <time>2020-02-16T08:25:27.000Z</time>
      </trkpt>
      <trkpt lat="42.8503276593983173370361328125" lon="-1.62482731975615024566650390625">
        <ele>444</ele>
        <time>2020-02-16T08:25:28.000Z</time>
      </trkpt>
      <trkpt lat="42.850166223943233489990234375" lon="-1.62493108771741390228271484375">
        <ele>444</ele>
        <time>2020-02-16T08:25:31.000Z</time>
      </trkpt>
      <trkpt lat="42.8498374857008457183837890625" lon="-1.6251169145107269287109375">
        <ele>443.600006103515625</ele>
        <time>2020-02-16T08:25:37.000Z</time>
      </trkpt>
      <trkpt lat="42.84973195753991603851318359375" lon="-1.625199057161808013916015625">
        <ele>443.600006103515625</ele>
        <time>2020-02-16T08:25:39.000Z</time>
      </trkpt>
      <trkpt lat="42.84959860146045684814453125" lon="-1.6253390349447727203369140625">
        <ele>443.399993896484375</ele>
        <time>2020-02-16T08:25:42.000Z</time>
      </trkpt>
      <trkpt lat="42.84944680519402027130126953125" lon="-1.62545663304626941680908203125">
        <ele>443.399993896484375</ele>
        <time>2020-02-16T08:25:45.000Z</time>
      </trkpt>
      <trkpt lat="42.8492849506437778472900390625" lon="-1.62555453367531299591064453125">
        <ele>443.20001220703125</ele>
        <time>2020-02-16T08:25:48.000Z</time>
      </trkpt>
      <trkpt lat="42.84901295788586139678955078125" lon="-1.62567950785160064697265625">
        <ele>443</ele>
        <time>2020-02-16T08:25:53.000Z</time>
      </trkpt>
      <trkpt lat="42.84884548746049404144287109375" lon="-1.6256501711905002593994140625">
        <ele>442.79998779296875</ele>
        <time>2020-02-16T08:25:57.000Z</time>
      </trkpt>
      <trkpt lat="42.8487582318484783172607421875" lon="-1.625486724078655242919921875">
        <ele>442.79998779296875</ele>
        <time>2020-02-16T08:26:01.000Z</time>
      </trkpt>
      <trkpt lat="42.84865270368754863739013671875" lon="-1.62547054700553417205810546875">
        <ele>443.20001220703125</ele>
        <time>2020-02-16T08:26:04.000Z</time>
      </trkpt>
      <trkpt lat="42.84853032790124416351318359375" lon="-1.62553911097347736358642578125">
        <ele>443.79998779296875</ele>
        <time>2020-02-16T08:26:07.000Z</time>
      </trkpt>
      <trkpt lat="42.84844466485083103179931640625" lon="-1.62559962831437587738037109375">
        <ele>444</ele>
        <time>2020-02-16T08:26:09.000Z</time>
      </trkpt>
      <trkpt lat="42.84834559075534343719482421875" lon="-1.6256558708846569061279296875">
        <ele>444</ele>
        <time>2020-02-16T08:26:11.000Z</time>
      </trkpt>
      <trkpt lat="42.8481486998498439788818359375" lon="-1.62572686560451984405517578125">
        <ele>444</ele>
        <time>2020-02-16T08:26:15.000Z</time>
      </trkpt>
      <trkpt lat="42.8480625338852405548095703125" lon="-1.62577246315777301788330078125">
        <ele>444.20001220703125</ele>
        <time>2020-02-16T08:26:17.000Z</time>
      </trkpt>
      <trkpt lat="42.84796471707522869110107421875" lon="-1.6258181445300579071044921875">
        <ele>444.399993896484375</ele>
        <time>2020-02-16T08:26:19.000Z</time>
      </trkpt>
      <trkpt lat="42.847854830324649810791015625" lon="-1.62586030550301074981689453125">
        <ele>444.20001220703125</ele>
        <time>2020-02-16T08:26:21.000Z</time>
      </trkpt>
      <trkpt lat="42.84755249507725238800048828125" lon="-1.6258630715310573577880859375">
        <ele>444</ele>
        <time>2020-02-16T08:26:26.000Z</time>
      </trkpt>
      <trkpt lat="42.84712099470198154449462890625" lon="-1.625803224742412567138671875">
        <ele>443.20001220703125</ele>
        <time>2020-02-16T08:26:33.000Z</time>
      </trkpt>
      <trkpt lat="42.84682343713939189910888671875" lon="-1.625762991607189178466796875">
        <ele>442.79998779296875</ele>
        <time>2020-02-16T08:26:38.000Z</time>
      </trkpt>
      <trkpt lat="42.8464176692068576812744140625" lon="-1.6256748139858245849609375">
        <ele>442.20001220703125</ele>
        <time>2020-02-16T08:26:45.000Z</time>
      </trkpt>
      <trkpt lat="42.84625078551471233367919921875" lon="-1.62560599856078624725341796875">
        <ele>442</ele>
        <time>2020-02-16T08:26:48.000Z</time>
      </trkpt>
      <trkpt lat="42.84589983522891998291015625" lon="-1.6253564693033695220947265625">
        <ele>442</ele>
        <time>2020-02-16T08:26:55.000Z</time>
      </trkpt>
      <trkpt lat="42.84557285718619823455810546875" lon="-1.625187657773494720458984375">
        <ele>441.79998779296875</ele>
        <time>2020-02-16T08:27:01.000Z</time>
      </trkpt>
      <trkpt lat="42.8450395166873931884765625" lon="-1.62491566501557826995849609375">
        <ele>441.399993896484375</ele>
        <time>2020-02-16T08:27:11.000Z</time>
      </trkpt>
      <trkpt lat="42.8447077609598636627197265625" lon="-1.6246731765568256378173828125">
        <ele>441.20001220703125</ele>
        <time>2020-02-16T08:27:18.000Z</time>
      </trkpt>
      <trkpt lat="42.8444680385291576385498046875" lon="-1.6244642995297908782958984375">
        <ele>441</ele>
        <time>2020-02-16T08:27:23.000Z</time>
      </trkpt>
      <trkpt lat="42.8443785198032855987548828125" lon="-1.62436145357787609100341796875">
        <ele>441</ele>
        <time>2020-02-16T08:27:25.000Z</time>
      </trkpt>
      <trkpt lat="42.84412689507007598876953125" lon="-1.62391654215753078460693359375">
        <ele>440.20001220703125</ele>
        <time>2020-02-16T08:27:32.000Z</time>
      </trkpt>
      <trkpt lat="42.8441009111702442169189453125" lon="-1.62384831346571445465087890625">
        <ele>440.20001220703125</ele>
        <time>2020-02-16T08:27:33.000Z</time>
      </trkpt>
      <trkpt lat="42.84406696446239948272705078125" lon="-1.62361814640462398529052734375">
        <ele>440.20001220703125</ele>
        <time>2020-02-16T08:27:36.000Z</time>
      </trkpt>
      <trkpt lat="42.8440579958260059356689453125" lon="-1.62345855496823787689208984375">
        <ele>440.20001220703125</ele>
        <time>2020-02-16T08:27:38.000Z</time>
      </trkpt>
      <trkpt lat="42.8440237976610660552978515625" lon="-1.62331941537559032440185546875">
        <ele>440.20001220703125</ele>
        <time>2020-02-16T08:27:40.000Z</time>
      </trkpt>
      <trkpt lat="42.84392170608043670654296875" lon="-1.62308421917259693145751953125">
        <ele>440.20001220703125</ele>
        <time>2020-02-16T08:27:44.000Z</time>
      </trkpt>
      <trkpt lat="42.84384551458060741424560546875" lon="-1.6228985600173473358154296875">
        <ele>440.20001220703125</ele>
        <time>2020-02-16T08:27:47.000Z</time>
      </trkpt>
      <trkpt lat="42.84372800029814243316650390625" lon="-1.62258566357195377349853515625">
        <ele>440.20001220703125</ele>
        <time>2020-02-16T08:27:52.000Z</time>
      </trkpt>
      <trkpt lat="42.84367117099463939666748046875" lon="-1.62246546708047389984130859375">
        <ele>440.20001220703125</ele>
        <time>2020-02-16T08:27:54.000Z</time>
      </trkpt>
      <trkpt lat="42.84354611299932003021240234375" lon="-1.6222075559198856353759765625">
        <ele>440</ele>
        <time>2020-02-16T08:27:58.000Z</time>
      </trkpt>
      <trkpt lat="42.8434987552464008331298828125" lon="-1.6220828332006931304931640625">
        <ele>440</ele>
        <time>2020-02-16T08:28:00.000Z</time>
      </trkpt>
      <trkpt lat="42.8433797322213649749755859375" lon="-1.6218940727412700653076171875">
        <ele>439.600006103515625</ele>
        <time>2020-02-16T08:28:04.000Z</time>
      </trkpt>
      <trkpt lat="42.84332851879298686981201171875" lon="-1.62178753875195980072021484375">
        <ele>439.399993896484375</ele>
        <time>2020-02-16T08:28:06.000Z</time>
      </trkpt>
      <trkpt lat="42.84330345690250396728515625" lon="-1.621729619801044464111328125">
        <ele>439.399993896484375</ele>
        <time>2020-02-16T08:28:07.000Z</time>
      </trkpt>
      <trkpt lat="42.84324989654123783111572265625" lon="-1.6216005384922027587890625">
        <ele>439.399993896484375</ele>
        <time>2020-02-16T08:28:09.000Z</time>
      </trkpt>
      <trkpt lat="42.84322441555559635162353515625" lon="-1.62153708748519420623779296875">
        <ele>439.20001220703125</ele>
        <time>2020-02-16T08:28:10.000Z</time>
      </trkpt>
      <trkpt lat="42.84317194484174251556396484375" lon="-1.621285714209079742431640625">
        <ele>439.20001220703125</ele>
        <time>2020-02-16T08:28:13.000Z</time>
      </trkpt>
      <trkpt lat="42.84319122321903705596923828125" lon="-1.6208369471132755279541015625">
        <ele>439.20001220703125</ele>
        <time>2020-02-16T08:28:18.000Z</time>
      </trkpt>
      <trkpt lat="42.8432057239115238189697265625" lon="-1.62074969150125980377197265625">
        <ele>439.20001220703125</ele>
        <time>2020-02-16T08:28:19.000Z</time>
      </trkpt>
      <trkpt lat="42.843295745551586151123046875" lon="-1.62030042149126529693603515625">
        <ele>439</ele>
        <time>2020-02-16T08:28:25.000Z</time>
      </trkpt>
      <trkpt lat="42.843307815492153167724609375" lon="-1.6202314384281635284423828125">
        <ele>439</ele>
        <time>2020-02-16T08:28:26.000Z</time>
      </trkpt>
      <trkpt lat="42.843323238193988800048828125" lon="-1.6200788877904415130615234375">
        <ele>438.79998779296875</ele>
        <time>2020-02-16T08:28:28.000Z</time>
      </trkpt>
      <trkpt lat="42.84332466311752796173095703125" lon="-1.6199182905256748199462890625">
        <ele>438.79998779296875</ele>
        <time>2020-02-16T08:28:30.000Z</time>
      </trkpt>
      <trkpt lat="42.8433202207088470458984375" lon="-1.6198408417403697967529296875">
        <ele>438.79998779296875</ele>
        <time>2020-02-16T08:28:31.000Z</time>
      </trkpt>
      <trkpt lat="42.84327588044106960296630859375" lon="-1.61961964331567287445068359375">
        <ele>438.79998779296875</ele>
        <time>2020-02-16T08:28:34.000Z</time>
      </trkpt>
      <trkpt lat="42.84327529370784759521484375" lon="-1.6192899830639362335205078125">
        <ele>438.79998779296875</ele>
        <time>2020-02-16T08:28:38.000Z</time>
      </trkpt>
      <trkpt lat="42.8432915546000003814697265625" lon="-1.6192135401070117950439453125">
        <ele>438.79998779296875</ele>
        <time>2020-02-16T08:28:39.000Z</time>
      </trkpt>
      <trkpt lat="42.8433284349739551544189453125" lon="-1.61898731254041194915771484375">
        <ele>438.600006103515625</ele>
        <time>2020-02-16T08:28:42.000Z</time>
      </trkpt>
      <trkpt lat="42.8433336317539215087890625" lon="-1.61891623400151729583740234375">
        <ele>438.600006103515625</ele>
        <time>2020-02-16T08:28:43.000Z</time>
      </trkpt>
      <trkpt lat="42.84333338029682636260986328125" lon="-1.61884146742522716522216796875">
        <ele>438.600006103515625</ele>
        <time>2020-02-16T08:28:44.000Z</time>
      </trkpt>
      <trkpt lat="42.8432778082787990570068359375" lon="-1.61862269975244998931884765625">
        <ele>438.600006103515625</ele>
        <time>2020-02-16T08:28:47.000Z</time>
      </trkpt>
      <trkpt lat="42.84321100451052188873291015625" lon="-1.61849118769168853759765625">
        <ele>438.600006103515625</ele>
        <time>2020-02-16T08:28:49.000Z</time>
      </trkpt>
      <trkpt lat="42.84311394207179546356201171875" lon="-1.6182975657284259796142578125">
        <ele>438.20001220703125</ele>
        <time>2020-02-16T08:28:52.000Z</time>
      </trkpt>
      <trkpt lat="42.84294211305677890777587890625" lon="-1.6179743595421314239501953125">
        <ele>438</ele>
        <time>2020-02-16T08:28:57.000Z</time>
      </trkpt>
      <trkpt lat="42.84281554631888866424560546875" lon="-1.6178073920309543609619140625">
        <ele>438</ele>
        <time>2020-02-16T08:29:00.000Z</time>
      </trkpt>
      <trkpt lat="42.84256626851856708526611328125" lon="-1.61735183559358119964599609375">
        <ele>438.20001220703125</ele>
        <time>2020-02-16T08:29:07.000Z</time>
      </trkpt>
      <trkpt lat="42.84253760240972042083740234375" lon="-1.6172759793698787689208984375">
        <ele>438.20001220703125</ele>
        <time>2020-02-16T08:29:08.000Z</time>
      </trkpt>
      <trkpt lat="42.8424285538494586944580078125" lon="-1.616957969963550567626953125">
        <ele>438.20001220703125</ele>
        <time>2020-02-16T08:29:12.000Z</time>
      </trkpt>
      <trkpt lat="42.8423841297626495361328125" lon="-1.6165246255695819854736328125">
        <ele>437.79998779296875</ele>
        <time>2020-02-16T08:29:17.000Z</time>
      </trkpt>
      <trkpt lat="42.84240399487316608428955078125" lon="-1.61635807715356349945068359375">
        <ele>437.399993896484375</ele>
        <time>2020-02-16T08:29:19.000Z</time>
      </trkpt>
      <trkpt lat="42.842445485293865203857421875" lon="-1.61619312129914760589599609375">
        <ele>437.20001220703125</ele>
        <time>2020-02-16T08:29:21.000Z</time>
      </trkpt>
      <trkpt lat="42.8425298072397708892822265625" lon="-1.61597670055925846099853515625">
        <ele>436.79998779296875</ele>
        <time>2020-02-16T08:29:24.000Z</time>
      </trkpt>
      <trkpt lat="42.8425566293299198150634765625" lon="-1.6159174405038356781005859375">
        <ele>436.79998779296875</ele>
        <time>2020-02-16T08:29:25.000Z</time>
      </trkpt>
      <trkpt lat="42.8426458127796649932861328125" lon="-1.61570705473423004150390625">
        <ele>436.79998779296875</ele>
        <time>2020-02-16T08:29:29.000Z</time>
      </trkpt>
      <trkpt lat="42.84267405979335308074951171875" lon="-1.61565114744007587432861328125">
        <ele>436.79998779296875</ele>
        <time>2020-02-16T08:29:30.000Z</time>
      </trkpt>
      <trkpt lat="42.84279526211321353912353515625" lon="-1.61540941335260868072509765625">
        <ele>437.399993896484375</ele>
        <time>2020-02-16T08:29:34.000Z</time>
      </trkpt>
      <trkpt lat="42.84288528375327587127685546875" lon="-1.6152267716825008392333984375">
        <ele>437.600006103515625</ele>
        <time>2020-02-16T08:29:37.000Z</time>
      </trkpt>
      <trkpt lat="42.84294445998966693878173828125" lon="-1.615096516907215118408203125">
        <ele>437.79998779296875</ele>
        <time>2020-02-16T08:29:39.000Z</time>
      </trkpt>
      <trkpt lat="42.84317605197429656982421875" lon="-1.6146115399897098541259765625">
        <ele>437.600006103515625</ele>
        <time>2020-02-16T08:29:46.000Z</time>
      </trkpt>
      <trkpt lat="42.84341485239565372467041015625" lon="-1.6143627651035785675048828125">
        <ele>437</ele>
        <time>2020-02-16T08:29:51.000Z</time>
      </trkpt>
      <trkpt lat="42.8435228951275348663330078125" lon="-1.61430065520107746124267578125">
        <ele>436.600006103515625</ele>
        <time>2020-02-16T08:29:53.000Z</time>
      </trkpt>
      <trkpt lat="42.84361300058662891387939453125" lon="-1.61423728801310062408447265625">
        <ele>436.600006103515625</ele>
        <time>2020-02-16T08:29:55.000Z</time>
      </trkpt>
      <trkpt lat="42.843655161559581756591796875" lon="-1.6141998209059238433837890625">
        <ele>436.600006103515625</ele>
        <time>2020-02-16T08:29:56.000Z</time>
      </trkpt>
      <trkpt lat="42.843770496547222137451171875" lon="-1.61410150118172168731689453125">
        <ele>436.399993896484375</ele>
        <time>2020-02-16T08:29:58.000Z</time>
      </trkpt>
      <trkpt lat="42.84381852485239505767822265625" lon="-1.614068560302257537841796875">
        <ele>436.20001220703125</ele>
        <time>2020-02-16T08:29:59.000Z</time>
      </trkpt>
      <trkpt lat="42.84385339356958866119384765625" lon="-1.61403176374733448028564453125">
        <ele>436.20001220703125</ele>
        <time>2020-02-16T08:30:00.000Z</time>
      </trkpt>
      <trkpt lat="42.8439342789351940155029296875" lon="-1.6139616072177886962890625">
        <ele>436.20001220703125</ele>
        <time>2020-02-16T08:30:02.000Z</time>
      </trkpt>
      <trkpt lat="42.844046764075756072998046875" lon="-1.61385591141879558563232421875">
        <ele>436.399993896484375</ele>
        <time>2020-02-16T08:30:05.000Z</time>
      </trkpt>
      <trkpt lat="42.84408624283969402313232421875" lon="-1.61381400190293788909912109375">
        <ele>436.399993896484375</ele>
        <time>2020-02-16T08:30:06.000Z</time>
      </trkpt>
      <trkpt lat="42.844341807067394256591796875" lon="-1.61359875462949275970458984375">
        <ele>436.399993896484375</ele>
        <time>2020-02-16T08:30:12.000Z</time>
      </trkpt>
      <trkpt lat="42.8446299768984317779541015625" lon="-1.61343120038509368896484375">
        <ele>436.600006103515625</ele>
        <time>2020-02-16T08:30:18.000Z</time>
      </trkpt>
      <trkpt lat="42.84494698047637939453125" lon="-1.61327118985354900360107421875">
        <ele>436.600006103515625</ele>
        <time>2020-02-16T08:30:24.000Z</time>
      </trkpt>
      <trkpt lat="42.84506566822528839111328125" lon="-1.61321268416941165924072265625">
        <ele>436.600006103515625</ele>
        <time>2020-02-16T08:30:27.000Z</time>
      </trkpt>
      <trkpt lat="42.845130376517772674560546875" lon="-1.61319910548627376556396484375">
        <ele>436.600006103515625</ele>
        <time>2020-02-16T08:30:29.000Z</time>
      </trkpt>
      <trkpt lat="42.8452374972403049468994140625" lon="-1.61317127756774425506591796875">
        <ele>436.600006103515625</ele>
        <time>2020-02-16T08:30:33.000Z</time>
      </trkpt>
      <trkpt lat="42.84528653137385845184326171875" lon="-1.613161973655223846435546875">
        <ele>436.600006103515625</ele>
        <time>2020-02-16T08:30:36.000Z</time>
      </trkpt>
      <trkpt lat="42.84529767930507659912109375" lon="-1.61318183876574039459228515625">
        <ele>437.20001220703125</ele>
        <time>2020-02-16T08:30:49.000Z</time>
      </trkpt>
      <trkpt lat="42.8452874533832073211669921875" lon="-1.6131876222789287567138671875">
        <ele>437</ele>
        <time>2020-02-16T08:30:50.000Z</time>
      </trkpt>
      <trkpt lat="42.84524914808571338653564453125" lon="-1.613213606178760528564453125">
        <ele>437</ele>
        <time>2020-02-16T08:30:53.000Z</time>
      </trkpt>
      <trkpt lat="42.845198772847652435302734375" lon="-1.61324000917375087738037109375">
        <ele>436.79998779296875</ele>
        <time>2020-02-16T08:30:56.000Z</time>
      </trkpt>
      <trkpt lat="42.84504295326769351959228515625" lon="-1.6133110038936138153076171875">
        <ele>436.79998779296875</ele>
        <time>2020-02-16T08:31:01.000Z</time>
      </trkpt>
      <trkpt lat="42.8447419591248035430908203125" lon="-1.613460369408130645751953125">
        <ele>436.79998779296875</ele>
        <time>2020-02-16T08:31:09.000Z</time>
      </trkpt>
      <trkpt lat="42.84455646760761737823486328125" lon="-1.613558940589427947998046875">
        <ele>437.20001220703125</ele>
        <time>2020-02-16T08:31:14.000Z</time>
      </trkpt>
      <trkpt lat="42.844464518129825592041015625" lon="-1.6136124171316623687744140625">
        <ele>437.399993896484375</ele>
        <time>2020-02-16T08:31:16.000Z</time>
      </trkpt>
      <trkpt lat="42.8442965447902679443359375" lon="-1.613715179264545440673828125">
        <ele>437.399993896484375</ele>
        <time>2020-02-16T08:31:20.000Z</time>
      </trkpt>
      <trkpt lat="42.8441870771348476409912109375" lon="-1.613830514252185821533203125">
        <ele>437.399993896484375</ele>
        <time>2020-02-16T08:31:23.000Z</time>
      </trkpt>
      <trkpt lat="42.8441156633198261260986328125" lon="-1.6139064542949199676513671875">
        <ele>437.399993896484375</ele>
        <time>2020-02-16T08:31:25.000Z</time>
      </trkpt>
      <trkpt lat="42.84402438439428806304931640625" lon="-1.6140214540064334869384765625">
        <ele>437.20001220703125</ele>
        <time>2020-02-16T08:31:28.000Z</time>
      </trkpt>
      <trkpt lat="42.8440023399889469146728515625" lon="-1.61406017839908599853515625">
        <ele>437.20001220703125</ele>
        <time>2020-02-16T08:31:29.000Z</time>
      </trkpt>
      <trkpt lat="42.8439934551715850830078125" lon="-1.61409663967788219451904296875">
        <ele>437.20001220703125</ele>
        <time>2020-02-16T08:31:30.000Z</time>
      </trkpt>
      <trkpt lat="42.84399772994220256805419921875" lon="-1.614165119826793670654296875">
        <ele>437.20001220703125</ele>
        <time>2020-02-16T08:31:32.000Z</time>
      </trkpt>
      <trkpt lat="42.844022624194622039794921875" lon="-1.61428623832762241363525390625">
        <ele>437.20001220703125</ele>
        <time>2020-02-16T08:31:35.000Z</time>
      </trkpt>
      <trkpt lat="42.84404047764837741851806640625" lon="-1.61440073512494564056396484375">
        <ele>437.20001220703125</ele>
        <time>2020-02-16T08:31:38.000Z</time>
      </trkpt>
      <trkpt lat="42.84403033554553985595703125" lon="-1.61443593911826610565185546875">
        <ele>437.600006103515625</ele>
        <time>2020-02-16T08:31:39.000Z</time>
      </trkpt>
      <trkpt lat="42.84397694282233715057373046875" lon="-1.6144472546875476837158203125">
        <ele>438.399993896484375</ele>
        <time>2020-02-16T08:31:42.000Z</time>
      </trkpt>
      <trkpt lat="42.84395196475088596343994140625" lon="-1.61439889110624790191650390625">
        <ele>438.79998779296875</ele>
        <time>2020-02-16T08:31:44.000Z</time>
      </trkpt>
      <trkpt lat="42.84392178989946842193603515625" lon="-1.614333093166351318359375">
        <ele>439.600006103515625</ele>
        <time>2020-02-16T08:31:46.000Z</time>
      </trkpt>
      <trkpt lat="42.84390552900731563568115234375" lon="-1.61429679952561855316162109375">
        <ele>440</ele>
        <time>2020-02-16T08:31:47.000Z</time>
      </trkpt>
      <trkpt lat="42.8437941335141658782958984375" lon="-1.6140194423496723175048828125">
        <ele>440.600006103515625</ele>
        <time>2020-02-16T08:31:54.000Z</time>
      </trkpt>
      <trkpt lat="42.84367821179330348968505859375" lon="-1.6137079708278179168701171875">
        <ele>440.79998779296875</ele>
        <time>2020-02-16T08:32:01.000Z</time>
      </trkpt>
      <trkpt lat="42.84366161562502384185791015625" lon="-1.61362926475703716278076171875">
        <ele>440.79998779296875</ele>
        <time>2020-02-16T08:32:03.000Z</time>
      </trkpt>
      <trkpt lat="42.84370285458862781524658203125" lon="-1.61357201635837554931640625">
        <ele>440.79998779296875</ele>
        <time>2020-02-16T08:32:05.000Z</time>
      </trkpt>
      <trkpt lat="42.8437864221632480621337890625" lon="-1.61353287287056446075439453125">
        <ele>440.600006103515625</ele>
        <time>2020-02-16T08:32:07.000Z</time>
      </trkpt>
      <trkpt lat="42.84390561282634735107421875" lon="-1.6134809888899326324462890625">
        <ele>440.600006103515625</ele>
        <time>2020-02-16T08:32:09.000Z</time>
      </trkpt>
      <trkpt lat="42.84431506879627704620361328125" lon="-1.613222658634185791015625">
        <ele>439.600006103515625</ele>
        <time>2020-02-16T08:32:15.000Z</time>
      </trkpt>
      <trkpt lat="42.84444532357156276702880859375" lon="-1.61314009688794612884521484375">
        <ele>437.399993896484375</ele>
        <time>2020-02-16T08:32:17.000Z</time>
      </trkpt>
      <trkpt lat="42.84457080066204071044921875" lon="-1.61305845715105533599853515625">
        <ele>436.20001220703125</ele>
        <time>2020-02-16T08:32:19.000Z</time>
      </trkpt>
      <trkpt lat="42.8446983732283115386962890625" lon="-1.61298058927059173583984375">
        <ele>435.600006103515625</ele>
        <time>2020-02-16T08:32:21.000Z</time>
      </trkpt>
      <trkpt lat="42.84519533626735210418701171875" lon="-1.61267842166125774383544921875">
        <ele>435.20001220703125</ele>
        <time>2020-02-16T08:32:29.000Z</time>
      </trkpt>
      <trkpt lat="42.84526004455983638763427734375" lon="-1.6126424632966518402099609375">
        <ele>435.20001220703125</ele>
        <time>2020-02-16T08:32:30.000Z</time>
      </trkpt>
      <trkpt lat="42.8456488810479640960693359375" lon="-1.612439118325710296630859375">
        <ele>435.20001220703125</ele>
        <time>2020-02-16T08:32:36.000Z</time>
      </trkpt>
      <trkpt lat="42.8457047045230865478515625" lon="-1.61239293403923511505126953125">
        <ele>435</ele>
        <time>2020-02-16T08:32:37.000Z</time>
      </trkpt>
      <trkpt lat="42.8458238951861858367919921875" lon="-1.6122156567871570587158203125">
        <ele>435</ele>
        <time>2020-02-16T08:32:40.000Z</time>
      </trkpt>
      <trkpt lat="42.8459085524082183837890625" lon="-1.6119464300572872161865234375">
        <ele>435</ele>
        <time>2020-02-16T08:32:44.000Z</time>
      </trkpt>
      <trkpt lat="42.8459943830966949462890625" lon="-1.6115907020866870880126953125">
        <ele>435</ele>
        <time>2020-02-16T08:32:49.000Z</time>
      </trkpt>
      <trkpt lat="42.84600318409502506256103515625" lon="-1.61151166073977947235107421875">
        <ele>435.20001220703125</ele>
        <time>2020-02-16T08:32:50.000Z</time>
      </trkpt>
      <trkpt lat="42.84602380357682704925537109375" lon="-1.61135139875113964080810546875">
        <ele>435.20001220703125</ele>
        <time>2020-02-16T08:32:52.000Z</time>
      </trkpt>
      <trkpt lat="42.84605079330503940582275390625" lon="-1.61119750700891017913818359375">
        <ele>435.20001220703125</ele>
        <time>2020-02-16T08:32:54.000Z</time>
      </trkpt>
      <trkpt lat="42.846076525747776031494140625" lon="-1.6110499016940593719482421875">
        <ele>435.20001220703125</ele>
        <time>2020-02-16T08:32:56.000Z</time>
      </trkpt>
      <trkpt lat="42.8460730053484439849853515625" lon="-1.61089877597987651824951171875">
        <ele>435.20001220703125</ele>
        <time>2020-02-16T08:32:58.000Z</time>
      </trkpt>
      <trkpt lat="42.84603704698383808135986328125" lon="-1.61058478988707065582275390625">
        <ele>435</ele>
        <time>2020-02-16T08:33:02.000Z</time>
      </trkpt>
      <trkpt lat="42.8460196964442729949951171875" lon="-1.61041430197656154632568359375">
        <ele>435</ele>
        <time>2020-02-16T08:33:04.000Z</time>
      </trkpt>
      <trkpt lat="42.84597535617649555206298828125" lon="-1.61008246243000030517578125">
        <ele>434.79998779296875</ele>
        <time>2020-02-16T08:33:08.000Z</time>
      </trkpt>
      <trkpt lat="42.8459393978118896484375" lon="-1.609843410551548004150390625">
        <ele>435</ele>
        <time>2020-02-16T08:33:11.000Z</time>
      </trkpt>
      <trkpt lat="42.845875360071659088134765625" lon="-1.60937041975557804107666015625">
        <ele>435.20001220703125</ele>
        <time>2020-02-16T08:33:17.000Z</time>
      </trkpt>
      <trkpt lat="42.84585230983793735504150390625" lon="-1.60929858684539794921875">
        <ele>435.20001220703125</ele>
        <time>2020-02-16T08:33:18.000Z</time>
      </trkpt>
      <trkpt lat="42.84573161043226718902587890625" lon="-1.60915517248213291168212890625">
        <ele>435.20001220703125</ele>
        <time>2020-02-16T08:33:21.000Z</time>
      </trkpt>
      <trkpt lat="42.84564510919153690338134765625" lon="-1.60907889716327190399169921875">
        <ele>435.20001220703125</ele>
        <time>2020-02-16T08:33:23.000Z</time>
      </trkpt>
      <trkpt lat="42.8455303609371185302734375" lon="-1.608937494456768035888671875">
        <ele>435.20001220703125</ele>
        <time>2020-02-16T08:33:26.000Z</time>
      </trkpt>
      <trkpt lat="42.845217883586883544921875" lon="-1.60868645645678043365478515625">
        <ele>435.20001220703125</ele>
        <time>2020-02-16T08:33:32.000Z</time>
      </trkpt>
      <trkpt lat="42.845136411488056182861328125" lon="-1.6086275316774845123291015625">
        <ele>435</ele>
        <time>2020-02-16T08:33:34.000Z</time>
      </trkpt>
      <trkpt lat="42.845047898590564727783203125" lon="-1.60858587361872196197509765625">
        <ele>435</ele>
        <time>2020-02-16T08:33:36.000Z</time>
      </trkpt>
      <trkpt lat="42.8448556177318096160888671875" lon="-1.6085899807512760162353515625">
        <ele>434.79998779296875</ele>
        <time>2020-02-16T08:33:40.000Z</time>
      </trkpt>
      <trkpt lat="42.84479652531445026397705078125" lon="-1.60858687944710254669189453125">
        <ele>434.79998779296875</ele>
        <time>2020-02-16T08:33:41.000Z</time>
      </trkpt>
      <trkpt lat="42.84461681731045246124267578125" lon="-1.60859291441738605499267578125">
        <ele>434.600006103515625</ele>
        <time>2020-02-16T08:33:44.000Z</time>
      </trkpt>
      <trkpt lat="42.84457214176654815673828125" lon="-1.6086188144981861114501953125">
        <ele>434.600006103515625</ele>
        <time>2020-02-16T08:33:45.000Z</time>
      </trkpt>
      <trkpt lat="42.8445293940603733062744140625" lon="-1.6088156215846538543701171875">
        <ele>434.79998779296875</ele>
        <time>2020-02-16T08:33:48.000Z</time>
      </trkpt>
      <trkpt lat="42.84452495165169239044189453125" lon="-1.60889181308448314666748046875">
        <ele>434.79998779296875</ele>
        <time>2020-02-16T08:33:49.000Z</time>
      </trkpt>
      <trkpt lat="42.84450148232281208038330078125" lon="-1.609115190804004669189453125">
        <ele>434.79998779296875</ele>
        <time>2020-02-16T08:33:52.000Z</time>
      </trkpt>
      <trkpt lat="42.8444791026413440704345703125" lon="-1.60925357602536678314208984375">
        <ele>434.79998779296875</ele>
        <time>2020-02-16T08:33:54.000Z</time>
      </trkpt>
      <trkpt lat="42.84439302049577236175537109375" lon="-1.60939087159931659698486328125">
        <ele>434.600006103515625</ele>
        <time>2020-02-16T08:33:57.000Z</time>
      </trkpt>
      <trkpt lat="42.84425832331180572509765625" lon="-1.6094117425382137298583984375">
        <ele>434.79998779296875</ele>
        <time>2020-02-16T08:34:00.000Z</time>
      </trkpt>
      <trkpt lat="42.8442112170159816741943359375" lon="-1.60941383801400661468505859375">
        <ele>434.79998779296875</ele>
        <time>2020-02-16T08:34:01.000Z</time>
      </trkpt>
      <trkpt lat="42.84411256201565265655517578125" lon="-1.60941802896559238433837890625">
        <ele>435</ele>
        <time>2020-02-16T08:34:03.000Z</time>
      </trkpt>
      <trkpt lat="42.84401290118694305419921875" lon="-1.609425656497478485107421875">
        <ele>436</ele>
        <time>2020-02-16T08:34:05.000Z</time>
      </trkpt>
      <trkpt lat="42.8437217138707637786865234375" lon="-1.609436385333538055419921875">
        <ele>436.399993896484375</ele>
        <time>2020-02-16T08:34:11.000Z</time>
      </trkpt>
      <trkpt lat="42.84345072694122791290283203125" lon="-1.60941165871918201446533203125">
        <ele>436.399993896484375</ele>
        <time>2020-02-16T08:34:17.000Z</time>
      </trkpt>
      <trkpt lat="42.84331795759499073028564453125" lon="-1.609413921833038330078125">
        <ele>436.399993896484375</ele>
        <time>2020-02-16T08:34:20.000Z</time>
      </trkpt>
      <trkpt lat="42.8431795723736286163330078125" lon="-1.609409563243389129638671875">
        <ele>436.79998779296875</ele>
        <time>2020-02-16T08:34:23.000Z</time>
      </trkpt>
      <trkpt lat="42.8431351482868194580078125" lon="-1.60940478555858135223388671875">
        <ele>437</ele>
        <time>2020-02-16T08:34:24.000Z</time>
      </trkpt>
      <trkpt lat="42.8428910672664642333984375" lon="-1.60938240587711334228515625">
        <ele>437.399993896484375</ele>
        <time>2020-02-16T08:34:30.000Z</time>
      </trkpt>
      <trkpt lat="42.84284614026546478271484375" lon="-1.60937368869781494140625">
        <ele>437.399993896484375</ele>
        <time>2020-02-16T08:34:31.000Z</time>
      </trkpt>
      <trkpt lat="42.8426441363990306854248046875" lon="-1.6092543303966522216796875">
        <ele>437.399993896484375</ele>
        <time>2020-02-16T08:34:35.000Z</time>
      </trkpt>
      <trkpt lat="42.84255989827215671539306640625" lon="-1.6090734489262104034423828125">
        <ele>437.399993896484375</ele>
        <time>2020-02-16T08:34:38.000Z</time>
      </trkpt>
      <trkpt lat="42.84252167679369449615478515625" lon="-1.60897663794457912445068359375">
        <ele>437</ele>
        <time>2020-02-16T08:34:40.000Z</time>
      </trkpt>
      <trkpt lat="42.84246954135596752166748046875" lon="-1.608856022357940673828125">
        <ele>436.79998779296875</ele>
        <time>2020-02-16T08:34:43.000Z</time>
      </trkpt>
      <trkpt lat="42.84242293797433376312255859375" lon="-1.6087473928928375244140625">
        <ele>436.399993896484375</ele>
        <time>2020-02-16T08:34:45.000Z</time>
      </trkpt>
      <trkpt lat="42.842328138649463653564453125" lon="-1.608657538890838623046875">
        <ele>436</ele>
        <time>2020-02-16T08:34:47.000Z</time>
      </trkpt>
      <trkpt lat="42.842134349048137664794921875" lon="-1.60865209065377712249755859375">
        <ele>435</ele>
        <time>2020-02-16T08:34:50.000Z</time>
      </trkpt>
      <trkpt lat="42.8420728258788585662841796875" lon="-1.608660556375980377197265625">
        <ele>434.79998779296875</ele>
        <time>2020-02-16T08:34:51.000Z</time>
      </trkpt>
      <trkpt lat="42.8420107997953891754150390625" lon="-1.60866231657564640045166015625">
        <ele>434.399993896484375</ele>
        <time>2020-02-16T08:34:52.000Z</time>
      </trkpt>
      <trkpt lat="42.8417687304317951202392578125" lon="-1.608619652688503265380859375">
        <ele>433.399993896484375</ele>
        <time>2020-02-16T08:34:56.000Z</time>
      </trkpt>
      <trkpt lat="42.84165255725383758544921875" lon="-1.608584113419055938720703125">
        <ele>432.20001220703125</ele>
        <time>2020-02-16T08:34:58.000Z</time>
      </trkpt>
      <trkpt lat="42.841434963047504425048828125" lon="-1.6084887273609638214111328125">
        <ele>431.600006103515625</ele>
        <time>2020-02-16T08:35:02.000Z</time>
      </trkpt>
      <trkpt lat="42.84138089977204799652099609375" lon="-1.60845846869051456451416015625">
        <ele>431.600006103515625</ele>
        <time>2020-02-16T08:35:03.000Z</time>
      </trkpt>
      <trkpt lat="42.84116632305085659027099609375" lon="-1.6083254478871822357177734375">
        <ele>431.399993896484375</ele>
        <time>2020-02-16T08:35:07.000Z</time>
      </trkpt>
      <trkpt lat="42.84106205217540264129638671875" lon="-1.6082345880568027496337890625">
        <ele>431.399993896484375</ele>
        <time>2020-02-16T08:35:09.000Z</time>
      </trkpt>
      <trkpt lat="42.84082316793501377105712890625" lon="-1.60796812735497951507568359375">
        <ele>431.20001220703125</ele>
        <time>2020-02-16T08:35:14.000Z</time>
      </trkpt>
      <trkpt lat="42.8407719545066356658935546875" lon="-1.60792269743978977203369140625">
        <ele>431</ele>
        <time>2020-02-16T08:35:15.000Z</time>
      </trkpt>
      <trkpt lat="42.84061588346958160400390625" lon="-1.60781909711658954620361328125">
        <ele>430.79998779296875</ele>
        <time>2020-02-16T08:35:18.000Z</time>
      </trkpt>
      <trkpt lat="42.84050851128995418548583984375" lon="-1.6077719070017337799072265625">
        <ele>430.600006103515625</ele>
        <time>2020-02-16T08:35:20.000Z</time>
      </trkpt>
      <trkpt lat="42.8400479257106781005859375" lon="-1.607578285038471221923828125">
        <ele>430.600006103515625</ele>
        <time>2020-02-16T08:35:28.000Z</time>
      </trkpt>
      <trkpt lat="42.83967870287597179412841796875" lon="-1.607398577034473419189453125">
        <ele>430.600006103515625</ele>
        <time>2020-02-16T08:35:34.000Z</time>
      </trkpt>
      <trkpt lat="42.83962589688599109649658203125" lon="-1.60735733807086944580078125">
        <ele>430.600006103515625</ele>
        <time>2020-02-16T08:35:35.000Z</time>
      </trkpt>
      <trkpt lat="42.83929414115846157073974609375" lon="-1.607149802148342132568359375">
        <ele>430.20001220703125</ele>
        <time>2020-02-16T08:35:41.000Z</time>
      </trkpt>
      <trkpt lat="42.83900412730872631072998046875" lon="-1.607025079429149627685546875">
        <ele>430</ele>
        <time>2020-02-16T08:35:46.000Z</time>
      </trkpt>
      <trkpt lat="42.8388984315097332000732421875" lon="-1.60698493011295795440673828125">
        <ele>430</ele>
        <time>2020-02-16T08:35:48.000Z</time>
      </trkpt>
      <trkpt lat="42.8388484753668308258056640625" lon="-1.606960706412792205810546875">
        <ele>430</ele>
        <time>2020-02-16T08:35:49.000Z</time>
      </trkpt>
      <trkpt lat="42.83874495886266231536865234375" lon="-1.60689557902514934539794921875">
        <ele>430</ele>
        <time>2020-02-16T08:35:51.000Z</time>
      </trkpt>
      <trkpt lat="42.8386546857655048370361328125" lon="-1.60681628622114658355712890625">
        <ele>430.20001220703125</ele>
        <time>2020-02-16T08:35:53.000Z</time>
      </trkpt>
      <trkpt lat="42.838605232536792755126953125" lon="-1.60676591098308563232421875">
        <ele>430.20001220703125</ele>
        <time>2020-02-16T08:35:54.000Z</time>
      </trkpt>
      <trkpt lat="42.83840431831777095794677734375" lon="-1.60656013526022434234619140625">
        <ele>430.399993896484375</ele>
        <time>2020-02-16T08:35:58.000Z</time>
      </trkpt>
      <trkpt lat="42.83820399083197116851806640625" lon="-1.6061776690185070037841796875">
        <ele>430.399993896484375</ele>
        <time>2020-02-16T08:36:03.000Z</time>
      </trkpt>
      <trkpt lat="42.83803987316787242889404296875" lon="-1.6057196818292140960693359375">
        <ele>430.20001220703125</ele>
        <time>2020-02-16T08:36:09.000Z</time>
      </trkpt>
      <trkpt lat="42.83787156455218791961669921875" lon="-1.6053354553878307342529296875">
        <ele>430.20001220703125</ele>
        <time>2020-02-16T08:36:15.000Z</time>
      </trkpt>
      <trkpt lat="42.83768096007406711578369140625" lon="-1.6048677451908588409423828125">
        <ele>430.600006103515625</ele>
        <time>2020-02-16T08:36:22.000Z</time>
      </trkpt>
      <trkpt lat="42.83759546466171741485595703125" lon="-1.604565493762493133544921875">
        <ele>431</ele>
        <time>2020-02-16T08:36:26.000Z</time>
      </trkpt>
      <trkpt lat="42.83755975775420665740966796875" lon="-1.60448829643428325653076171875">
        <ele>431</ele>
        <time>2020-02-16T08:36:27.000Z</time>
      </trkpt>
      <trkpt lat="42.83734283410012722015380859375" lon="-1.6041767410933971405029296875">
        <ele>432</ele>
        <time>2020-02-16T08:36:32.000Z</time>
      </trkpt>
      <trkpt lat="42.837062962353229522705078125" lon="-1.60392151214182376861572265625">
        <ele>432.20001220703125</ele>
        <time>2020-02-16T08:36:37.000Z</time>
      </trkpt>
      <trkpt lat="42.83699800260365009307861328125" lon="-1.6038818657398223876953125">
        <ele>432.20001220703125</ele>
        <time>2020-02-16T08:36:38.000Z</time>
      </trkpt>
      <trkpt lat="42.83660472370684146881103515625" lon="-1.60366393625736236572265625">
        <ele>431.79998779296875</ele>
        <time>2020-02-16T08:36:44.000Z</time>
      </trkpt>
      <trkpt lat="42.83634253777563571929931640625" lon="-1.60347810946404933929443359375">
        <ele>431.20001220703125</ele>
        <time>2020-02-16T08:36:49.000Z</time>
      </trkpt>
      <trkpt lat="42.83619518391788005828857421875" lon="-1.60349671728909015655517578125">
        <ele>431.20001220703125</ele>
        <time>2020-02-16T08:36:52.000Z</time>
      </trkpt>
      <trkpt lat="42.83614321611821651458740234375" lon="-1.60351398400962352752685546875">
        <ele>431.20001220703125</ele>
        <time>2020-02-16T08:36:53.000Z</time>
      </trkpt>
      <trkpt lat="42.83582503907382488250732421875" lon="-1.6035967133939266204833984375">
        <ele>432.399993896484375</ele>
        <time>2020-02-16T08:36:59.000Z</time>
      </trkpt>
      <trkpt lat="42.83577005378901958465576171875" lon="-1.60360786132514476776123046875">
        <ele>432.399993896484375</ele>
        <time>2020-02-16T08:37:00.000Z</time>
      </trkpt>
      <trkpt lat="42.83545355312526226043701171875" lon="-1.60362261347472667694091796875">
        <ele>432.399993896484375</ele>
        <time>2020-02-16T08:37:05.000Z</time>
      </trkpt>
      <trkpt lat="42.83538230694830417633056640625" lon="-1.6036351025104522705078125">
        <ele>432.399993896484375</ele>
        <time>2020-02-16T08:37:06.000Z</time>
      </trkpt>
      <trkpt lat="42.83522908575832843780517578125" lon="-1.6036687977612018585205078125">
        <ele>432.399993896484375</ele>
        <time>2020-02-16T08:37:08.000Z</time>
      </trkpt>
      <trkpt lat="42.835076786577701568603515625" lon="-1.603722609579563140869140625">
        <ele>432</ele>
        <time>2020-02-16T08:37:10.000Z</time>
      </trkpt>
      <trkpt lat="42.8350149281322956085205078125" lon="-1.60376460291445255279541015625">
        <ele>431.399993896484375</ele>
        <time>2020-02-16T08:37:11.000Z</time>
      </trkpt>
      <trkpt lat="42.83496036194264888763427734375" lon="-1.60381539724767208099365234375">
        <ele>430.79998779296875</ele>
        <time>2020-02-16T08:37:12.000Z</time>
      </trkpt>
      <trkpt lat="42.83485122956335544586181640625" lon="-1.60391178913414478302001953125">
        <ele>429.600006103515625</ele>
        <time>2020-02-16T08:37:14.000Z</time>
      </trkpt>
      <trkpt lat="42.834794484078884124755859375" lon="-1.6039504297077655792236328125">
        <ele>429</ele>
        <time>2020-02-16T08:37:15.000Z</time>
      </trkpt>
      <trkpt lat="42.83473555929958820343017578125" lon="-1.603986136615276336669921875">
        <ele>428.20001220703125</ele>
        <time>2020-02-16T08:37:16.000Z</time>
      </trkpt>
      <trkpt lat="42.8346739523112773895263671875" lon="-1.60401857458055019378662109375">
        <ele>427</ele>
        <time>2020-02-16T08:37:17.000Z</time>
      </trkpt>
      <trkpt lat="42.83448426984250545501708984375" lon="-1.604092754423618316650390625">
        <ele>426.20001220703125</ele>
        <time>2020-02-16T08:37:20.000Z</time>
      </trkpt>
      <trkpt lat="42.8344144485890865325927734375" lon="-1.60410725511610507965087890625">
        <ele>426</ele>
        <time>2020-02-16T08:37:21.000Z</time>
      </trkpt>
      <trkpt lat="42.83434697426855564117431640625" lon="-1.60411530174314975738525390625">
        <ele>425.79998779296875</ele>
        <time>2020-02-16T08:37:22.000Z</time>
      </trkpt>
      <trkpt lat="42.83413290046155452728271484375" lon="-1.604113876819610595703125">
        <ele>424.79998779296875</ele>
        <time>2020-02-16T08:37:25.000Z</time>
      </trkpt>
      <trkpt lat="42.8340625762939453125" lon="-1.6041103564202785491943359375">
        <ele>424.600006103515625</ele>
        <time>2020-02-16T08:37:26.000Z</time>
      </trkpt>
      <trkpt lat="42.83358857966959476470947265625" lon="-1.60414136946201324462890625">
        <ele>424.20001220703125</ele>
        <time>2020-02-16T08:37:33.000Z</time>
      </trkpt>
      <trkpt lat="42.83340384252369403839111328125" lon="-1.60419945605099201202392578125">
        <ele>424</ele>
        <time>2020-02-16T08:37:36.000Z</time>
      </trkpt>
      <trkpt lat="42.83328934572637081146240234375" lon="-1.6042602248489856719970703125">
        <ele>423.79998779296875</ele>
        <time>2020-02-16T08:37:38.000Z</time>
      </trkpt>
      <trkpt lat="42.83323285169899463653564453125" lon="-1.6042897291481494903564453125">
        <ele>423.79998779296875</ele>
        <time>2020-02-16T08:37:39.000Z</time>
      </trkpt>
      <trkpt lat="42.833082564175128936767578125" lon="-1.6043973527848720550537109375">
        <ele>423.600006103515625</ele>
        <time>2020-02-16T08:37:42.000Z</time>
      </trkpt>
      <trkpt lat="42.83299061469733715057373046875" lon="-1.6044932417571544647216796875">
        <ele>423.600006103515625</ele>
        <time>2020-02-16T08:37:44.000Z</time>
      </trkpt>
      <trkpt lat="42.8327974118292331695556640625" lon="-1.604674123227596282958984375">
        <ele>423.399993896484375</ele>
        <time>2020-02-16T08:37:48.000Z</time>
      </trkpt>
      <trkpt lat="42.832721136510372161865234375" lon="-1.604769341647624969482421875">
        <ele>423.399993896484375</ele>
        <time>2020-02-16T08:37:50.000Z</time>
      </trkpt>
      <trkpt lat="42.83265450038015842437744140625" lon="-1.6048670746386051177978515625">
        <ele>423.399993896484375</ele>
        <time>2020-02-16T08:37:52.000Z</time>
      </trkpt>
      <trkpt lat="42.8326369822025299072265625" lon="-1.60491242073476314544677734375">
        <ele>423.399993896484375</ele>
        <time>2020-02-16T08:37:53.000Z</time>
      </trkpt>
      <trkpt lat="42.83257730305194854736328125" lon="-1.60497193224728107452392578125">
        <ele>423.399993896484375</ele>
        <time>2020-02-16T08:37:56.000Z</time>
      </trkpt>
      <trkpt lat="42.83244319260120391845703125" lon="-1.60505860112607479095458984375">
        <ele>423.600006103515625</ele>
        <time>2020-02-16T08:38:00.000Z</time>
      </trkpt>
      <trkpt lat="42.83240639604628086090087890625" lon="-1.60509129054844379425048828125">
        <ele>423.600006103515625</ele>
        <time>2020-02-16T08:38:01.000Z</time>
      </trkpt>
      <trkpt lat="42.83236398361623287200927734375" lon="-1.60513252951204776763916015625">
        <ele>423.600006103515625</ele>
        <time>2020-02-16T08:38:02.000Z</time>
      </trkpt>
      <trkpt lat="42.83227748237550258636474609375" lon="-1.605216600000858306884765625">
        <ele>423.600006103515625</ele>
        <time>2020-02-16T08:38:04.000Z</time>
      </trkpt>
      <trkpt lat="42.83215560950338840484619140625" lon="-1.6052727587521076202392578125">
        <ele>423.600006103515625</ele>
        <time>2020-02-16T08:38:07.000Z</time>
      </trkpt>
      <trkpt lat="42.83211085014045238494873046875" lon="-1.605272926390171051025390625">
        <ele>423.600006103515625</ele>
        <time>2020-02-16T08:38:08.000Z</time>
      </trkpt>
      <trkpt lat="42.8319065831601619720458984375" lon="-1.6053388081490993499755859375">
        <ele>422.600006103515625</ele>
        <time>2020-02-16T08:38:12.000Z</time>
      </trkpt>
      <trkpt lat="42.8317721374332904815673828125" lon="-1.6054189391434192657470703125">
        <ele>422</ele>
        <time>2020-02-16T08:38:15.000Z</time>
      </trkpt>
      <trkpt lat="42.83166929148137569427490234375" lon="-1.60544383339583873748779296875">
        <ele>421.79998779296875</ele>
        <time>2020-02-16T08:38:17.000Z</time>
      </trkpt>
      <trkpt lat="42.831490673124790191650390625" lon="-1.60546076484024524688720703125">
        <ele>421.79998779296875</ele>
        <time>2020-02-16T08:38:22.000Z</time>
      </trkpt>
      <trkpt lat="42.8313537128269672393798828125" lon="-1.6054417379200458526611328125">
        <ele>421.79998779296875</ele>
        <time>2020-02-16T08:38:26.000Z</time>
      </trkpt>
      <trkpt lat="42.83132831566035747528076171875" lon="-1.60544668324291706085205078125">
        <ele>421.79998779296875</ele>
        <time>2020-02-16T08:38:27.000Z</time>
      </trkpt>
      <trkpt lat="42.831257320940494537353515625" lon="-1.605471409857273101806640625">
        <ele>421.79998779296875</ele>
        <time>2020-02-16T08:38:29.000Z</time>
      </trkpt>
      <trkpt lat="42.83114902675151824951171875" lon="-1.60547710955142974853515625">
        <ele>421.79998779296875</ele>
        <time>2020-02-16T08:38:31.000Z</time>
      </trkpt>
      <trkpt lat="42.83099672757089138031005859375" lon="-1.60547551698982715606689453125">
        <ele>421.600006103515625</ele>
        <time>2020-02-16T08:38:34.000Z</time>
      </trkpt>
      <trkpt lat="42.83075164072215557098388671875" lon="-1.60545833408832550048828125">
        <ele>421.600006103515625</ele>
        <time>2020-02-16T08:38:39.000Z</time>
      </trkpt>
      <trkpt lat="42.83070369623601436614990234375" lon="-1.605435200035572052001953125">
        <ele>421.600006103515625</ele>
        <time>2020-02-16T08:38:40.000Z</time>
      </trkpt>
      <trkpt lat="42.8305530734360218048095703125" lon="-1.60534945316612720489501953125">
        <ele>421</ele>
        <time>2020-02-16T08:38:43.000Z</time>
      </trkpt>
      <trkpt lat="42.8301567770540714263916015625" lon="-1.605144180357456207275390625">
        <ele>421</ele>
        <time>2020-02-16T08:38:50.000Z</time>
      </trkpt>
      <trkpt lat="42.829819656908512115478515625" lon="-1.60496472381055355072021484375">
        <ele>421.600006103515625</ele>
        <time>2020-02-16T08:38:57.000Z</time>
      </trkpt>
      <trkpt lat="42.8297241032123565673828125" lon="-1.60487051121890544891357421875">
        <ele>421.79998779296875</ele>
        <time>2020-02-16T08:39:01.000Z</time>
      </trkpt>
      <trkpt lat="42.82962913624942302703857421875" lon="-1.6047654859721660614013671875">
        <ele>422.20001220703125</ele>
        <time>2020-02-16T08:39:05.000Z</time>
      </trkpt>
      <trkpt lat="42.829594351351261138916015625" lon="-1.604751907289028167724609375">
        <ele>422.399993896484375</ele>
        <time>2020-02-16T08:39:06.000Z</time>
      </trkpt>
      <trkpt lat="42.82950751483440399169921875" lon="-1.6046773083508014678955078125">
        <ele>423.20001220703125</ele>
        <time>2020-02-16T08:39:10.000Z</time>
      </trkpt>
      <trkpt lat="42.82950474880635738372802734375" lon="-1.60464855842292308807373046875">
        <ele>423.20001220703125</ele>
        <time>2020-02-16T08:39:11.000Z</time>
      </trkpt>
      <trkpt lat="42.8295009769499301910400390625" lon="-1.60458988510072231292724609375">
        <ele>423.399993896484375</ele>
        <time>2020-02-16T08:39:13.000Z</time>
      </trkpt>
      <trkpt lat="42.82948647625744342803955078125" lon="-1.6045586206018924713134765625">
        <ele>423.399993896484375</ele>
        <time>2020-02-16T08:39:14.000Z</time>
      </trkpt>
      <trkpt lat="42.8293598257005214691162109375" lon="-1.6045291163027286529541015625">
        <ele>423.399993896484375</ele>
        <time>2020-02-16T08:39:17.000Z</time>
      </trkpt>
      <trkpt lat="42.82930676825344562530517578125" lon="-1.604532301425933837890625">
        <ele>423.399993896484375</ele>
        <time>2020-02-16T08:39:18.000Z</time>
      </trkpt>
      <trkpt lat="42.829226218163967132568359375" lon="-1.6045711934566497802734375">
        <ele>423.399993896484375</ele>
        <time>2020-02-16T08:39:20.000Z</time>
      </trkpt>
      <trkpt lat="42.82906872220337390899658203125" lon="-1.60469658672809600830078125">
        <ele>422</ele>
        <time>2020-02-16T08:39:25.000Z</time>
      </trkpt>
      <trkpt lat="42.82894316129386425018310546875" lon="-1.6047902964055538177490234375">
        <ele>421.399993896484375</ele>
        <time>2020-02-16T08:39:29.000Z</time>
      </trkpt>
      <trkpt lat="42.8287073783576488494873046875" lon="-1.6048838384449481964111328125">
        <ele>421.399993896484375</ele>
        <time>2020-02-16T08:39:34.000Z</time>
      </trkpt>
      <trkpt lat="42.8284498862922191619873046875" lon="-1.60498400218784809112548828125">
        <ele>421.20001220703125</ele>
        <time>2020-02-16T08:39:39.000Z</time>
      </trkpt>
      <trkpt lat="42.82810882665216922760009765625" lon="-1.6051049530506134033203125">
        <ele>421</ele>
        <time>2020-02-16T08:39:45.000Z</time>
      </trkpt>
      <trkpt lat="42.82800950109958648681640625" lon="-1.60514459945261478424072265625">
        <ele>421</ele>
        <time>2020-02-16T08:39:47.000Z</time>
      </trkpt>
      <trkpt lat="42.8278041444718837738037109375" lon="-1.6052281670272350311279296875">
        <ele>421</ele>
        <time>2020-02-16T08:39:51.000Z</time>
      </trkpt>
      <trkpt lat="42.82775293104350566864013671875" lon="-1.60525775514543056488037109375">
        <ele>421</ele>
        <time>2020-02-16T08:39:52.000Z</time>
      </trkpt>
      <trkpt lat="42.82765653915703296661376953125" lon="-1.60537376068532466888427734375">
        <ele>421</ele>
        <time>2020-02-16T08:39:55.000Z</time>
      </trkpt>
      <trkpt lat="42.827610857784748077392578125" lon="-1.6055047698318958282470703125">
        <ele>421</ele>
        <time>2020-02-16T08:39:58.000Z</time>
      </trkpt>
      <trkpt lat="42.82758881337940692901611328125" lon="-1.60558842122554779052734375">
        <ele>421.20001220703125</ele>
        <time>2020-02-16T08:40:00.000Z</time>
      </trkpt>
      <trkpt lat="42.82757724635303020477294921875" lon="-1.6056338511407375335693359375">
        <ele>421.20001220703125</ele>
        <time>2020-02-16T08:40:01.000Z</time>
      </trkpt>
      <trkpt lat="42.82755478285253047943115234375" lon="-1.60571976564824581146240234375">
        <ele>421.600006103515625</ele>
        <time>2020-02-16T08:40:03.000Z</time>
      </trkpt>
      <trkpt lat="42.82754438929259777069091796875" lon="-1.60576133988797664642333984375">
        <ele>422.20001220703125</ele>
        <time>2020-02-16T08:40:04.000Z</time>
      </trkpt>
      <trkpt lat="42.82752536237239837646484375" lon="-1.605840213596820831298828125">
        <ele>423.20001220703125</ele>
        <time>2020-02-16T08:40:06.000Z</time>
      </trkpt>
      <trkpt lat="42.82751220278441905975341796875" lon="-1.60590450279414653778076171875">
        <ele>424.20001220703125</ele>
        <time>2020-02-16T08:40:08.000Z</time>
      </trkpt>
      <trkpt lat="42.827505581080913543701171875" lon="-1.6059352643787860870361328125">
        <ele>424.399993896484375</ele>
        <time>2020-02-16T08:40:09.000Z</time>
      </trkpt>
      <trkpt lat="42.8274856321513652801513671875" lon="-1.606003157794475555419921875">
        <ele>424.600006103515625</ele>
        <time>2020-02-16T08:40:11.000Z</time>
      </trkpt>
      <trkpt lat="42.82745554111897945404052734375" lon="-1.60607096739113330841064453125">
        <ele>424.600006103515625</ele>
        <time>2020-02-16T08:40:13.000Z</time>
      </trkpt>
      <trkpt lat="42.82735177315771579742431640625" lon="-1.60623206757009029388427734375">
        <ele>424.20001220703125</ele>
        <time>2020-02-16T08:40:18.000Z</time>
      </trkpt>
      <trkpt lat="42.82726292498409748077392578125" lon="-1.6063503362238407135009765625">
        <ele>423.20001220703125</ele>
        <time>2020-02-16T08:40:21.000Z</time>
      </trkpt>
      <trkpt lat="42.82722570933401584625244140625" lon="-1.60640289075672626495361328125">
        <ele>423.20001220703125</ele>
        <time>2020-02-16T08:40:22.000Z</time>
      </trkpt>
      <trkpt lat="42.827044241130352020263671875" lon="-1.606685779988765716552734375">
        <ele>422.79998779296875</ele>
        <time>2020-02-16T08:40:26.000Z</time>
      </trkpt>
      <trkpt lat="42.82687283121049404144287109375" lon="-1.6069645620882511138916015625">
        <ele>421.79998779296875</ele>
        <time>2020-02-16T08:40:30.000Z</time>
      </trkpt>
      <trkpt lat="42.82683997415006160736083984375" lon="-1.60703069530427455902099609375">
        <ele>421.20001220703125</ele>
        <time>2020-02-16T08:40:31.000Z</time>
      </trkpt>
      <trkpt lat="42.82680451869964599609375" lon="-1.6070990078151226043701171875">
        <ele>420.20001220703125</ele>
        <time>2020-02-16T08:40:32.000Z</time>
      </trkpt>
      <trkpt lat="42.82669010572135448455810546875" lon="-1.6073015145957469940185546875">
        <ele>419.20001220703125</ele>
        <time>2020-02-16T08:40:35.000Z</time>
      </trkpt>
      <trkpt lat="42.82656915485858917236328125" lon="-1.60750527866184711456298828125">
        <ele>419</ele>
        <time>2020-02-16T08:40:38.000Z</time>
      </trkpt>
      <trkpt lat="42.82634225673973560333251953125" lon="-1.60785379819571971893310546875">
        <ele>419.20001220703125</ele>
        <time>2020-02-16T08:40:44.000Z</time>
      </trkpt>
      <trkpt lat="42.826299257576465606689453125" lon="-1.60791045986115932464599609375">
        <ele>419.20001220703125</ele>
        <time>2020-02-16T08:40:45.000Z</time>
      </trkpt>
      <trkpt lat="42.82610035501420497894287109375" lon="-1.60812637768685817718505859375">
        <ele>419.399993896484375</ele>
        <time>2020-02-16T08:40:49.000Z</time>
      </trkpt>
      <trkpt lat="42.82583917491137981414794921875" lon="-1.6083821095526218414306640625">
        <ele>420.20001220703125</ele>
        <time>2020-02-16T08:40:54.000Z</time>
      </trkpt>
      <trkpt lat="42.825541533529758453369140625" lon="-1.608666591346263885498046875">
        <ele>420.600006103515625</ele>
        <time>2020-02-16T08:41:00.000Z</time>
      </trkpt>
      <trkpt lat="42.82518873922526836395263671875" lon="-1.6090053878724575042724609375">
        <ele>420.399993896484375</ele>
        <time>2020-02-16T08:41:07.000Z</time>
      </trkpt>
      <trkpt lat="42.82484340481460094451904296875" lon="-1.609330438077449798583984375">
        <ele>420</ele>
        <time>2020-02-16T08:41:14.000Z</time>
      </trkpt>
      <trkpt lat="42.8245727531611919403076171875" lon="-1.609612070024013519287109375">
        <ele>420</ele>
        <time>2020-02-16T08:41:20.000Z</time>
      </trkpt>
      <trkpt lat="42.8244104795157909393310546875" lon="-1.60973419435322284698486328125">
        <ele>420</ele>
        <time>2020-02-16T08:41:23.000Z</time>
      </trkpt>
      <trkpt lat="42.824358008801937103271484375" lon="-1.60976864397525787353515625">
        <ele>420.20001220703125</ele>
        <time>2020-02-16T08:41:24.000Z</time>
      </trkpt>
      <trkpt lat="42.824272848665714263916015625" lon="-1.60984148271381855010986328125">
        <ele>420.20001220703125</ele>
        <time>2020-02-16T08:41:26.000Z</time>
      </trkpt>
      <trkpt lat="42.82420269213616847991943359375" lon="-1.6099195182323455810546875">
        <ele>420.399993896484375</ele>
        <time>2020-02-16T08:41:28.000Z</time>
      </trkpt>
      <trkpt lat="42.824075035750865936279296875" lon="-1.61001951433718204498291015625">
        <ele>420.79998779296875</ele>
        <time>2020-02-16T08:41:31.000Z</time>
      </trkpt>
      <trkpt lat="42.82397788949310779571533203125" lon="-1.61009310744702816009521484375">
        <ele>421</ele>
        <time>2020-02-16T08:41:33.000Z</time>
      </trkpt>
      <trkpt lat="42.82392994500696659088134765625" lon="-1.61013434641063213348388671875">
        <ele>421.20001220703125</ele>
        <time>2020-02-16T08:41:34.000Z</time>
      </trkpt>
      <trkpt lat="42.82372735440731048583984375" lon="-1.61031204275786876678466796875">
        <ele>422</ele>
        <time>2020-02-16T08:41:39.000Z</time>
      </trkpt>
      <trkpt lat="42.82361310906708240509033203125" lon="-1.6104189120233058929443359375">
        <ele>422.20001220703125</ele>
        <time>2020-02-16T08:41:42.000Z</time>
      </trkpt>
      <trkpt lat="42.82347614876925945281982421875" lon="-1.6105283796787261962890625">
        <ele>422.399993896484375</ele>
        <time>2020-02-16T08:41:45.000Z</time>
      </trkpt>
      <trkpt lat="42.823054790496826171875" lon="-1.61088067106902599334716796875">
        <ele>423</ele>
        <time>2020-02-16T08:41:54.000Z</time>
      </trkpt>
      <trkpt lat="42.82279503531754016876220703125" lon="-1.61110949702560901641845703125">
        <ele>423</ele>
        <time>2020-02-16T08:42:00.000Z</time>
      </trkpt>
      <trkpt lat="42.8227584064006805419921875" lon="-1.61115073598921298980712890625">
        <ele>423</ele>
        <time>2020-02-16T08:42:01.000Z</time>
      </trkpt>
      <trkpt lat="42.8225624375045299530029296875" lon="-1.611364223062992095947265625">
        <ele>423.20001220703125</ele>
        <time>2020-02-16T08:42:07.000Z</time>
      </trkpt>
      <trkpt lat="42.8224175982177257537841796875" lon="-1.6114267520606517791748046875">
        <ele>423.20001220703125</ele>
        <time>2020-02-16T08:42:12.000Z</time>
      </trkpt>
      <trkpt lat="42.8222697414457798004150390625" lon="-1.6114579327404499053955078125">
        <ele>423.20001220703125</ele>
        <time>2020-02-16T08:42:17.000Z</time>
      </trkpt>
      <trkpt lat="42.82212431542575359344482421875" lon="-1.61159983836114406585693359375">
        <ele>423.20001220703125</ele>
        <time>2020-02-16T08:42:21.000Z</time>
      </trkpt>
      <trkpt lat="42.82186564989387989044189453125" lon="-1.61188012920320034027099609375">
        <ele>422.79998779296875</ele>
        <time>2020-02-16T08:42:27.000Z</time>
      </trkpt>
      <trkpt lat="42.8217068128287792205810546875" lon="-1.61205799318850040435791015625">
        <ele>421.79998779296875</ele>
        <time>2020-02-16T08:42:31.000Z</time>
      </trkpt>
      <trkpt lat="42.82162324525415897369384765625" lon="-1.612158827483654022216796875">
        <ele>421.600006103515625</ele>
        <time>2020-02-16T08:42:33.000Z</time>
      </trkpt>
      <trkpt lat="42.8215111792087554931640625" lon="-1.6122879087924957275390625">
        <ele>421.399993896484375</ele>
        <time>2020-02-16T08:42:36.000Z</time>
      </trkpt>
      <trkpt lat="42.821231223642826080322265625" lon="-1.61262142471969127655029296875">
        <ele>421.399993896484375</ele>
        <time>2020-02-16T08:42:43.000Z</time>
      </trkpt>
      <trkpt lat="42.82111865468323230743408203125" lon="-1.61277011968195438385009765625">
        <ele>421.399993896484375</ele>
        <time>2020-02-16T08:42:46.000Z</time>
      </trkpt>
      <trkpt lat="42.8210493363440036773681640625" lon="-1.61288134753704071044921875">
        <ele>421.399993896484375</ele>
        <time>2020-02-16T08:42:48.000Z</time>
      </trkpt>
      <trkpt lat="42.8209816105663776397705078125" lon="-1.612997353076934814453125">
        <ele>421.399993896484375</ele>
        <time>2020-02-16T08:42:50.000Z</time>
      </trkpt>
      <trkpt lat="42.820875160396099090576171875" lon="-1.6131856106221675872802734375">
        <ele>421.399993896484375</ele>
        <time>2020-02-16T08:42:53.000Z</time>
      </trkpt>
      <trkpt lat="42.82064356841146945953369140625" lon="-1.6136298514902591705322265625">
        <ele>421.399993896484375</ele>
        <time>2020-02-16T08:43:00.000Z</time>
      </trkpt>
      <trkpt lat="42.82061456702649593353271484375" lon="-1.61369296722114086151123046875">
        <ele>421.20001220703125</ele>
        <time>2020-02-16T08:43:01.000Z</time>
      </trkpt>
      <trkpt lat="42.82044231891632080078125" lon="-1.614052467048168182373046875">
        <ele>421.20001220703125</ele>
        <time>2020-02-16T08:43:07.000Z</time>
      </trkpt>
      <trkpt lat="42.82025716267526149749755859375" lon="-1.61445002071559429168701171875">
        <ele>421</ele>
        <time>2020-02-16T08:43:13.000Z</time>
      </trkpt>
      <trkpt lat="42.82004610635340213775634765625" lon="-1.61490985192358493804931640625">
        <ele>421</ele>
        <time>2020-02-16T08:43:20.000Z</time>
      </trkpt>
      <trkpt lat="42.82001408748328685760498046875" lon="-1.61498042754828929901123046875">
        <ele>421</ele>
        <time>2020-02-16T08:43:21.000Z</time>
      </trkpt>
      <trkpt lat="42.81995348632335662841796875" lon="-1.6151168011128902435302734375">
        <ele>421</ele>
        <time>2020-02-16T08:43:23.000Z</time>
      </trkpt>
      <trkpt lat="42.819854915142059326171875" lon="-1.6153276897966861724853515625">
        <ele>420.79998779296875</ele>
        <time>2020-02-16T08:43:26.000Z</time>
      </trkpt>
      <trkpt lat="42.81976145692169666290283203125" lon="-1.61552340723574161529541015625">
        <ele>420.79998779296875</ele>
        <time>2020-02-16T08:43:29.000Z</time>
      </trkpt>
      <trkpt lat="42.819697000086307525634765625" lon="-1.6157293505966663360595703125">
        <ele>420.79998779296875</ele>
        <time>2020-02-16T08:43:32.000Z</time>
      </trkpt>
      <trkpt lat="42.81970948912203311920166015625" lon="-1.61603294312953948974609375">
        <ele>420.600006103515625</ele>
        <time>2020-02-16T08:43:36.000Z</time>
      </trkpt>
      <trkpt lat="42.81971879303455352783203125" lon="-1.6161142475903034210205078125">
        <ele>420.600006103515625</ele>
        <time>2020-02-16T08:43:37.000Z</time>
      </trkpt>
      <trkpt lat="42.8196840919554233551025390625" lon="-1.6162522137165069580078125">
        <ele>420.600006103515625</ele>
        <time>2020-02-16T08:43:39.000Z</time>
      </trkpt>
      <trkpt lat="42.81959063373506069183349609375" lon="-1.6165097057819366455078125">
        <ele>420.600006103515625</ele>
        <time>2020-02-16T08:43:44.000Z</time>
      </trkpt>
      <trkpt lat="42.8195855207741260528564453125" lon="-1.61656209267675876617431640625">
        <ele>420.600006103515625</ele>
        <time>2020-02-16T08:43:45.000Z</time>
      </trkpt>
      <trkpt lat="42.81957529485225677490234375" lon="-1.6167806088924407958984375">
        <ele>421.20001220703125</ele>
        <time>2020-02-16T08:43:49.000Z</time>
      </trkpt>
      <trkpt lat="42.81956900842487812042236328125" lon="-1.61683752201497554779052734375">
        <ele>421.600006103515625</ele>
        <time>2020-02-16T08:43:50.000Z</time>
      </trkpt>
      <trkpt lat="42.8195841796696186065673828125" lon="-1.617051847279071807861328125">
        <ele>422</ele>
        <time>2020-02-16T08:43:54.000Z</time>
      </trkpt>
      <trkpt lat="42.81960555352270603179931640625" lon="-1.61717061884701251983642578125">
        <ele>422.20001220703125</ele>
        <time>2020-02-16T08:43:56.000Z</time>
      </trkpt>
      <trkpt lat="42.81965685077011585235595703125" lon="-1.617343537509441375732421875">
        <ele>422.20001220703125</ele>
        <time>2020-02-16T08:43:59.000Z</time>
      </trkpt>
      <trkpt lat="42.81970630399882793426513671875" lon="-1.61744118668138980865478515625">
        <ele>422.20001220703125</ele>
        <time>2020-02-16T08:44:01.000Z</time>
      </trkpt>
      <trkpt lat="42.81976179219782352447509765625" lon="-1.6175287775695323944091796875">
        <ele>422.20001220703125</ele>
        <time>2020-02-16T08:44:03.000Z</time>
      </trkpt>
      <trkpt lat="42.81979448162019252777099609375" lon="-1.61769951693713665008544921875">
        <ele>422.20001220703125</ele>
        <time>2020-02-16T08:44:06.000Z</time>
      </trkpt>
      <trkpt lat="42.81989037059247493743896484375" lon="-1.618006043136119842529296875">
        <ele>422</ele>
        <time>2020-02-16T08:44:11.000Z</time>
      </trkpt>
      <trkpt lat="42.8199201263487339019775390625" lon="-1.618064381182193756103515625">
        <ele>422</ele>
        <time>2020-02-16T08:44:12.000Z</time>
      </trkpt>
      <trkpt lat="42.82007225789129734039306640625" lon="-1.61838431842625141143798828125">
        <ele>421.399993896484375</ele>
        <time>2020-02-16T08:44:17.000Z</time>
      </trkpt>
      <trkpt lat="42.82011869363486766815185546875" lon="-1.61845321767032146453857421875">
        <ele>421.20001220703125</ele>
        <time>2020-02-16T08:44:18.000Z</time>
      </trkpt>
      <trkpt lat="42.82033293507993221282958984375" lon="-1.61879360675811767578125">
        <ele>421</ele>
        <time>2020-02-16T08:44:23.000Z</time>
      </trkpt>
      <trkpt lat="42.82036721706390380859375" lon="-1.6188611648976802825927734375">
        <ele>421</ele>
        <time>2020-02-16T08:44:24.000Z</time>
      </trkpt>
      <trkpt lat="42.8206124715507030487060546875" lon="-1.61922871135175228118896484375">
        <ele>421</ele>
        <time>2020-02-16T08:44:30.000Z</time>
      </trkpt>
      <trkpt lat="42.8208662755787372589111328125" lon="-1.61960086785256862640380859375">
        <ele>421</ele>
        <time>2020-02-16T08:44:36.000Z</time>
      </trkpt>
      <trkpt lat="42.82090910710394382476806640625" lon="-1.6196544282138347625732421875">
        <ele>421</ele>
        <time>2020-02-16T08:44:37.000Z</time>
      </trkpt>
      <trkpt lat="42.82101907767355442047119140625" lon="-1.61981594748795032501220703125">
        <ele>421</ele>
        <time>2020-02-16T08:44:40.000Z</time>
      </trkpt>
      <trkpt lat="42.82109317369759082794189453125" lon="-1.61993061192333698272705078125">
        <ele>421</ele>
        <time>2020-02-16T08:44:42.000Z</time>
      </trkpt>
      <trkpt lat="42.82138352282345294952392578125" lon="-1.62045431323349475860595703125">
        <ele>421</ele>
        <time>2020-02-16T08:44:50.000Z</time>
      </trkpt>
      <trkpt lat="42.8215579502284526824951171875" lon="-1.6207501105964183807373046875">
        <ele>421</ele>
        <time>2020-02-16T08:44:55.000Z</time>
      </trkpt>
      <trkpt lat="42.82163632102310657501220703125" lon="-1.62086226046085357666015625">
        <ele>421</ele>
        <time>2020-02-16T08:44:57.000Z</time>
      </trkpt>
      <trkpt lat="42.8217349760234355926513671875" lon="-1.6210253722965717315673828125">
        <ele>420.79998779296875</ele>
        <time>2020-02-16T08:45:00.000Z</time>
      </trkpt>
      <trkpt lat="42.82181452028453350067138671875" lon="-1.62123315967619419097900390625">
        <ele>420.399993896484375</ele>
        <time>2020-02-16T08:45:03.000Z</time>
      </trkpt>
      <trkpt lat="42.821845449507236480712890625" lon="-1.6212915815412998199462890625">
        <ele>420</ele>
        <time>2020-02-16T08:45:04.000Z</time>
      </trkpt>
      <trkpt lat="42.82188065350055694580078125" lon="-1.621354110538959503173828125">
        <ele>419.79998779296875</ele>
        <time>2020-02-16T08:45:05.000Z</time>
      </trkpt>
      <trkpt lat="42.82196405343711376190185546875" lon="-1.62154044024646282196044921875">
        <ele>419.600006103515625</ele>
        <time>2020-02-16T08:45:08.000Z</time>
      </trkpt>
      <trkpt lat="42.82204284332692623138427734375" lon="-1.62169030867516994476318359375">
        <ele>419.600006103515625</ele>
        <time>2020-02-16T08:45:11.000Z</time>
      </trkpt>
      <trkpt lat="42.8220910392701625823974609375" lon="-1.62179910577833652496337890625">
        <ele>419.600006103515625</ele>
        <time>2020-02-16T08:45:13.000Z</time>
      </trkpt>
      <trkpt lat="42.822157256305217742919921875" lon="-1.62201234139502048492431640625">
        <ele>419.600006103515625</ele>
        <time>2020-02-16T08:45:16.000Z</time>
      </trkpt>
      <trkpt lat="42.82218114472925662994384765625" lon="-1.62209616042673587799072265625">
        <ele>419.600006103515625</ele>
        <time>2020-02-16T08:45:17.000Z</time>
      </trkpt>
      <trkpt lat="42.82220159657299518585205078125" lon="-1.6221827454864978790283203125">
        <ele>419.600006103515625</ele>
        <time>2020-02-16T08:45:18.000Z</time>
      </trkpt>
      <trkpt lat="42.8222124092280864715576171875" lon="-1.622268073260784149169921875">
        <ele>419.600006103515625</ele>
        <time>2020-02-16T08:45:19.000Z</time>
      </trkpt>
      <trkpt lat="42.82220729626715183258056640625" lon="-1.62248072214424610137939453125">
        <ele>419.399993896484375</ele>
        <time>2020-02-16T08:45:22.000Z</time>
      </trkpt>
      <trkpt lat="42.8222117386758327484130859375" lon="-1.622540652751922607421875">
        <ele>419.399993896484375</ele>
        <time>2020-02-16T08:45:23.000Z</time>
      </trkpt>
      <trkpt lat="42.82223043031990528106689453125" lon="-1.622663028538227081298828125">
        <ele>419.399993896484375</ele>
        <time>2020-02-16T08:45:25.000Z</time>
      </trkpt>
      <trkpt lat="42.82224769704043865203857421875" lon="-1.62273234687745571136474609375">
        <ele>419.20001220703125</ele>
        <time>2020-02-16T08:45:26.000Z</time>
      </trkpt>
      <trkpt lat="42.822271250188350677490234375" lon="-1.622879616916179656982421875">
        <ele>419.20001220703125</ele>
        <time>2020-02-16T08:45:28.000Z</time>
      </trkpt>
      <trkpt lat="42.8222821466624736785888671875" lon="-1.62312914617359638214111328125">
        <ele>419</ele>
        <time>2020-02-16T08:45:31.000Z</time>
      </trkpt>
      <trkpt lat="42.8222358785569667816162109375" lon="-1.62379684858024120330810546875">
        <ele>418.20001220703125</ele>
        <time>2020-02-16T08:45:39.000Z</time>
      </trkpt>
      <trkpt lat="42.822226323187351226806640625" lon="-1.6240683384239673614501953125">
        <ele>418</ele>
        <time>2020-02-16T08:45:42.000Z</time>
      </trkpt>
      <trkpt lat="42.8222134150564670562744140625" lon="-1.62425131537020206451416015625">
        <ele>417.79998779296875</ele>
        <time>2020-02-16T08:45:44.000Z</time>
      </trkpt>
      <trkpt lat="42.82214879058301448822021484375" lon="-1.62479781545698642730712890625">
        <ele>416.79998779296875</ele>
        <time>2020-02-16T08:45:50.000Z</time>
      </trkpt>
      <trkpt lat="42.82214124687016010284423828125" lon="-1.62497366778552532196044921875">
        <ele>416.399993896484375</ele>
        <time>2020-02-16T08:45:52.000Z</time>
      </trkpt>
      <trkpt lat="42.82214082777500152587890625" lon="-1.62505832500755786895751953125">
        <ele>416.399993896484375</ele>
        <time>2020-02-16T08:45:53.000Z</time>
      </trkpt>
      <trkpt lat="42.822145186364650726318359375" lon="-1.6252317465841770172119140625">
        <ele>416.399993896484375</ele>
        <time>2020-02-16T08:45:55.000Z</time>
      </trkpt>
      <trkpt lat="42.822115011513233184814453125" lon="-1.625495441257953643798828125">
        <ele>416.399993896484375</ele>
        <time>2020-02-16T08:45:58.000Z</time>
      </trkpt>
      <trkpt lat="42.8220367245376110076904296875" lon="-1.6259884648025035858154296875">
        <ele>416.20001220703125</ele>
        <time>2020-02-16T08:46:04.000Z</time>
      </trkpt>
      <trkpt lat="42.82199389301240444183349609375" lon="-1.62621653638780117034912109375">
        <ele>416.399993896484375</ele>
        <time>2020-02-16T08:46:07.000Z</time>
      </trkpt>
      <trkpt lat="42.821944020688533782958984375" lon="-1.6264384053647518157958984375">
        <ele>416.399993896484375</ele>
        <time>2020-02-16T08:46:10.000Z</time>
      </trkpt>
      <trkpt lat="42.822027839720249176025390625" lon="-1.62659053690731525421142578125">
        <ele>416.600006103515625</ele>
        <time>2020-02-16T08:46:13.000Z</time>
      </trkpt>
      <trkpt lat="42.82202892936766147613525390625" lon="-1.626730598509311676025390625">
        <ele>416.79998779296875</ele>
        <time>2020-02-16T08:46:16.000Z</time>
      </trkpt>
      <trkpt lat="42.82202876172959804534912109375" lon="-1.62677309475839138031005859375">
        <ele>417</ele>
        <time>2020-02-16T08:46:17.000Z</time>
      </trkpt>
      <trkpt lat="42.822011075913906097412109375" lon="-1.62698750384151935577392578125">
        <ele>417.79998779296875</ele>
        <time>2020-02-16T08:46:22.000Z</time>
      </trkpt>
      <trkpt lat="42.82199238426983356475830078125" lon="-1.6270419023931026458740234375">
        <ele>418</ele>
        <time>2020-02-16T08:46:23.000Z</time>
      </trkpt>
      <trkpt lat="42.8219052962958812713623046875" lon="-1.6273040883243083953857421875">
        <ele>418</ele>
        <time>2020-02-16T08:46:27.000Z</time>
      </trkpt>
      <trkpt lat="42.8218405880033969879150390625" lon="-1.627572476863861083984375">
        <ele>418</ele>
        <time>2020-02-16T08:46:31.000Z</time>
      </trkpt>
      <trkpt lat="42.82177898101508617401123046875" lon="-1.6277681104838848114013671875">
        <ele>418</ele>
        <time>2020-02-16T08:46:34.000Z</time>
      </trkpt>
      <trkpt lat="42.82172315753996372222900390625" lon="-1.62802568636834621429443359375">
        <ele>418</ele>
        <time>2020-02-16T08:46:38.000Z</time>
      </trkpt>
      <trkpt lat="42.82168275676667690277099609375" lon="-1.62815242074429988861083984375">
        <ele>418.20001220703125</ele>
        <time>2020-02-16T08:46:40.000Z</time>
      </trkpt>
      <trkpt lat="42.82154898159205913543701171875" lon="-1.6286317817866802215576171875">
        <ele>418.600006103515625</ele>
        <time>2020-02-16T08:46:47.000Z</time>
      </trkpt>
      <trkpt lat="42.8215312957763671875" lon="-1.6287028603255748748779296875">
        <ele>418.600006103515625</ele>
        <time>2020-02-16T08:46:48.000Z</time>
      </trkpt>
      <trkpt lat="42.8213695250451564788818359375" lon="-1.62928037345409393310546875">
        <ele>418.399993896484375</ele>
        <time>2020-02-16T08:46:56.000Z</time>
      </trkpt>
      <trkpt lat="42.82126910984516143798828125" lon="-1.62964783608913421630859375">
        <ele>418</ele>
        <time>2020-02-16T08:47:01.000Z</time>
      </trkpt>
      <trkpt lat="42.82123885117471218109130859375" lon="-1.6297973692417144775390625">
        <ele>417.79998779296875</ele>
        <time>2020-02-16T08:47:03.000Z</time>
      </trkpt>
      <trkpt lat="42.8212344087660312652587890625" lon="-1.62994262762367725372314453125">
        <ele>417.600006103515625</ele>
        <time>2020-02-16T08:47:05.000Z</time>
      </trkpt>
      <trkpt lat="42.82125393860042095184326171875" lon="-1.6300808452069759368896484375">
        <ele>417.600006103515625</ele>
        <time>2020-02-16T08:47:07.000Z</time>
      </trkpt>
      <trkpt lat="42.8212927468121051788330078125" lon="-1.6303882934153079986572265625">
        <ele>417.600006103515625</ele>
        <time>2020-02-16T08:47:11.000Z</time>
      </trkpt>
      <trkpt lat="42.82137229107320308685302734375" lon="-1.63103395141661167144775390625">
        <ele>417.600006103515625</ele>
        <time>2020-02-16T08:47:19.000Z</time>
      </trkpt>
      <trkpt lat="42.821386791765689849853515625" lon="-1.63124836049973964691162109375">
        <ele>417.600006103515625</ele>
        <time>2020-02-16T08:47:22.000Z</time>
      </trkpt>
      <trkpt lat="42.82139173708856105804443359375" lon="-1.63142890669405460357666015625">
        <ele>417.600006103515625</ele>
        <time>2020-02-16T08:47:25.000Z</time>
      </trkpt>
      <trkpt lat="42.8214070759713649749755859375" lon="-1.63178027607500553131103515625">
        <ele>417.399993896484375</ele>
        <time>2020-02-16T08:47:30.000Z</time>
      </trkpt>
      <trkpt lat="42.82142090611159801483154296875" lon="-1.6319359280169010162353515625">
        <ele>417.399993896484375</ele>
        <time>2020-02-16T08:47:32.000Z</time>
      </trkpt>
      <trkpt lat="42.821448147296905517578125" lon="-1.63235292769968509674072265625">
        <ele>417.399993896484375</ele>
        <time>2020-02-16T08:47:37.000Z</time>
      </trkpt>
      <trkpt lat="42.8214818425476551055908203125" lon="-1.63284293375909328460693359375">
        <ele>416.79998779296875</ele>
        <time>2020-02-16T08:47:43.000Z</time>
      </trkpt>
      <trkpt lat="42.8214897215366363525390625" lon="-1.6329159401357173919677734375">
        <ele>416.79998779296875</ele>
        <time>2020-02-16T08:47:44.000Z</time>
      </trkpt>
      <trkpt lat="42.8214972652494907379150390625" lon="-1.63298877887427806854248046875">
        <ele>416.79998779296875</ele>
        <time>2020-02-16T08:47:45.000Z</time>
      </trkpt>
      <trkpt lat="42.821509838104248046875" lon="-1.633139736950397491455078125">
        <ele>416.600006103515625</ele>
        <time>2020-02-16T08:47:47.000Z</time>
      </trkpt>
      <trkpt lat="42.8215210698544979095458984375" lon="-1.63336629979312419891357421875">
        <ele>416.399993896484375</ele>
        <time>2020-02-16T08:47:50.000Z</time>
      </trkpt>
      <trkpt lat="42.82155266962945461273193359375" lon="-1.6338148154318332672119140625">
        <ele>416</ele>
        <time>2020-02-16T08:47:56.000Z</time>
      </trkpt>
      <trkpt lat="42.8215371631085872650146484375" lon="-1.6341930069029331207275390625">
        <ele>415.79998779296875</ele>
        <time>2020-02-16T08:48:01.000Z</time>
      </trkpt>
      <trkpt lat="42.8215123526751995086669921875" lon="-1.634333319962024688720703125">
        <ele>415.79998779296875</ele>
        <time>2020-02-16T08:48:03.000Z</time>
      </trkpt>
      <trkpt lat="42.8214620612561702728271484375" lon="-1.634552590548992156982421875">
        <ele>415.79998779296875</ele>
        <time>2020-02-16T08:48:06.000Z</time>
      </trkpt>
      <trkpt lat="42.82142006792128086090087890625" lon="-1.6347026266157627105712890625">
        <ele>415.79998779296875</ele>
        <time>2020-02-16T08:48:08.000Z</time>
      </trkpt>
      <trkpt lat="42.821398861706256866455078125" lon="-1.634773202240467071533203125">
        <ele>415.79998779296875</ele>
        <time>2020-02-16T08:48:09.000Z</time>
      </trkpt>
      <trkpt lat="42.8212733007967472076416015625" lon="-1.63512356579303741455078125">
        <ele>416</ele>
        <time>2020-02-16T08:48:14.000Z</time>
      </trkpt>
      <trkpt lat="42.8211401961743831634521484375" lon="-1.6355528868734836578369140625">
        <ele>416</ele>
        <time>2020-02-16T08:48:20.000Z</time>
      </trkpt>
      <trkpt lat="42.82095839269459247589111328125" lon="-1.6362053342163562774658203125">
        <ele>415.79998779296875</ele>
        <time>2020-02-16T08:48:29.000Z</time>
      </trkpt>
      <trkpt lat="42.82093760557472705841064453125" lon="-1.63628001697361469268798828125">
        <ele>415.79998779296875</ele>
        <time>2020-02-16T08:48:30.000Z</time>
      </trkpt>
      <trkpt lat="42.82084087841212749481201171875" lon="-1.6367655806243419647216796875">
        <ele>415.399993896484375</ele>
        <time>2020-02-16T08:48:36.000Z</time>
      </trkpt>
      <trkpt lat="42.82079779542982578277587890625" lon="-1.63701544515788555145263671875">
        <ele>414.79998779296875</ele>
        <time>2020-02-16T08:48:39.000Z</time>
      </trkpt>
      <trkpt lat="42.820782959461212158203125" lon="-1.63709691725671291351318359375">
        <ele>414.600006103515625</ele>
        <time>2020-02-16T08:48:40.000Z</time>
      </trkpt>
      <trkpt lat="42.82075370661914348602294921875" lon="-1.63725131191313266754150390625">
        <ele>414.600006103515625</ele>
        <time>2020-02-16T08:48:42.000Z</time>
      </trkpt>
      <trkpt lat="42.82074398361146450042724609375" lon="-1.63731719367206096649169921875">
        <ele>414.399993896484375</ele>
        <time>2020-02-16T08:48:43.000Z</time>
      </trkpt>
      <trkpt lat="42.82076108269393444061279296875" lon="-1.63741006515920162200927734375">
        <ele>414.399993896484375</ele>
        <time>2020-02-16T08:48:45.000Z</time>
      </trkpt>
      <trkpt lat="42.8208605758845806121826171875" lon="-1.63745482452213764190673828125">
        <ele>414.399993896484375</ele>
        <time>2020-02-16T08:48:48.000Z</time>
      </trkpt>
      <trkpt lat="42.8208998031914234161376953125" lon="-1.6374658048152923583984375">
        <ele>414.399993896484375</ele>
        <time>2020-02-16T08:48:49.000Z</time>
      </trkpt>
      <trkpt lat="42.821015976369380950927734375" lon="-1.6375031881034374237060546875">
        <ele>414.399993896484375</ele>
        <time>2020-02-16T08:48:52.000Z</time>
      </trkpt>
      <trkpt lat="42.8210935927927494049072265625" lon="-1.63753084838390350341796875">
        <ele>415</ele>
        <time>2020-02-16T08:48:54.000Z</time>
      </trkpt>
      <trkpt lat="42.82130490057170391082763671875" lon="-1.63760134018957614898681640625">
        <ele>415.399993896484375</ele>
        <time>2020-02-16T08:49:00.000Z</time>
      </trkpt>
      <trkpt lat="42.82139441929757595062255859375" lon="-1.63762799464166164398193359375">
        <ele>416</ele>
        <time>2020-02-16T08:49:03.000Z</time>
      </trkpt>
      <trkpt lat="42.82148662023246288299560546875" lon="-1.63766152225434780120849609375">
        <ele>416.20001220703125</ele>
        <time>2020-02-16T08:49:07.000Z</time>
      </trkpt>
      <trkpt lat="42.8215743787586688995361328125" lon="-1.6376803815364837646484375">
        <ele>416.79998779296875</ele>
        <time>2020-02-16T08:49:12.000Z</time>
      </trkpt>
      <trkpt lat="42.82159877009689807891845703125" lon="-1.63768214173614978790283203125">
        <ele>417</ele>
        <time>2020-02-16T08:49:14.000Z</time>
      </trkpt>
      <trkpt lat="42.821611426770687103271484375" lon="-1.63768599741160869598388671875">
        <ele>417.20001220703125</ele>
        <time>2020-02-16T08:49:15.000Z</time>
      </trkpt>
      <trkpt lat="42.821624167263507843017578125" lon="-1.63769169710576534271240234375">
        <ele>417.399993896484375</ele>
        <time>2020-02-16T08:49:17.000Z</time>
      </trkpt>
      <trkpt lat="42.82167001627385616302490234375" lon="-1.637730337679386138916015625">
        <ele>417.79998779296875</ele>
        <time>2020-02-16T08:49:55.000Z</time>
      </trkpt>
      <trkpt lat="42.8216920606791973114013671875" lon="-1.63774768821895122528076171875">
        <ele>417.79998779296875</ele>
        <time>2020-02-16T08:49:56.000Z</time>
      </trkpt>
      <trkpt lat="42.82176942564547061920166015625" lon="-1.637879870831966400146484375">
        <ele>417.79998779296875</ele>
        <time>2020-02-16T08:50:00.000Z</time>
      </trkpt>
      <trkpt lat="42.821750901639461517333984375" lon="-1.6380129754543304443359375">
        <ele>417.79998779296875</ele>
        <time>2020-02-16T08:50:03.000Z</time>
      </trkpt>
      <trkpt lat="42.8217322938144207000732421875" lon="-1.63805295713245868682861328125">
        <ele>417.79998779296875</ele>
        <time>2020-02-16T08:50:04.000Z</time>
      </trkpt>
      <trkpt lat="42.82154965214431285858154296875" lon="-1.6383799351751804351806640625">
        <ele>417.600006103515625</ele>
        <time>2020-02-16T08:50:11.000Z</time>
      </trkpt>
      <trkpt lat="42.82143632881343364715576171875" lon="-1.63857129402458667755126953125">
        <ele>417.399993896484375</ele>
        <time>2020-02-16T08:50:15.000Z</time>
      </trkpt>
      <trkpt lat="42.8213138692080974578857421875" lon="-1.63876189850270748138427734375">
        <ele>417.399993896484375</ele>
        <time>2020-02-16T08:50:19.000Z</time>
      </trkpt>
      <trkpt lat="42.82127958722412586212158203125" lon="-1.63880883716046810150146484375">
        <ele>417.399993896484375</ele>
        <time>2020-02-16T08:50:20.000Z</time>
      </trkpt>
      <trkpt lat="42.821142710745334625244140625" lon="-1.63897329010069370269775390625">
        <ele>417.399993896484375</ele>
        <time>2020-02-16T08:50:24.000Z</time>
      </trkpt>
      <trkpt lat="42.8211167268455028533935546875" lon="-1.6390018723905086517333984375">
        <ele>417.399993896484375</ele>
        <time>2020-02-16T08:50:25.000Z</time>
      </trkpt>
      <trkpt lat="42.8209772519767284393310546875" lon="-1.63911125622689723968505859375">
        <ele>417.399993896484375</ele>
        <time>2020-02-16T08:50:30.000Z</time>
      </trkpt>
      <trkpt lat="42.820952944457530975341796875" lon="-1.63912567310035228729248046875">
        <ele>417.399993896484375</ele>
        <time>2020-02-16T08:50:31.000Z</time>
      </trkpt>
      <trkpt lat="42.820938192307949066162109375" lon="-1.639145202934741973876953125">
        <ele>417.399993896484375</ele>
        <time>2020-02-16T08:50:32.000Z</time>
      </trkpt>
      <trkpt lat="42.82094028778374195098876953125" lon="-1.6391879506409168243408203125">
        <ele>417.600006103515625</ele>
        <time>2020-02-16T08:50:34.000Z</time>
      </trkpt>
      <trkpt lat="42.8210037387907505035400390625" lon="-1.6392315365374088287353515625">
        <ele>417.600006103515625</ele>
        <time>2020-02-16T08:50:36.000Z</time>
      </trkpt>
      <trkpt lat="42.8210312314331531524658203125" lon="-1.63926917128264904022216796875">
        <ele>417.600006103515625</ele>
        <time>2020-02-16T08:50:37.000Z</time>
      </trkpt>
      <trkpt lat="42.82106400467455387115478515625" lon="-1.63930102251470088958740234375">
        <ele>417.600006103515625</ele>
        <time>2020-02-16T08:50:38.000Z</time>
      </trkpt>
      <trkpt lat="42.821178920567035675048828125" lon="-1.639389954507350921630859375">
        <ele>417.600006103515625</ele>
        <time>2020-02-16T08:50:41.000Z</time>
      </trkpt>
      <trkpt lat="42.82149869017302989959716796875" lon="-1.639551222324371337890625">
        <ele>416.399993896484375</ele>
        <time>2020-02-16T08:50:47.000Z</time>
      </trkpt>
      <trkpt lat="42.82175383530557155609130859375" lon="-1.639669574797153472900390625">
        <ele>415.600006103515625</ele>
        <time>2020-02-16T08:50:52.000Z</time>
      </trkpt>
      <trkpt lat="42.82189548946917057037353515625" lon="-1.6397391445934772491455078125">
        <ele>415.600006103515625</ele>
        <time>2020-02-16T08:50:55.000Z</time>
      </trkpt>
      <trkpt lat="42.82203714363276958465576171875" lon="-1.63980980403721332550048828125">
        <ele>415.79998779296875</ele>
        <time>2020-02-16T08:50:58.000Z</time>
      </trkpt>
      <trkpt lat="42.822234369814395904541015625" lon="-1.6399336047470569610595703125">
        <ele>416.399993896484375</ele>
        <time>2020-02-16T08:51:02.000Z</time>
      </trkpt>
      <trkpt lat="42.822383902966976165771484375" lon="-1.64005036465823650360107421875">
        <ele>416.79998779296875</ele>
        <time>2020-02-16T08:51:05.000Z</time>
      </trkpt>
      <trkpt lat="42.82246193848550319671630859375" lon="-1.64014977402985095977783203125">
        <ele>416.79998779296875</ele>
        <time>2020-02-16T08:51:07.000Z</time>
      </trkpt>
      <trkpt lat="42.8225684724748134613037109375" lon="-1.6403999738395214080810546875">
        <ele>417.20001220703125</ele>
        <time>2020-02-16T08:51:11.000Z</time>
      </trkpt>
      <trkpt lat="42.8225895948708057403564453125" lon="-1.64046945981681346893310546875">
        <ele>417.20001220703125</ele>
        <time>2020-02-16T08:51:12.000Z</time>
      </trkpt>
      <trkpt lat="42.8226073645055294036865234375" lon="-1.640539951622486114501953125">
        <ele>417.20001220703125</ele>
        <time>2020-02-16T08:51:13.000Z</time>
      </trkpt>
      <trkpt lat="42.822654806077480316162109375" lon="-1.6408328153192996978759765625">
        <ele>417.20001220703125</ele>
        <time>2020-02-16T08:51:17.000Z</time>
      </trkpt>
      <trkpt lat="42.822741977870464324951171875" lon="-1.641522981226444244384765625">
        <ele>417.20001220703125</ele>
        <time>2020-02-16T08:51:25.000Z</time>
      </trkpt>
      <trkpt lat="42.82278455793857574462890625" lon="-1.64187611080706119537353515625">
        <ele>417</ele>
        <time>2020-02-16T08:51:29.000Z</time>
      </trkpt>
      <trkpt lat="42.8228018246591091156005859375" lon="-1.64215656928718090057373046875">
        <ele>416.79998779296875</ele>
        <time>2020-02-16T08:51:32.000Z</time>
      </trkpt>
      <trkpt lat="42.82279931008815765380859375" lon="-1.64225111715495586395263671875">
        <ele>416.79998779296875</ele>
        <time>2020-02-16T08:51:33.000Z</time>
      </trkpt>
      <trkpt lat="42.82277760095894336700439453125" lon="-1.642725281417369842529296875">
        <ele>416.600006103515625</ele>
        <time>2020-02-16T08:51:38.000Z</time>
      </trkpt>
      <trkpt lat="42.8227750025689601898193359375" lon="-1.64292116649448871612548828125">
        <ele>416.600006103515625</ele>
        <time>2020-02-16T08:51:40.000Z</time>
      </trkpt>
      <trkpt lat="42.82276670448482036590576171875" lon="-1.64367101155221462249755859375">
        <ele>415.79998779296875</ele>
        <time>2020-02-16T08:51:47.000Z</time>
      </trkpt>
      <trkpt lat="42.822766117751598358154296875" lon="-1.64378517307341098785400390625">
        <ele>415.600006103515625</ele>
        <time>2020-02-16T08:51:48.000Z</time>
      </trkpt>
      <trkpt lat="42.822765447199344635009765625" lon="-1.64412966929376125335693359375">
        <ele>414.399993896484375</ele>
        <time>2020-02-16T08:51:51.000Z</time>
      </trkpt>
      <trkpt lat="42.8227637708187103271484375" lon="-1.64435841143131256103515625">
        <ele>413.399993896484375</ele>
        <time>2020-02-16T08:51:53.000Z</time>
      </trkpt>
      <trkpt lat="42.8227572329342365264892578125" lon="-1.6448175720870494842529296875">
        <ele>412.399993896484375</ele>
        <time>2020-02-16T08:51:57.000Z</time>
      </trkpt>
      <trkpt lat="42.82275530509650707244873046875" lon="-1.64493248797953128814697265625">
        <ele>412.20001220703125</ele>
        <time>2020-02-16T08:51:58.000Z</time>
      </trkpt>
      <trkpt lat="42.8227579034864902496337890625" lon="-1.64504698477685451507568359375">
        <ele>412.20001220703125</ele>
        <time>2020-02-16T08:51:59.000Z</time>
      </trkpt>
      <trkpt lat="42.8227693028748035430908203125" lon="-1.6451602242887020111083984375">
        <ele>412</ele>
        <time>2020-02-16T08:52:00.000Z</time>
      </trkpt>
      <trkpt lat="42.8228239528834819793701171875" lon="-1.6453748010098934173583984375">
        <ele>411.399993896484375</ele>
        <time>2020-02-16T08:52:02.000Z</time>
      </trkpt>
      <trkpt lat="42.82284549437463283538818359375" lon="-1.64548167027533054351806640625">
        <ele>411.20001220703125</ele>
        <time>2020-02-16T08:52:03.000Z</time>
      </trkpt>
      <trkpt lat="42.82284935005009174346923828125" lon="-1.64558979682624340057373046875">
        <ele>411</ele>
        <time>2020-02-16T08:52:04.000Z</time>
      </trkpt>
      <trkpt lat="42.8228336758911609649658203125" lon="-1.64569071494042873382568359375">
        <ele>410.600006103515625</ele>
        <time>2020-02-16T08:52:05.000Z</time>
      </trkpt>
      <trkpt lat="42.82268464565277099609375" lon="-1.64587930776178836822509765625">
        <ele>409.79998779296875</ele>
        <time>2020-02-16T08:52:08.000Z</time>
      </trkpt>
      <trkpt lat="42.8224511258304119110107421875" lon="-1.64604996331036090850830078125">
        <ele>409.399993896484375</ele>
        <time>2020-02-16T08:52:12.000Z</time>
      </trkpt>
      <trkpt lat="42.8223746828734874725341796875" lon="-1.64620787836611270904541015625">
        <ele>409.20001220703125</ele>
        <time>2020-02-16T08:52:14.000Z</time>
      </trkpt>
      <trkpt lat="42.822248451411724090576171875" lon="-1.6465424001216888427734375">
        <ele>409</ele>
        <time>2020-02-16T08:52:18.000Z</time>
      </trkpt>
      <trkpt lat="42.8220099024474620819091796875" lon="-1.64719744585454463958740234375">
        <ele>408.79998779296875</ele>
        <time>2020-02-16T08:52:26.000Z</time>
      </trkpt>
      <trkpt lat="42.82191216945648193359375" lon="-1.64743649773299694061279296875">
        <ele>408.600006103515625</ele>
        <time>2020-02-16T08:52:29.000Z</time>
      </trkpt>
      <trkpt lat="42.821697928011417388916015625" lon="-1.648015268146991729736328125">
        <ele>408.399993896484375</ele>
        <time>2020-02-16T08:52:36.000Z</time>
      </trkpt>
      <trkpt lat="42.82151863910257816314697265625" lon="-1.648519523441791534423828125">
        <ele>408.20001220703125</ele>
        <time>2020-02-16T08:52:42.000Z</time>
      </trkpt>
      <trkpt lat="42.82144479453563690185546875" lon="-1.6487761773169040679931640625">
        <ele>408</ele>
        <time>2020-02-16T08:52:45.000Z</time>
      </trkpt>
      <trkpt lat="42.8213958442211151123046875" lon="-1.64903945289552211761474609375">
        <ele>408</ele>
        <time>2020-02-16T08:52:48.000Z</time>
      </trkpt>
      <trkpt lat="42.82137245871126651763916015625" lon="-1.64912545122206211090087890625">
        <ele>407.79998779296875</ele>
        <time>2020-02-16T08:52:49.000Z</time>
      </trkpt>
      <trkpt lat="42.82129685394465923309326171875" lon="-1.649277247488498687744140625">
        <ele>407.79998779296875</ele>
        <time>2020-02-16T08:52:51.000Z</time>
      </trkpt>
      <trkpt lat="42.82110960222780704498291015625" lon="-1.64965166710317134857177734375">
        <ele>407.600006103515625</ele>
        <time>2020-02-16T08:52:56.000Z</time>
      </trkpt>
      <trkpt lat="42.82107842154800891876220703125" lon="-1.6497315466403961181640625">
        <ele>407.600006103515625</ele>
        <time>2020-02-16T08:52:57.000Z</time>
      </trkpt>
      <trkpt lat="42.82086485065519809722900390625" lon="-1.65036278776824474334716796875">
        <ele>407.20001220703125</ele>
        <time>2020-02-16T08:53:05.000Z</time>
      </trkpt>
      <trkpt lat="42.820745743811130523681640625" lon="-1.65085136890411376953125">
        <ele>407.399993896484375</ele>
        <time>2020-02-16T08:53:11.000Z</time>
      </trkpt>
      <trkpt lat="42.820772565901279449462890625" lon="-1.65129418484866619110107421875">
        <ele>407.600006103515625</ele>
        <time>2020-02-16T08:53:16.000Z</time>
      </trkpt>
      <trkpt lat="42.82080802135169506072998046875" lon="-1.651457212865352630615234375">
        <ele>407.600006103515625</ele>
        <time>2020-02-16T08:53:18.000Z</time>
      </trkpt>
      <trkpt lat="42.82082478515803813934326171875" lon="-1.6515769064426422119140625">
        <ele>407.600006103515625</ele>
        <time>2020-02-16T08:53:20.000Z</time>
      </trkpt>
      <trkpt lat="42.8207908384501934051513671875" lon="-1.6516364179551601409912109375">
        <ele>407.79998779296875</ele>
        <time>2020-02-16T08:53:22.000Z</time>
      </trkpt>
      <trkpt lat="42.820770554244518280029296875" lon="-1.65163583122193813323974609375">
        <ele>407.79998779296875</ele>
        <time>2020-02-16T08:53:23.000Z</time>
      </trkpt>
      <trkpt lat="42.820703499019145965576171875" lon="-1.6515519283711910247802734375">
        <ele>407.79998779296875</ele>
        <time>2020-02-16T08:53:26.000Z</time>
      </trkpt>
      <trkpt lat="42.82058606855571269989013671875" lon="-1.65160842239856719970703125">
        <ele>408.600006103515625</ele>
        <time>2020-02-16T08:53:29.000Z</time>
      </trkpt>
      <trkpt lat="42.82052555121481418609619140625" lon="-1.6516868770122528076171875">
        <ele>408.79998779296875</ele>
        <time>2020-02-16T08:53:31.000Z</time>
      </trkpt>
      <trkpt lat="42.82040837220847606658935546875" lon="-1.6518520005047321319580078125">
        <ele>409</ele>
        <time>2020-02-16T08:53:35.000Z</time>
      </trkpt>
      <trkpt lat="42.82038004137575626373291015625" lon="-1.65189399383962154388427734375">
        <ele>409.20001220703125</ele>
        <time>2020-02-16T08:53:36.000Z</time>
      </trkpt>
      <trkpt lat="42.82022011466324329376220703125" lon="-1.6521182097494602203369140625">
        <ele>409.600006103515625</ele>
        <time>2020-02-16T08:53:42.000Z</time>
      </trkpt>
      <trkpt lat="42.82019010744988918304443359375" lon="-1.65214997716248035430908203125">
        <ele>409.600006103515625</ele>
        <time>2020-02-16T08:53:43.000Z</time>
      </trkpt>
      <trkpt lat="42.8199610300362110137939453125" lon="-1.652482487261295318603515625">
        <ele>410.399993896484375</ele>
        <time>2020-02-16T08:53:51.000Z</time>
      </trkpt>
      <trkpt lat="42.819779813289642333984375" lon="-1.65277593769133090972900390625">
        <ele>410.600006103515625</ele>
        <time>2020-02-16T08:53:58.000Z</time>
      </trkpt>
      <trkpt lat="42.81975843943655490875244140625" lon="-1.6528115607798099517822265625">
        <ele>410.600006103515625</ele>
        <time>2020-02-16T08:53:59.000Z</time>
      </trkpt>
      <trkpt lat="42.81968367286026477813720703125" lon="-1.65303896181285381317138671875">
        <ele>410.600006103515625</ele>
        <time>2020-02-16T08:54:05.000Z</time>
      </trkpt>
      <trkpt lat="42.81967051327228546142578125" lon="-1.65325270034372806549072265625">
        <ele>411</ele>
        <time>2020-02-16T08:54:07.000Z</time>
      </trkpt>
      <trkpt lat="42.81953179277479648590087890625" lon="-1.65341279469430446624755859375">
        <ele>411.20001220703125</ele>
        <time>2020-02-16T08:54:10.000Z</time>
      </trkpt>
      <trkpt lat="42.81963237561285495758056640625" lon="-1.65352192707359790802001953125">
        <ele>411.399993896484375</ele>
        <time>2020-02-16T08:54:12.000Z</time>
      </trkpt>
      <trkpt lat="42.81959800980985164642333984375" lon="-1.65361261926591396331787109375">
        <ele>411.600006103515625</ele>
        <time>2020-02-16T08:54:13.000Z</time>
      </trkpt>
      <trkpt lat="42.81959884800016880035400390625" lon="-1.6537976078689098358154296875">
        <ele>412.20001220703125</ele>
        <time>2020-02-16T08:54:16.000Z</time>
      </trkpt>
      <trkpt lat="42.8196770511567592620849609375" lon="-1.653948985040187835693359375">
        <ele>412.79998779296875</ele>
        <time>2020-02-16T08:54:18.000Z</time>
      </trkpt>
      <trkpt lat="42.81969171948730945587158203125" lon="-1.65401436388492584228515625">
        <ele>413</ele>
        <time>2020-02-16T08:54:19.000Z</time>
      </trkpt>
      <trkpt lat="42.8197072260081768035888671875" lon="-1.6542001068592071533203125">
        <ele>413.600006103515625</ele>
        <time>2020-02-16T08:54:22.000Z</time>
      </trkpt>
      <trkpt lat="42.81972407363355159759521484375" lon="-1.6543665714561939239501953125">
        <ele>413.79998779296875</ele>
        <time>2020-02-16T08:54:25.000Z</time>
      </trkpt>
      <trkpt lat="42.81972960568964481353759765625" lon="-1.6544254124164581298828125">
        <ele>414</ele>
        <time>2020-02-16T08:54:26.000Z</time>
      </trkpt>
      <trkpt lat="42.81975206919014453887939453125" lon="-1.6547642089426517486572265625">
        <ele>414.600006103515625</ele>
        <time>2020-02-16T08:54:32.000Z</time>
      </trkpt>
      <trkpt lat="42.81975810416042804718017578125" lon="-1.65482103824615478515625">
        <ele>414.600006103515625</ele>
        <time>2020-02-16T08:54:33.000Z</time>
      </trkpt>
      <trkpt lat="42.8198182024061679840087890625" lon="-1.6549365408718585968017578125">
        <ele>414.600006103515625</ele>
        <time>2020-02-16T08:54:36.000Z</time>
      </trkpt>
      <trkpt lat="42.81988081522285938262939453125" lon="-1.6549318470060825347900390625">
        <ele>414.79998779296875</ele>
        <time>2020-02-16T08:54:38.000Z</time>
      </trkpt>
      <trkpt lat="42.81998273916542530059814453125" lon="-1.6549323499202728271484375">
        <ele>415</ele>
        <time>2020-02-16T08:54:41.000Z</time>
      </trkpt>
      <trkpt lat="42.8201253153383731842041015625" lon="-1.6550475172698497772216796875">
        <ele>415.399993896484375</ele>
        <time>2020-02-16T08:54:45.000Z</time>
      </trkpt>
      <trkpt lat="42.82024123705923557281494140625" lon="-1.6551588289439678192138671875">
        <ele>415.600006103515625</ele>
        <time>2020-02-16T08:54:48.000Z</time>
      </trkpt>
      <trkpt lat="42.82031424343585968017578125" lon="-1.65524876676499843597412109375">
        <ele>415.600006103515625</ele>
        <time>2020-02-16T08:54:50.000Z</time>
      </trkpt>
      <trkpt lat="42.8203465975821018218994140625" lon="-1.655300147831439971923828125">
        <ele>415.600006103515625</ele>
        <time>2020-02-16T08:54:51.000Z</time>
      </trkpt>
      <trkpt lat="42.82043896615505218505859375" lon="-1.655454374849796295166015625">
        <ele>415.20001220703125</ele>
        <time>2020-02-16T08:54:54.000Z</time>
      </trkpt>
      <trkpt lat="42.82051163725554943084716796875" lon="-1.6555383615195751190185546875">
        <ele>415</ele>
        <time>2020-02-16T08:54:56.000Z</time>
      </trkpt>
      <trkpt lat="42.82054399140179157257080078125" lon="-1.6555846296250820159912109375">
        <ele>414.600006103515625</ele>
        <time>2020-02-16T08:54:57.000Z</time>
      </trkpt>
      <trkpt lat="42.82059612683951854705810546875" lon="-1.6556860506534576416015625">
        <ele>414.399993896484375</ele>
        <time>2020-02-16T08:54:59.000Z</time>
      </trkpt>
      <trkpt lat="42.82060584984719753265380859375" lon="-1.65579912252724170684814453125">
        <ele>414.20001220703125</ele>
        <time>2020-02-16T08:55:01.000Z</time>
      </trkpt>
      <trkpt lat="42.82059051096439361572265625" lon="-1.655900292098522186279296875">
        <ele>414.20001220703125</ele>
        <time>2020-02-16T08:55:03.000Z</time>
      </trkpt>
      <trkpt lat="42.820526473224163055419921875" lon="-1.65602392517030239105224609375">
        <ele>414</ele>
        <time>2020-02-16T08:55:06.000Z</time>
      </trkpt>
      <trkpt lat="42.82049302943050861358642578125" lon="-1.65604856796562671661376953125">
        <ele>414</ele>
        <time>2020-02-16T08:55:08.000Z</time>
      </trkpt>
      <trkpt lat="42.8204880841076374053955078125" lon="-1.65605762042105197906494140625">
        <ele>414</ele>
        <time>2020-02-16T08:55:09.000Z</time>
      </trkpt>
      <trkpt lat="42.82048515044152736663818359375" lon="-1.6560637392103672027587890625">
        <ele>414</ele>
        <time>2020-02-16T08:55:10.000Z</time>
      </trkpt>
      <trkpt lat="42.82041038386523723602294921875" lon="-1.6560516692698001861572265625">
        <ele>423.399993896484375</ele>
        <time>2020-02-16T08:59:31.000Z</time>
      </trkpt>
      <trkpt lat="42.82037719152867794036865234375" lon="-1.6559918224811553955078125">
        <ele>423.399993896484375</ele>
        <time>2020-02-16T08:59:33.000Z</time>
      </trkpt>
      <trkpt lat="42.820340059697628021240234375" lon="-1.65593021549284458160400390625">
        <ele>423.399993896484375</ele>
        <time>2020-02-16T08:59:35.000Z</time>
      </trkpt>
      <trkpt lat="42.82034383155405521392822265625" lon="-1.65580876171588897705078125">
        <ele>423.399993896484375</ele>
        <time>2020-02-16T08:59:38.000Z</time>
      </trkpt>
      <trkpt lat="42.82041071914136409759521484375" lon="-1.655576415359973907470703125">
        <ele>423.399993896484375</ele>
        <time>2020-02-16T08:59:43.000Z</time>
      </trkpt>
      <trkpt lat="42.82041558064520359039306640625" lon="-1.655493937432765960693359375">
        <ele>423.399993896484375</ele>
        <time>2020-02-16T08:59:45.000Z</time>
      </trkpt>
      <trkpt lat="42.82038263976573944091796875" lon="-1.655414812266826629638671875">
        <ele>423.600006103515625</ele>
        <time>2020-02-16T08:59:47.000Z</time>
      </trkpt>
      <trkpt lat="42.82026789151132106781005859375" lon="-1.65526284836232662200927734375">
        <ele>424.20001220703125</ele>
        <time>2020-02-16T08:59:51.000Z</time>
      </trkpt>
      <trkpt lat="42.82020905055105686187744140625" lon="-1.65519277565181255340576171875">
        <ele>424.399993896484375</ele>
        <time>2020-02-16T08:59:53.000Z</time>
      </trkpt>
      <trkpt lat="42.8201769478619098663330078125" lon="-1.65516109205782413482666015625">
        <ele>424.399993896484375</ele>
        <time>2020-02-16T08:59:54.000Z</time>
      </trkpt>
      <trkpt lat="42.8200569190084934234619140625" lon="-1.65503226220607757568359375">
        <ele>424.79998779296875</ele>
        <time>2020-02-16T08:59:58.000Z</time>
      </trkpt>
      <trkpt lat="42.8199945576488971710205078125" lon="-1.65498775430023670196533203125">
        <ele>425</ele>
        <time>2020-02-16T09:00:00.000Z</time>
      </trkpt>
      <trkpt lat="42.8198423422873020172119140625" lon="-1.6549858264625072479248046875">
        <ele>425.600006103515625</ele>
        <time>2020-02-16T09:00:04.000Z</time>
      </trkpt>
      <trkpt lat="42.81980537809431552886962890625" lon="-1.65499563328921794891357421875">
        <ele>425.79998779296875</ele>
        <time>2020-02-16T09:00:05.000Z</time>
      </trkpt>
      <trkpt lat="42.81977436505258083343505859375" lon="-1.65502312593162059783935546875">
        <ele>426</ele>
        <time>2020-02-16T09:00:06.000Z</time>
      </trkpt>
      <trkpt lat="42.8197623789310455322265625" lon="-1.65510057471692562103271484375">
        <ele>426</ele>
        <time>2020-02-16T09:00:08.000Z</time>
      </trkpt>
      <trkpt lat="42.819795906543731689453125" lon="-1.65532504208385944366455078125">
        <ele>426.79998779296875</ele>
        <time>2020-02-16T09:00:13.000Z</time>
      </trkpt>
      <trkpt lat="42.8197997622191905975341796875" lon="-1.65544037707149982452392578125">
        <ele>427</ele>
        <time>2020-02-16T09:00:15.000Z</time>
      </trkpt>
      <trkpt lat="42.81982281245291233062744140625" lon="-1.6557834483683109283447265625">
        <ele>427.79998779296875</ele>
        <time>2020-02-16T09:00:21.000Z</time>
      </trkpt>
      <trkpt lat="42.8198252432048320770263671875" lon="-1.6558414511382579803466796875">
        <ele>427.79998779296875</ele>
        <time>2020-02-16T09:00:22.000Z</time>
      </trkpt>
      <trkpt lat="42.81983706168830394744873046875" lon="-1.6560862027108669281005859375">
        <ele>428.79998779296875</ele>
        <time>2020-02-16T09:00:26.000Z</time>
      </trkpt>
      <trkpt lat="42.81984343193471431732177734375" lon="-1.65620279498398303985595703125">
        <ele>429.20001220703125</ele>
        <time>2020-02-16T09:00:28.000Z</time>
      </trkpt>
      <trkpt lat="42.81985692679882049560546875" lon="-1.65631595067679882049560546875">
        <ele>429.20001220703125</ele>
        <time>2020-02-16T09:00:30.000Z</time>
      </trkpt>
      <trkpt lat="42.81987142749130725860595703125" lon="-1.6565495543181896209716796875">
        <ele>429.79998779296875</ele>
        <time>2020-02-16T09:00:34.000Z</time>
      </trkpt>
      <trkpt lat="42.81989037059247493743896484375" lon="-1.6567819006741046905517578125">
        <ele>430.399993896484375</ele>
        <time>2020-02-16T09:00:38.000Z</time>
      </trkpt>
      <trkpt lat="42.819903194904327392578125" lon="-1.6568972356617450714111328125">
        <ele>430.79998779296875</ele>
        <time>2020-02-16T09:00:40.000Z</time>
      </trkpt>
      <trkpt lat="42.819954492151737213134765625" lon="-1.65725975297391414642333984375">
        <ele>431.79998779296875</ele>
        <time>2020-02-16T09:00:47.000Z</time>
      </trkpt>
      <trkpt lat="42.81993806362152099609375" lon="-1.65749394334852695465087890625">
        <ele>432</ele>
        <time>2020-02-16T09:00:51.000Z</time>
      </trkpt>
      <trkpt lat="42.81993747688829898834228515625" lon="-1.65755689144134521484375">
        <ele>432.20001220703125</ele>
        <time>2020-02-16T09:00:52.000Z</time>
      </trkpt>
      <trkpt lat="42.8199476189911365509033203125" lon="-1.65781396441161632537841796875">
        <ele>432.79998779296875</ele>
        <time>2020-02-16T09:00:56.000Z</time>
      </trkpt>
      <trkpt lat="42.8199580125510692596435546875" lon="-1.6579396091401576995849609375">
        <ele>433</ele>
        <time>2020-02-16T09:00:58.000Z</time>
      </trkpt>
      <trkpt lat="42.8199576772749423980712890625" lon="-1.65800339542329311370849609375">
        <ele>433.20001220703125</ele>
        <time>2020-02-16T09:00:59.000Z</time>
      </trkpt>
      <trkpt lat="42.81995214521884918212890625" lon="-1.65806424804031848907470703125">
        <ele>433.399993896484375</ele>
        <time>2020-02-16T09:01:00.000Z</time>
      </trkpt>
      <trkpt lat="42.8199114091694355010986328125" lon="-1.65832140482962131500244140625">
        <ele>434</ele>
        <time>2020-02-16T09:01:04.000Z</time>
      </trkpt>
      <trkpt lat="42.81989171169698238372802734375" lon="-1.658448390662670135498046875">
        <ele>434.20001220703125</ele>
        <time>2020-02-16T09:01:06.000Z</time>
      </trkpt>
      <trkpt lat="42.81981862150132656097412109375" lon="-1.65875139646232128143310546875">
        <ele>435</ele>
        <time>2020-02-16T09:01:11.000Z</time>
      </trkpt>
      <trkpt lat="42.81980328261852264404296875" lon="-1.6588108241558074951171875">
        <ele>435</ele>
        <time>2020-02-16T09:01:12.000Z</time>
      </trkpt>
      <trkpt lat="42.81978324986994266510009765625" lon="-1.65886572562158107757568359375">
        <ele>435.20001220703125</ele>
        <time>2020-02-16T09:01:13.000Z</time>
      </trkpt>
      <trkpt lat="42.8196964971721172332763671875" lon="-1.65906186215579509735107421875">
        <ele>436</ele>
        <time>2020-02-16T09:01:17.000Z</time>
      </trkpt>
      <trkpt lat="42.81964980997145175933837890625" lon="-1.65919412858784198760986328125">
        <ele>436.399993896484375</ele>
        <time>2020-02-16T09:01:20.000Z</time>
      </trkpt>
      <trkpt lat="42.8195791505277156829833984375" lon="-1.659336872398853302001953125">
        <ele>436.79998779296875</ele>
        <time>2020-02-16T09:01:23.000Z</time>
      </trkpt>
      <trkpt lat="42.81941478140652179718017578125" lon="-1.6596632637083530426025390625">
        <ele>437.399993896484375</ele>
        <time>2020-02-16T09:01:29.000Z</time>
      </trkpt>
      <trkpt lat="42.8193934075534343719482421875" lon="-1.65971850045025348663330078125">
        <ele>437.600006103515625</ele>
        <time>2020-02-16T09:01:30.000Z</time>
      </trkpt>
      <trkpt lat="42.81931235454976558685302734375" lon="-1.6598835401237010955810546875">
        <ele>438</ele>
        <time>2020-02-16T09:01:33.000Z</time>
      </trkpt>
      <trkpt lat="42.819156534969806671142578125" lon="-1.660140864551067352294921875">
        <ele>438.399993896484375</ele>
        <time>2020-02-16T09:01:38.000Z</time>
      </trkpt>
      <trkpt lat="42.8191030584275722503662109375" lon="-1.6602439619600772857666015625">
        <ele>438.399993896484375</ele>
        <time>2020-02-16T09:01:40.000Z</time>
      </trkpt>
      <trkpt lat="42.81899602152407169342041015625" lon="-1.66045459918677806854248046875">
        <ele>439</ele>
        <time>2020-02-16T09:01:44.000Z</time>
      </trkpt>
      <trkpt lat="42.8188127093017101287841796875" lon="-1.66081284172832965850830078125">
        <ele>439.79998779296875</ele>
        <time>2020-02-16T09:01:50.000Z</time>
      </trkpt>
      <trkpt lat="42.81872511841356754302978515625" lon="-1.66099322028458118438720703125">
        <ele>440.20001220703125</ele>
        <time>2020-02-16T09:01:53.000Z</time>
      </trkpt>
      <trkpt lat="42.818510793149471282958984375" lon="-1.6614134050905704498291015625">
        <ele>440.79998779296875</ele>
        <time>2020-02-16T09:02:00.000Z</time>
      </trkpt>
      <trkpt lat="42.81845136545598506927490234375" lon="-1.66151625104248523712158203125">
        <ele>441</ele>
        <time>2020-02-16T09:02:02.000Z</time>
      </trkpt>
      <trkpt lat="42.81840040348470211029052734375" lon="-1.6616152413189411163330078125">
        <ele>441.20001220703125</ele>
        <time>2020-02-16T09:02:04.000Z</time>
      </trkpt>
      <trkpt lat="42.81832446344196796417236328125" lon="-1.6617674566805362701416015625">
        <ele>441.20001220703125</ele>
        <time>2020-02-16T09:02:07.000Z</time>
      </trkpt>
      <trkpt lat="42.8182474337518215179443359375" lon="-1.6618693806231021881103515625">
        <ele>441.600006103515625</ele>
        <time>2020-02-16T09:02:10.000Z</time>
      </trkpt>
      <trkpt lat="42.8182186000049114227294921875" lon="-1.66186912916600704193115234375">
        <ele>441.79998779296875</ele>
        <time>2020-02-16T09:02:11.000Z</time>
      </trkpt>
      <trkpt lat="42.81816621311008930206298828125" lon="-1.6618402116000652313232421875">
        <ele>442</ele>
        <time>2020-02-16T09:02:13.000Z</time>
      </trkpt>
      <trkpt lat="42.818115167319774627685546875" lon="-1.6618516109883785247802734375">
        <ele>442</ele>
        <time>2020-02-16T09:02:15.000Z</time>
      </trkpt>
      <trkpt lat="42.818042747676372528076171875" lon="-1.6618599928915500640869140625">
        <ele>442.399993896484375</ele>
        <time>2020-02-16T09:02:18.000Z</time>
      </trkpt>
      <trkpt lat="42.818026654422283172607421875" lon="-1.66183342225849628448486328125">
        <ele>442.600006103515625</ele>
        <time>2020-02-16T09:02:19.000Z</time>
      </trkpt>
      <trkpt lat="42.81801114790141582489013671875" lon="-1.6618016548454761505126953125">
        <ele>442.79998779296875</ele>
        <time>2020-02-16T09:02:20.000Z</time>
      </trkpt>
      <trkpt lat="42.81796907074749469757080078125" lon="-1.66169277392327785491943359375">
        <ele>442.79998779296875</ele>
        <time>2020-02-16T09:02:23.000Z</time>
      </trkpt>
      <trkpt lat="42.8179557435214519500732421875" lon="-1.66161867789924144744873046875">
        <ele>443</ele>
        <time>2020-02-16T09:02:25.000Z</time>
      </trkpt>
      <trkpt lat="42.8179493732750415802001953125" lon="-1.66153586469590663909912109375">
        <ele>443.20001220703125</ele>
        <time>2020-02-16T09:02:27.000Z</time>
      </trkpt>
      <trkpt lat="42.81793906353414058685302734375" lon="-1.66144316084682941436767578125">
        <ele>443.20001220703125</ele>
        <time>2020-02-16T09:02:29.000Z</time>
      </trkpt>
      <trkpt lat="42.81793084926903247833251953125" lon="-1.66135045699775218963623046875">
        <ele>443.399993896484375</ele>
        <time>2020-02-16T09:02:31.000Z</time>
      </trkpt>
      <trkpt lat="42.81792280264198780059814453125" lon="-1.66126462630927562713623046875">
        <ele>443.600006103515625</ele>
        <time>2020-02-16T09:02:33.000Z</time>
      </trkpt>
      <trkpt lat="42.817899920046329498291015625" lon="-1.6610553301870822906494140625">
        <ele>444.20001220703125</ele>
        <time>2020-02-16T09:02:37.000Z</time>
      </trkpt>
      <trkpt lat="42.81788324005901813507080078125" lon="-1.661062538623809814453125">
        <ele>444.399993896484375</ele>
        <time>2020-02-16T09:02:38.000Z</time>
      </trkpt>
      <trkpt lat="42.8178622014820575714111328125" lon="-1.66105323471128940582275390625">
        <ele>444.399993896484375</ele>
        <time>2020-02-16T09:02:40.000Z</time>
      </trkpt>
      <trkpt lat="42.81785272993147373199462890625" lon="-1.661041080951690673828125">
        <ele>444.600006103515625</ele>
        <time>2020-02-16T09:02:41.000Z</time>
      </trkpt>
      <trkpt lat="42.81784719787538051605224609375" lon="-1.6609969921410083770751953125">
        <ele>444.600006103515625</ele>
        <time>2020-02-16T09:02:43.000Z</time>
      </trkpt>
      <trkpt lat="42.8178400732576847076416015625" lon="-1.6609413363039493560791015625">
        <ele>444.79998779296875</ele>
        <time>2020-02-16T09:02:45.000Z</time>
      </trkpt>
      <trkpt lat="42.81782305799424648284912109375" lon="-1.6608544997870922088623046875">
        <ele>445.20001220703125</ele>
        <time>2020-02-16T09:02:48.000Z</time>
      </trkpt>
      <trkpt lat="42.8178142569959163665771484375" lon="-1.6605825908482074737548828125">
        <ele>445.600006103515625</ele>
        <time>2020-02-16T09:02:53.000Z</time>
      </trkpt>
      <trkpt lat="42.817842923104763031005859375" lon="-1.66034781374037265777587890625">
        <ele>445.600006103515625</ele>
        <time>2020-02-16T09:02:56.000Z</time>
      </trkpt>
      <trkpt lat="42.81793571077287197113037109375" lon="-1.6599051654338836669921875">
        <ele>446.20001220703125</ele>
        <time>2020-02-16T09:03:04.000Z</time>
      </trkpt>
      <trkpt lat="42.81795733608305454254150390625" lon="-1.659796871244907379150390625">
        <ele>446.600006103515625</ele>
        <time>2020-02-16T09:03:06.000Z</time>
      </trkpt>
      <trkpt lat="42.81801969744265079498291015625" lon="-1.659490764141082763671875">
        <ele>447</ele>
        <time>2020-02-16T09:03:12.000Z</time>
      </trkpt>
      <trkpt lat="42.81814173795282840728759765625" lon="-1.65912673808634281158447265625">
        <ele>447.20001220703125</ele>
        <time>2020-02-16T09:03:22.000Z</time>
      </trkpt>
      <trkpt lat="42.81825657002627849578857421875" lon="-1.658832617104053497314453125">
        <ele>447.399993896484375</ele>
        <time>2020-02-16T09:03:31.000Z</time>
      </trkpt>
      <trkpt lat="42.81834826804697513580322265625" lon="-1.65864117443561553955078125">
        <ele>447.399993896484375</ele>
        <time>2020-02-16T09:03:37.000Z</time>
      </trkpt>
      <trkpt lat="42.81845421530306339263916015625" lon="-1.658371277153491973876953125">
        <ele>447.399993896484375</ele>
        <time>2020-02-16T09:03:45.000Z</time>
      </trkpt>
      <trkpt lat="42.81855077482759952545166015625" lon="-1.65817103348672389984130859375">
        <ele>447.399993896484375</ele>
        <time>2020-02-16T09:03:52.000Z</time>
      </trkpt>
      <trkpt lat="42.81850886531174182891845703125" lon="-1.65811202488839626312255859375">
        <ele>447.399993896484375</ele>
        <time>2020-02-16T09:03:55.000Z</time>
      </trkpt>
      <trkpt lat="42.81848422251641750335693359375" lon="-1.658092997968196868896484375">
        <ele>447.399993896484375</ele>
        <time>2020-02-16T09:03:56.000Z</time>
      </trkpt>
      <trkpt lat="42.81838648952543735504150390625" lon="-1.65802082978188991546630859375">
        <ele>447.399993896484375</ele>
        <time>2020-02-16T09:04:00.000Z</time>
      </trkpt>
      <trkpt lat="42.818299569189548492431640625" lon="-1.6579624079167842864990234375">
        <ele>447.600006103515625</ele>
        <time>2020-02-16T09:04:04.000Z</time>
      </trkpt>
      <trkpt lat="42.81827601604163646697998046875" lon="-1.6579744778573513031005859375">
        <ele>447.600006103515625</ele>
        <time>2020-02-16T09:04:05.000Z</time>
      </trkpt>
      <trkpt lat="42.818235196173191070556640625" lon="-1.6580194048583507537841796875">
        <ele>447.600006103515625</ele>
        <time>2020-02-16T09:04:07.000Z</time>
      </trkpt>
      <trkpt lat="42.8181200288236141204833984375" lon="-1.65815125219523906707763671875">
        <ele>447.399993896484375</ele>
        <time>2020-02-16T09:04:12.000Z</time>
      </trkpt>
      <trkpt lat="42.818012572824954986572265625" lon="-1.65831394493579864501953125">
        <ele>447.399993896484375</ele>
        <time>2020-02-16T09:04:16.000Z</time>
      </trkpt>
      <trkpt lat="42.817982733249664306640625" lon="-1.6583647392690181732177734375">
        <ele>447.399993896484375</ele>
        <time>2020-02-16T09:04:17.000Z</time>
      </trkpt>
      <trkpt lat="42.81789732165634632110595703125" lon="-1.65863472037017345428466796875">
        <ele>447.20001220703125</ele>
        <time>2020-02-16T09:04:21.000Z</time>
      </trkpt>
      <trkpt lat="42.81785943545401096343994140625" lon="-1.6587834991514682769775390625">
        <ele>447.20001220703125</ele>
        <time>2020-02-16T09:04:23.000Z</time>
      </trkpt>
      <trkpt lat="42.81783320009708404541015625" lon="-1.65884929709136486053466796875">
        <ele>447.20001220703125</ele>
        <time>2020-02-16T09:04:24.000Z</time>
      </trkpt>
      <trkpt lat="42.8177897818386554718017578125" lon="-1.65897251106798648834228515625">
        <ele>447</ele>
        <time>2020-02-16T09:04:26.000Z</time>
      </trkpt>
      <trkpt lat="42.81771392561495304107666015625" lon="-1.65914718993008136749267578125">
        <ele>447</ele>
        <time>2020-02-16T09:04:29.000Z</time>
      </trkpt>
      <trkpt lat="42.81757797114551067352294921875" lon="-1.6595348529517650604248046875">
        <ele>446.600006103515625</ele>
        <time>2020-02-16T09:04:35.000Z</time>
      </trkpt>
      <trkpt lat="42.81753907911479473114013671875" lon="-1.65965781547129154205322265625">
        <ele>446.399993896484375</ele>
        <time>2020-02-16T09:04:37.000Z</time>
      </trkpt>
      <trkpt lat="42.81743631698191165924072265625" lon="-1.659936346113681793212890625">
        <ele>446</ele>
        <time>2020-02-16T09:04:42.000Z</time>
      </trkpt>
      <trkpt lat="42.81741100363433361053466796875" lon="-1.65999107994139194488525390625">
        <ele>445.79998779296875</ele>
        <time>2020-02-16T09:04:43.000Z</time>
      </trkpt>
      <trkpt lat="42.81726700253784656524658203125" lon="-1.66031696833670139312744140625">
        <ele>445.600006103515625</ele>
        <time>2020-02-16T09:04:49.000Z</time>
      </trkpt>
      <trkpt lat="42.81719709746539592742919921875" lon="-1.66047018952667713165283203125">
        <ele>445.399993896484375</ele>
        <time>2020-02-16T09:04:52.000Z</time>
      </trkpt>
      <trkpt lat="42.81713926233351230621337890625" lon="-1.66058133356273174285888671875">
        <ele>445.20001220703125</ele>
        <time>2020-02-16T09:04:55.000Z</time>
      </trkpt>
      <trkpt lat="42.81713926233351230621337890625" lon="-1.6605835966765880584716796875">
        <ele>445</ele>
        <time>2020-02-16T09:04:58.000Z</time>
      </trkpt>
      <trkpt lat="42.81713909469544887542724609375" lon="-1.660584099590778350830078125">
        <ele>444.79998779296875</ele>
        <time>2020-02-16T09:04:59.000Z</time>
      </trkpt>
    </trkseg>
  </trk>
</gpx>
